<?xml version="1.0" encoding="UTF-8" standalone="no" ?>
<gpx xmlns="http://www.topografix.com/GPX/1/1" xmlns:xsi="http://www.w3.org/2001/XMLSchema-instance" xsi:schemaLocation="http://www.topografix.com/GPX/1/1 http://www.topografix.com/GPX/1/1/gpx.xsd" version="1.1" creator="VisuGPX - https://www.visugpx.com">
  <metadata>
    <name>sortie GR, les vallons de Couzon</name>
    <desc><![CDATA[Faite le 9/12/12 avec Guigui et Loïc]]></desc>
  </metadata>
  <trk>
    <name><![CDATA[2012-12-09T08:01:41Z]]></name>
    <trkseg>
      <trkpt lat="45.83788" lon="4.82524">
        <ele>197</ele>
        <time>2012-12-09T08:01:41Z</time>
      </trkpt>
      <trkpt lat="45.83789" lon="4.82518">
        <ele>197</ele>
        <time>2012-12-09T08:01:44Z</time>
      </trkpt>
      <trkpt lat="45.8379" lon="4.82516">
        <ele>197</ele>
        <time>2012-12-09T08:01:45Z</time>
      </trkpt>
      <trkpt lat="45.83791" lon="4.82508">
        <ele>197</ele>
        <time>2012-12-09T08:01:48Z</time>
      </trkpt>
      <trkpt lat="45.83796" lon="4.82503">
        <ele>197</ele>
        <time>2012-12-09T08:01:52Z</time>
      </trkpt>
      <trkpt lat="45.83797" lon="4.82503">
        <ele>197</ele>
        <time>2012-12-09T08:01:53Z</time>
      </trkpt>
      <trkpt lat="45.83807" lon="4.82501">
        <ele>197</ele>
        <time>2012-12-09T08:01:58Z</time>
      </trkpt>
      <trkpt lat="45.83814" lon="4.82499">
        <ele>198</ele>
        <time>2012-12-09T08:02:01Z</time>
      </trkpt>
      <trkpt lat="45.83821" lon="4.82498">
        <ele>197</ele>
        <time>2012-12-09T08:02:04Z</time>
      </trkpt>
      <trkpt lat="45.83827" lon="4.82497">
        <ele>197</ele>
        <time>2012-12-09T08:02:07Z</time>
      </trkpt>
      <trkpt lat="45.83831" lon="4.82494">
        <ele>197</ele>
        <time>2012-12-09T08:02:09Z</time>
      </trkpt>
      <trkpt lat="45.83832" lon="4.82491">
        <ele>197</ele>
        <time>2012-12-09T08:02:10Z</time>
      </trkpt>
      <trkpt lat="45.83835" lon="4.82478">
        <ele>202</ele>
        <time>2012-12-09T08:02:14Z</time>
      </trkpt>
      <trkpt lat="45.83835" lon="4.82475">
        <ele>202</ele>
        <time>2012-12-09T08:02:15Z</time>
      </trkpt>
      <trkpt lat="45.83837" lon="4.82464">
        <ele>203</ele>
        <time>2012-12-09T08:02:19Z</time>
      </trkpt>
      <trkpt lat="45.83838" lon="4.82461">
        <ele>203</ele>
        <time>2012-12-09T08:02:20Z</time>
      </trkpt>
      <trkpt lat="45.83839" lon="4.8244">
        <ele>203</ele>
        <time>2012-12-09T08:02:27Z</time>
      </trkpt>
      <trkpt lat="45.83839" lon="4.82438">
        <ele>202</ele>
        <time>2012-12-09T08:02:28Z</time>
      </trkpt>
      <trkpt lat="45.8384" lon="4.82424">
        <ele>201</ele>
        <time>2012-12-09T08:02:33Z</time>
      </trkpt>
      <trkpt lat="45.83841" lon="4.82409">
        <ele>202</ele>
        <time>2012-12-09T08:02:38Z</time>
      </trkpt>
      <trkpt lat="45.83842" lon="4.82403">
        <ele>203</ele>
        <time>2012-12-09T08:02:40Z</time>
      </trkpt>
      <trkpt lat="45.83843" lon="4.82387">
        <ele>205</ele>
        <time>2012-12-09T08:02:46Z</time>
      </trkpt>
      <trkpt lat="45.83844" lon="4.82382">
        <ele>206</ele>
        <time>2012-12-09T08:02:48Z</time>
      </trkpt>
      <trkpt lat="45.83845" lon="4.82368">
        <ele>207</ele>
        <time>2012-12-09T08:02:53Z</time>
      </trkpt>
      <trkpt lat="45.83848" lon="4.82355">
        <ele>207</ele>
        <time>2012-12-09T08:02:58Z</time>
      </trkpt>
      <trkpt lat="45.83849" lon="4.82352">
        <ele>207</ele>
        <time>2012-12-09T08:02:59Z</time>
      </trkpt>
      <trkpt lat="45.83852" lon="4.82345">
        <ele>207</ele>
        <time>2012-12-09T08:03:02Z</time>
      </trkpt>
      <trkpt lat="45.83852" lon="4.82342">
        <ele>207</ele>
        <time>2012-12-09T08:03:03Z</time>
      </trkpt>
      <trkpt lat="45.83853" lon="4.8233">
        <ele>209</ele>
        <time>2012-12-09T08:03:07Z</time>
      </trkpt>
      <trkpt lat="45.83853" lon="4.82325">
        <ele>209</ele>
        <time>2012-12-09T08:03:09Z</time>
      </trkpt>
      <trkpt lat="45.83855" lon="4.82304">
        <ele>211</ele>
        <time>2012-12-09T08:03:16Z</time>
      </trkpt>
      <trkpt lat="45.83856" lon="4.8229">
        <ele>211</ele>
        <time>2012-12-09T08:03:21Z</time>
      </trkpt>
      <trkpt lat="45.83856" lon="4.82288">
        <ele>211</ele>
        <time>2012-12-09T08:03:22Z</time>
      </trkpt>
      <trkpt lat="45.83858" lon="4.8228">
        <ele>212</ele>
        <time>2012-12-09T08:03:25Z</time>
      </trkpt>
      <trkpt lat="45.83858" lon="4.82278">
        <ele>212</ele>
        <time>2012-12-09T08:03:26Z</time>
      </trkpt>
      <trkpt lat="45.83859" lon="4.82274">
        <ele>212</ele>
        <time>2012-12-09T08:03:28Z</time>
      </trkpt>
      <trkpt lat="45.83858" lon="4.82263">
        <ele>212</ele>
        <time>2012-12-09T08:03:32Z</time>
      </trkpt>
      <trkpt lat="45.83859" lon="4.82253">
        <ele>212</ele>
        <time>2012-12-09T08:03:36Z</time>
      </trkpt>
      <trkpt lat="45.83859" lon="4.82245">
        <ele>214</ele>
        <time>2012-12-09T08:03:39Z</time>
      </trkpt>
      <trkpt lat="45.83858" lon="4.82228">
        <ele>215</ele>
        <time>2012-12-09T08:03:45Z</time>
      </trkpt>
      <trkpt lat="45.83858" lon="4.82226">
        <ele>215</ele>
        <time>2012-12-09T08:03:46Z</time>
      </trkpt>
      <trkpt lat="45.8386" lon="4.82209">
        <ele>216</ele>
        <time>2012-12-09T08:03:52Z</time>
      </trkpt>
      <trkpt lat="45.8386" lon="4.82199">
        <ele>216</ele>
        <time>2012-12-09T08:03:56Z</time>
      </trkpt>
      <trkpt lat="45.83861" lon="4.82194">
        <ele>216</ele>
        <time>2012-12-09T08:03:58Z</time>
      </trkpt>
      <trkpt lat="45.83863" lon="4.82179">
        <ele>217</ele>
        <time>2012-12-09T08:04:04Z</time>
      </trkpt>
      <trkpt lat="45.83864" lon="4.82171">
        <ele>217</ele>
        <time>2012-12-09T08:04:07Z</time>
      </trkpt>
      <trkpt lat="45.83865" lon="4.82163">
        <ele>220</ele>
        <time>2012-12-09T08:04:11Z</time>
      </trkpt>
      <trkpt lat="45.83868" lon="4.82149">
        <ele>220</ele>
        <time>2012-12-09T08:04:15Z</time>
      </trkpt>
      <trkpt lat="45.83868" lon="4.82144">
        <ele>220</ele>
        <time>2012-12-09T08:04:17Z</time>
      </trkpt>
      <trkpt lat="45.83869" lon="4.82133">
        <ele>221</ele>
        <time>2012-12-09T08:04:21Z</time>
      </trkpt>
      <trkpt lat="45.8387" lon="4.82116">
        <ele>221</ele>
        <time>2012-12-09T08:04:27Z</time>
      </trkpt>
      <trkpt lat="45.83872" lon="4.82093">
        <ele>222</ele>
        <time>2012-12-09T08:04:35Z</time>
      </trkpt>
      <trkpt lat="45.83872" lon="4.8209">
        <ele>222</ele>
        <time>2012-12-09T08:04:36Z</time>
      </trkpt>
      <trkpt lat="45.83872" lon="4.82076">
        <ele>225</ele>
        <time>2012-12-09T08:04:41Z</time>
      </trkpt>
      <trkpt lat="45.83872" lon="4.82062">
        <ele>226</ele>
        <time>2012-12-09T08:04:46Z</time>
      </trkpt>
      <trkpt lat="45.83872" lon="4.82057">
        <ele>226</ele>
        <time>2012-12-09T08:04:48Z</time>
      </trkpt>
      <trkpt lat="45.83873" lon="4.82038">
        <ele>226</ele>
        <time>2012-12-09T08:04:55Z</time>
      </trkpt>
      <trkpt lat="45.83874" lon="4.82035">
        <ele>226</ele>
        <time>2012-12-09T08:04:56Z</time>
      </trkpt>
      <trkpt lat="45.83875" lon="4.82022">
        <ele>227</ele>
        <time>2012-12-09T08:05:01Z</time>
      </trkpt>
      <trkpt lat="45.83876" lon="4.82012">
        <ele>227</ele>
        <time>2012-12-09T08:05:05Z</time>
      </trkpt>
      <trkpt lat="45.83876" lon="4.82009">
        <ele>227</ele>
        <time>2012-12-09T08:05:06Z</time>
      </trkpt>
      <trkpt lat="45.83874" lon="4.81998">
        <ele>231</ele>
        <time>2012-12-09T08:05:11Z</time>
      </trkpt>
      <trkpt lat="45.83873" lon="4.81995">
        <ele>231</ele>
        <time>2012-12-09T08:05:12Z</time>
      </trkpt>
      <trkpt lat="45.8387" lon="4.81984">
        <ele>231</ele>
        <time>2012-12-09T08:05:16Z</time>
      </trkpt>
      <trkpt lat="45.83868" lon="4.81976">
        <ele>232</ele>
        <time>2012-12-09T08:05:19Z</time>
      </trkpt>
      <trkpt lat="45.83867" lon="4.81962">
        <ele>232</ele>
        <time>2012-12-09T08:05:25Z</time>
      </trkpt>
      <trkpt lat="45.83866" lon="4.81956">
        <ele>232</ele>
        <time>2012-12-09T08:05:27Z</time>
      </trkpt>
      <trkpt lat="45.83866" lon="4.81947">
        <ele>233</ele>
        <time>2012-12-09T08:05:31Z</time>
      </trkpt>
      <trkpt lat="45.83868" lon="4.81935">
        <ele>233</ele>
        <time>2012-12-09T08:05:36Z</time>
      </trkpt>
      <trkpt lat="45.83869" lon="4.8193">
        <ele>233</ele>
        <time>2012-12-09T08:05:38Z</time>
      </trkpt>
      <trkpt lat="45.83868" lon="4.8192">
        <ele>234</ele>
        <time>2012-12-09T08:05:42Z</time>
      </trkpt>
      <trkpt lat="45.83869" lon="4.81915">
        <ele>238</ele>
        <time>2012-12-09T08:05:44Z</time>
      </trkpt>
      <trkpt lat="45.83869" lon="4.8191">
        <ele>238</ele>
        <time>2012-12-09T08:05:46Z</time>
      </trkpt>
      <trkpt lat="45.83869" lon="4.81905">
        <ele>238</ele>
        <time>2012-12-09T08:05:48Z</time>
      </trkpt>
      <trkpt lat="45.83869" lon="4.81895">
        <ele>238</ele>
        <time>2012-12-09T08:05:52Z</time>
      </trkpt>
      <trkpt lat="45.83868" lon="4.8188">
        <ele>239</ele>
        <time>2012-12-09T08:05:58Z</time>
      </trkpt>
      <trkpt lat="45.83868" lon="4.81877">
        <ele>239</ele>
        <time>2012-12-09T08:05:59Z</time>
      </trkpt>
      <trkpt lat="45.83868" lon="4.81865">
        <ele>239</ele>
        <time>2012-12-09T08:06:04Z</time>
      </trkpt>
      <trkpt lat="45.83863" lon="4.81851">
        <ele>240</ele>
        <time>2012-12-09T08:06:11Z</time>
      </trkpt>
      <trkpt lat="45.83862" lon="4.81848">
        <ele>240</ele>
        <time>2012-12-09T08:06:13Z</time>
      </trkpt>
      <trkpt lat="45.83859" lon="4.81843">
        <ele>240</ele>
        <time>2012-12-09T08:06:16Z</time>
      </trkpt>
      <trkpt lat="45.83857" lon="4.81841">
        <ele>240</ele>
        <time>2012-12-09T08:06:18Z</time>
      </trkpt>
      <trkpt lat="45.83856" lon="4.81836">
        <ele>240</ele>
        <time>2012-12-09T08:06:21Z</time>
      </trkpt>
      <trkpt lat="45.83853" lon="4.8183">
        <ele>243</ele>
        <time>2012-12-09T08:06:24Z</time>
      </trkpt>
      <trkpt lat="45.83851" lon="4.81823">
        <ele>243</ele>
        <time>2012-12-09T08:06:27Z</time>
      </trkpt>
      <trkpt lat="45.83847" lon="4.81809">
        <ele>244</ele>
        <time>2012-12-09T08:06:34Z</time>
      </trkpt>
      <trkpt lat="45.83845" lon="4.81804">
        <ele>245</ele>
        <time>2012-12-09T08:06:36Z</time>
      </trkpt>
      <trkpt lat="45.83844" lon="4.81797">
        <ele>245</ele>
        <time>2012-12-09T08:06:39Z</time>
      </trkpt>
      <trkpt lat="45.83841" lon="4.81782">
        <ele>246</ele>
        <time>2012-12-09T08:06:46Z</time>
      </trkpt>
      <trkpt lat="45.83841" lon="4.81779">
        <ele>246</ele>
        <time>2012-12-09T08:06:47Z</time>
      </trkpt>
      <trkpt lat="45.83838" lon="4.81768">
        <ele>247</ele>
        <time>2012-12-09T08:06:51Z</time>
      </trkpt>
      <trkpt lat="45.83835" lon="4.81756">
        <ele>248</ele>
        <time>2012-12-09T08:06:57Z</time>
      </trkpt>
      <trkpt lat="45.83834" lon="4.81754">
        <ele>249</ele>
        <time>2012-12-09T08:06:58Z</time>
      </trkpt>
      <trkpt lat="45.83832" lon="4.81741">
        <ele>254</ele>
        <time>2012-12-09T08:07:03Z</time>
      </trkpt>
      <trkpt lat="45.83833" lon="4.81738">
        <ele>255</ele>
        <time>2012-12-09T08:07:05Z</time>
      </trkpt>
      <trkpt lat="45.83831" lon="4.81732">
        <ele>257</ele>
        <time>2012-12-09T08:07:08Z</time>
      </trkpt>
      <trkpt lat="45.8383" lon="4.81728">
        <ele>258</ele>
        <time>2012-12-09T08:07:10Z</time>
      </trkpt>
      <trkpt lat="45.83828" lon="4.81723">
        <ele>260</ele>
        <time>2012-12-09T08:07:12Z</time>
      </trkpt>
      <trkpt lat="45.83828" lon="4.81718">
        <ele>261</ele>
        <time>2012-12-09T08:07:14Z</time>
      </trkpt>
      <trkpt lat="45.83824" lon="4.81707">
        <ele>263</ele>
        <time>2012-12-09T08:07:20Z</time>
      </trkpt>
      <trkpt lat="45.83822" lon="4.81703">
        <ele>263</ele>
        <time>2012-12-09T08:07:22Z</time>
      </trkpt>
      <trkpt lat="45.8382" lon="4.81698">
        <ele>264</ele>
        <time>2012-12-09T08:07:24Z</time>
      </trkpt>
      <trkpt lat="45.8382" lon="4.81697">
        <ele>264</ele>
        <time>2012-12-09T08:07:25Z</time>
      </trkpt>
      <trkpt lat="45.83817" lon="4.81688">
        <ele>265</ele>
        <time>2012-12-09T08:07:31Z</time>
      </trkpt>
      <trkpt lat="45.83816" lon="4.81684">
        <ele>265</ele>
        <time>2012-12-09T08:07:33Z</time>
      </trkpt>
      <trkpt lat="45.83813" lon="4.81679">
        <ele>265</ele>
        <time>2012-12-09T08:07:36Z</time>
      </trkpt>
      <trkpt lat="45.83811" lon="4.81677">
        <ele>265</ele>
        <time>2012-12-09T08:07:38Z</time>
      </trkpt>
      <trkpt lat="45.83807" lon="4.81668">
        <ele>266</ele>
        <time>2012-12-09T08:07:43Z</time>
      </trkpt>
      <trkpt lat="45.83804" lon="4.8166">
        <ele>276</ele>
        <time>2012-12-09T08:07:48Z</time>
      </trkpt>
      <trkpt lat="45.83803" lon="4.81657">
        <ele>276</ele>
        <time>2012-12-09T08:07:51Z</time>
      </trkpt>
      <trkpt lat="45.83802" lon="4.81651">
        <ele>277</ele>
        <time>2012-12-09T08:07:54Z</time>
      </trkpt>
      <trkpt lat="45.83799" lon="4.81642">
        <ele>278</ele>
        <time>2012-12-09T08:08:00Z</time>
      </trkpt>
      <trkpt lat="45.83797" lon="4.8163">
        <ele>280</ele>
        <time>2012-12-09T08:08:05Z</time>
      </trkpt>
      <trkpt lat="45.83793" lon="4.81619">
        <ele>281</ele>
        <time>2012-12-09T08:08:13Z</time>
      </trkpt>
      <trkpt lat="45.83792" lon="4.81617">
        <ele>281</ele>
        <time>2012-12-09T08:08:14Z</time>
      </trkpt>
      <trkpt lat="45.8379" lon="4.81606">
        <ele>283</ele>
        <time>2012-12-09T08:08:20Z</time>
      </trkpt>
      <trkpt lat="45.8379" lon="4.81605">
        <ele>283</ele>
        <time>2012-12-09T08:08:21Z</time>
      </trkpt>
      <trkpt lat="45.83789" lon="4.81602">
        <ele>283</ele>
        <time>2012-12-09T08:08:22Z</time>
      </trkpt>
      <trkpt lat="45.83789" lon="4.81596">
        <ele>283</ele>
        <time>2012-12-09T08:08:26Z</time>
      </trkpt>
      <trkpt lat="45.83788" lon="4.8159">
        <ele>284</ele>
        <time>2012-12-09T08:08:30Z</time>
      </trkpt>
      <trkpt lat="45.83788" lon="4.81587">
        <ele>284</ele>
        <time>2012-12-09T08:08:31Z</time>
      </trkpt>
      <trkpt lat="45.83787" lon="4.81584">
        <ele>284</ele>
        <time>2012-12-09T08:08:32Z</time>
      </trkpt>
      <trkpt lat="45.83788" lon="4.81578">
        <ele>292</ele>
        <time>2012-12-09T08:08:37Z</time>
      </trkpt>
      <trkpt lat="45.83788" lon="4.81573">
        <ele>293</ele>
        <time>2012-12-09T08:08:40Z</time>
      </trkpt>
      <trkpt lat="45.83789" lon="4.81567">
        <ele>293</ele>
        <time>2012-12-09T08:08:43Z</time>
      </trkpt>
      <trkpt lat="45.83788" lon="4.81565">
        <ele>293</ele>
        <time>2012-12-09T08:08:44Z</time>
      </trkpt>
      <trkpt lat="45.83788" lon="4.8156">
        <ele>293</ele>
        <time>2012-12-09T08:08:48Z</time>
      </trkpt>
      <trkpt lat="45.83788" lon="4.81558">
        <ele>293</ele>
        <time>2012-12-09T08:08:49Z</time>
      </trkpt>
      <trkpt lat="45.8379" lon="4.81551">
        <ele>294</ele>
        <time>2012-12-09T08:08:53Z</time>
      </trkpt>
      <trkpt lat="45.8379" lon="4.8155">
        <ele>294</ele>
        <time>2012-12-09T08:08:54Z</time>
      </trkpt>
      <trkpt lat="45.8379" lon="4.81541">
        <ele>294</ele>
        <time>2012-12-09T08:08:59Z</time>
      </trkpt>
      <trkpt lat="45.8379" lon="4.81537">
        <ele>294</ele>
        <time>2012-12-09T08:09:02Z</time>
      </trkpt>
      <trkpt lat="45.83787" lon="4.81529">
        <ele>295</ele>
        <time>2012-12-09T08:09:06Z</time>
      </trkpt>
      <trkpt lat="45.83785" lon="4.81525">
        <ele>296</ele>
        <time>2012-12-09T08:09:09Z</time>
      </trkpt>
      <trkpt lat="45.83785" lon="4.81521">
        <ele>296</ele>
        <time>2012-12-09T08:09:11Z</time>
      </trkpt>
      <trkpt lat="45.83785" lon="4.8152">
        <ele>296</ele>
        <time>2012-12-09T08:09:12Z</time>
      </trkpt>
      <trkpt lat="45.83786" lon="4.81516">
        <ele>296</ele>
        <time>2012-12-09T08:09:15Z</time>
      </trkpt>
      <trkpt lat="45.83786" lon="4.81514">
        <ele>296</ele>
        <time>2012-12-09T08:09:16Z</time>
      </trkpt>
      <trkpt lat="45.83786" lon="4.81508">
        <ele>297</ele>
        <time>2012-12-09T08:09:21Z</time>
      </trkpt>
      <trkpt lat="45.83785" lon="4.81504">
        <ele>297</ele>
        <time>2012-12-09T08:09:23Z</time>
      </trkpt>
      <trkpt lat="45.83785" lon="4.81502">
        <ele>297</ele>
        <time>2012-12-09T08:09:25Z</time>
      </trkpt>
      <trkpt lat="45.83785" lon="4.81497">
        <ele>305</ele>
        <time>2012-12-09T08:09:28Z</time>
      </trkpt>
      <trkpt lat="45.83784" lon="4.81493">
        <ele>305</ele>
        <time>2012-12-09T08:09:30Z</time>
      </trkpt>
      <trkpt lat="45.83784" lon="4.81485">
        <ele>306</ele>
        <time>2012-12-09T08:09:35Z</time>
      </trkpt>
      <trkpt lat="45.83784" lon="4.81484">
        <ele>306</ele>
        <time>2012-12-09T08:09:36Z</time>
      </trkpt>
      <trkpt lat="45.83784" lon="4.81483">
        <ele>306</ele>
        <time>2012-12-09T08:09:37Z</time>
      </trkpt>
      <trkpt lat="45.83783" lon="4.81478">
        <ele>306</ele>
        <time>2012-12-09T08:09:41Z</time>
      </trkpt>
      <trkpt lat="45.83783" lon="4.81476">
        <ele>307</ele>
        <time>2012-12-09T08:09:42Z</time>
      </trkpt>
      <trkpt lat="45.83782" lon="4.81472">
        <ele>307</ele>
        <time>2012-12-09T08:09:44Z</time>
      </trkpt>
      <trkpt lat="45.83781" lon="4.81466">
        <ele>308</ele>
        <time>2012-12-09T08:09:47Z</time>
      </trkpt>
      <trkpt lat="45.83784" lon="4.81457">
        <ele>308</ele>
        <time>2012-12-09T08:09:53Z</time>
      </trkpt>
      <trkpt lat="45.83784" lon="4.81455">
        <ele>308</ele>
        <time>2012-12-09T08:09:54Z</time>
      </trkpt>
      <trkpt lat="45.83781" lon="4.81446">
        <ele>310</ele>
        <time>2012-12-09T08:09:58Z</time>
      </trkpt>
      <trkpt lat="45.8378" lon="4.81442">
        <ele>310</ele>
        <time>2012-12-09T08:10:01Z</time>
      </trkpt>
      <trkpt lat="45.83781" lon="4.8144">
        <ele>310</ele>
        <time>2012-12-09T08:10:02Z</time>
      </trkpt>
      <trkpt lat="45.83781" lon="4.8143">
        <ele>311</ele>
        <time>2012-12-09T08:10:09Z</time>
      </trkpt>
      <trkpt lat="45.83781" lon="4.81429">
        <ele>311</ele>
        <time>2012-12-09T08:10:10Z</time>
      </trkpt>
      <trkpt lat="45.8378" lon="4.81427">
        <ele>311</ele>
        <time>2012-12-09T08:10:11Z</time>
      </trkpt>
      <trkpt lat="45.83782" lon="4.8142">
        <ele>312</ele>
        <time>2012-12-09T08:10:15Z</time>
      </trkpt>
      <trkpt lat="45.83782" lon="4.81419">
        <ele>312</ele>
        <time>2012-12-09T08:10:16Z</time>
      </trkpt>
      <trkpt lat="45.83781" lon="4.81407">
        <ele>321</ele>
        <time>2012-12-09T08:10:24Z</time>
      </trkpt>
      <trkpt lat="45.8378" lon="4.81399">
        <ele>322</ele>
        <time>2012-12-09T08:10:31Z</time>
      </trkpt>
      <trkpt lat="45.83779" lon="4.81394">
        <ele>322</ele>
        <time>2012-12-09T08:10:33Z</time>
      </trkpt>
      <trkpt lat="45.83779" lon="4.81388">
        <ele>323</ele>
        <time>2012-12-09T08:10:36Z</time>
      </trkpt>
      <trkpt lat="45.83779" lon="4.81384">
        <ele>323</ele>
        <time>2012-12-09T08:10:39Z</time>
      </trkpt>
      <trkpt lat="45.83777" lon="4.81376">
        <ele>324</ele>
        <time>2012-12-09T08:10:44Z</time>
      </trkpt>
      <trkpt lat="45.83776" lon="4.81373">
        <ele>324</ele>
        <time>2012-12-09T08:10:46Z</time>
      </trkpt>
      <trkpt lat="45.83776" lon="4.81367">
        <ele>325</ele>
        <time>2012-12-09T08:10:49Z</time>
      </trkpt>
      <trkpt lat="45.83776" lon="4.81364">
        <ele>325</ele>
        <time>2012-12-09T08:10:51Z</time>
      </trkpt>
      <trkpt lat="45.83775" lon="4.81363">
        <ele>325</ele>
        <time>2012-12-09T08:10:52Z</time>
      </trkpt>
      <trkpt lat="45.83774" lon="4.81357">
        <ele>326</ele>
        <time>2012-12-09T08:10:56Z</time>
      </trkpt>
      <trkpt lat="45.83774" lon="4.81356">
        <ele>326</ele>
        <time>2012-12-09T08:10:57Z</time>
      </trkpt>
      <trkpt lat="45.83772" lon="4.81349">
        <ele>327</ele>
        <time>2012-12-09T08:11:02Z</time>
      </trkpt>
      <trkpt lat="45.83772" lon="4.81348">
        <ele>327</ele>
        <time>2012-12-09T08:11:03Z</time>
      </trkpt>
      <trkpt lat="45.83772" lon="4.81345">
        <ele>327</ele>
        <time>2012-12-09T08:11:05Z</time>
      </trkpt>
      <trkpt lat="45.83772" lon="4.81343">
        <ele>327</ele>
        <time>2012-12-09T08:11:07Z</time>
      </trkpt>
      <trkpt lat="45.83771" lon="4.81338">
        <ele>327</ele>
        <time>2012-12-09T08:11:10Z</time>
      </trkpt>
      <trkpt lat="45.8377" lon="4.81336">
        <ele>328</ele>
        <time>2012-12-09T08:11:12Z</time>
      </trkpt>
      <trkpt lat="45.8377" lon="4.81334">
        <ele>328</ele>
        <time>2012-12-09T08:11:15Z</time>
      </trkpt>
      <trkpt lat="45.83769" lon="4.81329">
        <ele>335</ele>
        <time>2012-12-09T08:11:19Z</time>
      </trkpt>
      <trkpt lat="45.83769" lon="4.81326">
        <ele>335</ele>
        <time>2012-12-09T08:11:21Z</time>
      </trkpt>
      <trkpt lat="45.83769" lon="4.81325">
        <ele>335</ele>
        <time>2012-12-09T08:11:22Z</time>
      </trkpt>
      <trkpt lat="45.83766" lon="4.81318">
        <ele>335</ele>
        <time>2012-12-09T08:11:27Z</time>
      </trkpt>
      <trkpt lat="45.83766" lon="4.81312">
        <ele>336</ele>
        <time>2012-12-09T08:11:31Z</time>
      </trkpt>
      <trkpt lat="45.83766" lon="4.81306">
        <ele>337</ele>
        <time>2012-12-09T08:11:35Z</time>
      </trkpt>
      <trkpt lat="45.83766" lon="4.81298">
        <ele>338</ele>
        <time>2012-12-09T08:11:40Z</time>
      </trkpt>
      <trkpt lat="45.83766" lon="4.81294">
        <ele>338</ele>
        <time>2012-12-09T08:11:42Z</time>
      </trkpt>
      <trkpt lat="45.83765" lon="4.81285">
        <ele>339</ele>
        <time>2012-12-09T08:11:47Z</time>
      </trkpt>
      <trkpt lat="45.83766" lon="4.81284">
        <ele>339</ele>
        <time>2012-12-09T08:11:48Z</time>
      </trkpt>
      <trkpt lat="45.83768" lon="4.81272">
        <ele>340</ele>
        <time>2012-12-09T08:11:55Z</time>
      </trkpt>
      <trkpt lat="45.83768" lon="4.81266">
        <ele>340</ele>
        <time>2012-12-09T08:11:58Z</time>
      </trkpt>
      <trkpt lat="45.83768" lon="4.81263">
        <ele>340</ele>
        <time>2012-12-09T08:12:00Z</time>
      </trkpt>
      <trkpt lat="45.83768" lon="4.8126">
        <ele>341</ele>
        <time>2012-12-09T08:12:02Z</time>
      </trkpt>
      <trkpt lat="45.83769" lon="4.81258">
        <ele>341</ele>
        <time>2012-12-09T08:12:04Z</time>
      </trkpt>
      <trkpt lat="45.8377" lon="4.81256">
        <ele>341</ele>
        <time>2012-12-09T08:12:05Z</time>
      </trkpt>
      <trkpt lat="45.8377" lon="4.81256">
        <ele>341</ele>
        <time>2012-12-09T08:12:06Z</time>
      </trkpt>
      <trkpt lat="45.83771" lon="4.81254">
        <ele>341</ele>
        <time>2012-12-09T08:12:07Z</time>
      </trkpt>
      <trkpt lat="45.83771" lon="4.8125">
        <ele>341</ele>
        <time>2012-12-09T08:12:10Z</time>
      </trkpt>
      <trkpt lat="45.83771" lon="4.81248">
        <ele>348</ele>
        <time>2012-12-09T08:12:11Z</time>
      </trkpt>
      <trkpt lat="45.83771" lon="4.81245">
        <ele>348</ele>
        <time>2012-12-09T08:12:13Z</time>
      </trkpt>
      <trkpt lat="45.83772" lon="4.81243">
        <ele>349</ele>
        <time>2012-12-09T08:12:15Z</time>
      </trkpt>
      <trkpt lat="45.83771" lon="4.81239">
        <ele>349</ele>
        <time>2012-12-09T08:12:17Z</time>
      </trkpt>
      <trkpt lat="45.83772" lon="4.81235">
        <ele>350</ele>
        <time>2012-12-09T08:12:21Z</time>
      </trkpt>
      <trkpt lat="45.83772" lon="4.81234">
        <ele>350</ele>
        <time>2012-12-09T08:12:22Z</time>
      </trkpt>
      <trkpt lat="45.83772" lon="4.8123">
        <ele>350</ele>
        <time>2012-12-09T08:12:25Z</time>
      </trkpt>
      <trkpt lat="45.83773" lon="4.81228">
        <ele>350</ele>
        <time>2012-12-09T08:12:27Z</time>
      </trkpt>
      <trkpt lat="45.83773" lon="4.81227">
        <ele>351</ele>
        <time>2012-12-09T08:12:28Z</time>
      </trkpt>
      <trkpt lat="45.83774" lon="4.81219">
        <ele>351</ele>
        <time>2012-12-09T08:12:32Z</time>
      </trkpt>
      <trkpt lat="45.83775" lon="4.81216">
        <ele>352</ele>
        <time>2012-12-09T08:12:34Z</time>
      </trkpt>
      <trkpt lat="45.83775" lon="4.81213">
        <ele>352</ele>
        <time>2012-12-09T08:12:35Z</time>
      </trkpt>
      <trkpt lat="45.83776" lon="4.81209">
        <ele>353</ele>
        <time>2012-12-09T08:12:38Z</time>
      </trkpt>
      <trkpt lat="45.83777" lon="4.81205">
        <ele>353</ele>
        <time>2012-12-09T08:12:41Z</time>
      </trkpt>
      <trkpt lat="45.83777" lon="4.81203">
        <ele>353</ele>
        <time>2012-12-09T08:12:42Z</time>
      </trkpt>
      <trkpt lat="45.83779" lon="4.81199">
        <ele>354</ele>
        <time>2012-12-09T08:12:45Z</time>
      </trkpt>
      <trkpt lat="45.83779" lon="4.81197">
        <ele>354</ele>
        <time>2012-12-09T08:12:47Z</time>
      </trkpt>
      <trkpt lat="45.83779" lon="4.81195">
        <ele>354</ele>
        <time>2012-12-09T08:12:48Z</time>
      </trkpt>
      <trkpt lat="45.83779" lon="4.8119">
        <ele>355</ele>
        <time>2012-12-09T08:12:52Z</time>
      </trkpt>
      <trkpt lat="45.8378" lon="4.81197">
        <ele>354</ele>
        <time>2012-12-09T08:13:02Z</time>
      </trkpt>
      <trkpt lat="45.83779" lon="4.812">
        <ele>354</ele>
        <time>2012-12-09T08:13:05Z</time>
      </trkpt>
      <trkpt lat="45.83779" lon="4.81201">
        <ele>354</ele>
        <time>2012-12-09T08:13:08Z</time>
      </trkpt>
      <trkpt lat="45.8378" lon="4.81205">
        <ele>353</ele>
        <time>2012-12-09T08:13:13Z</time>
      </trkpt>
      <trkpt lat="45.8378" lon="4.81208">
        <ele>353</ele>
        <time>2012-12-09T08:13:15Z</time>
      </trkpt>
      <trkpt lat="45.8378" lon="4.81209">
        <ele>353</ele>
        <time>2012-12-09T08:13:17Z</time>
      </trkpt>
      <trkpt lat="45.83781" lon="4.81213">
        <ele>353</ele>
        <time>2012-12-09T08:13:20Z</time>
      </trkpt>
      <trkpt lat="45.8378" lon="4.8122">
        <ele>352</ele>
        <time>2012-12-09T08:13:25Z</time>
      </trkpt>
      <trkpt lat="45.83781" lon="4.81222">
        <ele>352</ele>
        <time>2012-12-09T08:13:26Z</time>
      </trkpt>
      <trkpt lat="45.83779" lon="4.81227">
        <ele>351</ele>
        <time>2012-12-09T08:13:29Z</time>
      </trkpt>
      <trkpt lat="45.83778" lon="4.81231">
        <ele>350</ele>
        <time>2012-12-09T08:13:31Z</time>
      </trkpt>
      <trkpt lat="45.83776" lon="4.81239">
        <ele>350</ele>
        <time>2012-12-09T08:13:34Z</time>
      </trkpt>
      <trkpt lat="45.83776" lon="4.81246">
        <ele>349</ele>
        <time>2012-12-09T08:13:37Z</time>
      </trkpt>
      <trkpt lat="45.83778" lon="4.81246">
        <ele>349</ele>
        <time>2012-12-09T08:13:39Z</time>
      </trkpt>
      <trkpt lat="45.83781" lon="4.81245">
        <ele>350</ele>
        <time>2012-12-09T08:13:42Z</time>
      </trkpt>
      <trkpt lat="45.83783" lon="4.81243">
        <ele>350</ele>
        <time>2012-12-09T08:13:44Z</time>
      </trkpt>
      <trkpt lat="45.83786" lon="4.8124">
        <ele>351</ele>
        <time>2012-12-09T08:13:47Z</time>
      </trkpt>
      <trkpt lat="45.83784" lon="4.81236">
        <ele>351</ele>
        <time>2012-12-09T08:13:52Z</time>
      </trkpt>
      <trkpt lat="45.83784" lon="4.81234">
        <ele>351</ele>
        <time>2012-12-09T08:13:53Z</time>
      </trkpt>
      <trkpt lat="45.83785" lon="4.81231">
        <ele>351</ele>
        <time>2012-12-09T08:13:56Z</time>
      </trkpt>
      <trkpt lat="45.83787" lon="4.81229">
        <ele>351</ele>
        <time>2012-12-09T08:13:58Z</time>
      </trkpt>
      <trkpt lat="45.8379" lon="4.81226">
        <ele>352</ele>
        <time>2012-12-09T08:14:03Z</time>
      </trkpt>
      <trkpt lat="45.83792" lon="4.81225">
        <ele>352</ele>
        <time>2012-12-09T08:14:06Z</time>
      </trkpt>
      <trkpt lat="45.83792" lon="4.81223">
        <ele>352</ele>
        <time>2012-12-09T08:14:07Z</time>
      </trkpt>
      <trkpt lat="45.83793" lon="4.81221">
        <ele>352</ele>
        <time>2012-12-09T08:14:09Z</time>
      </trkpt>
      <trkpt lat="45.83795" lon="4.81221">
        <ele>353</ele>
        <time>2012-12-09T08:14:11Z</time>
      </trkpt>
      <trkpt lat="45.83797" lon="4.8122">
        <ele>353</ele>
        <time>2012-12-09T08:14:14Z</time>
      </trkpt>
      <trkpt lat="45.83799" lon="4.8122">
        <ele>353</ele>
        <time>2012-12-09T08:14:16Z</time>
      </trkpt>
      <trkpt lat="45.838" lon="4.8122">
        <ele>353</ele>
        <time>2012-12-09T08:14:18Z</time>
      </trkpt>
      <trkpt lat="45.83801" lon="4.81217">
        <ele>353</ele>
        <time>2012-12-09T08:14:21Z</time>
      </trkpt>
      <trkpt lat="45.83802" lon="4.81215">
        <ele>353</ele>
        <time>2012-12-09T08:14:23Z</time>
      </trkpt>
      <trkpt lat="45.83805" lon="4.81212">
        <ele>354</ele>
        <time>2012-12-09T08:14:27Z</time>
      </trkpt>
      <trkpt lat="45.83805" lon="4.81212">
        <ele>354</ele>
        <time>2012-12-09T08:14:28Z</time>
      </trkpt>
      <trkpt lat="45.83808" lon="4.81208">
        <ele>354</ele>
        <time>2012-12-09T08:14:33Z</time>
      </trkpt>
      <trkpt lat="45.83809" lon="4.81206">
        <ele>355</ele>
        <time>2012-12-09T08:14:35Z</time>
      </trkpt>
      <trkpt lat="45.83811" lon="4.812">
        <ele>355</ele>
        <time>2012-12-09T08:14:40Z</time>
      </trkpt>
      <trkpt lat="45.83814" lon="4.81195">
        <ele>356</ele>
        <time>2012-12-09T08:14:46Z</time>
      </trkpt>
      <trkpt lat="45.83814" lon="4.81189">
        <ele>357</ele>
        <time>2012-12-09T08:14:52Z</time>
      </trkpt>
      <trkpt lat="45.83814" lon="4.81186">
        <ele>357</ele>
        <time>2012-12-09T08:14:54Z</time>
      </trkpt>
      <trkpt lat="45.83815" lon="4.81181">
        <ele>358</ele>
        <time>2012-12-09T08:15:00Z</time>
      </trkpt>
      <trkpt lat="45.83818" lon="4.81178">
        <ele>359</ele>
        <time>2012-12-09T08:15:07Z</time>
      </trkpt>
      <trkpt lat="45.83823" lon="4.81182">
        <ele>359</ele>
        <time>2012-12-09T08:15:13Z</time>
      </trkpt>
      <trkpt lat="45.83824" lon="4.81184">
        <ele>359</ele>
        <time>2012-12-09T08:15:15Z</time>
      </trkpt>
      <trkpt lat="45.83824" lon="4.81188">
        <ele>358</ele>
        <time>2012-12-09T08:15:17Z</time>
      </trkpt>
      <trkpt lat="45.83826" lon="4.8119">
        <ele>358</ele>
        <time>2012-12-09T08:15:20Z</time>
      </trkpt>
      <trkpt lat="45.83827" lon="4.81189">
        <ele>358</ele>
        <time>2012-12-09T08:15:21Z</time>
      </trkpt>
      <trkpt lat="45.83828" lon="4.81189">
        <ele>358</ele>
        <time>2012-12-09T08:15:23Z</time>
      </trkpt>
      <trkpt lat="45.83829" lon="4.8119">
        <ele>358</ele>
        <time>2012-12-09T08:15:25Z</time>
      </trkpt>
      <trkpt lat="45.83833" lon="4.81191">
        <ele>358</ele>
        <time>2012-12-09T08:15:31Z</time>
      </trkpt>
      <trkpt lat="45.83837" lon="4.8119">
        <ele>372</ele>
        <time>2012-12-09T08:15:36Z</time>
      </trkpt>
      <trkpt lat="45.8384" lon="4.81196">
        <ele>372</ele>
        <time>2012-12-09T08:15:42Z</time>
      </trkpt>
      <trkpt lat="45.83853" lon="4.8113">
        <ele>387</ele>
        <time>2012-12-09T08:16:21Z</time>
      </trkpt>
      <trkpt lat="45.83867" lon="4.81166">
        <ele>387</ele>
        <time>2012-12-09T08:16:28Z</time>
      </trkpt>
      <trkpt lat="45.83865" lon="4.81156">
        <ele>387</ele>
        <time>2012-12-09T08:16:41Z</time>
      </trkpt>
      <trkpt lat="45.83865" lon="4.8116">
        <ele>386</ele>
        <time>2012-12-09T08:16:44Z</time>
      </trkpt>
      <trkpt lat="45.83864" lon="4.81165">
        <ele>386</ele>
        <time>2012-12-09T08:16:45Z</time>
      </trkpt>
      <trkpt lat="45.83864" lon="4.81168">
        <ele>378</ele>
        <time>2012-12-09T08:16:47Z</time>
      </trkpt>
      <trkpt lat="45.83863" lon="4.81168">
        <ele>377</ele>
        <time>2012-12-09T08:16:48Z</time>
      </trkpt>
      <trkpt lat="45.8386" lon="4.81171">
        <ele>376</ele>
        <time>2012-12-09T08:16:51Z</time>
      </trkpt>
      <trkpt lat="45.83855" lon="4.81177">
        <ele>375</ele>
        <time>2012-12-09T08:16:56Z</time>
      </trkpt>
      <trkpt lat="45.83854" lon="4.81176">
        <ele>374</ele>
        <time>2012-12-09T08:16:58Z</time>
      </trkpt>
      <trkpt lat="45.83855" lon="4.81173">
        <ele>374</ele>
        <time>2012-12-09T08:17:02Z</time>
      </trkpt>
      <trkpt lat="45.83856" lon="4.81176">
        <ele>375</ele>
        <time>2012-12-09T08:17:16Z</time>
      </trkpt>
      <trkpt lat="45.83855" lon="4.81175">
        <ele>375</ele>
        <time>2012-12-09T08:17:22Z</time>
      </trkpt>
      <trkpt lat="45.83855" lon="4.81176">
        <ele>375</ele>
        <time>2012-12-09T08:17:24Z</time>
      </trkpt>
      <trkpt lat="45.83853" lon="4.81179">
        <ele>374</ele>
        <time>2012-12-09T08:17:28Z</time>
      </trkpt>
      <trkpt lat="45.83848" lon="4.81183">
        <ele>373</ele>
        <time>2012-12-09T08:17:34Z</time>
      </trkpt>
      <trkpt lat="45.83846" lon="4.81184">
        <ele>373</ele>
        <time>2012-12-09T08:17:36Z</time>
      </trkpt>
      <trkpt lat="45.83842" lon="4.81186">
        <ele>372</ele>
        <time>2012-12-09T08:17:39Z</time>
      </trkpt>
      <trkpt lat="45.83839" lon="4.81187">
        <ele>372</ele>
        <time>2012-12-09T08:17:41Z</time>
      </trkpt>
      <trkpt lat="45.83838" lon="4.81187">
        <ele>372</ele>
        <time>2012-12-09T08:17:42Z</time>
      </trkpt>
      <trkpt lat="45.83837" lon="4.81187">
        <ele>372</ele>
        <time>2012-12-09T08:17:43Z</time>
      </trkpt>
      <trkpt lat="45.83834" lon="4.81188">
        <ele>371</ele>
        <time>2012-12-09T08:17:49Z</time>
      </trkpt>
      <trkpt lat="45.83831" lon="4.81193">
        <ele>357</ele>
        <time>2012-12-09T08:17:54Z</time>
      </trkpt>
      <trkpt lat="45.8383" lon="4.81199">
        <ele>356</ele>
        <time>2012-12-09T08:17:59Z</time>
      </trkpt>
      <trkpt lat="45.8383" lon="4.81202">
        <ele>356</ele>
        <time>2012-12-09T08:18:01Z</time>
      </trkpt>
      <trkpt lat="45.8383" lon="4.81205">
        <ele>355</ele>
        <time>2012-12-09T08:18:03Z</time>
      </trkpt>
      <trkpt lat="45.83829" lon="4.8121">
        <ele>355</ele>
        <time>2012-12-09T08:18:06Z</time>
      </trkpt>
      <trkpt lat="45.83831" lon="4.81216">
        <ele>354</ele>
        <time>2012-12-09T08:18:10Z</time>
      </trkpt>
      <trkpt lat="45.83831" lon="4.81218">
        <ele>354</ele>
        <time>2012-12-09T08:18:12Z</time>
      </trkpt>
      <trkpt lat="45.83831" lon="4.81225">
        <ele>353</ele>
        <time>2012-12-09T08:18:17Z</time>
      </trkpt>
      <trkpt lat="45.83832" lon="4.81228">
        <ele>353</ele>
        <time>2012-12-09T08:18:19Z</time>
      </trkpt>
      <trkpt lat="45.83833" lon="4.8123">
        <ele>352</ele>
        <time>2012-12-09T08:18:22Z</time>
      </trkpt>
      <trkpt lat="45.83833" lon="4.81232">
        <ele>352</ele>
        <time>2012-12-09T08:18:23Z</time>
      </trkpt>
      <trkpt lat="45.83834" lon="4.8124">
        <ele>359</ele>
        <time>2012-12-09T08:18:29Z</time>
      </trkpt>
      <trkpt lat="45.83836" lon="4.81247">
        <ele>354</ele>
        <time>2012-12-09T08:18:35Z</time>
      </trkpt>
      <trkpt lat="45.83838" lon="4.81255">
        <ele>352</ele>
        <time>2012-12-09T08:18:40Z</time>
      </trkpt>
      <trkpt lat="45.83838" lon="4.81255">
        <ele>352</ele>
        <time>2012-12-09T08:18:41Z</time>
      </trkpt>
      <trkpt lat="45.8384" lon="4.81254">
        <ele>353</ele>
        <time>2012-12-09T08:18:46Z</time>
      </trkpt>
      <trkpt lat="45.83872" lon="4.81247">
        <ele>375</ele>
        <time>2012-12-09T08:19:06Z</time>
      </trkpt>
      <trkpt lat="45.83872" lon="4.81251">
        <ele>363</ele>
        <time>2012-12-09T08:19:07Z</time>
      </trkpt>
      <trkpt lat="45.83871" lon="4.81253">
        <ele>362</ele>
        <time>2012-12-09T08:19:10Z</time>
      </trkpt>
      <trkpt lat="45.83871" lon="4.81255">
        <ele>362</ele>
        <time>2012-12-09T08:19:12Z</time>
      </trkpt>
      <trkpt lat="45.8387" lon="4.81257">
        <ele>362</ele>
        <time>2012-12-09T08:19:16Z</time>
      </trkpt>
      <trkpt lat="45.83869" lon="4.81256">
        <ele>361</ele>
        <time>2012-12-09T08:19:17Z</time>
      </trkpt>
      <trkpt lat="45.83866" lon="4.81254">
        <ele>360</ele>
        <time>2012-12-09T08:19:20Z</time>
      </trkpt>
      <trkpt lat="45.83865" lon="4.81254">
        <ele>360</ele>
        <time>2012-12-09T08:19:21Z</time>
      </trkpt>
      <trkpt lat="45.83861" lon="4.81254">
        <ele>359</ele>
        <time>2012-12-09T08:19:25Z</time>
      </trkpt>
      <trkpt lat="45.8386" lon="4.81251">
        <ele>359</ele>
        <time>2012-12-09T08:19:27Z</time>
      </trkpt>
      <trkpt lat="45.83858" lon="4.81249">
        <ele>369</ele>
        <time>2012-12-09T08:19:31Z</time>
      </trkpt>
      <trkpt lat="45.83857" lon="4.81247">
        <ele>368</ele>
        <time>2012-12-09T08:19:33Z</time>
      </trkpt>
      <trkpt lat="45.83855" lon="4.81245">
        <ele>368</ele>
        <time>2012-12-09T08:19:35Z</time>
      </trkpt>
      <trkpt lat="45.83855" lon="4.81245">
        <ele>367</ele>
        <time>2012-12-09T08:19:37Z</time>
      </trkpt>
      <trkpt lat="45.83853" lon="4.81248">
        <ele>366</ele>
        <time>2012-12-09T08:19:43Z</time>
      </trkpt>
      <trkpt lat="45.83852" lon="4.81249">
        <ele>366</ele>
        <time>2012-12-09T08:19:53Z</time>
      </trkpt>
      <trkpt lat="45.83852" lon="4.8125">
        <ele>365</ele>
        <time>2012-12-09T08:19:59Z</time>
      </trkpt>
      <trkpt lat="45.83852" lon="4.81248">
        <ele>365</ele>
        <time>2012-12-09T08:20:03Z</time>
      </trkpt>
      <trkpt lat="45.8385" lon="4.81249">
        <ele>364</ele>
        <time>2012-12-09T08:20:08Z</time>
      </trkpt>
      <trkpt lat="45.83848" lon="4.8125">
        <ele>363</ele>
        <time>2012-12-09T08:20:13Z</time>
      </trkpt>
      <trkpt lat="45.83846" lon="4.81252">
        <ele>354</ele>
        <time>2012-12-09T08:20:17Z</time>
      </trkpt>
      <trkpt lat="45.83846" lon="4.81251">
        <ele>354</ele>
        <time>2012-12-09T08:20:22Z</time>
      </trkpt>
      <trkpt lat="45.83844" lon="4.8125">
        <ele>354</ele>
        <time>2012-12-09T08:20:28Z</time>
      </trkpt>
      <trkpt lat="45.83844" lon="4.8125">
        <ele>354</ele>
        <time>2012-12-09T08:20:29Z</time>
      </trkpt>
      <trkpt lat="45.83841" lon="4.81248">
        <ele>358</ele>
        <time>2012-12-09T08:20:36Z</time>
      </trkpt>
      <trkpt lat="45.83839" lon="4.81248">
        <ele>357</ele>
        <time>2012-12-09T08:20:40Z</time>
      </trkpt>
      <trkpt lat="45.83839" lon="4.81252">
        <ele>352</ele>
        <time>2012-12-09T08:20:45Z</time>
      </trkpt>
      <trkpt lat="45.83838" lon="4.81254">
        <ele>352</ele>
        <time>2012-12-09T08:20:46Z</time>
      </trkpt>
      <trkpt lat="45.83835" lon="4.81258">
        <ele>353</ele>
        <time>2012-12-09T08:20:49Z</time>
      </trkpt>
      <trkpt lat="45.83836" lon="4.81259">
        <ele>353</ele>
        <time>2012-12-09T08:20:50Z</time>
      </trkpt>
      <trkpt lat="45.83837" lon="4.81259">
        <ele>353</ele>
        <time>2012-12-09T08:20:58Z</time>
      </trkpt>
      <trkpt lat="45.83837" lon="4.81265">
        <ele>354</ele>
        <time>2012-12-09T08:21:03Z</time>
      </trkpt>
      <trkpt lat="45.8384" lon="4.81268">
        <ele>354</ele>
        <time>2012-12-09T08:21:09Z</time>
      </trkpt>
      <trkpt lat="45.83841" lon="4.81266">
        <ele>354</ele>
        <time>2012-12-09T08:21:11Z</time>
      </trkpt>
      <trkpt lat="45.83844" lon="4.81266">
        <ele>355</ele>
        <time>2012-12-09T08:21:14Z</time>
      </trkpt>
      <trkpt lat="45.83847" lon="4.81266">
        <ele>355</ele>
        <time>2012-12-09T08:21:17Z</time>
      </trkpt>
      <trkpt lat="45.83848" lon="4.81267">
        <ele>356</ele>
        <time>2012-12-09T08:21:18Z</time>
      </trkpt>
      <trkpt lat="45.8385" lon="4.81269">
        <ele>356</ele>
        <time>2012-12-09T08:21:20Z</time>
      </trkpt>
      <trkpt lat="45.8385" lon="4.81269">
        <ele>356</ele>
        <time>2012-12-09T08:21:21Z</time>
      </trkpt>
      <trkpt lat="45.83852" lon="4.81271">
        <ele>356</ele>
        <time>2012-12-09T08:21:23Z</time>
      </trkpt>
      <trkpt lat="45.83853" lon="4.81271">
        <ele>357</ele>
        <time>2012-12-09T08:21:25Z</time>
      </trkpt>
      <trkpt lat="45.83858" lon="4.81272">
        <ele>358</ele>
        <time>2012-12-09T08:21:30Z</time>
      </trkpt>
      <trkpt lat="45.83859" lon="4.81274">
        <ele>358</ele>
        <time>2012-12-09T08:21:33Z</time>
      </trkpt>
      <trkpt lat="45.83859" lon="4.81276">
        <ele>358</ele>
        <time>2012-12-09T08:21:34Z</time>
      </trkpt>
      <trkpt lat="45.83859" lon="4.81277">
        <ele>357</ele>
        <time>2012-12-09T08:21:35Z</time>
      </trkpt>
      <trkpt lat="45.83859" lon="4.8128">
        <ele>357</ele>
        <time>2012-12-09T08:21:41Z</time>
      </trkpt>
      <trkpt lat="45.83862" lon="4.81285">
        <ele>357</ele>
        <time>2012-12-09T08:21:47Z</time>
      </trkpt>
      <trkpt lat="45.83863" lon="4.81285">
        <ele>357</ele>
        <time>2012-12-09T08:21:48Z</time>
      </trkpt>
      <trkpt lat="45.83864" lon="4.81287">
        <ele>358</ele>
        <time>2012-12-09T08:21:50Z</time>
      </trkpt>
      <trkpt lat="45.83865" lon="4.81291">
        <ele>357</ele>
        <time>2012-12-09T08:21:53Z</time>
      </trkpt>
      <trkpt lat="45.83867" lon="4.81295">
        <ele>357</ele>
        <time>2012-12-09T08:21:59Z</time>
      </trkpt>
      <trkpt lat="45.83869" lon="4.81301">
        <ele>357</ele>
        <time>2012-12-09T08:22:04Z</time>
      </trkpt>
      <trkpt lat="45.8387" lon="4.81302">
        <ele>357</ele>
        <time>2012-12-09T08:22:05Z</time>
      </trkpt>
      <trkpt lat="45.83873" lon="4.81304">
        <ele>357</ele>
        <time>2012-12-09T08:22:08Z</time>
      </trkpt>
      <trkpt lat="45.83874" lon="4.81305">
        <ele>357</ele>
        <time>2012-12-09T08:22:09Z</time>
      </trkpt>
      <trkpt lat="45.83878" lon="4.81307">
        <ele>358</ele>
        <time>2012-12-09T08:22:14Z</time>
      </trkpt>
      <trkpt lat="45.83879" lon="4.81309">
        <ele>358</ele>
        <time>2012-12-09T08:22:19Z</time>
      </trkpt>
      <trkpt lat="45.83884" lon="4.81311">
        <ele>359</ele>
        <time>2012-12-09T08:22:41Z</time>
      </trkpt>
      <trkpt lat="45.83886" lon="4.81308">
        <ele>359</ele>
        <time>2012-12-09T08:22:45Z</time>
      </trkpt>
      <trkpt lat="45.83887" lon="4.81307">
        <ele>360</ele>
        <time>2012-12-09T08:22:46Z</time>
      </trkpt>
      <trkpt lat="45.83888" lon="4.81306">
        <ele>360</ele>
        <time>2012-12-09T08:22:47Z</time>
      </trkpt>
      <trkpt lat="45.83888" lon="4.81302">
        <ele>360</ele>
        <time>2012-12-09T08:22:50Z</time>
      </trkpt>
      <trkpt lat="45.83887" lon="4.813">
        <ele>360</ele>
        <time>2012-12-09T08:22:57Z</time>
      </trkpt>
      <trkpt lat="45.83886" lon="4.81299">
        <ele>360</ele>
        <time>2012-12-09T08:23:06Z</time>
      </trkpt>
      <trkpt lat="45.83885" lon="4.81295">
        <ele>361</ele>
        <time>2012-12-09T08:23:09Z</time>
      </trkpt>
      <trkpt lat="45.83876" lon="4.81296">
        <ele>359</ele>
        <time>2012-12-09T08:24:13Z</time>
      </trkpt>
      <trkpt lat="45.83881" lon="4.81304">
        <ele>359</ele>
        <time>2012-12-09T08:24:26Z</time>
      </trkpt>
      <trkpt lat="45.83885" lon="4.81303">
        <ele>360</ele>
        <time>2012-12-09T08:24:55Z</time>
      </trkpt>
      <trkpt lat="45.83882" lon="4.8131">
        <ele>358</ele>
        <time>2012-12-09T08:24:59Z</time>
      </trkpt>
      <trkpt lat="45.8388" lon="4.81312">
        <ele>358</ele>
        <time>2012-12-09T08:25:01Z</time>
      </trkpt>
      <trkpt lat="45.83878" lon="4.81312">
        <ele>357</ele>
        <time>2012-12-09T08:25:04Z</time>
      </trkpt>
      <trkpt lat="45.83879" lon="4.81318">
        <ele>357</ele>
        <time>2012-12-09T08:25:13Z</time>
      </trkpt>
      <trkpt lat="45.83881" lon="4.81322">
        <ele>357</ele>
        <time>2012-12-09T08:25:16Z</time>
      </trkpt>
      <trkpt lat="45.83882" lon="4.81326">
        <ele>357</ele>
        <time>2012-12-09T08:25:19Z</time>
      </trkpt>
      <trkpt lat="45.83882" lon="4.81326">
        <ele>357</ele>
        <time>2012-12-09T08:25:20Z</time>
      </trkpt>
      <trkpt lat="45.83882" lon="4.81331">
        <ele>357</ele>
        <time>2012-12-09T08:25:25Z</time>
      </trkpt>
      <trkpt lat="45.83882" lon="4.81332">
        <ele>357</ele>
        <time>2012-12-09T08:25:26Z</time>
      </trkpt>
      <trkpt lat="45.83884" lon="4.81333">
        <ele>342</ele>
        <time>2012-12-09T08:25:36Z</time>
      </trkpt>
      <trkpt lat="45.83885" lon="4.81337">
        <ele>342</ele>
        <time>2012-12-09T08:25:39Z</time>
      </trkpt>
      <trkpt lat="45.83886" lon="4.81341">
        <ele>342</ele>
        <time>2012-12-09T08:25:41Z</time>
      </trkpt>
      <trkpt lat="45.83889" lon="4.81349">
        <ele>342</ele>
        <time>2012-12-09T08:25:47Z</time>
      </trkpt>
      <trkpt lat="45.83891" lon="4.81352">
        <ele>341</ele>
        <time>2012-12-09T08:25:49Z</time>
      </trkpt>
      <trkpt lat="45.83891" lon="4.81353">
        <ele>341</ele>
        <time>2012-12-09T08:25:50Z</time>
      </trkpt>
      <trkpt lat="45.83891" lon="4.81354">
        <ele>341</ele>
        <time>2012-12-09T08:25:52Z</time>
      </trkpt>
      <trkpt lat="45.83895" lon="4.81356">
        <ele>341</ele>
        <time>2012-12-09T08:26:00Z</time>
      </trkpt>
      <trkpt lat="45.83897" lon="4.81358">
        <ele>342</ele>
        <time>2012-12-09T08:26:04Z</time>
      </trkpt>
      <trkpt lat="45.83896" lon="4.81363">
        <ele>340</ele>
        <time>2012-12-09T08:26:10Z</time>
      </trkpt>
      <trkpt lat="45.83898" lon="4.81362">
        <ele>340</ele>
        <time>2012-12-09T08:26:22Z</time>
      </trkpt>
      <trkpt lat="45.83898" lon="4.8136">
        <ele>341</ele>
        <time>2012-12-09T08:26:23Z</time>
      </trkpt>
      <trkpt lat="45.83899" lon="4.81357">
        <ele>342</ele>
        <time>2012-12-09T08:26:25Z</time>
      </trkpt>
      <trkpt lat="45.83898" lon="4.81355">
        <ele>343</ele>
        <time>2012-12-09T08:26:29Z</time>
      </trkpt>
      <trkpt lat="45.83896" lon="4.81355">
        <ele>342</ele>
        <time>2012-12-09T08:26:35Z</time>
      </trkpt>
      <trkpt lat="45.83897" lon="4.81353">
        <ele>343</ele>
        <time>2012-12-09T08:26:40Z</time>
      </trkpt>
      <trkpt lat="45.839" lon="4.81353">
        <ele>344</ele>
        <time>2012-12-09T08:26:42Z</time>
      </trkpt>
      <trkpt lat="45.83902" lon="4.81355">
        <ele>344</ele>
        <time>2012-12-09T08:26:44Z</time>
      </trkpt>
      <trkpt lat="45.83905" lon="4.81362">
        <ele>342</ele>
        <time>2012-12-09T08:26:50Z</time>
      </trkpt>
      <trkpt lat="45.83907" lon="4.81364">
        <ele>341</ele>
        <time>2012-12-09T08:26:55Z</time>
      </trkpt>
      <trkpt lat="45.83909" lon="4.81363">
        <ele>342</ele>
        <time>2012-12-09T08:26:57Z</time>
      </trkpt>
      <trkpt lat="45.83912" lon="4.81368">
        <ele>341</ele>
        <time>2012-12-09T08:27:01Z</time>
      </trkpt>
      <trkpt lat="45.83912" lon="4.81369">
        <ele>340</ele>
        <time>2012-12-09T08:27:02Z</time>
      </trkpt>
      <trkpt lat="45.83912" lon="4.81373">
        <ele>339</ele>
        <time>2012-12-09T08:27:08Z</time>
      </trkpt>
      <trkpt lat="45.83914" lon="4.81378">
        <ele>338</ele>
        <time>2012-12-09T08:27:13Z</time>
      </trkpt>
      <trkpt lat="45.83915" lon="4.81383">
        <ele>337</ele>
        <time>2012-12-09T08:27:17Z</time>
      </trkpt>
      <trkpt lat="45.83916" lon="4.81384">
        <ele>337</ele>
        <time>2012-12-09T08:27:18Z</time>
      </trkpt>
      <trkpt lat="45.83914" lon="4.81379">
        <ele>338</ele>
        <time>2012-12-09T08:27:27Z</time>
      </trkpt>
      <trkpt lat="45.83916" lon="4.81374">
        <ele>339</ele>
        <time>2012-12-09T08:27:58Z</time>
      </trkpt>
      <trkpt lat="45.83921" lon="4.81374">
        <ele>355</ele>
        <time>2012-12-09T08:28:02Z</time>
      </trkpt>
      <trkpt lat="45.83925" lon="4.81375">
        <ele>355</ele>
        <time>2012-12-09T08:28:05Z</time>
      </trkpt>
      <trkpt lat="45.83928" lon="4.81376">
        <ele>355</ele>
        <time>2012-12-09T08:28:07Z</time>
      </trkpt>
      <trkpt lat="45.83933" lon="4.81379">
        <ele>355</ele>
        <time>2012-12-09T08:28:10Z</time>
      </trkpt>
      <trkpt lat="45.83934" lon="4.8138">
        <ele>355</ele>
        <time>2012-12-09T08:28:11Z</time>
      </trkpt>
      <trkpt lat="45.83938" lon="4.81384">
        <ele>354</ele>
        <time>2012-12-09T08:28:15Z</time>
      </trkpt>
      <trkpt lat="45.83939" lon="4.81385">
        <ele>354</ele>
        <time>2012-12-09T08:28:16Z</time>
      </trkpt>
      <trkpt lat="45.83943" lon="4.81389">
        <ele>354</ele>
        <time>2012-12-09T08:28:19Z</time>
      </trkpt>
      <trkpt lat="45.83954" lon="4.81393">
        <ele>355</ele>
        <time>2012-12-09T08:28:28Z</time>
      </trkpt>
      <trkpt lat="45.83957" lon="4.81395">
        <ele>356</ele>
        <time>2012-12-09T08:28:31Z</time>
      </trkpt>
      <trkpt lat="45.8396" lon="4.81395">
        <ele>356</ele>
        <time>2012-12-09T08:28:34Z</time>
      </trkpt>
      <trkpt lat="45.83964" lon="4.81398">
        <ele>356</ele>
        <time>2012-12-09T08:28:39Z</time>
      </trkpt>
      <trkpt lat="45.83969" lon="4.81402">
        <ele>356</ele>
        <time>2012-12-09T08:28:45Z</time>
      </trkpt>
      <trkpt lat="45.83971" lon="4.81403">
        <ele>356</ele>
        <time>2012-12-09T08:28:47Z</time>
      </trkpt>
      <trkpt lat="45.83974" lon="4.81405">
        <ele>356</ele>
        <time>2012-12-09T08:28:50Z</time>
      </trkpt>
      <trkpt lat="45.83975" lon="4.81406">
        <ele>356</ele>
        <time>2012-12-09T08:28:51Z</time>
      </trkpt>
      <trkpt lat="45.83978" lon="4.81406">
        <ele>356</ele>
        <time>2012-12-09T08:28:54Z</time>
      </trkpt>
      <trkpt lat="45.8398" lon="4.81406">
        <ele>357</ele>
        <time>2012-12-09T08:28:56Z</time>
      </trkpt>
      <trkpt lat="45.83985" lon="4.81405">
        <ele>357</ele>
        <time>2012-12-09T08:29:00Z</time>
      </trkpt>
      <trkpt lat="45.83993" lon="4.81405">
        <ele>356</ele>
        <time>2012-12-09T08:29:06Z</time>
      </trkpt>
      <trkpt lat="45.83999" lon="4.81407">
        <ele>356</ele>
        <time>2012-12-09T08:29:13Z</time>
      </trkpt>
      <trkpt lat="45.84005" lon="4.81406">
        <ele>365</ele>
        <time>2012-12-09T08:29:19Z</time>
      </trkpt>
      <trkpt lat="45.8401" lon="4.81405">
        <ele>368</ele>
        <time>2012-12-09T08:29:25Z</time>
      </trkpt>
      <trkpt lat="45.84012" lon="4.81406">
        <ele>368</ele>
        <time>2012-12-09T08:29:27Z</time>
      </trkpt>
      <trkpt lat="45.84013" lon="4.81406">
        <ele>369</ele>
        <time>2012-12-09T08:29:29Z</time>
      </trkpt>
      <trkpt lat="45.84015" lon="4.81405">
        <ele>370</ele>
        <time>2012-12-09T08:29:31Z</time>
      </trkpt>
      <trkpt lat="45.84019" lon="4.81403">
        <ele>373</ele>
        <time>2012-12-09T08:29:34Z</time>
      </trkpt>
      <trkpt lat="45.84021" lon="4.81402">
        <ele>374</ele>
        <time>2012-12-09T08:29:37Z</time>
      </trkpt>
      <trkpt lat="45.84023" lon="4.81402">
        <ele>375</ele>
        <time>2012-12-09T08:29:39Z</time>
      </trkpt>
      <trkpt lat="45.84026" lon="4.81402">
        <ele>376</ele>
        <time>2012-12-09T08:29:43Z</time>
      </trkpt>
      <trkpt lat="45.84027" lon="4.81401">
        <ele>377</ele>
        <time>2012-12-09T08:29:44Z</time>
      </trkpt>
      <trkpt lat="45.84028" lon="4.81402">
        <ele>377</ele>
        <time>2012-12-09T08:29:45Z</time>
      </trkpt>
      <trkpt lat="45.8403" lon="4.81402">
        <ele>377</ele>
        <time>2012-12-09T08:29:46Z</time>
      </trkpt>
      <trkpt lat="45.84032" lon="4.81401">
        <ele>378</ele>
        <time>2012-12-09T08:29:48Z</time>
      </trkpt>
      <trkpt lat="45.84032" lon="4.814">
        <ele>378</ele>
        <time>2012-12-09T08:29:49Z</time>
      </trkpt>
      <trkpt lat="45.84037" lon="4.81398">
        <ele>380</ele>
        <time>2012-12-09T08:29:54Z</time>
      </trkpt>
      <trkpt lat="45.84039" lon="4.81398">
        <ele>380</ele>
        <time>2012-12-09T08:29:55Z</time>
      </trkpt>
      <trkpt lat="45.84047" lon="4.81397">
        <ele>382</ele>
        <time>2012-12-09T08:30:03Z</time>
      </trkpt>
      <trkpt lat="45.84048" lon="4.81397">
        <ele>382</ele>
        <time>2012-12-09T08:30:04Z</time>
      </trkpt>
      <trkpt lat="45.84054" lon="4.81398">
        <ele>383</ele>
        <time>2012-12-09T08:30:10Z</time>
      </trkpt>
      <trkpt lat="45.84059" lon="4.81399">
        <ele>383</ele>
        <time>2012-12-09T08:30:14Z</time>
      </trkpt>
      <trkpt lat="45.84062" lon="4.81399">
        <ele>383</ele>
        <time>2012-12-09T08:30:17Z</time>
      </trkpt>
      <trkpt lat="45.84066" lon="4.81402">
        <ele>383</ele>
        <time>2012-12-09T08:30:21Z</time>
      </trkpt>
      <trkpt lat="45.84068" lon="4.81405">
        <ele>383</ele>
        <time>2012-12-09T08:30:24Z</time>
      </trkpt>
      <trkpt lat="45.84072" lon="4.81406">
        <ele>382</ele>
        <time>2012-12-09T08:30:29Z</time>
      </trkpt>
      <trkpt lat="45.84074" lon="4.81407">
        <ele>382</ele>
        <time>2012-12-09T08:30:31Z</time>
      </trkpt>
      <trkpt lat="45.84076" lon="4.81409">
        <ele>382</ele>
        <time>2012-12-09T08:30:33Z</time>
      </trkpt>
      <trkpt lat="45.84077" lon="4.81411">
        <ele>382</ele>
        <time>2012-12-09T08:30:36Z</time>
      </trkpt>
      <trkpt lat="45.84078" lon="4.81413">
        <ele>381</ele>
        <time>2012-12-09T08:30:38Z</time>
      </trkpt>
      <trkpt lat="45.84081" lon="4.81415">
        <ele>381</ele>
        <time>2012-12-09T08:30:41Z</time>
      </trkpt>
      <trkpt lat="45.84082" lon="4.81415">
        <ele>381</ele>
        <time>2012-12-09T08:30:42Z</time>
      </trkpt>
      <trkpt lat="45.84084" lon="4.81416">
        <ele>382</ele>
        <time>2012-12-09T08:30:44Z</time>
      </trkpt>
      <trkpt lat="45.84086" lon="4.81418">
        <ele>380</ele>
        <time>2012-12-09T08:30:46Z</time>
      </trkpt>
      <trkpt lat="45.84085" lon="4.81422">
        <ele>380</ele>
        <time>2012-12-09T08:30:47Z</time>
      </trkpt>
      <trkpt lat="45.84087" lon="4.81424">
        <ele>380</ele>
        <time>2012-12-09T08:30:49Z</time>
      </trkpt>
      <trkpt lat="45.84091" lon="4.81425">
        <ele>380</ele>
        <time>2012-12-09T08:30:52Z</time>
      </trkpt>
      <trkpt lat="45.84096" lon="4.81424">
        <ele>380</ele>
        <time>2012-12-09T08:30:57Z</time>
      </trkpt>
      <trkpt lat="45.84105" lon="4.81428">
        <ele>381</ele>
        <time>2012-12-09T08:31:03Z</time>
      </trkpt>
      <trkpt lat="45.8411" lon="4.81432">
        <ele>381</ele>
        <time>2012-12-09T08:31:08Z</time>
      </trkpt>
      <trkpt lat="45.84111" lon="4.81432">
        <ele>382</ele>
        <time>2012-12-09T08:31:09Z</time>
      </trkpt>
      <trkpt lat="45.84114" lon="4.81433">
        <ele>382</ele>
        <time>2012-12-09T08:31:11Z</time>
      </trkpt>
      <trkpt lat="45.84117" lon="4.81435">
        <ele>382</ele>
        <time>2012-12-09T08:31:15Z</time>
      </trkpt>
      <trkpt lat="45.84123" lon="4.81436">
        <ele>383</ele>
        <time>2012-12-09T08:31:21Z</time>
      </trkpt>
      <trkpt lat="45.84127" lon="4.81438">
        <ele>384</ele>
        <time>2012-12-09T08:31:24Z</time>
      </trkpt>
      <trkpt lat="45.84129" lon="4.81442">
        <ele>384</ele>
        <time>2012-12-09T08:31:27Z</time>
      </trkpt>
      <trkpt lat="45.8413" lon="4.81443">
        <ele>384</ele>
        <time>2012-12-09T08:31:28Z</time>
      </trkpt>
      <trkpt lat="45.84133" lon="4.81448">
        <ele>384</ele>
        <time>2012-12-09T08:31:32Z</time>
      </trkpt>
      <trkpt lat="45.84134" lon="4.81449">
        <ele>384</ele>
        <time>2012-12-09T08:31:33Z</time>
      </trkpt>
      <trkpt lat="45.84141" lon="4.81454">
        <ele>384</ele>
        <time>2012-12-09T08:31:39Z</time>
      </trkpt>
      <trkpt lat="45.84146" lon="4.81456">
        <ele>385</ele>
        <time>2012-12-09T08:31:43Z</time>
      </trkpt>
      <trkpt lat="45.84147" lon="4.81458">
        <ele>385</ele>
        <time>2012-12-09T08:31:45Z</time>
      </trkpt>
      <trkpt lat="45.84149" lon="4.81459">
        <ele>385</ele>
        <time>2012-12-09T08:31:47Z</time>
      </trkpt>
      <trkpt lat="45.84153" lon="4.81461">
        <ele>385</ele>
        <time>2012-12-09T08:31:51Z</time>
      </trkpt>
      <trkpt lat="45.84161" lon="4.81465">
        <ele>386</ele>
        <time>2012-12-09T08:31:59Z</time>
      </trkpt>
      <trkpt lat="45.84163" lon="4.81466">
        <ele>386</ele>
        <time>2012-12-09T08:32:01Z</time>
      </trkpt>
      <trkpt lat="45.84167" lon="4.81469">
        <ele>398</ele>
        <time>2012-12-09T08:32:06Z</time>
      </trkpt>
      <trkpt lat="45.84168" lon="4.8147">
        <ele>398</ele>
        <time>2012-12-09T08:32:08Z</time>
      </trkpt>
      <trkpt lat="45.84174" lon="4.81472">
        <ele>398</ele>
        <time>2012-12-09T08:32:13Z</time>
      </trkpt>
      <trkpt lat="45.84181" lon="4.81471">
        <ele>399</ele>
        <time>2012-12-09T08:32:18Z</time>
      </trkpt>
      <trkpt lat="45.84185" lon="4.81471">
        <ele>399</ele>
        <time>2012-12-09T08:32:21Z</time>
      </trkpt>
      <trkpt lat="45.84192" lon="4.81469">
        <ele>400</ele>
        <time>2012-12-09T08:32:27Z</time>
      </trkpt>
      <trkpt lat="45.84196" lon="4.8147">
        <ele>400</ele>
        <time>2012-12-09T08:32:31Z</time>
      </trkpt>
      <trkpt lat="45.84199" lon="4.81472">
        <ele>400</ele>
        <time>2012-12-09T08:32:34Z</time>
      </trkpt>
      <trkpt lat="45.84199" lon="4.81472">
        <ele>400</ele>
        <time>2012-12-09T08:32:35Z</time>
      </trkpt>
      <trkpt lat="45.84204" lon="4.81472">
        <ele>400</ele>
        <time>2012-12-09T08:32:38Z</time>
      </trkpt>
      <trkpt lat="45.8421" lon="4.81466">
        <ele>401</ele>
        <time>2012-12-09T08:32:44Z</time>
      </trkpt>
      <trkpt lat="45.84211" lon="4.81465">
        <ele>402</ele>
        <time>2012-12-09T08:32:45Z</time>
      </trkpt>
      <trkpt lat="45.84215" lon="4.81461">
        <ele>402</ele>
        <time>2012-12-09T08:32:51Z</time>
      </trkpt>
      <trkpt lat="45.84215" lon="4.81461">
        <ele>402</ele>
        <time>2012-12-09T08:32:52Z</time>
      </trkpt>
      <trkpt lat="45.84215" lon="4.81458">
        <ele>402</ele>
        <time>2012-12-09T08:32:59Z</time>
      </trkpt>
      <trkpt lat="45.84213" lon="4.81456">
        <ele>402</ele>
        <time>2012-12-09T08:33:20Z</time>
      </trkpt>
      <trkpt lat="45.84218" lon="4.8146">
        <ele>402</ele>
        <time>2012-12-09T08:33:41Z</time>
      </trkpt>
      <trkpt lat="45.84219" lon="4.81464">
        <ele>402</ele>
        <time>2012-12-09T08:33:43Z</time>
      </trkpt>
      <trkpt lat="45.84219" lon="4.81468">
        <ele>402</ele>
        <time>2012-12-09T08:33:45Z</time>
      </trkpt>
      <trkpt lat="45.84218" lon="4.81471">
        <ele>402</ele>
        <time>2012-12-09T08:33:46Z</time>
      </trkpt>
      <trkpt lat="45.84218" lon="4.81474">
        <ele>401</ele>
        <time>2012-12-09T08:33:47Z</time>
      </trkpt>
      <trkpt lat="45.84214" lon="4.81492">
        <ele>400</ele>
        <time>2012-12-09T08:33:52Z</time>
      </trkpt>
      <trkpt lat="45.84213" lon="4.81496">
        <ele>400</ele>
        <time>2012-12-09T08:33:53Z</time>
      </trkpt>
      <trkpt lat="45.84214" lon="4.81502">
        <ele>393</ele>
        <time>2012-12-09T08:33:55Z</time>
      </trkpt>
      <trkpt lat="45.84214" lon="4.81506">
        <ele>393</ele>
        <time>2012-12-09T08:33:56Z</time>
      </trkpt>
      <trkpt lat="45.84215" lon="4.81516">
        <ele>393</ele>
        <time>2012-12-09T08:33:59Z</time>
      </trkpt>
      <trkpt lat="45.84217" lon="4.81524">
        <ele>393</ele>
        <time>2012-12-09T08:34:01Z</time>
      </trkpt>
      <trkpt lat="45.84217" lon="4.81527">
        <ele>392</ele>
        <time>2012-12-09T08:34:02Z</time>
      </trkpt>
      <trkpt lat="45.84222" lon="4.81542">
        <ele>392</ele>
        <time>2012-12-09T08:34:08Z</time>
      </trkpt>
      <trkpt lat="45.84224" lon="4.81548">
        <ele>392</ele>
        <time>2012-12-09T08:34:11Z</time>
      </trkpt>
      <trkpt lat="45.84226" lon="4.81549">
        <ele>392</ele>
        <time>2012-12-09T08:34:13Z</time>
      </trkpt>
      <trkpt lat="45.8423" lon="4.81553">
        <ele>392</ele>
        <time>2012-12-09T08:34:16Z</time>
      </trkpt>
      <trkpt lat="45.84237" lon="4.81556">
        <ele>392</ele>
        <time>2012-12-09T08:34:19Z</time>
      </trkpt>
      <trkpt lat="45.84241" lon="4.81558">
        <ele>392</ele>
        <time>2012-12-09T08:34:21Z</time>
      </trkpt>
      <trkpt lat="45.84246" lon="4.81557">
        <ele>392</ele>
        <time>2012-12-09T08:34:24Z</time>
      </trkpt>
      <trkpt lat="45.84258" lon="4.81558">
        <ele>389</ele>
        <time>2012-12-09T08:34:29Z</time>
      </trkpt>
      <trkpt lat="45.8426" lon="4.81559">
        <ele>389</ele>
        <time>2012-12-09T08:34:30Z</time>
      </trkpt>
      <trkpt lat="45.84263" lon="4.81559">
        <ele>389</ele>
        <time>2012-12-09T08:34:31Z</time>
      </trkpt>
      <trkpt lat="45.84269" lon="4.81559">
        <ele>388</ele>
        <time>2012-12-09T08:34:34Z</time>
      </trkpt>
      <trkpt lat="45.84276" lon="4.81558">
        <ele>387</ele>
        <time>2012-12-09T08:34:38Z</time>
      </trkpt>
      <trkpt lat="45.8428" lon="4.81555">
        <ele>387</ele>
        <time>2012-12-09T08:34:40Z</time>
      </trkpt>
      <trkpt lat="45.84284" lon="4.81554">
        <ele>386</ele>
        <time>2012-12-09T08:34:42Z</time>
      </trkpt>
      <trkpt lat="45.84293" lon="4.81541">
        <ele>386</ele>
        <time>2012-12-09T08:34:47Z</time>
      </trkpt>
      <trkpt lat="45.84295" lon="4.8154">
        <ele>386</ele>
        <time>2012-12-09T08:34:48Z</time>
      </trkpt>
      <trkpt lat="45.84304" lon="4.81531">
        <ele>385</ele>
        <time>2012-12-09T08:34:52Z</time>
      </trkpt>
      <trkpt lat="45.84306" lon="4.81528">
        <ele>385</ele>
        <time>2012-12-09T08:34:53Z</time>
      </trkpt>
      <trkpt lat="45.8431" lon="4.81524">
        <ele>385</ele>
        <time>2012-12-09T08:34:55Z</time>
      </trkpt>
      <trkpt lat="45.84316" lon="4.81517">
        <ele>385</ele>
        <time>2012-12-09T08:34:58Z</time>
      </trkpt>
      <trkpt lat="45.84318" lon="4.81515">
        <ele>385</ele>
        <time>2012-12-09T08:34:59Z</time>
      </trkpt>
      <trkpt lat="45.84326" lon="4.81506">
        <ele>384</ele>
        <time>2012-12-09T08:35:03Z</time>
      </trkpt>
      <trkpt lat="45.84328" lon="4.81505">
        <ele>384</ele>
        <time>2012-12-09T08:35:04Z</time>
      </trkpt>
      <trkpt lat="45.84335" lon="4.8149">
        <ele>382</ele>
        <time>2012-12-09T08:35:09Z</time>
      </trkpt>
      <trkpt lat="45.84339" lon="4.81486">
        <ele>381</ele>
        <time>2012-12-09T08:35:11Z</time>
      </trkpt>
      <trkpt lat="45.84347" lon="4.81481">
        <ele>381</ele>
        <time>2012-12-09T08:35:14Z</time>
      </trkpt>
      <trkpt lat="45.84356" lon="4.81475">
        <ele>380</ele>
        <time>2012-12-09T08:35:18Z</time>
      </trkpt>
      <trkpt lat="45.84358" lon="4.81473">
        <ele>380</ele>
        <time>2012-12-09T08:35:19Z</time>
      </trkpt>
      <trkpt lat="45.84367" lon="4.81464">
        <ele>379</ele>
        <time>2012-12-09T08:35:24Z</time>
      </trkpt>
      <trkpt lat="45.84373" lon="4.81463">
        <ele>378</ele>
        <time>2012-12-09T08:35:27Z</time>
      </trkpt>
      <trkpt lat="45.84377" lon="4.81462">
        <ele>378</ele>
        <time>2012-12-09T08:35:29Z</time>
      </trkpt>
      <trkpt lat="45.84381" lon="4.81459">
        <ele>378</ele>
        <time>2012-12-09T08:35:31Z</time>
      </trkpt>
      <trkpt lat="45.84384" lon="4.81452">
        <ele>378</ele>
        <time>2012-12-09T08:35:34Z</time>
      </trkpt>
      <trkpt lat="45.84389" lon="4.8145">
        <ele>378</ele>
        <time>2012-12-09T08:35:37Z</time>
      </trkpt>
      <trkpt lat="45.84395" lon="4.8145">
        <ele>377</ele>
        <time>2012-12-09T08:35:40Z</time>
      </trkpt>
      <trkpt lat="45.84399" lon="4.81448">
        <ele>377</ele>
        <time>2012-12-09T08:35:43Z</time>
      </trkpt>
      <trkpt lat="45.84402" lon="4.81445">
        <ele>377</ele>
        <time>2012-12-09T08:35:45Z</time>
      </trkpt>
      <trkpt lat="45.84407" lon="4.81444">
        <ele>376</ele>
        <time>2012-12-09T08:35:47Z</time>
      </trkpt>
      <trkpt lat="45.84411" lon="4.81446">
        <ele>376</ele>
        <time>2012-12-09T08:35:49Z</time>
      </trkpt>
      <trkpt lat="45.84418" lon="4.81448">
        <ele>361</ele>
        <time>2012-12-09T08:35:53Z</time>
      </trkpt>
      <trkpt lat="45.8442" lon="4.81449">
        <ele>361</ele>
        <time>2012-12-09T08:35:54Z</time>
      </trkpt>
      <trkpt lat="45.84423" lon="4.81452">
        <ele>360</ele>
        <time>2012-12-09T08:35:56Z</time>
      </trkpt>
      <trkpt lat="45.84425" lon="4.81451">
        <ele>360</ele>
        <time>2012-12-09T08:35:57Z</time>
      </trkpt>
      <trkpt lat="45.84431" lon="4.81448">
        <ele>360</ele>
        <time>2012-12-09T08:36:02Z</time>
      </trkpt>
      <trkpt lat="45.84439" lon="4.81442">
        <ele>360</ele>
        <time>2012-12-09T08:36:07Z</time>
      </trkpt>
      <trkpt lat="45.84442" lon="4.8144">
        <ele>360</ele>
        <time>2012-12-09T08:36:09Z</time>
      </trkpt>
      <trkpt lat="45.84443" lon="4.81439">
        <ele>360</ele>
        <time>2012-12-09T08:36:10Z</time>
      </trkpt>
      <trkpt lat="45.84446" lon="4.81435">
        <ele>360</ele>
        <time>2012-12-09T08:36:12Z</time>
      </trkpt>
      <trkpt lat="45.84447" lon="4.81434">
        <ele>360</ele>
        <time>2012-12-09T08:36:13Z</time>
      </trkpt>
      <trkpt lat="45.84454" lon="4.81426">
        <ele>359</ele>
        <time>2012-12-09T08:36:17Z</time>
      </trkpt>
      <trkpt lat="45.84458" lon="4.81424">
        <ele>358</ele>
        <time>2012-12-09T08:36:19Z</time>
      </trkpt>
      <trkpt lat="45.84462" lon="4.8142">
        <ele>358</ele>
        <time>2012-12-09T08:36:21Z</time>
      </trkpt>
      <trkpt lat="45.84466" lon="4.81416">
        <ele>372</ele>
        <time>2012-12-09T08:36:23Z</time>
      </trkpt>
      <trkpt lat="45.84467" lon="4.81415">
        <ele>372</ele>
        <time>2012-12-09T08:36:24Z</time>
      </trkpt>
      <trkpt lat="45.84471" lon="4.81412">
        <ele>371</ele>
        <time>2012-12-09T08:36:27Z</time>
      </trkpt>
      <trkpt lat="45.84474" lon="4.81412">
        <ele>370</ele>
        <time>2012-12-09T08:36:29Z</time>
      </trkpt>
      <trkpt lat="45.84475" lon="4.81413">
        <ele>369</ele>
        <time>2012-12-09T08:36:30Z</time>
      </trkpt>
      <trkpt lat="45.84476" lon="4.81414">
        <ele>369</ele>
        <time>2012-12-09T08:36:32Z</time>
      </trkpt>
      <trkpt lat="45.8448" lon="4.8142">
        <ele>356</ele>
        <time>2012-12-09T08:36:49Z</time>
      </trkpt>
      <trkpt lat="45.84478" lon="4.81416">
        <ele>368</ele>
        <time>2012-12-09T08:37:32Z</time>
      </trkpt>
      <trkpt lat="45.84478" lon="4.81418">
        <ele>356</ele>
        <time>2012-12-09T08:37:33Z</time>
      </trkpt>
      <trkpt lat="45.84477" lon="4.81423">
        <ele>356</ele>
        <time>2012-12-09T08:37:35Z</time>
      </trkpt>
      <trkpt lat="45.84478" lon="4.8143">
        <ele>355</ele>
        <time>2012-12-09T08:37:38Z</time>
      </trkpt>
      <trkpt lat="45.84478" lon="4.81445">
        <ele>354</ele>
        <time>2012-12-09T08:37:44Z</time>
      </trkpt>
      <trkpt lat="45.8448" lon="4.81449">
        <ele>353</ele>
        <time>2012-12-09T08:37:46Z</time>
      </trkpt>
      <trkpt lat="45.84481" lon="4.81458">
        <ele>352</ele>
        <time>2012-12-09T08:37:49Z</time>
      </trkpt>
      <trkpt lat="45.84483" lon="4.81465">
        <ele>350</ele>
        <time>2012-12-09T08:37:52Z</time>
      </trkpt>
      <trkpt lat="45.84484" lon="4.81467">
        <ele>350</ele>
        <time>2012-12-09T08:37:53Z</time>
      </trkpt>
      <trkpt lat="45.84485" lon="4.81475">
        <ele>347</ele>
        <time>2012-12-09T08:37:56Z</time>
      </trkpt>
      <trkpt lat="45.84487" lon="4.8148">
        <ele>346</ele>
        <time>2012-12-09T08:37:58Z</time>
      </trkpt>
      <trkpt lat="45.84489" lon="4.81486">
        <ele>344</ele>
        <time>2012-12-09T08:38:01Z</time>
      </trkpt>
      <trkpt lat="45.84489" lon="4.8149">
        <ele>342</ele>
        <time>2012-12-09T08:38:03Z</time>
      </trkpt>
      <trkpt lat="45.84488" lon="4.81502">
        <ele>333</ele>
        <time>2012-12-09T08:38:08Z</time>
      </trkpt>
      <trkpt lat="45.84487" lon="4.81518">
        <ele>333</ele>
        <time>2012-12-09T08:38:13Z</time>
      </trkpt>
      <trkpt lat="45.84487" lon="4.8153">
        <ele>332</ele>
        <time>2012-12-09T08:38:17Z</time>
      </trkpt>
      <trkpt lat="45.84487" lon="4.81532">
        <ele>331</ele>
        <time>2012-12-09T08:38:18Z</time>
      </trkpt>
      <trkpt lat="45.84487" lon="4.81541">
        <ele>330</ele>
        <time>2012-12-09T08:38:22Z</time>
      </trkpt>
      <trkpt lat="45.84487" lon="4.81543">
        <ele>330</ele>
        <time>2012-12-09T08:38:24Z</time>
      </trkpt>
      <trkpt lat="45.84486" lon="4.81552">
        <ele>328</ele>
        <time>2012-12-09T08:38:30Z</time>
      </trkpt>
      <trkpt lat="45.84486" lon="4.81554">
        <ele>328</ele>
        <time>2012-12-09T08:38:31Z</time>
      </trkpt>
      <trkpt lat="45.84486" lon="4.81556">
        <ele>327</ele>
        <time>2012-12-09T08:38:32Z</time>
      </trkpt>
      <trkpt lat="45.84486" lon="4.81562">
        <ele>326</ele>
        <time>2012-12-09T08:38:35Z</time>
      </trkpt>
      <trkpt lat="45.84486" lon="4.81565">
        <ele>325</ele>
        <time>2012-12-09T08:38:37Z</time>
      </trkpt>
      <trkpt lat="45.84488" lon="4.81569">
        <ele>323</ele>
        <time>2012-12-09T08:38:40Z</time>
      </trkpt>
      <trkpt lat="45.84494" lon="4.81569">
        <ele>322</ele>
        <time>2012-12-09T08:38:46Z</time>
      </trkpt>
      <trkpt lat="45.84494" lon="4.81572">
        <ele>321</ele>
        <time>2012-12-09T08:38:48Z</time>
      </trkpt>
      <trkpt lat="45.84492" lon="4.81576">
        <ele>320</ele>
        <time>2012-12-09T08:38:51Z</time>
      </trkpt>
      <trkpt lat="45.84492" lon="4.8158">
        <ele>318</ele>
        <time>2012-12-09T08:38:55Z</time>
      </trkpt>
      <trkpt lat="45.84493" lon="4.81581">
        <ele>318</ele>
        <time>2012-12-09T08:38:56Z</time>
      </trkpt>
      <trkpt lat="45.84492" lon="4.81586">
        <ele>313</ele>
        <time>2012-12-09T08:38:59Z</time>
      </trkpt>
      <trkpt lat="45.84491" lon="4.81587">
        <ele>313</ele>
        <time>2012-12-09T08:39:00Z</time>
      </trkpt>
      <trkpt lat="45.84488" lon="4.81595">
        <ele>313</ele>
        <time>2012-12-09T08:39:04Z</time>
      </trkpt>
      <trkpt lat="45.84488" lon="4.81597">
        <ele>314</ele>
        <time>2012-12-09T08:39:05Z</time>
      </trkpt>
      <trkpt lat="45.84486" lon="4.81603">
        <ele>313</ele>
        <time>2012-12-09T08:39:07Z</time>
      </trkpt>
      <trkpt lat="45.84483" lon="4.81615">
        <ele>313</ele>
        <time>2012-12-09T08:39:11Z</time>
      </trkpt>
      <trkpt lat="45.84483" lon="4.8162">
        <ele>312</ele>
        <time>2012-12-09T08:39:13Z</time>
      </trkpt>
      <trkpt lat="45.84483" lon="4.81623">
        <ele>312</ele>
        <time>2012-12-09T08:39:14Z</time>
      </trkpt>
      <trkpt lat="45.84481" lon="4.81631">
        <ele>311</ele>
        <time>2012-12-09T08:39:17Z</time>
      </trkpt>
      <trkpt lat="45.84482" lon="4.81643">
        <ele>309</ele>
        <time>2012-12-09T08:39:22Z</time>
      </trkpt>
      <trkpt lat="45.84483" lon="4.81646">
        <ele>308</ele>
        <time>2012-12-09T08:39:23Z</time>
      </trkpt>
      <trkpt lat="45.84481" lon="4.8166">
        <ele>306</ele>
        <time>2012-12-09T08:39:27Z</time>
      </trkpt>
      <trkpt lat="45.8448" lon="4.81663">
        <ele>306</ele>
        <time>2012-12-09T08:39:28Z</time>
      </trkpt>
      <trkpt lat="45.84477" lon="4.81669">
        <ele>297</ele>
        <time>2012-12-09T08:39:31Z</time>
      </trkpt>
      <trkpt lat="45.84476" lon="4.81671">
        <ele>297</ele>
        <time>2012-12-09T08:39:32Z</time>
      </trkpt>
      <trkpt lat="45.84475" lon="4.81673">
        <ele>297</ele>
        <time>2012-12-09T08:39:33Z</time>
      </trkpt>
      <trkpt lat="45.8447" lon="4.81684">
        <ele>297</ele>
        <time>2012-12-09T08:39:37Z</time>
      </trkpt>
      <trkpt lat="45.84467" lon="4.81694">
        <ele>297</ele>
        <time>2012-12-09T08:39:40Z</time>
      </trkpt>
      <trkpt lat="45.84461" lon="4.81706">
        <ele>296</ele>
        <time>2012-12-09T08:39:44Z</time>
      </trkpt>
      <trkpt lat="45.84456" lon="4.81719">
        <ele>295</ele>
        <time>2012-12-09T08:39:48Z</time>
      </trkpt>
      <trkpt lat="45.84455" lon="4.81723">
        <ele>295</ele>
        <time>2012-12-09T08:39:49Z</time>
      </trkpt>
      <trkpt lat="45.84448" lon="4.81737">
        <ele>294</ele>
        <time>2012-12-09T08:39:54Z</time>
      </trkpt>
      <trkpt lat="45.84445" lon="4.81743">
        <ele>294</ele>
        <time>2012-12-09T08:39:56Z</time>
      </trkpt>
      <trkpt lat="45.84442" lon="4.81747">
        <ele>294</ele>
        <time>2012-12-09T08:39:58Z</time>
      </trkpt>
      <trkpt lat="45.84431" lon="4.81763">
        <ele>285</ele>
        <time>2012-12-09T08:40:04Z</time>
      </trkpt>
      <trkpt lat="45.84423" lon="4.81772">
        <ele>284</ele>
        <time>2012-12-09T08:40:08Z</time>
      </trkpt>
      <trkpt lat="45.84422" lon="4.81774">
        <ele>283</ele>
        <time>2012-12-09T08:40:09Z</time>
      </trkpt>
      <trkpt lat="45.84416" lon="4.81782">
        <ele>293</ele>
        <time>2012-12-09T08:40:12Z</time>
      </trkpt>
      <trkpt lat="45.84415" lon="4.81784">
        <ele>293</ele>
        <time>2012-12-09T08:40:13Z</time>
      </trkpt>
      <trkpt lat="45.8441" lon="4.81793">
        <ele>292</ele>
        <time>2012-12-09T08:40:17Z</time>
      </trkpt>
      <trkpt lat="45.84409" lon="4.81796">
        <ele>291</ele>
        <time>2012-12-09T08:40:18Z</time>
      </trkpt>
      <trkpt lat="45.84406" lon="4.81804">
        <ele>290</ele>
        <time>2012-12-09T08:40:21Z</time>
      </trkpt>
      <trkpt lat="45.84405" lon="4.81809">
        <ele>289</ele>
        <time>2012-12-09T08:40:23Z</time>
      </trkpt>
      <trkpt lat="45.844" lon="4.81823">
        <ele>287</ele>
        <time>2012-12-09T08:40:29Z</time>
      </trkpt>
      <trkpt lat="45.84399" lon="4.81825">
        <ele>286</ele>
        <time>2012-12-09T08:40:30Z</time>
      </trkpt>
      <trkpt lat="45.84398" lon="4.81828">
        <ele>286</ele>
        <time>2012-12-09T08:40:31Z</time>
      </trkpt>
      <trkpt lat="45.84396" lon="4.81834">
        <ele>281</ele>
        <time>2012-12-09T08:40:33Z</time>
      </trkpt>
      <trkpt lat="45.84392" lon="4.81843">
        <ele>283</ele>
        <time>2012-12-09T08:40:37Z</time>
      </trkpt>
      <trkpt lat="45.84391" lon="4.81845">
        <ele>283</ele>
        <time>2012-12-09T08:40:38Z</time>
      </trkpt>
      <trkpt lat="45.8439" lon="4.81852">
        <ele>283</ele>
        <time>2012-12-09T08:40:40Z</time>
      </trkpt>
      <trkpt lat="45.84388" lon="4.81859">
        <ele>284</ele>
        <time>2012-12-09T08:40:43Z</time>
      </trkpt>
      <trkpt lat="45.84388" lon="4.8186">
        <ele>284</ele>
        <time>2012-12-09T08:40:44Z</time>
      </trkpt>
      <trkpt lat="45.8439" lon="4.81865">
        <ele>283</ele>
        <time>2012-12-09T08:40:47Z</time>
      </trkpt>
      <trkpt lat="45.84391" lon="4.81875">
        <ele>283</ele>
        <time>2012-12-09T08:40:52Z</time>
      </trkpt>
      <trkpt lat="45.84392" lon="4.81878">
        <ele>283</ele>
        <time>2012-12-09T08:40:53Z</time>
      </trkpt>
      <trkpt lat="45.84397" lon="4.81891">
        <ele>281</ele>
        <time>2012-12-09T08:40:58Z</time>
      </trkpt>
      <trkpt lat="45.84398" lon="4.81902">
        <ele>279</ele>
        <time>2012-12-09T08:41:03Z</time>
      </trkpt>
      <trkpt lat="45.84401" lon="4.81911">
        <ele>277</ele>
        <time>2012-12-09T08:41:07Z</time>
      </trkpt>
      <trkpt lat="45.84401" lon="4.81913">
        <ele>276</ele>
        <time>2012-12-09T08:41:13Z</time>
      </trkpt>
      <trkpt lat="45.84403" lon="4.81916">
        <ele>275</ele>
        <time>2012-12-09T08:41:18Z</time>
      </trkpt>
      <trkpt lat="45.84406" lon="4.81921">
        <ele>271</ele>
        <time>2012-12-09T08:41:23Z</time>
      </trkpt>
      <trkpt lat="45.84408" lon="4.81922">
        <ele>271</ele>
        <time>2012-12-09T08:41:25Z</time>
      </trkpt>
      <trkpt lat="45.84409" lon="4.81922">
        <ele>271</ele>
        <time>2012-12-09T08:41:30Z</time>
      </trkpt>
      <trkpt lat="45.84409" lon="4.81922">
        <ele>270</ele>
        <time>2012-12-09T08:41:32Z</time>
      </trkpt>
      <trkpt lat="45.84409" lon="4.81927">
        <ele>271</ele>
        <time>2012-12-09T08:42:21Z</time>
      </trkpt>
      <trkpt lat="45.84409" lon="4.81936">
        <ele>273</ele>
        <time>2012-12-09T08:42:26Z</time>
      </trkpt>
      <trkpt lat="45.8441" lon="4.81939">
        <ele>273</ele>
        <time>2012-12-09T08:42:27Z</time>
      </trkpt>
      <trkpt lat="45.8441" lon="4.81942">
        <ele>273</ele>
        <time>2012-12-09T08:42:28Z</time>
      </trkpt>
      <trkpt lat="45.84409" lon="4.81949">
        <ele>273</ele>
        <time>2012-12-09T08:42:30Z</time>
      </trkpt>
      <trkpt lat="45.84407" lon="4.81966">
        <ele>272</ele>
        <time>2012-12-09T08:42:35Z</time>
      </trkpt>
      <trkpt lat="45.84407" lon="4.8197">
        <ele>272</ele>
        <time>2012-12-09T08:42:36Z</time>
      </trkpt>
      <trkpt lat="45.844" lon="4.81988">
        <ele>270</ele>
        <time>2012-12-09T08:42:43Z</time>
      </trkpt>
      <trkpt lat="45.84399" lon="4.81991">
        <ele>270</ele>
        <time>2012-12-09T08:42:44Z</time>
      </trkpt>
      <trkpt lat="45.84395" lon="4.82002">
        <ele>266</ele>
        <time>2012-12-09T08:42:49Z</time>
      </trkpt>
      <trkpt lat="45.84388" lon="4.82013">
        <ele>268</ele>
        <time>2012-12-09T08:42:54Z</time>
      </trkpt>
      <trkpt lat="45.84385" lon="4.82017">
        <ele>268</ele>
        <time>2012-12-09T08:42:56Z</time>
      </trkpt>
      <trkpt lat="45.84374" lon="4.82028">
        <ele>270</ele>
        <time>2012-12-09T08:43:03Z</time>
      </trkpt>
      <trkpt lat="45.84372" lon="4.82029">
        <ele>270</ele>
        <time>2012-12-09T08:43:04Z</time>
      </trkpt>
      <trkpt lat="45.84359" lon="4.82041">
        <ele>271</ele>
        <time>2012-12-09T08:43:12Z</time>
      </trkpt>
      <trkpt lat="45.84356" lon="4.82044">
        <ele>271</ele>
        <time>2012-12-09T08:43:14Z</time>
      </trkpt>
      <trkpt lat="45.84351" lon="4.82048">
        <ele>272</ele>
        <time>2012-12-09T08:43:17Z</time>
      </trkpt>
      <trkpt lat="45.84341" lon="4.82056">
        <ele>272</ele>
        <time>2012-12-09T08:43:23Z</time>
      </trkpt>
      <trkpt lat="45.8434" lon="4.82057">
        <ele>272</ele>
        <time>2012-12-09T08:43:24Z</time>
      </trkpt>
      <trkpt lat="45.8433" lon="4.82066">
        <ele>282</ele>
        <time>2012-12-09T08:43:30Z</time>
      </trkpt>
      <trkpt lat="45.84323" lon="4.82072">
        <ele>282</ele>
        <time>2012-12-09T08:43:35Z</time>
      </trkpt>
      <trkpt lat="45.84322" lon="4.82073">
        <ele>282</ele>
        <time>2012-12-09T08:43:36Z</time>
      </trkpt>
      <trkpt lat="45.84312" lon="4.82081">
        <ele>284</ele>
        <time>2012-12-09T08:43:43Z</time>
      </trkpt>
      <trkpt lat="45.84306" lon="4.82086">
        <ele>278</ele>
        <time>2012-12-09T08:43:47Z</time>
      </trkpt>
      <trkpt lat="45.84301" lon="4.8209">
        <ele>278</ele>
        <time>2012-12-09T08:43:50Z</time>
      </trkpt>
      <trkpt lat="45.84289" lon="4.821">
        <ele>280</ele>
        <time>2012-12-09T08:43:58Z</time>
      </trkpt>
      <trkpt lat="45.84278" lon="4.82105">
        <ele>281</ele>
        <time>2012-12-09T08:44:05Z</time>
      </trkpt>
      <trkpt lat="45.84272" lon="4.82107">
        <ele>282</ele>
        <time>2012-12-09T08:44:09Z</time>
      </trkpt>
      <trkpt lat="45.84266" lon="4.82109">
        <ele>282</ele>
        <time>2012-12-09T08:44:12Z</time>
      </trkpt>
      <trkpt lat="45.84256" lon="4.82114">
        <ele>282</ele>
        <time>2012-12-09T08:44:18Z</time>
      </trkpt>
      <trkpt lat="45.84254" lon="4.82114">
        <ele>282</ele>
        <time>2012-12-09T08:44:19Z</time>
      </trkpt>
      <trkpt lat="45.84244" lon="4.82118">
        <ele>289</ele>
        <time>2012-12-09T08:44:25Z</time>
      </trkpt>
      <trkpt lat="45.84235" lon="4.82119">
        <ele>289</ele>
        <time>2012-12-09T08:44:31Z</time>
      </trkpt>
      <trkpt lat="45.84233" lon="4.8212">
        <ele>289</ele>
        <time>2012-12-09T08:44:32Z</time>
      </trkpt>
      <trkpt lat="45.84224" lon="4.82119">
        <ele>290</ele>
        <time>2012-12-09T08:44:39Z</time>
      </trkpt>
      <trkpt lat="45.84217" lon="4.82118">
        <ele>290</ele>
        <time>2012-12-09T08:44:44Z</time>
      </trkpt>
      <trkpt lat="45.84212" lon="4.82115">
        <ele>290</ele>
        <time>2012-12-09T08:44:48Z</time>
      </trkpt>
      <trkpt lat="45.84199" lon="4.82112">
        <ele>291</ele>
        <time>2012-12-09T08:44:57Z</time>
      </trkpt>
      <trkpt lat="45.84198" lon="4.82111">
        <ele>291</ele>
        <time>2012-12-09T08:44:58Z</time>
      </trkpt>
      <trkpt lat="45.84191" lon="4.82107">
        <ele>292</ele>
        <time>2012-12-09T08:45:04Z</time>
      </trkpt>
      <trkpt lat="45.84181" lon="4.82103">
        <ele>293</ele>
        <time>2012-12-09T08:45:12Z</time>
      </trkpt>
      <trkpt lat="45.84177" lon="4.82101">
        <ele>294</ele>
        <time>2012-12-09T08:45:15Z</time>
      </trkpt>
      <trkpt lat="45.84165" lon="4.82097">
        <ele>295</ele>
        <time>2012-12-09T08:45:24Z</time>
      </trkpt>
      <trkpt lat="45.84162" lon="4.82096">
        <ele>295</ele>
        <time>2012-12-09T08:45:26Z</time>
      </trkpt>
      <trkpt lat="45.84154" lon="4.82092">
        <ele>295</ele>
        <time>2012-12-09T08:45:32Z</time>
      </trkpt>
      <trkpt lat="45.84145" lon="4.82089">
        <ele>294</ele>
        <time>2012-12-09T08:45:38Z</time>
      </trkpt>
      <trkpt lat="45.84144" lon="4.82089">
        <ele>293</ele>
        <time>2012-12-09T08:45:39Z</time>
      </trkpt>
      <trkpt lat="45.84133" lon="4.82084">
        <ele>292</ele>
        <time>2012-12-09T08:45:46Z</time>
      </trkpt>
      <trkpt lat="45.84126" lon="4.8208">
        <ele>299</ele>
        <time>2012-12-09T08:45:51Z</time>
      </trkpt>
      <trkpt lat="45.84121" lon="4.82075">
        <ele>299</ele>
        <time>2012-12-09T08:45:55Z</time>
      </trkpt>
      <trkpt lat="45.84115" lon="4.82065">
        <ele>299</ele>
        <time>2012-12-09T08:46:02Z</time>
      </trkpt>
      <trkpt lat="45.84114" lon="4.82064">
        <ele>299</ele>
        <time>2012-12-09T08:46:03Z</time>
      </trkpt>
      <trkpt lat="45.84112" lon="4.82065">
        <ele>298</ele>
        <time>2012-12-09T08:46:05Z</time>
      </trkpt>
      <trkpt lat="45.84109" lon="4.82064">
        <ele>298</ele>
        <time>2012-12-09T08:46:07Z</time>
      </trkpt>
      <trkpt lat="45.84105" lon="4.82058">
        <ele>298</ele>
        <time>2012-12-09T08:46:12Z</time>
      </trkpt>
      <trkpt lat="45.84104" lon="4.82057">
        <ele>298</ele>
        <time>2012-12-09T08:46:13Z</time>
      </trkpt>
      <trkpt lat="45.84101" lon="4.82052">
        <ele>299</ele>
        <time>2012-12-09T08:46:19Z</time>
      </trkpt>
      <trkpt lat="45.84101" lon="4.82049">
        <ele>299</ele>
        <time>2012-12-09T08:46:21Z</time>
      </trkpt>
      <trkpt lat="45.84101" lon="4.82046">
        <ele>299</ele>
        <time>2012-12-09T08:46:23Z</time>
      </trkpt>
      <trkpt lat="45.84101" lon="4.82045">
        <ele>299</ele>
        <time>2012-12-09T08:46:24Z</time>
      </trkpt>
      <trkpt lat="45.84103" lon="4.82038">
        <ele>300</ele>
        <time>2012-12-09T08:46:30Z</time>
      </trkpt>
      <trkpt lat="45.84103" lon="4.82029">
        <ele>300</ele>
        <time>2012-12-09T08:46:36Z</time>
      </trkpt>
      <trkpt lat="45.84102" lon="4.82025">
        <ele>301</ele>
        <time>2012-12-09T08:46:38Z</time>
      </trkpt>
      <trkpt lat="45.84102" lon="4.8202">
        <ele>301</ele>
        <time>2012-12-09T08:46:41Z</time>
      </trkpt>
      <trkpt lat="45.841" lon="4.82014">
        <ele>301</ele>
        <time>2012-12-09T08:46:44Z</time>
      </trkpt>
      <trkpt lat="45.84101" lon="4.82007">
        <ele>301</ele>
        <time>2012-12-09T08:46:49Z</time>
      </trkpt>
      <trkpt lat="45.841" lon="4.82002">
        <ele>301</ele>
        <time>2012-12-09T08:46:52Z</time>
      </trkpt>
      <trkpt lat="45.841" lon="4.81994">
        <ele>307</ele>
        <time>2012-12-09T08:46:57Z</time>
      </trkpt>
      <trkpt lat="45.841" lon="4.81991">
        <ele>307</ele>
        <time>2012-12-09T08:46:59Z</time>
      </trkpt>
      <trkpt lat="45.841" lon="4.8198">
        <ele>309</ele>
        <time>2012-12-09T08:47:06Z</time>
      </trkpt>
      <trkpt lat="45.841" lon="4.81974">
        <ele>310</ele>
        <time>2012-12-09T08:47:12Z</time>
      </trkpt>
      <trkpt lat="45.841" lon="4.81973">
        <ele>310</ele>
        <time>2012-12-09T08:47:13Z</time>
      </trkpt>
      <trkpt lat="45.84101" lon="4.81967">
        <ele>310</ele>
        <time>2012-12-09T08:47:17Z</time>
      </trkpt>
      <trkpt lat="45.84103" lon="4.81965">
        <ele>311</ele>
        <time>2012-12-09T08:47:20Z</time>
      </trkpt>
      <trkpt lat="45.84105" lon="4.81961">
        <ele>311</ele>
        <time>2012-12-09T08:47:24Z</time>
      </trkpt>
      <trkpt lat="45.84106" lon="4.81958">
        <ele>312</ele>
        <time>2012-12-09T08:47:25Z</time>
      </trkpt>
      <trkpt lat="45.84106" lon="4.81956">
        <ele>312</ele>
        <time>2012-12-09T08:47:27Z</time>
      </trkpt>
      <trkpt lat="45.84106" lon="4.81955">
        <ele>312</ele>
        <time>2012-12-09T08:47:29Z</time>
      </trkpt>
      <trkpt lat="45.84108" lon="4.81946">
        <ele>313</ele>
        <time>2012-12-09T08:47:36Z</time>
      </trkpt>
      <trkpt lat="45.84108" lon="4.81943">
        <ele>313</ele>
        <time>2012-12-09T08:47:38Z</time>
      </trkpt>
      <trkpt lat="45.84108" lon="4.81942">
        <ele>313</ele>
        <time>2012-12-09T08:47:39Z</time>
      </trkpt>
      <trkpt lat="45.84108" lon="4.81938">
        <ele>313</ele>
        <time>2012-12-09T08:47:42Z</time>
      </trkpt>
      <trkpt lat="45.84108" lon="4.81936">
        <ele>313</ele>
        <time>2012-12-09T08:47:43Z</time>
      </trkpt>
      <trkpt lat="45.84108" lon="4.81931">
        <ele>313</ele>
        <time>2012-12-09T08:47:47Z</time>
      </trkpt>
      <trkpt lat="45.8411" lon="4.81928">
        <ele>313</ele>
        <time>2012-12-09T08:47:54Z</time>
      </trkpt>
      <trkpt lat="45.84113" lon="4.81923">
        <ele>314</ele>
        <time>2012-12-09T08:48:05Z</time>
      </trkpt>
      <trkpt lat="45.84117" lon="4.81923">
        <ele>315</ele>
        <time>2012-12-09T08:48:09Z</time>
      </trkpt>
      <trkpt lat="45.84117" lon="4.81922">
        <ele>315</ele>
        <time>2012-12-09T08:48:10Z</time>
      </trkpt>
      <trkpt lat="45.84118" lon="4.81921">
        <ele>315</ele>
        <time>2012-12-09T08:48:11Z</time>
      </trkpt>
      <trkpt lat="45.8412" lon="4.81917">
        <ele>321</ele>
        <time>2012-12-09T08:48:15Z</time>
      </trkpt>
      <trkpt lat="45.84121" lon="4.81915">
        <ele>321</ele>
        <time>2012-12-09T08:48:17Z</time>
      </trkpt>
      <trkpt lat="45.8412" lon="4.81913">
        <ele>321</ele>
        <time>2012-12-09T08:48:19Z</time>
      </trkpt>
      <trkpt lat="45.84122" lon="4.81909">
        <ele>322</ele>
        <time>2012-12-09T08:48:23Z</time>
      </trkpt>
      <trkpt lat="45.84122" lon="4.81908">
        <ele>322</ele>
        <time>2012-12-09T08:48:24Z</time>
      </trkpt>
      <trkpt lat="45.84122" lon="4.81905">
        <ele>322</ele>
        <time>2012-12-09T08:48:26Z</time>
      </trkpt>
      <trkpt lat="45.84125" lon="4.81899">
        <ele>323</ele>
        <time>2012-12-09T08:48:31Z</time>
      </trkpt>
      <trkpt lat="45.84126" lon="4.81899">
        <ele>323</ele>
        <time>2012-12-09T08:48:32Z</time>
      </trkpt>
      <trkpt lat="45.84133" lon="4.81899">
        <ele>324</ele>
        <time>2012-12-09T08:48:38Z</time>
      </trkpt>
      <trkpt lat="45.84135" lon="4.81898">
        <ele>325</ele>
        <time>2012-12-09T08:48:41Z</time>
      </trkpt>
      <trkpt lat="45.84138" lon="4.81897">
        <ele>325</ele>
        <time>2012-12-09T08:48:45Z</time>
      </trkpt>
      <trkpt lat="45.84139" lon="4.8189">
        <ele>325</ele>
        <time>2012-12-09T08:49:02Z</time>
      </trkpt>
      <trkpt lat="45.8414" lon="4.81888">
        <ele>325</ele>
        <time>2012-12-09T08:49:04Z</time>
      </trkpt>
      <trkpt lat="45.84141" lon="4.81885">
        <ele>325</ele>
        <time>2012-12-09T08:49:06Z</time>
      </trkpt>
      <trkpt lat="45.84142" lon="4.8188">
        <ele>326</ele>
        <time>2012-12-09T08:49:09Z</time>
      </trkpt>
      <trkpt lat="45.84142" lon="4.81878">
        <ele>326</ele>
        <time>2012-12-09T08:49:10Z</time>
      </trkpt>
      <trkpt lat="45.84143" lon="4.81875">
        <ele>326</ele>
        <time>2012-12-09T08:49:12Z</time>
      </trkpt>
      <trkpt lat="45.84144" lon="4.8187">
        <ele>327</ele>
        <time>2012-12-09T08:49:16Z</time>
      </trkpt>
      <trkpt lat="45.84145" lon="4.81868">
        <ele>327</ele>
        <time>2012-12-09T08:49:17Z</time>
      </trkpt>
      <trkpt lat="45.84147" lon="4.81865">
        <ele>327</ele>
        <time>2012-12-09T08:49:20Z</time>
      </trkpt>
      <trkpt lat="45.84148" lon="4.81864">
        <ele>328</ele>
        <time>2012-12-09T08:49:21Z</time>
      </trkpt>
      <trkpt lat="45.84155" lon="4.81854">
        <ele>330</ele>
        <time>2012-12-09T08:49:29Z</time>
      </trkpt>
      <trkpt lat="45.84156" lon="4.81851">
        <ele>331</ele>
        <time>2012-12-09T08:49:31Z</time>
      </trkpt>
      <trkpt lat="45.84158" lon="4.81848">
        <ele>333</ele>
        <time>2012-12-09T08:49:34Z</time>
      </trkpt>
      <trkpt lat="45.8416" lon="4.81843">
        <ele>334</ele>
        <time>2012-12-09T08:49:37Z</time>
      </trkpt>
      <trkpt lat="45.8416" lon="4.81839">
        <ele>336</ele>
        <time>2012-12-09T08:49:40Z</time>
      </trkpt>
      <trkpt lat="45.8416" lon="4.81834">
        <ele>337</ele>
        <time>2012-12-09T08:49:43Z</time>
      </trkpt>
      <trkpt lat="45.84158" lon="4.81834">
        <ele>336</ele>
        <time>2012-12-09T08:49:44Z</time>
      </trkpt>
      <trkpt lat="45.84152" lon="4.81829">
        <ele>336</ele>
        <time>2012-12-09T08:49:50Z</time>
      </trkpt>
      <trkpt lat="45.8415" lon="4.81827">
        <ele>335</ele>
        <time>2012-12-09T08:49:52Z</time>
      </trkpt>
      <trkpt lat="45.84149" lon="4.81826">
        <ele>335</ele>
        <time>2012-12-09T08:49:54Z</time>
      </trkpt>
      <trkpt lat="45.84149" lon="4.81826">
        <ele>335</ele>
        <time>2012-12-09T08:49:55Z</time>
      </trkpt>
      <trkpt lat="45.84146" lon="4.81825">
        <ele>334</ele>
        <time>2012-12-09T08:49:59Z</time>
      </trkpt>
      <trkpt lat="45.84145" lon="4.81824">
        <ele>334</ele>
        <time>2012-12-09T08:50:00Z</time>
      </trkpt>
      <trkpt lat="45.84141" lon="4.81815">
        <ele>333</ele>
        <time>2012-12-09T08:50:06Z</time>
      </trkpt>
      <trkpt lat="45.84142" lon="4.81807">
        <ele>333</ele>
        <time>2012-12-09T08:50:11Z</time>
      </trkpt>
      <trkpt lat="45.84142" lon="4.81804">
        <ele>333</ele>
        <time>2012-12-09T08:50:13Z</time>
      </trkpt>
      <trkpt lat="45.84142" lon="4.81804">
        <ele>333</ele>
        <time>2012-12-09T08:50:14Z</time>
      </trkpt>
      <trkpt lat="45.84143" lon="4.81804">
        <ele>334</ele>
        <time>2012-12-09T08:50:15Z</time>
      </trkpt>
      <trkpt lat="45.84146" lon="4.81802">
        <ele>334</ele>
        <time>2012-12-09T08:50:20Z</time>
      </trkpt>
      <trkpt lat="45.84146" lon="4.81798">
        <ele>334</ele>
        <time>2012-12-09T08:50:25Z</time>
      </trkpt>
      <trkpt lat="45.84145" lon="4.81793">
        <ele>334</ele>
        <time>2012-12-09T08:50:32Z</time>
      </trkpt>
      <trkpt lat="45.84139" lon="4.81788">
        <ele>334</ele>
        <time>2012-12-09T08:50:38Z</time>
      </trkpt>
      <trkpt lat="45.84138" lon="4.81787">
        <ele>334</ele>
        <time>2012-12-09T08:50:40Z</time>
      </trkpt>
      <trkpt lat="45.84135" lon="4.81785">
        <ele>333</ele>
        <time>2012-12-09T08:50:44Z</time>
      </trkpt>
      <trkpt lat="45.84132" lon="4.81788">
        <ele>332</ele>
        <time>2012-12-09T08:50:51Z</time>
      </trkpt>
      <trkpt lat="45.84129" lon="4.81788">
        <ele>331</ele>
        <time>2012-12-09T08:51:05Z</time>
      </trkpt>
      <trkpt lat="45.8413" lon="4.81788">
        <ele>332</ele>
        <time>2012-12-09T08:51:52Z</time>
      </trkpt>
      <trkpt lat="45.84133" lon="4.8179">
        <ele>332</ele>
        <time>2012-12-09T08:51:55Z</time>
      </trkpt>
      <trkpt lat="45.84134" lon="4.81791">
        <ele>332</ele>
        <time>2012-12-09T08:51:56Z</time>
      </trkpt>
      <trkpt lat="45.84136" lon="4.81791">
        <ele>333</ele>
        <time>2012-12-09T08:52:00Z</time>
      </trkpt>
      <trkpt lat="45.84139" lon="4.81793">
        <ele>333</ele>
        <time>2012-12-09T08:52:07Z</time>
      </trkpt>
      <trkpt lat="45.84142" lon="4.81796">
        <ele>334</ele>
        <time>2012-12-09T08:52:10Z</time>
      </trkpt>
      <trkpt lat="45.84144" lon="4.81797">
        <ele>334</ele>
        <time>2012-12-09T08:52:14Z</time>
      </trkpt>
      <trkpt lat="45.84144" lon="4.81796">
        <ele>334</ele>
        <time>2012-12-09T08:52:23Z</time>
      </trkpt>
      <trkpt lat="45.84146" lon="4.81793">
        <ele>335</ele>
        <time>2012-12-09T08:52:29Z</time>
      </trkpt>
      <trkpt lat="45.84147" lon="4.8179">
        <ele>335</ele>
        <time>2012-12-09T08:52:38Z</time>
      </trkpt>
      <trkpt lat="45.84147" lon="4.81789">
        <ele>335</ele>
        <time>2012-12-09T08:52:39Z</time>
      </trkpt>
      <trkpt lat="45.84149" lon="4.81788">
        <ele>336</ele>
        <time>2012-12-09T08:52:41Z</time>
      </trkpt>
      <trkpt lat="45.84151" lon="4.81787">
        <ele>336</ele>
        <time>2012-12-09T08:52:43Z</time>
      </trkpt>
      <trkpt lat="45.84154" lon="4.81785">
        <ele>337</ele>
        <time>2012-12-09T08:52:49Z</time>
      </trkpt>
      <trkpt lat="45.84161" lon="4.81786">
        <ele>338</ele>
        <time>2012-12-09T08:52:55Z</time>
      </trkpt>
      <trkpt lat="45.84164" lon="4.81787">
        <ele>338</ele>
        <time>2012-12-09T08:52:57Z</time>
      </trkpt>
      <trkpt lat="45.84165" lon="4.81787">
        <ele>338</ele>
        <time>2012-12-09T08:52:58Z</time>
      </trkpt>
      <trkpt lat="45.84165" lon="4.81787">
        <ele>338</ele>
        <time>2012-12-09T08:53:01Z</time>
      </trkpt>
      <trkpt lat="45.84167" lon="4.81787">
        <ele>348</ele>
        <time>2012-12-09T08:53:04Z</time>
      </trkpt>
      <trkpt lat="45.84168" lon="4.81785">
        <ele>348</ele>
        <time>2012-12-09T08:53:06Z</time>
      </trkpt>
      <trkpt lat="45.84173" lon="4.81783">
        <ele>349</ele>
        <time>2012-12-09T08:53:10Z</time>
      </trkpt>
      <trkpt lat="45.84174" lon="4.81782">
        <ele>349</ele>
        <time>2012-12-09T08:53:11Z</time>
      </trkpt>
      <trkpt lat="45.84175" lon="4.81782">
        <ele>349</ele>
        <time>2012-12-09T08:53:13Z</time>
      </trkpt>
      <trkpt lat="45.84175" lon="4.81779">
        <ele>349</ele>
        <time>2012-12-09T08:53:16Z</time>
      </trkpt>
      <trkpt lat="45.84178" lon="4.81776">
        <ele>349</ele>
        <time>2012-12-09T08:53:22Z</time>
      </trkpt>
      <trkpt lat="45.84179" lon="4.81775">
        <ele>349</ele>
        <time>2012-12-09T08:53:23Z</time>
      </trkpt>
      <trkpt lat="45.8418" lon="4.81776">
        <ele>349</ele>
        <time>2012-12-09T08:53:24Z</time>
      </trkpt>
      <trkpt lat="45.84181" lon="4.81774">
        <ele>349</ele>
        <time>2012-12-09T08:53:26Z</time>
      </trkpt>
      <trkpt lat="45.84183" lon="4.81772">
        <ele>350</ele>
        <time>2012-12-09T08:53:28Z</time>
      </trkpt>
      <trkpt lat="45.84184" lon="4.81771">
        <ele>350</ele>
        <time>2012-12-09T08:53:29Z</time>
      </trkpt>
      <trkpt lat="45.84186" lon="4.81768">
        <ele>350</ele>
        <time>2012-12-09T08:53:33Z</time>
      </trkpt>
      <trkpt lat="45.84186" lon="4.81767">
        <ele>350</ele>
        <time>2012-12-09T08:53:34Z</time>
      </trkpt>
      <trkpt lat="45.84186" lon="4.81769">
        <ele>350</ele>
        <time>2012-12-09T08:53:40Z</time>
      </trkpt>
      <trkpt lat="45.84185" lon="4.81773">
        <ele>349</ele>
        <time>2012-12-09T08:53:48Z</time>
      </trkpt>
      <trkpt lat="45.84183" lon="4.81776">
        <ele>349</ele>
        <time>2012-12-09T08:53:57Z</time>
      </trkpt>
      <trkpt lat="45.84183" lon="4.81777">
        <ele>349</ele>
        <time>2012-12-09T08:53:58Z</time>
      </trkpt>
      <trkpt lat="45.84179" lon="4.81782">
        <ele>348</ele>
        <time>2012-12-09T08:54:05Z</time>
      </trkpt>
      <trkpt lat="45.84181" lon="4.81787">
        <ele>348</ele>
        <time>2012-12-09T08:54:20Z</time>
      </trkpt>
      <trkpt lat="45.84184" lon="4.81788">
        <ele>347</ele>
        <time>2012-12-09T08:54:23Z</time>
      </trkpt>
      <trkpt lat="45.84185" lon="4.81788">
        <ele>347</ele>
        <time>2012-12-09T08:54:24Z</time>
      </trkpt>
      <trkpt lat="45.84188" lon="4.81783">
        <ele>348</ele>
        <time>2012-12-09T08:54:29Z</time>
      </trkpt>
      <trkpt lat="45.84188" lon="4.81781">
        <ele>348</ele>
        <time>2012-12-09T08:54:30Z</time>
      </trkpt>
      <trkpt lat="45.8419" lon="4.81779">
        <ele>348</ele>
        <time>2012-12-09T08:54:32Z</time>
      </trkpt>
      <trkpt lat="45.84192" lon="4.81777">
        <ele>348</ele>
        <time>2012-12-09T08:54:34Z</time>
      </trkpt>
      <trkpt lat="45.84194" lon="4.81775">
        <ele>348</ele>
        <time>2012-12-09T08:54:36Z</time>
      </trkpt>
      <trkpt lat="45.84197" lon="4.81769">
        <ele>349</ele>
        <time>2012-12-09T08:54:42Z</time>
      </trkpt>
      <trkpt lat="45.842" lon="4.81764">
        <ele>349</ele>
        <time>2012-12-09T08:54:46Z</time>
      </trkpt>
      <trkpt lat="45.84201" lon="4.81762">
        <ele>349</ele>
        <time>2012-12-09T08:54:48Z</time>
      </trkpt>
      <trkpt lat="45.84204" lon="4.81754">
        <ele>349</ele>
        <time>2012-12-09T08:54:54Z</time>
      </trkpt>
      <trkpt lat="45.84207" lon="4.81747">
        <ele>361</ele>
        <time>2012-12-09T08:54:59Z</time>
      </trkpt>
      <trkpt lat="45.84208" lon="4.81745">
        <ele>361</ele>
        <time>2012-12-09T08:55:01Z</time>
      </trkpt>
      <trkpt lat="45.84208" lon="4.81743">
        <ele>361</ele>
        <time>2012-12-09T08:55:02Z</time>
      </trkpt>
      <trkpt lat="45.84208" lon="4.81741">
        <ele>361</ele>
        <time>2012-12-09T08:55:03Z</time>
      </trkpt>
      <trkpt lat="45.84209" lon="4.81736">
        <ele>361</ele>
        <time>2012-12-09T08:55:08Z</time>
      </trkpt>
      <trkpt lat="45.84209" lon="4.81732">
        <ele>362</ele>
        <time>2012-12-09T08:55:11Z</time>
      </trkpt>
      <trkpt lat="45.8421" lon="4.81729">
        <ele>362</ele>
        <time>2012-12-09T08:55:14Z</time>
      </trkpt>
      <trkpt lat="45.84212" lon="4.81722">
        <ele>363</ele>
        <time>2012-12-09T08:55:20Z</time>
      </trkpt>
      <trkpt lat="45.84213" lon="4.81718">
        <ele>363</ele>
        <time>2012-12-09T08:55:22Z</time>
      </trkpt>
      <trkpt lat="45.84214" lon="4.81715">
        <ele>364</ele>
        <time>2012-12-09T08:55:24Z</time>
      </trkpt>
      <trkpt lat="45.84216" lon="4.81713">
        <ele>364</ele>
        <time>2012-12-09T08:55:26Z</time>
      </trkpt>
      <trkpt lat="45.84218" lon="4.81704">
        <ele>365</ele>
        <time>2012-12-09T08:55:32Z</time>
      </trkpt>
      <trkpt lat="45.84218" lon="4.81701">
        <ele>365</ele>
        <time>2012-12-09T08:55:34Z</time>
      </trkpt>
      <trkpt lat="45.84219" lon="4.81697">
        <ele>366</ele>
        <time>2012-12-09T08:55:38Z</time>
      </trkpt>
      <trkpt lat="45.84219" lon="4.81695">
        <ele>366</ele>
        <time>2012-12-09T08:55:42Z</time>
      </trkpt>
      <trkpt lat="45.8422" lon="4.8169">
        <ele>367</ele>
        <time>2012-12-09T08:55:45Z</time>
      </trkpt>
      <trkpt lat="45.8422" lon="4.81689">
        <ele>367</ele>
        <time>2012-12-09T08:55:46Z</time>
      </trkpt>
      <trkpt lat="45.8422" lon="4.81686">
        <ele>367</ele>
        <time>2012-12-09T08:55:48Z</time>
      </trkpt>
      <trkpt lat="45.8422" lon="4.81686">
        <ele>368</ele>
        <time>2012-12-09T08:55:49Z</time>
      </trkpt>
      <trkpt lat="45.84219" lon="4.81679">
        <ele>368</ele>
        <time>2012-12-09T08:55:54Z</time>
      </trkpt>
      <trkpt lat="45.8422" lon="4.81672">
        <ele>369</ele>
        <time>2012-12-09T08:56:01Z</time>
      </trkpt>
      <trkpt lat="45.84219" lon="4.81664">
        <ele>379</ele>
        <time>2012-12-09T08:56:07Z</time>
      </trkpt>
      <trkpt lat="45.8422" lon="4.81663">
        <ele>379</ele>
        <time>2012-12-09T08:56:08Z</time>
      </trkpt>
      <trkpt lat="45.8422" lon="4.81655">
        <ele>379</ele>
        <time>2012-12-09T08:56:14Z</time>
      </trkpt>
      <trkpt lat="45.8422" lon="4.81653">
        <ele>379</ele>
        <time>2012-12-09T08:56:15Z</time>
      </trkpt>
      <trkpt lat="45.84221" lon="4.8165">
        <ele>379</ele>
        <time>2012-12-09T08:56:18Z</time>
      </trkpt>
      <trkpt lat="45.84222" lon="4.81644">
        <ele>380</ele>
        <time>2012-12-09T08:56:22Z</time>
      </trkpt>
      <trkpt lat="45.84223" lon="4.8164">
        <ele>380</ele>
        <time>2012-12-09T08:56:25Z</time>
      </trkpt>
      <trkpt lat="45.84223" lon="4.81639">
        <ele>380</ele>
        <time>2012-12-09T08:56:26Z</time>
      </trkpt>
      <trkpt lat="45.84223" lon="4.81637">
        <ele>380</ele>
        <time>2012-12-09T08:56:28Z</time>
      </trkpt>
      <trkpt lat="45.84223" lon="4.81636">
        <ele>380</ele>
        <time>2012-12-09T08:56:29Z</time>
      </trkpt>
      <trkpt lat="45.84223" lon="4.81627">
        <ele>381</ele>
        <time>2012-12-09T08:56:36Z</time>
      </trkpt>
      <trkpt lat="45.84221" lon="4.81622">
        <ele>381</ele>
        <time>2012-12-09T08:56:43Z</time>
      </trkpt>
      <trkpt lat="45.84222" lon="4.81615">
        <ele>382</ele>
        <time>2012-12-09T08:56:48Z</time>
      </trkpt>
      <trkpt lat="45.84222" lon="4.81613">
        <ele>382</ele>
        <time>2012-12-09T08:56:49Z</time>
      </trkpt>
      <trkpt lat="45.84222" lon="4.81611">
        <ele>382</ele>
        <time>2012-12-09T08:56:50Z</time>
      </trkpt>
      <trkpt lat="45.84227" lon="4.81599">
        <ele>384</ele>
        <time>2012-12-09T08:56:57Z</time>
      </trkpt>
      <trkpt lat="45.84227" lon="4.81598">
        <ele>384</ele>
        <time>2012-12-09T08:56:58Z</time>
      </trkpt>
      <trkpt lat="45.84227" lon="4.81588">
        <ele>385</ele>
        <time>2012-12-09T08:57:05Z</time>
      </trkpt>
      <trkpt lat="45.84226" lon="4.81587">
        <ele>385</ele>
        <time>2012-12-09T08:57:06Z</time>
      </trkpt>
      <trkpt lat="45.84225" lon="4.81586">
        <ele>384</ele>
        <time>2012-12-09T08:57:07Z</time>
      </trkpt>
      <trkpt lat="45.84223" lon="4.81579">
        <ele>390</ele>
        <time>2012-12-09T08:57:11Z</time>
      </trkpt>
      <trkpt lat="45.84222" lon="4.81566">
        <ele>391</ele>
        <time>2012-12-09T08:57:19Z</time>
      </trkpt>
      <trkpt lat="45.84222" lon="4.81562">
        <ele>391</ele>
        <time>2012-12-09T08:57:21Z</time>
      </trkpt>
      <trkpt lat="45.84222" lon="4.81556">
        <ele>391</ele>
        <time>2012-12-09T08:57:24Z</time>
      </trkpt>
      <trkpt lat="45.84222" lon="4.81555">
        <ele>391</ele>
        <time>2012-12-09T08:57:25Z</time>
      </trkpt>
      <trkpt lat="45.84222" lon="4.81552">
        <ele>391</ele>
        <time>2012-12-09T08:57:27Z</time>
      </trkpt>
      <trkpt lat="45.84223" lon="4.81545">
        <ele>392</ele>
        <time>2012-12-09T08:57:31Z</time>
      </trkpt>
      <trkpt lat="45.84225" lon="4.8154">
        <ele>392</ele>
        <time>2012-12-09T08:57:36Z</time>
      </trkpt>
      <trkpt lat="45.84226" lon="4.81538">
        <ele>392</ele>
        <time>2012-12-09T08:57:38Z</time>
      </trkpt>
      <trkpt lat="45.84227" lon="4.81538">
        <ele>392</ele>
        <time>2012-12-09T08:57:39Z</time>
      </trkpt>
      <trkpt lat="45.84227" lon="4.81536">
        <ele>393</ele>
        <time>2012-12-09T08:57:40Z</time>
      </trkpt>
      <trkpt lat="45.84227" lon="4.81535">
        <ele>393</ele>
        <time>2012-12-09T08:57:41Z</time>
      </trkpt>
      <trkpt lat="45.84232" lon="4.81533">
        <ele>393</ele>
        <time>2012-12-09T08:57:45Z</time>
      </trkpt>
      <trkpt lat="45.84234" lon="4.81531">
        <ele>394</ele>
        <time>2012-12-09T08:57:47Z</time>
      </trkpt>
      <trkpt lat="45.84238" lon="4.81529">
        <ele>394</ele>
        <time>2012-12-09T08:57:50Z</time>
      </trkpt>
      <trkpt lat="45.8424" lon="4.81526">
        <ele>395</ele>
        <time>2012-12-09T08:57:53Z</time>
      </trkpt>
      <trkpt lat="45.84243" lon="4.81523">
        <ele>396</ele>
        <time>2012-12-09T08:57:56Z</time>
      </trkpt>
      <trkpt lat="45.84245" lon="4.81522">
        <ele>396</ele>
        <time>2012-12-09T08:57:58Z</time>
      </trkpt>
      <trkpt lat="45.84246" lon="4.81521">
        <ele>396</ele>
        <time>2012-12-09T08:58:00Z</time>
      </trkpt>
      <trkpt lat="45.84248" lon="4.81515">
        <ele>398</ele>
        <time>2012-12-09T08:58:05Z</time>
      </trkpt>
      <trkpt lat="45.84249" lon="4.81513">
        <ele>398</ele>
        <time>2012-12-09T08:58:07Z</time>
      </trkpt>
      <trkpt lat="45.8425" lon="4.81512">
        <ele>399</ele>
        <time>2012-12-09T08:58:08Z</time>
      </trkpt>
      <trkpt lat="45.84252" lon="4.81503">
        <ele>401</ele>
        <time>2012-12-09T08:58:12Z</time>
      </trkpt>
      <trkpt lat="45.84258" lon="4.81497">
        <ele>402</ele>
        <time>2012-12-09T08:58:16Z</time>
      </trkpt>
      <trkpt lat="45.8426" lon="4.81495">
        <ele>401</ele>
        <time>2012-12-09T08:58:17Z</time>
      </trkpt>
      <trkpt lat="45.84264" lon="4.8149">
        <ele>401</ele>
        <time>2012-12-09T08:58:20Z</time>
      </trkpt>
      <trkpt lat="45.84265" lon="4.81488">
        <ele>401</ele>
        <time>2012-12-09T08:58:21Z</time>
      </trkpt>
      <trkpt lat="45.84267" lon="4.81485">
        <ele>400</ele>
        <time>2012-12-09T08:58:23Z</time>
      </trkpt>
      <trkpt lat="45.8427" lon="4.81481">
        <ele>400</ele>
        <time>2012-12-09T08:58:25Z</time>
      </trkpt>
      <trkpt lat="45.84271" lon="4.81479">
        <ele>400</ele>
        <time>2012-12-09T08:58:26Z</time>
      </trkpt>
      <trkpt lat="45.84275" lon="4.81474">
        <ele>400</ele>
        <time>2012-12-09T08:58:29Z</time>
      </trkpt>
      <trkpt lat="45.84277" lon="4.8147">
        <ele>400</ele>
        <time>2012-12-09T08:58:31Z</time>
      </trkpt>
      <trkpt lat="45.84278" lon="4.81466">
        <ele>400</ele>
        <time>2012-12-09T08:58:33Z</time>
      </trkpt>
      <trkpt lat="45.8428" lon="4.81462">
        <ele>400</ele>
        <time>2012-12-09T08:58:35Z</time>
      </trkpt>
      <trkpt lat="45.8428" lon="4.81459">
        <ele>400</ele>
        <time>2012-12-09T08:58:36Z</time>
      </trkpt>
      <trkpt lat="45.8428" lon="4.8145">
        <ele>401</ele>
        <time>2012-12-09T08:58:40Z</time>
      </trkpt>
      <trkpt lat="45.84281" lon="4.81448">
        <ele>401</ele>
        <time>2012-12-09T08:58:41Z</time>
      </trkpt>
      <trkpt lat="45.84284" lon="4.81441">
        <ele>401</ele>
        <time>2012-12-09T08:58:44Z</time>
      </trkpt>
      <trkpt lat="45.84287" lon="4.81439">
        <ele>401</ele>
        <time>2012-12-09T08:58:46Z</time>
      </trkpt>
      <trkpt lat="45.84287" lon="4.81437">
        <ele>401</ele>
        <time>2012-12-09T08:58:47Z</time>
      </trkpt>
      <trkpt lat="45.84289" lon="4.81423">
        <ele>402</ele>
        <time>2012-12-09T08:58:52Z</time>
      </trkpt>
      <trkpt lat="45.84292" lon="4.81419">
        <ele>402</ele>
        <time>2012-12-09T08:58:55Z</time>
      </trkpt>
      <trkpt lat="45.84293" lon="4.81417">
        <ele>402</ele>
        <time>2012-12-09T08:58:56Z</time>
      </trkpt>
      <trkpt lat="45.84293" lon="4.81415">
        <ele>409</ele>
        <time>2012-12-09T08:58:57Z</time>
      </trkpt>
      <trkpt lat="45.84294" lon="4.81413">
        <ele>409</ele>
        <time>2012-12-09T08:58:58Z</time>
      </trkpt>
      <trkpt lat="45.84296" lon="4.81407">
        <ele>409</ele>
        <time>2012-12-09T08:59:01Z</time>
      </trkpt>
      <trkpt lat="45.84296" lon="4.81405">
        <ele>409</ele>
        <time>2012-12-09T08:59:02Z</time>
      </trkpt>
      <trkpt lat="45.84299" lon="4.81395">
        <ele>409</ele>
        <time>2012-12-09T08:59:07Z</time>
      </trkpt>
      <trkpt lat="45.84299" lon="4.81394">
        <ele>409</ele>
        <time>2012-12-09T08:59:08Z</time>
      </trkpt>
      <trkpt lat="45.843" lon="4.81386">
        <ele>410</ele>
        <time>2012-12-09T08:59:12Z</time>
      </trkpt>
      <trkpt lat="45.843" lon="4.81384">
        <ele>410</ele>
        <time>2012-12-09T08:59:13Z</time>
      </trkpt>
      <trkpt lat="45.84301" lon="4.81381">
        <ele>410</ele>
        <time>2012-12-09T08:59:15Z</time>
      </trkpt>
      <trkpt lat="45.843" lon="4.81369">
        <ele>411</ele>
        <time>2012-12-09T08:59:22Z</time>
      </trkpt>
      <trkpt lat="45.84301" lon="4.81367">
        <ele>411</ele>
        <time>2012-12-09T08:59:23Z</time>
      </trkpt>
      <trkpt lat="45.84301" lon="4.81364">
        <ele>412</ele>
        <time>2012-12-09T08:59:27Z</time>
      </trkpt>
      <trkpt lat="45.84304" lon="4.81359">
        <ele>412</ele>
        <time>2012-12-09T08:59:33Z</time>
      </trkpt>
      <trkpt lat="45.84309" lon="4.81351">
        <ele>413</ele>
        <time>2012-12-09T08:59:41Z</time>
      </trkpt>
      <trkpt lat="45.8431" lon="4.81347">
        <ele>413</ele>
        <time>2012-12-09T08:59:44Z</time>
      </trkpt>
      <trkpt lat="45.84312" lon="4.8134">
        <ele>414</ele>
        <time>2012-12-09T08:59:49Z</time>
      </trkpt>
      <trkpt lat="45.84313" lon="4.81329">
        <ele>419</ele>
        <time>2012-12-09T08:59:55Z</time>
      </trkpt>
      <trkpt lat="45.84315" lon="4.81322">
        <ele>419</ele>
        <time>2012-12-09T08:59:59Z</time>
      </trkpt>
      <trkpt lat="45.84317" lon="4.81315">
        <ele>419</ele>
        <time>2012-12-09T09:00:04Z</time>
      </trkpt>
      <trkpt lat="45.84319" lon="4.81305">
        <ele>420</ele>
        <time>2012-12-09T09:00:10Z</time>
      </trkpt>
      <trkpt lat="45.84319" lon="4.81304">
        <ele>420</ele>
        <time>2012-12-09T09:00:11Z</time>
      </trkpt>
      <trkpt lat="45.8432" lon="4.81297">
        <ele>421</ele>
        <time>2012-12-09T09:00:16Z</time>
      </trkpt>
      <trkpt lat="45.8432" lon="4.81296">
        <ele>421</ele>
        <time>2012-12-09T09:00:17Z</time>
      </trkpt>
      <trkpt lat="45.84316" lon="4.81287">
        <ele>421</ele>
        <time>2012-12-09T09:00:25Z</time>
      </trkpt>
      <trkpt lat="45.84315" lon="4.81283">
        <ele>422</ele>
        <time>2012-12-09T09:00:29Z</time>
      </trkpt>
      <trkpt lat="45.84317" lon="4.8128">
        <ele>422</ele>
        <time>2012-12-09T09:00:32Z</time>
      </trkpt>
      <trkpt lat="45.84321" lon="4.81277">
        <ele>422</ele>
        <time>2012-12-09T09:00:36Z</time>
      </trkpt>
      <trkpt lat="45.84323" lon="4.81275">
        <ele>422</ele>
        <time>2012-12-09T09:00:38Z</time>
      </trkpt>
      <trkpt lat="45.84325" lon="4.81273">
        <ele>423</ele>
        <time>2012-12-09T09:00:40Z</time>
      </trkpt>
      <trkpt lat="45.84326" lon="4.81271">
        <ele>423</ele>
        <time>2012-12-09T09:00:41Z</time>
      </trkpt>
      <trkpt lat="45.84329" lon="4.81267">
        <ele>423</ele>
        <time>2012-12-09T09:00:44Z</time>
      </trkpt>
      <trkpt lat="45.84333" lon="4.81256">
        <ele>425</ele>
        <time>2012-12-09T09:00:50Z</time>
      </trkpt>
      <trkpt lat="45.84333" lon="4.81255">
        <ele>425</ele>
        <time>2012-12-09T09:00:51Z</time>
      </trkpt>
      <trkpt lat="45.84335" lon="4.81249">
        <ele>426</ele>
        <time>2012-12-09T09:00:55Z</time>
      </trkpt>
      <trkpt lat="45.84336" lon="4.81242">
        <ele>426</ele>
        <time>2012-12-09T09:00:59Z</time>
      </trkpt>
      <trkpt lat="45.84339" lon="4.81232">
        <ele>425</ele>
        <time>2012-12-09T09:01:06Z</time>
      </trkpt>
      <trkpt lat="45.8434" lon="4.81231">
        <ele>425</ele>
        <time>2012-12-09T09:01:07Z</time>
      </trkpt>
      <trkpt lat="45.8434" lon="4.8123">
        <ele>425</ele>
        <time>2012-12-09T09:01:08Z</time>
      </trkpt>
      <trkpt lat="45.84342" lon="4.81222">
        <ele>425</ele>
        <time>2012-12-09T09:01:13Z</time>
      </trkpt>
      <trkpt lat="45.84346" lon="4.81209">
        <ele>426</ele>
        <time>2012-12-09T09:01:21Z</time>
      </trkpt>
      <trkpt lat="45.84346" lon="4.81206">
        <ele>426</ele>
        <time>2012-12-09T09:01:23Z</time>
      </trkpt>
      <trkpt lat="45.84348" lon="4.81203">
        <ele>426</ele>
        <time>2012-12-09T09:01:25Z</time>
      </trkpt>
      <trkpt lat="45.84348" lon="4.81199">
        <ele>427</ele>
        <time>2012-12-09T09:01:27Z</time>
      </trkpt>
      <trkpt lat="45.8435" lon="4.8119">
        <ele>427</ele>
        <time>2012-12-09T09:01:33Z</time>
      </trkpt>
      <trkpt lat="45.84351" lon="4.8118">
        <ele>428</ele>
        <time>2012-12-09T09:01:40Z</time>
      </trkpt>
      <trkpt lat="45.84351" lon="4.81166">
        <ele>433</ele>
        <time>2012-12-09T09:01:46Z</time>
      </trkpt>
      <trkpt lat="45.84352" lon="4.8116">
        <ele>434</ele>
        <time>2012-12-09T09:01:50Z</time>
      </trkpt>
      <trkpt lat="45.84351" lon="4.81156">
        <ele>434</ele>
        <time>2012-12-09T09:01:52Z</time>
      </trkpt>
      <trkpt lat="45.84352" lon="4.81154">
        <ele>434</ele>
        <time>2012-12-09T09:01:53Z</time>
      </trkpt>
      <trkpt lat="45.84353" lon="4.8115">
        <ele>434</ele>
        <time>2012-12-09T09:01:56Z</time>
      </trkpt>
      <trkpt lat="45.84355" lon="4.81145">
        <ele>434</ele>
        <time>2012-12-09T09:01:59Z</time>
      </trkpt>
      <trkpt lat="45.84357" lon="4.81138">
        <ele>434</ele>
        <time>2012-12-09T09:02:04Z</time>
      </trkpt>
      <trkpt lat="45.84357" lon="4.81136">
        <ele>434</ele>
        <time>2012-12-09T09:02:05Z</time>
      </trkpt>
      <trkpt lat="45.84357" lon="4.81131">
        <ele>434</ele>
        <time>2012-12-09T09:02:07Z</time>
      </trkpt>
      <trkpt lat="45.84357" lon="4.81126">
        <ele>434</ele>
        <time>2012-12-09T09:02:09Z</time>
      </trkpt>
      <trkpt lat="45.84357" lon="4.81123">
        <ele>435</ele>
        <time>2012-12-09T09:02:11Z</time>
      </trkpt>
      <trkpt lat="45.84357" lon="4.81113">
        <ele>435</ele>
        <time>2012-12-09T09:02:15Z</time>
      </trkpt>
      <trkpt lat="45.84357" lon="4.81104">
        <ele>436</ele>
        <time>2012-12-09T09:02:19Z</time>
      </trkpt>
      <trkpt lat="45.84358" lon="4.81102">
        <ele>436</ele>
        <time>2012-12-09T09:02:20Z</time>
      </trkpt>
      <trkpt lat="45.84359" lon="4.81101">
        <ele>436</ele>
        <time>2012-12-09T09:02:21Z</time>
      </trkpt>
      <trkpt lat="45.84362" lon="4.81091">
        <ele>436</ele>
        <time>2012-12-09T09:02:29Z</time>
      </trkpt>
      <trkpt lat="45.84364" lon="4.81081">
        <ele>442</ele>
        <time>2012-12-09T09:02:37Z</time>
      </trkpt>
      <trkpt lat="45.84366" lon="4.81078">
        <ele>442</ele>
        <time>2012-12-09T09:02:39Z</time>
      </trkpt>
      <trkpt lat="45.84368" lon="4.81072">
        <ele>442</ele>
        <time>2012-12-09T09:02:44Z</time>
      </trkpt>
      <trkpt lat="45.8437" lon="4.81063">
        <ele>443</ele>
        <time>2012-12-09T09:02:50Z</time>
      </trkpt>
      <trkpt lat="45.84371" lon="4.81054">
        <ele>443</ele>
        <time>2012-12-09T09:02:56Z</time>
      </trkpt>
      <trkpt lat="45.84371" lon="4.81049">
        <ele>444</ele>
        <time>2012-12-09T09:02:58Z</time>
      </trkpt>
      <trkpt lat="45.84372" lon="4.81037">
        <ele>444</ele>
        <time>2012-12-09T09:03:03Z</time>
      </trkpt>
      <trkpt lat="45.84374" lon="4.8103">
        <ele>445</ele>
        <time>2012-12-09T09:03:08Z</time>
      </trkpt>
      <trkpt lat="45.84375" lon="4.81027">
        <ele>445</ele>
        <time>2012-12-09T09:03:10Z</time>
      </trkpt>
      <trkpt lat="45.84375" lon="4.81023">
        <ele>445</ele>
        <time>2012-12-09T09:03:12Z</time>
      </trkpt>
      <trkpt lat="45.84375" lon="4.8102">
        <ele>445</ele>
        <time>2012-12-09T09:03:13Z</time>
      </trkpt>
      <trkpt lat="45.84376" lon="4.81019">
        <ele>445</ele>
        <time>2012-12-09T09:03:14Z</time>
      </trkpt>
      <trkpt lat="45.8438" lon="4.81008">
        <ele>446</ele>
        <time>2012-12-09T09:03:21Z</time>
      </trkpt>
      <trkpt lat="45.84379" lon="4.81">
        <ele>446</ele>
        <time>2012-12-09T09:03:25Z</time>
      </trkpt>
      <trkpt lat="45.84379" lon="4.80996">
        <ele>452</ele>
        <time>2012-12-09T09:03:28Z</time>
      </trkpt>
      <trkpt lat="45.84383" lon="4.8099">
        <ele>452</ele>
        <time>2012-12-09T09:03:33Z</time>
      </trkpt>
      <trkpt lat="45.84386" lon="4.80979">
        <ele>453</ele>
        <time>2012-12-09T09:03:39Z</time>
      </trkpt>
      <trkpt lat="45.84386" lon="4.80973">
        <ele>453</ele>
        <time>2012-12-09T09:03:41Z</time>
      </trkpt>
      <trkpt lat="45.84385" lon="4.80964">
        <ele>454</ele>
        <time>2012-12-09T09:03:45Z</time>
      </trkpt>
      <trkpt lat="45.84387" lon="4.80955">
        <ele>454</ele>
        <time>2012-12-09T09:03:50Z</time>
      </trkpt>
      <trkpt lat="45.84391" lon="4.80949">
        <ele>455</ele>
        <time>2012-12-09T09:03:55Z</time>
      </trkpt>
      <trkpt lat="45.84392" lon="4.80947">
        <ele>455</ele>
        <time>2012-12-09T09:03:56Z</time>
      </trkpt>
      <trkpt lat="45.84397" lon="4.80934">
        <ele>456</ele>
        <time>2012-12-09T09:04:04Z</time>
      </trkpt>
      <trkpt lat="45.84397" lon="4.80933">
        <ele>456</ele>
        <time>2012-12-09T09:04:05Z</time>
      </trkpt>
      <trkpt lat="45.84399" lon="4.80926">
        <ele>456</ele>
        <time>2012-12-09T09:04:09Z</time>
      </trkpt>
      <trkpt lat="45.844" lon="4.80925">
        <ele>456</ele>
        <time>2012-12-09T09:04:10Z</time>
      </trkpt>
      <trkpt lat="45.844" lon="4.80918">
        <ele>456</ele>
        <time>2012-12-09T09:04:14Z</time>
      </trkpt>
      <trkpt lat="45.84401" lon="4.80915">
        <ele>460</ele>
        <time>2012-12-09T09:04:16Z</time>
      </trkpt>
      <trkpt lat="45.84404" lon="4.80908">
        <ele>460</ele>
        <time>2012-12-09T09:04:21Z</time>
      </trkpt>
      <trkpt lat="45.84405" lon="4.80907">
        <ele>460</ele>
        <time>2012-12-09T09:04:22Z</time>
      </trkpt>
      <trkpt lat="45.84406" lon="4.80904">
        <ele>460</ele>
        <time>2012-12-09T09:04:24Z</time>
      </trkpt>
      <trkpt lat="45.84406" lon="4.809">
        <ele>460</ele>
        <time>2012-12-09T09:04:26Z</time>
      </trkpt>
      <trkpt lat="45.84407" lon="4.80897">
        <ele>461</ele>
        <time>2012-12-09T09:04:27Z</time>
      </trkpt>
      <trkpt lat="45.84409" lon="4.8089">
        <ele>461</ele>
        <time>2012-12-09T09:04:31Z</time>
      </trkpt>
      <trkpt lat="45.84409" lon="4.80888">
        <ele>461</ele>
        <time>2012-12-09T09:04:32Z</time>
      </trkpt>
      <trkpt lat="45.84412" lon="4.8088">
        <ele>462</ele>
        <time>2012-12-09T09:04:37Z</time>
      </trkpt>
      <trkpt lat="45.84414" lon="4.80875">
        <ele>462</ele>
        <time>2012-12-09T09:04:40Z</time>
      </trkpt>
      <trkpt lat="45.84415" lon="4.80871">
        <ele>462</ele>
        <time>2012-12-09T09:04:43Z</time>
      </trkpt>
      <trkpt lat="45.84415" lon="4.80868">
        <ele>462</ele>
        <time>2012-12-09T09:04:44Z</time>
      </trkpt>
      <trkpt lat="45.84414" lon="4.80858">
        <ele>463</ele>
        <time>2012-12-09T09:04:48Z</time>
      </trkpt>
      <trkpt lat="45.84412" lon="4.80852">
        <ele>463</ele>
        <time>2012-12-09T09:04:50Z</time>
      </trkpt>
      <trkpt lat="45.84412" lon="4.80849">
        <ele>463</ele>
        <time>2012-12-09T09:04:51Z</time>
      </trkpt>
      <trkpt lat="45.84413" lon="4.8084">
        <ele>464</ele>
        <time>2012-12-09T09:04:55Z</time>
      </trkpt>
      <trkpt lat="45.84413" lon="4.80838">
        <ele>464</ele>
        <time>2012-12-09T09:04:56Z</time>
      </trkpt>
      <trkpt lat="45.84413" lon="4.80822">
        <ele>467</ele>
        <time>2012-12-09T09:05:03Z</time>
      </trkpt>
      <trkpt lat="45.84414" lon="4.80811">
        <ele>468</ele>
        <time>2012-12-09T09:05:09Z</time>
      </trkpt>
      <trkpt lat="45.84414" lon="4.8081">
        <ele>468</ele>
        <time>2012-12-09T09:05:10Z</time>
      </trkpt>
      <trkpt lat="45.84419" lon="4.80799">
        <ele>467</ele>
        <time>2012-12-09T09:05:18Z</time>
      </trkpt>
      <trkpt lat="45.84419" lon="4.80797">
        <ele>468</ele>
        <time>2012-12-09T09:05:19Z</time>
      </trkpt>
      <trkpt lat="45.84419" lon="4.80796">
        <ele>468</ele>
        <time>2012-12-09T09:05:21Z</time>
      </trkpt>
      <trkpt lat="45.84418" lon="4.80793">
        <ele>468</ele>
        <time>2012-12-09T09:05:24Z</time>
      </trkpt>
      <trkpt lat="45.84416" lon="4.80787">
        <ele>471</ele>
        <time>2012-12-09T09:05:27Z</time>
      </trkpt>
      <trkpt lat="45.84415" lon="4.80784">
        <ele>471</ele>
        <time>2012-12-09T09:05:29Z</time>
      </trkpt>
      <trkpt lat="45.84415" lon="4.80774">
        <ele>472</ele>
        <time>2012-12-09T09:05:34Z</time>
      </trkpt>
      <trkpt lat="45.84415" lon="4.80772">
        <ele>472</ele>
        <time>2012-12-09T09:05:35Z</time>
      </trkpt>
      <trkpt lat="45.84415" lon="4.8077">
        <ele>472</ele>
        <time>2012-12-09T09:05:36Z</time>
      </trkpt>
      <trkpt lat="45.84415" lon="4.80768">
        <ele>473</ele>
        <time>2012-12-09T09:05:37Z</time>
      </trkpt>
      <trkpt lat="45.84416" lon="4.80765">
        <ele>473</ele>
        <time>2012-12-09T09:05:40Z</time>
      </trkpt>
      <trkpt lat="45.84415" lon="4.80763">
        <ele>473</ele>
        <time>2012-12-09T09:05:41Z</time>
      </trkpt>
      <trkpt lat="45.84415" lon="4.80762">
        <ele>473</ele>
        <time>2012-12-09T09:05:42Z</time>
      </trkpt>
      <trkpt lat="45.84414" lon="4.80756">
        <ele>474</ele>
        <time>2012-12-09T09:05:45Z</time>
      </trkpt>
      <trkpt lat="45.84413" lon="4.80747">
        <ele>476</ele>
        <time>2012-12-09T09:05:51Z</time>
      </trkpt>
      <trkpt lat="45.84412" lon="4.8074">
        <ele>477</ele>
        <time>2012-12-09T09:05:56Z</time>
      </trkpt>
      <trkpt lat="45.84412" lon="4.8074">
        <ele>477</ele>
        <time>2012-12-09T09:05:57Z</time>
      </trkpt>
      <trkpt lat="45.84412" lon="4.80737">
        <ele>477</ele>
        <time>2012-12-09T09:05:59Z</time>
      </trkpt>
      <trkpt lat="45.84413" lon="4.80734">
        <ele>478</ele>
        <time>2012-12-09T09:06:01Z</time>
      </trkpt>
      <trkpt lat="45.84413" lon="4.80733">
        <ele>478</ele>
        <time>2012-12-09T09:06:02Z</time>
      </trkpt>
      <trkpt lat="45.84414" lon="4.80732">
        <ele>478</ele>
        <time>2012-12-09T09:06:04Z</time>
      </trkpt>
      <trkpt lat="45.84414" lon="4.80728">
        <ele>478</ele>
        <time>2012-12-09T09:06:06Z</time>
      </trkpt>
      <trkpt lat="45.84413" lon="4.8072">
        <ele>479</ele>
        <time>2012-12-09T09:06:11Z</time>
      </trkpt>
      <trkpt lat="45.84413" lon="4.80717">
        <ele>480</ele>
        <time>2012-12-09T09:06:13Z</time>
      </trkpt>
      <trkpt lat="45.84413" lon="4.80712">
        <ele>480</ele>
        <time>2012-12-09T09:06:16Z</time>
      </trkpt>
      <trkpt lat="45.84414" lon="4.80711">
        <ele>480</ele>
        <time>2012-12-09T09:06:17Z</time>
      </trkpt>
      <trkpt lat="45.84413" lon="4.80707">
        <ele>481</ele>
        <time>2012-12-09T09:06:19Z</time>
      </trkpt>
      <trkpt lat="45.84412" lon="4.80696">
        <ele>482</ele>
        <time>2012-12-09T09:06:25Z</time>
      </trkpt>
      <trkpt lat="45.84412" lon="4.80694">
        <ele>482</ele>
        <time>2012-12-09T09:06:26Z</time>
      </trkpt>
      <trkpt lat="45.84411" lon="4.80692">
        <ele>482</ele>
        <time>2012-12-09T09:06:28Z</time>
      </trkpt>
      <trkpt lat="45.84412" lon="4.80691">
        <ele>482</ele>
        <time>2012-12-09T09:06:29Z</time>
      </trkpt>
      <trkpt lat="45.84412" lon="4.80689">
        <ele>482</ele>
        <time>2012-12-09T09:06:30Z</time>
      </trkpt>
      <trkpt lat="45.84413" lon="4.80684">
        <ele>483</ele>
        <time>2012-12-09T09:06:34Z</time>
      </trkpt>
      <trkpt lat="45.84413" lon="4.80682">
        <ele>483</ele>
        <time>2012-12-09T09:06:36Z</time>
      </trkpt>
      <trkpt lat="45.84409" lon="4.80669">
        <ele>484</ele>
        <time>2012-12-09T09:07:10Z</time>
      </trkpt>
      <trkpt lat="45.84408" lon="4.80669">
        <ele>484</ele>
        <time>2012-12-09T09:07:16Z</time>
      </trkpt>
      <trkpt lat="45.84409" lon="4.80662">
        <ele>487</ele>
        <time>2012-12-09T09:07:28Z</time>
      </trkpt>
      <trkpt lat="45.84409" lon="4.80652">
        <ele>488</ele>
        <time>2012-12-09T09:07:35Z</time>
      </trkpt>
      <trkpt lat="45.84409" lon="4.8065">
        <ele>489</ele>
        <time>2012-12-09T09:07:36Z</time>
      </trkpt>
      <trkpt lat="45.8441" lon="4.80644">
        <ele>489</ele>
        <time>2012-12-09T09:07:40Z</time>
      </trkpt>
      <trkpt lat="45.8441" lon="4.80643">
        <ele>489</ele>
        <time>2012-12-09T09:07:41Z</time>
      </trkpt>
      <trkpt lat="45.84411" lon="4.80639">
        <ele>490</ele>
        <time>2012-12-09T09:07:43Z</time>
      </trkpt>
      <trkpt lat="45.84412" lon="4.80631">
        <ele>490</ele>
        <time>2012-12-09T09:07:47Z</time>
      </trkpt>
      <trkpt lat="45.84415" lon="4.8062">
        <ele>492</ele>
        <time>2012-12-09T09:07:52Z</time>
      </trkpt>
      <trkpt lat="45.84415" lon="4.80618">
        <ele>492</ele>
        <time>2012-12-09T09:07:53Z</time>
      </trkpt>
      <trkpt lat="45.84415" lon="4.80616">
        <ele>492</ele>
        <time>2012-12-09T09:07:54Z</time>
      </trkpt>
      <trkpt lat="45.8442" lon="4.80608">
        <ele>492</ele>
        <time>2012-12-09T09:08:00Z</time>
      </trkpt>
      <trkpt lat="45.84424" lon="4.80603">
        <ele>492</ele>
        <time>2012-12-09T09:08:05Z</time>
      </trkpt>
      <trkpt lat="45.84425" lon="4.80599">
        <ele>493</ele>
        <time>2012-12-09T09:08:07Z</time>
      </trkpt>
      <trkpt lat="45.84426" lon="4.80599">
        <ele>493</ele>
        <time>2012-12-09T09:08:08Z</time>
      </trkpt>
      <trkpt lat="45.84427" lon="4.80598">
        <ele>493</ele>
        <time>2012-12-09T09:08:09Z</time>
      </trkpt>
      <trkpt lat="45.84427" lon="4.80595">
        <ele>493</ele>
        <time>2012-12-09T09:08:11Z</time>
      </trkpt>
      <trkpt lat="45.84426" lon="4.80593">
        <ele>494</ele>
        <time>2012-12-09T09:08:13Z</time>
      </trkpt>
      <trkpt lat="45.84421" lon="4.80589">
        <ele>495</ele>
        <time>2012-12-09T09:08:17Z</time>
      </trkpt>
      <trkpt lat="45.84413" lon="4.80585">
        <ele>496</ele>
        <time>2012-12-09T09:08:25Z</time>
      </trkpt>
      <trkpt lat="45.84406" lon="4.80581">
        <ele>498</ele>
        <time>2012-12-09T09:08:31Z</time>
      </trkpt>
      <trkpt lat="45.84405" lon="4.8058">
        <ele>498</ele>
        <time>2012-12-09T09:08:32Z</time>
      </trkpt>
      <trkpt lat="45.84404" lon="4.80579">
        <ele>498</ele>
        <time>2012-12-09T09:08:33Z</time>
      </trkpt>
      <trkpt lat="45.84399" lon="4.80575">
        <ele>499</ele>
        <time>2012-12-09T09:08:37Z</time>
      </trkpt>
      <trkpt lat="45.84396" lon="4.80575">
        <ele>499</ele>
        <time>2012-12-09T09:08:39Z</time>
      </trkpt>
      <trkpt lat="45.84394" lon="4.80573">
        <ele>499</ele>
        <time>2012-12-09T09:08:41Z</time>
      </trkpt>
      <trkpt lat="45.84391" lon="4.80567">
        <ele>499</ele>
        <time>2012-12-09T09:08:46Z</time>
      </trkpt>
      <trkpt lat="45.84392" lon="4.80567">
        <ele>499</ele>
        <time>2012-12-09T09:08:47Z</time>
      </trkpt>
      <trkpt lat="45.84395" lon="4.80554">
        <ele>500</ele>
        <time>2012-12-09T09:08:55Z</time>
      </trkpt>
      <trkpt lat="45.84395" lon="4.80552">
        <ele>500</ele>
        <time>2012-12-09T09:08:57Z</time>
      </trkpt>
      <trkpt lat="45.84396" lon="4.80547">
        <ele>500</ele>
        <time>2012-12-09T09:09:01Z</time>
      </trkpt>
      <trkpt lat="45.84397" lon="4.80543">
        <ele>501</ele>
        <time>2012-12-09T09:09:03Z</time>
      </trkpt>
      <trkpt lat="45.84396" lon="4.8054">
        <ele>501</ele>
        <time>2012-12-09T09:09:05Z</time>
      </trkpt>
      <trkpt lat="45.84396" lon="4.80535">
        <ele>501</ele>
        <time>2012-12-09T09:09:09Z</time>
      </trkpt>
      <trkpt lat="45.84397" lon="4.80529">
        <ele>501</ele>
        <time>2012-12-09T09:09:14Z</time>
      </trkpt>
      <trkpt lat="45.84399" lon="4.80524">
        <ele>502</ele>
        <time>2012-12-09T09:09:19Z</time>
      </trkpt>
      <trkpt lat="45.844" lon="4.8052">
        <ele>502</ele>
        <time>2012-12-09T09:09:22Z</time>
      </trkpt>
      <trkpt lat="45.84401" lon="4.8051">
        <ele>503</ele>
        <time>2012-12-09T09:09:28Z</time>
      </trkpt>
      <trkpt lat="45.84401" lon="4.80509">
        <ele>503</ele>
        <time>2012-12-09T09:09:29Z</time>
      </trkpt>
      <trkpt lat="45.84401" lon="4.80503">
        <ele>503</ele>
        <time>2012-12-09T09:09:33Z</time>
      </trkpt>
      <trkpt lat="45.84401" lon="4.80499">
        <ele>508</ele>
        <time>2012-12-09T09:09:35Z</time>
      </trkpt>
      <trkpt lat="45.844" lon="4.80497">
        <ele>508</ele>
        <time>2012-12-09T09:09:36Z</time>
      </trkpt>
      <trkpt lat="45.84399" lon="4.8049">
        <ele>509</ele>
        <time>2012-12-09T09:09:40Z</time>
      </trkpt>
      <trkpt lat="45.84397" lon="4.8048">
        <ele>510</ele>
        <time>2012-12-09T09:09:45Z</time>
      </trkpt>
      <trkpt lat="45.84396" lon="4.80478">
        <ele>510</ele>
        <time>2012-12-09T09:09:46Z</time>
      </trkpt>
      <trkpt lat="45.84393" lon="4.80462">
        <ele>511</ele>
        <time>2012-12-09T09:09:55Z</time>
      </trkpt>
      <trkpt lat="45.84391" lon="4.80452">
        <ele>512</ele>
        <time>2012-12-09T09:10:01Z</time>
      </trkpt>
      <trkpt lat="45.8439" lon="4.80446">
        <ele>513</ele>
        <time>2012-12-09T09:10:05Z</time>
      </trkpt>
      <trkpt lat="45.8439" lon="4.80438">
        <ele>514</ele>
        <time>2012-12-09T09:10:10Z</time>
      </trkpt>
      <trkpt lat="45.8439" lon="4.80437">
        <ele>514</ele>
        <time>2012-12-09T09:10:11Z</time>
      </trkpt>
      <trkpt lat="45.84392" lon="4.80433">
        <ele>514</ele>
        <time>2012-12-09T09:10:15Z</time>
      </trkpt>
      <trkpt lat="45.84392" lon="4.80432">
        <ele>514</ele>
        <time>2012-12-09T09:10:16Z</time>
      </trkpt>
      <trkpt lat="45.84392" lon="4.8043">
        <ele>514</ele>
        <time>2012-12-09T09:10:18Z</time>
      </trkpt>
      <trkpt lat="45.84394" lon="4.80428">
        <ele>515</ele>
        <time>2012-12-09T09:10:20Z</time>
      </trkpt>
      <trkpt lat="45.84396" lon="4.80424">
        <ele>515</ele>
        <time>2012-12-09T09:10:23Z</time>
      </trkpt>
      <trkpt lat="45.84398" lon="4.80415">
        <ele>522</ele>
        <time>2012-12-09T09:10:30Z</time>
      </trkpt>
      <trkpt lat="45.84398" lon="4.80413">
        <ele>522</ele>
        <time>2012-12-09T09:10:31Z</time>
      </trkpt>
      <trkpt lat="45.84398" lon="4.80408">
        <ele>522</ele>
        <time>2012-12-09T09:10:34Z</time>
      </trkpt>
      <trkpt lat="45.84396" lon="4.80405">
        <ele>523</ele>
        <time>2012-12-09T09:10:36Z</time>
      </trkpt>
      <trkpt lat="45.84396" lon="4.80402">
        <ele>523</ele>
        <time>2012-12-09T09:10:38Z</time>
      </trkpt>
      <trkpt lat="45.84395" lon="4.80399">
        <ele>523</ele>
        <time>2012-12-09T09:10:40Z</time>
      </trkpt>
      <trkpt lat="45.84394" lon="4.80394">
        <ele>524</ele>
        <time>2012-12-09T09:10:43Z</time>
      </trkpt>
      <trkpt lat="45.84395" lon="4.80388">
        <ele>524</ele>
        <time>2012-12-09T09:10:47Z</time>
      </trkpt>
      <trkpt lat="45.84397" lon="4.80377">
        <ele>525</ele>
        <time>2012-12-09T09:10:54Z</time>
      </trkpt>
      <trkpt lat="45.84397" lon="4.80375">
        <ele>525</ele>
        <time>2012-12-09T09:10:56Z</time>
      </trkpt>
      <trkpt lat="45.84397" lon="4.80362">
        <ele>527</ele>
        <time>2012-12-09T09:11:04Z</time>
      </trkpt>
      <trkpt lat="45.84397" lon="4.80351">
        <ele>528</ele>
        <time>2012-12-09T09:11:11Z</time>
      </trkpt>
      <trkpt lat="45.84397" lon="4.80349">
        <ele>528</ele>
        <time>2012-12-09T09:11:12Z</time>
      </trkpt>
      <trkpt lat="45.84397" lon="4.80345">
        <ele>528</ele>
        <time>2012-12-09T09:11:15Z</time>
      </trkpt>
      <trkpt lat="45.84397" lon="4.8034">
        <ele>529</ele>
        <time>2012-12-09T09:11:18Z</time>
      </trkpt>
      <trkpt lat="45.84399" lon="4.80333">
        <ele>535</ele>
        <time>2012-12-09T09:11:23Z</time>
      </trkpt>
      <trkpt lat="45.84398" lon="4.80328">
        <ele>535</ele>
        <time>2012-12-09T09:11:27Z</time>
      </trkpt>
      <trkpt lat="45.84399" lon="4.80325">
        <ele>535</ele>
        <time>2012-12-09T09:11:29Z</time>
      </trkpt>
      <trkpt lat="45.84398" lon="4.80315">
        <ele>536</ele>
        <time>2012-12-09T09:11:35Z</time>
      </trkpt>
      <trkpt lat="45.84396" lon="4.80299">
        <ele>537</ele>
        <time>2012-12-09T09:11:43Z</time>
      </trkpt>
      <trkpt lat="45.84396" lon="4.80297">
        <ele>537</ele>
        <time>2012-12-09T09:11:44Z</time>
      </trkpt>
      <trkpt lat="45.84396" lon="4.80295">
        <ele>538</ele>
        <time>2012-12-09T09:11:46Z</time>
      </trkpt>
      <trkpt lat="45.84397" lon="4.80289">
        <ele>538</ele>
        <time>2012-12-09T09:11:50Z</time>
      </trkpt>
      <trkpt lat="45.84399" lon="4.80284">
        <ele>538</ele>
        <time>2012-12-09T09:11:55Z</time>
      </trkpt>
      <trkpt lat="45.84399" lon="4.80281">
        <ele>539</ele>
        <time>2012-12-09T09:11:57Z</time>
      </trkpt>
      <trkpt lat="45.844" lon="4.80273">
        <ele>539</ele>
        <time>2012-12-09T09:12:02Z</time>
      </trkpt>
      <trkpt lat="45.844" lon="4.80267">
        <ele>540</ele>
        <time>2012-12-09T09:12:05Z</time>
      </trkpt>
      <trkpt lat="45.84399" lon="4.80259">
        <ele>541</ele>
        <time>2012-12-09T09:12:11Z</time>
      </trkpt>
      <trkpt lat="45.84399" lon="4.80258">
        <ele>541</ele>
        <time>2012-12-09T09:12:12Z</time>
      </trkpt>
      <trkpt lat="45.84401" lon="4.80255">
        <ele>541</ele>
        <time>2012-12-09T09:12:16Z</time>
      </trkpt>
      <trkpt lat="45.84402" lon="4.80253">
        <ele>541</ele>
        <time>2012-12-09T09:12:18Z</time>
      </trkpt>
      <trkpt lat="45.84404" lon="4.8025">
        <ele>542</ele>
        <time>2012-12-09T09:12:20Z</time>
      </trkpt>
      <trkpt lat="45.84404" lon="4.80245">
        <ele>545</ele>
        <time>2012-12-09T09:12:24Z</time>
      </trkpt>
      <trkpt lat="45.84405" lon="4.80243">
        <ele>545</ele>
        <time>2012-12-09T09:12:25Z</time>
      </trkpt>
      <trkpt lat="45.84405" lon="4.80235">
        <ele>546</ele>
        <time>2012-12-09T09:12:32Z</time>
      </trkpt>
      <trkpt lat="45.84407" lon="4.80224">
        <ele>547</ele>
        <time>2012-12-09T09:12:42Z</time>
      </trkpt>
      <trkpt lat="45.84407" lon="4.80216">
        <ele>547</ele>
        <time>2012-12-09T09:12:50Z</time>
      </trkpt>
      <trkpt lat="45.84405" lon="4.80208">
        <ele>548</ele>
        <time>2012-12-09T09:12:57Z</time>
      </trkpt>
      <trkpt lat="45.844" lon="4.802">
        <ele>548</ele>
        <time>2012-12-09T09:13:03Z</time>
      </trkpt>
      <trkpt lat="45.84394" lon="4.80183">
        <ele>549</ele>
        <time>2012-12-09T09:13:11Z</time>
      </trkpt>
      <trkpt lat="45.84391" lon="4.80177">
        <ele>549</ele>
        <time>2012-12-09T09:13:15Z</time>
      </trkpt>
      <trkpt lat="45.84387" lon="4.8017">
        <ele>549</ele>
        <time>2012-12-09T09:13:20Z</time>
      </trkpt>
      <trkpt lat="45.84381" lon="4.80159">
        <ele>555</ele>
        <time>2012-12-09T09:13:28Z</time>
      </trkpt>
      <trkpt lat="45.84379" lon="4.80157">
        <ele>555</ele>
        <time>2012-12-09T09:13:30Z</time>
      </trkpt>
      <trkpt lat="45.84376" lon="4.8015">
        <ele>555</ele>
        <time>2012-12-09T09:13:35Z</time>
      </trkpt>
      <trkpt lat="45.8437" lon="4.8014">
        <ele>556</ele>
        <time>2012-12-09T09:13:43Z</time>
      </trkpt>
      <trkpt lat="45.84367" lon="4.80136">
        <ele>556</ele>
        <time>2012-12-09T09:13:47Z</time>
      </trkpt>
      <trkpt lat="45.84364" lon="4.80131">
        <ele>556</ele>
        <time>2012-12-09T09:13:52Z</time>
      </trkpt>
      <trkpt lat="45.84358" lon="4.8012">
        <ele>557</ele>
        <time>2012-12-09T09:14:01Z</time>
      </trkpt>
      <trkpt lat="45.84356" lon="4.80115">
        <ele>557</ele>
        <time>2012-12-09T09:14:05Z</time>
      </trkpt>
      <trkpt lat="45.84353" lon="4.80107">
        <ele>558</ele>
        <time>2012-12-09T09:14:11Z</time>
      </trkpt>
      <trkpt lat="45.84349" lon="4.80099">
        <ele>559</ele>
        <time>2012-12-09T09:14:18Z</time>
      </trkpt>
      <trkpt lat="45.84346" lon="4.80094">
        <ele>559</ele>
        <time>2012-12-09T09:14:22Z</time>
      </trkpt>
      <trkpt lat="45.84342" lon="4.80086">
        <ele>560</ele>
        <time>2012-12-09T09:14:28Z</time>
      </trkpt>
      <trkpt lat="45.84339" lon="4.80077">
        <ele>563</ele>
        <time>2012-12-09T09:14:36Z</time>
      </trkpt>
      <trkpt lat="45.84337" lon="4.8007">
        <ele>563</ele>
        <time>2012-12-09T09:14:41Z</time>
      </trkpt>
      <trkpt lat="45.84335" lon="4.80065">
        <ele>563</ele>
        <time>2012-12-09T09:14:45Z</time>
      </trkpt>
      <trkpt lat="45.84331" lon="4.80058">
        <ele>564</ele>
        <time>2012-12-09T09:14:52Z</time>
      </trkpt>
      <trkpt lat="45.84328" lon="4.80053">
        <ele>564</ele>
        <time>2012-12-09T09:14:58Z</time>
      </trkpt>
      <trkpt lat="45.84327" lon="4.8005">
        <ele>564</ele>
        <time>2012-12-09T09:15:01Z</time>
      </trkpt>
      <trkpt lat="45.84327" lon="4.80049">
        <ele>565</ele>
        <time>2012-12-09T09:15:02Z</time>
      </trkpt>
      <trkpt lat="45.84324" lon="4.80043">
        <ele>565</ele>
        <time>2012-12-09T09:15:07Z</time>
      </trkpt>
      <trkpt lat="45.84324" lon="4.80042">
        <ele>565</ele>
        <time>2012-12-09T09:15:08Z</time>
      </trkpt>
      <trkpt lat="45.84315" lon="4.80035">
        <ele>565</ele>
        <time>2012-12-09T09:15:16Z</time>
      </trkpt>
      <trkpt lat="45.84313" lon="4.80034">
        <ele>565</ele>
        <time>2012-12-09T09:15:18Z</time>
      </trkpt>
      <trkpt lat="45.84306" lon="4.8003">
        <ele>565</ele>
        <time>2012-12-09T09:15:24Z</time>
      </trkpt>
      <trkpt lat="45.84296" lon="4.80024">
        <ele>566</ele>
        <time>2012-12-09T09:15:33Z</time>
      </trkpt>
      <trkpt lat="45.84295" lon="4.80023">
        <ele>566</ele>
        <time>2012-12-09T09:15:34Z</time>
      </trkpt>
      <trkpt lat="45.84293" lon="4.80011">
        <ele>566</ele>
        <time>2012-12-09T09:15:42Z</time>
      </trkpt>
      <trkpt lat="45.8429" lon="4.8">
        <ele>566</ele>
        <time>2012-12-09T09:15:49Z</time>
      </trkpt>
      <trkpt lat="45.8429" lon="4.79999">
        <ele>571</ele>
        <time>2012-12-09T09:15:50Z</time>
      </trkpt>
      <trkpt lat="45.84286" lon="4.79991">
        <ele>571</ele>
        <time>2012-12-09T09:15:56Z</time>
      </trkpt>
      <trkpt lat="45.84282" lon="4.7998">
        <ele>572</ele>
        <time>2012-12-09T09:16:03Z</time>
      </trkpt>
      <trkpt lat="45.84281" lon="4.79975">
        <ele>572</ele>
        <time>2012-12-09T09:16:06Z</time>
      </trkpt>
      <trkpt lat="45.84278" lon="4.79966">
        <ele>572</ele>
        <time>2012-12-09T09:16:12Z</time>
      </trkpt>
      <trkpt lat="45.84274" lon="4.79956">
        <ele>573</ele>
        <time>2012-12-09T09:16:19Z</time>
      </trkpt>
      <trkpt lat="45.84272" lon="4.79951">
        <ele>573</ele>
        <time>2012-12-09T09:16:22Z</time>
      </trkpt>
      <trkpt lat="45.84267" lon="4.79942">
        <ele>574</ele>
        <time>2012-12-09T09:16:28Z</time>
      </trkpt>
      <trkpt lat="45.84264" lon="4.79934">
        <ele>575</ele>
        <time>2012-12-09T09:16:34Z</time>
      </trkpt>
      <trkpt lat="45.84262" lon="4.79929">
        <ele>576</ele>
        <time>2012-12-09T09:16:37Z</time>
      </trkpt>
      <trkpt lat="45.84259" lon="4.79921">
        <ele>577</ele>
        <time>2012-12-09T09:16:42Z</time>
      </trkpt>
      <trkpt lat="45.84253" lon="4.79904">
        <ele>579</ele>
        <time>2012-12-09T09:16:49Z</time>
      </trkpt>
      <trkpt lat="45.8425" lon="4.79888">
        <ele>584</ele>
        <time>2012-12-09T09:16:56Z</time>
      </trkpt>
      <trkpt lat="45.84247" lon="4.79879">
        <ele>585</ele>
        <time>2012-12-09T09:17:00Z</time>
      </trkpt>
      <trkpt lat="45.84243" lon="4.7987">
        <ele>585</ele>
        <time>2012-12-09T09:17:04Z</time>
      </trkpt>
      <trkpt lat="45.84236" lon="4.79858">
        <ele>586</ele>
        <time>2012-12-09T09:17:11Z</time>
      </trkpt>
      <trkpt lat="45.84234" lon="4.79854">
        <ele>587</ele>
        <time>2012-12-09T09:17:14Z</time>
      </trkpt>
      <trkpt lat="45.84233" lon="4.79851">
        <ele>587</ele>
        <time>2012-12-09T09:17:16Z</time>
      </trkpt>
      <trkpt lat="45.8423" lon="4.79836">
        <ele>588</ele>
        <time>2012-12-09T09:17:23Z</time>
      </trkpt>
      <trkpt lat="45.84229" lon="4.79833">
        <ele>588</ele>
        <time>2012-12-09T09:17:24Z</time>
      </trkpt>
      <trkpt lat="45.84227" lon="4.79822">
        <ele>591</ele>
        <time>2012-12-09T09:17:29Z</time>
      </trkpt>
      <trkpt lat="45.84225" lon="4.79812">
        <ele>591</ele>
        <time>2012-12-09T09:17:37Z</time>
      </trkpt>
      <trkpt lat="45.84224" lon="4.79808">
        <ele>591</ele>
        <time>2012-12-09T09:17:40Z</time>
      </trkpt>
      <trkpt lat="45.84222" lon="4.79805">
        <ele>591</ele>
        <time>2012-12-09T09:17:43Z</time>
      </trkpt>
      <trkpt lat="45.84222" lon="4.79804">
        <ele>591</ele>
        <time>2012-12-09T09:17:44Z</time>
      </trkpt>
      <trkpt lat="45.84221" lon="4.79796">
        <ele>591</ele>
        <time>2012-12-09T09:17:49Z</time>
      </trkpt>
      <trkpt lat="45.84221" lon="4.79795">
        <ele>591</ele>
        <time>2012-12-09T09:17:50Z</time>
      </trkpt>
      <trkpt lat="45.84221" lon="4.79789">
        <ele>591</ele>
        <time>2012-12-09T09:17:56Z</time>
      </trkpt>
      <trkpt lat="45.84221" lon="4.79792">
        <ele>591</ele>
        <time>2012-12-09T09:17:58Z</time>
      </trkpt>
      <trkpt lat="45.84222" lon="4.798">
        <ele>591</ele>
        <time>2012-12-09T09:18:02Z</time>
      </trkpt>
      <trkpt lat="45.84222" lon="4.79802">
        <ele>591</ele>
        <time>2012-12-09T09:18:04Z</time>
      </trkpt>
      <trkpt lat="45.84223" lon="4.79806">
        <ele>591</ele>
        <time>2012-12-09T09:18:08Z</time>
      </trkpt>
      <trkpt lat="45.84224" lon="4.79809">
        <ele>591</ele>
        <time>2012-12-09T09:18:15Z</time>
      </trkpt>
      <trkpt lat="45.84224" lon="4.79807">
        <ele>591</ele>
        <time>2012-12-09T09:18:20Z</time>
      </trkpt>
      <trkpt lat="45.84223" lon="4.79806">
        <ele>591</ele>
        <time>2012-12-09T09:18:27Z</time>
      </trkpt>
      <trkpt lat="45.84226" lon="4.79809">
        <ele>591</ele>
        <time>2012-12-09T09:18:39Z</time>
      </trkpt>
      <trkpt lat="45.84226" lon="4.79811">
        <ele>591</ele>
        <time>2012-12-09T09:18:41Z</time>
      </trkpt>
      <trkpt lat="45.84227" lon="4.79812">
        <ele>591</ele>
        <time>2012-12-09T09:18:48Z</time>
      </trkpt>
      <trkpt lat="45.84225" lon="4.7981">
        <ele>591</ele>
        <time>2012-12-09T09:18:51Z</time>
      </trkpt>
      <trkpt lat="45.84225" lon="4.79809">
        <ele>591</ele>
        <time>2012-12-09T09:18:52Z</time>
      </trkpt>
      <trkpt lat="45.84225" lon="4.79809">
        <ele>591</ele>
        <time>2012-12-09T09:18:56Z</time>
      </trkpt>
      <trkpt lat="45.84224" lon="4.7981">
        <ele>591</ele>
        <time>2012-12-09T09:19:05Z</time>
      </trkpt>
      <trkpt lat="45.84223" lon="4.79806">
        <ele>591</ele>
        <time>2012-12-09T09:19:20Z</time>
      </trkpt>
      <trkpt lat="45.84223" lon="4.79805">
        <ele>591</ele>
        <time>2012-12-09T09:19:29Z</time>
      </trkpt>
      <trkpt lat="45.84224" lon="4.79805">
        <ele>591</ele>
        <time>2012-12-09T09:19:55Z</time>
      </trkpt>
      <trkpt lat="45.84222" lon="4.79809">
        <ele>591</ele>
        <time>2012-12-09T09:20:45Z</time>
      </trkpt>
      <trkpt lat="45.84222" lon="4.79809">
        <ele>591</ele>
        <time>2012-12-09T09:20:46Z</time>
      </trkpt>
      <trkpt lat="45.84221" lon="4.79811">
        <ele>591</ele>
        <time>2012-12-09T09:20:58Z</time>
      </trkpt>
      <trkpt lat="45.84222" lon="4.79811">
        <ele>591</ele>
        <time>2012-12-09T09:21:33Z</time>
      </trkpt>
      <trkpt lat="45.84222" lon="4.79811">
        <ele>591</ele>
        <time>2012-12-09T09:22:06Z</time>
      </trkpt>
      <trkpt lat="45.84223" lon="4.79813">
        <ele>591</ele>
        <time>2012-12-09T09:22:12Z</time>
      </trkpt>
      <trkpt lat="45.8423" lon="4.79821">
        <ele>591</ele>
        <time>2012-12-09T09:22:16Z</time>
      </trkpt>
      <trkpt lat="45.84231" lon="4.79824">
        <ele>591</ele>
        <time>2012-12-09T09:22:17Z</time>
      </trkpt>
      <trkpt lat="45.84235" lon="4.79846">
        <ele>588</ele>
        <time>2012-12-09T09:22:23Z</time>
      </trkpt>
      <trkpt lat="45.84239" lon="4.79861">
        <ele>586</ele>
        <time>2012-12-09T09:22:28Z</time>
      </trkpt>
      <trkpt lat="45.84245" lon="4.79869">
        <ele>586</ele>
        <time>2012-12-09T09:22:32Z</time>
      </trkpt>
      <trkpt lat="45.84248" lon="4.79873">
        <ele>585</ele>
        <time>2012-12-09T09:22:34Z</time>
      </trkpt>
      <trkpt lat="45.84255" lon="4.79883">
        <ele>579</ele>
        <time>2012-12-09T09:22:39Z</time>
      </trkpt>
      <trkpt lat="45.84259" lon="4.79887">
        <ele>579</ele>
        <time>2012-12-09T09:22:41Z</time>
      </trkpt>
      <trkpt lat="45.84268" lon="4.79898">
        <ele>578</ele>
        <time>2012-12-09T09:22:46Z</time>
      </trkpt>
      <trkpt lat="45.84274" lon="4.79904">
        <ele>578</ele>
        <time>2012-12-09T09:22:49Z</time>
      </trkpt>
      <trkpt lat="45.84281" lon="4.79912">
        <ele>577</ele>
        <time>2012-12-09T09:22:53Z</time>
      </trkpt>
      <trkpt lat="45.8429" lon="4.79921">
        <ele>574</ele>
        <time>2012-12-09T09:22:58Z</time>
      </trkpt>
      <trkpt lat="45.84294" lon="4.79925">
        <ele>573</ele>
        <time>2012-12-09T09:23:00Z</time>
      </trkpt>
      <trkpt lat="45.84305" lon="4.79932">
        <ele>573</ele>
        <time>2012-12-09T09:23:05Z</time>
      </trkpt>
      <trkpt lat="45.84308" lon="4.79934">
        <ele>573</ele>
        <time>2012-12-09T09:23:06Z</time>
      </trkpt>
      <trkpt lat="45.84317" lon="4.7994">
        <ele>572</ele>
        <time>2012-12-09T09:23:10Z</time>
      </trkpt>
      <trkpt lat="45.84326" lon="4.79948">
        <ele>572</ele>
        <time>2012-12-09T09:23:14Z</time>
      </trkpt>
      <trkpt lat="45.84328" lon="4.7995">
        <ele>572</ele>
        <time>2012-12-09T09:23:15Z</time>
      </trkpt>
      <trkpt lat="45.84339" lon="4.79962">
        <ele>567</ele>
        <time>2012-12-09T09:23:20Z</time>
      </trkpt>
      <trkpt lat="45.84341" lon="4.79964">
        <ele>567</ele>
        <time>2012-12-09T09:23:21Z</time>
      </trkpt>
      <trkpt lat="45.8435" lon="4.7998">
        <ele>567</ele>
        <time>2012-12-09T09:23:26Z</time>
      </trkpt>
      <trkpt lat="45.84352" lon="4.79987">
        <ele>567</ele>
        <time>2012-12-09T09:23:28Z</time>
      </trkpt>
      <trkpt lat="45.84355" lon="4.80002">
        <ele>566</ele>
        <time>2012-12-09T09:23:32Z</time>
      </trkpt>
      <trkpt lat="45.84357" lon="4.80014">
        <ele>565</ele>
        <time>2012-12-09T09:23:35Z</time>
      </trkpt>
      <trkpt lat="45.84359" lon="4.80022">
        <ele>565</ele>
        <time>2012-12-09T09:23:37Z</time>
      </trkpt>
      <trkpt lat="45.84364" lon="4.8004">
        <ele>564</ele>
        <time>2012-12-09T09:23:42Z</time>
      </trkpt>
      <trkpt lat="45.84372" lon="4.80054">
        <ele>563</ele>
        <time>2012-12-09T09:23:47Z</time>
      </trkpt>
      <trkpt lat="45.84376" lon="4.8006">
        <ele>563</ele>
        <time>2012-12-09T09:23:49Z</time>
      </trkpt>
      <trkpt lat="45.84379" lon="4.8007">
        <ele>563</ele>
        <time>2012-12-09T09:23:52Z</time>
      </trkpt>
      <trkpt lat="45.84383" lon="4.80085">
        <ele>558</ele>
        <time>2012-12-09T09:23:56Z</time>
      </trkpt>
      <trkpt lat="45.84384" lon="4.80089">
        <ele>558</ele>
        <time>2012-12-09T09:23:57Z</time>
      </trkpt>
      <trkpt lat="45.84392" lon="4.80108">
        <ele>558</ele>
        <time>2012-12-09T09:24:03Z</time>
      </trkpt>
      <trkpt lat="45.84394" lon="4.80111">
        <ele>557</ele>
        <time>2012-12-09T09:24:04Z</time>
      </trkpt>
      <trkpt lat="45.84402" lon="4.80122">
        <ele>557</ele>
        <time>2012-12-09T09:24:08Z</time>
      </trkpt>
      <trkpt lat="45.84407" lon="4.8013">
        <ele>556</ele>
        <time>2012-12-09T09:24:11Z</time>
      </trkpt>
      <trkpt lat="45.84411" lon="4.80136">
        <ele>556</ele>
        <time>2012-12-09T09:24:13Z</time>
      </trkpt>
      <trkpt lat="45.84422" lon="4.80151">
        <ele>554</ele>
        <time>2012-12-09T09:24:19Z</time>
      </trkpt>
      <trkpt lat="45.84424" lon="4.80154">
        <ele>554</ele>
        <time>2012-12-09T09:24:20Z</time>
      </trkpt>
      <trkpt lat="45.84434" lon="4.80167">
        <ele>551</ele>
        <time>2012-12-09T09:24:26Z</time>
      </trkpt>
      <trkpt lat="45.84436" lon="4.80169">
        <ele>551</ele>
        <time>2012-12-09T09:24:27Z</time>
      </trkpt>
      <trkpt lat="45.84444" lon="4.80182">
        <ele>551</ele>
        <time>2012-12-09T09:24:32Z</time>
      </trkpt>
      <trkpt lat="45.84448" lon="4.8019">
        <ele>550</ele>
        <time>2012-12-09T09:24:35Z</time>
      </trkpt>
      <trkpt lat="45.84453" lon="4.80199">
        <ele>550</ele>
        <time>2012-12-09T09:24:38Z</time>
      </trkpt>
      <trkpt lat="45.84459" lon="4.80212">
        <ele>549</ele>
        <time>2012-12-09T09:24:42Z</time>
      </trkpt>
      <trkpt lat="45.84464" lon="4.80221">
        <ele>549</ele>
        <time>2012-12-09T09:24:45Z</time>
      </trkpt>
      <trkpt lat="45.84471" lon="4.80232">
        <ele>549</ele>
        <time>2012-12-09T09:24:49Z</time>
      </trkpt>
      <trkpt lat="45.84473" lon="4.80235">
        <ele>549</ele>
        <time>2012-12-09T09:24:50Z</time>
      </trkpt>
      <trkpt lat="45.84482" lon="4.80245">
        <ele>548</ele>
        <time>2012-12-09T09:24:55Z</time>
      </trkpt>
      <trkpt lat="45.84487" lon="4.80248">
        <ele>548</ele>
        <time>2012-12-09T09:24:57Z</time>
      </trkpt>
      <trkpt lat="45.84494" lon="4.80257">
        <ele>545</ele>
        <time>2012-12-09T09:25:01Z</time>
      </trkpt>
      <trkpt lat="45.84502" lon="4.80267">
        <ele>543</ele>
        <time>2012-12-09T09:25:06Z</time>
      </trkpt>
      <trkpt lat="45.84504" lon="4.80269">
        <ele>543</ele>
        <time>2012-12-09T09:25:07Z</time>
      </trkpt>
      <trkpt lat="45.84516" lon="4.80279">
        <ele>541</ele>
        <time>2012-12-09T09:25:13Z</time>
      </trkpt>
      <trkpt lat="45.84518" lon="4.8028">
        <ele>541</ele>
        <time>2012-12-09T09:25:14Z</time>
      </trkpt>
      <trkpt lat="45.84532" lon="4.80283">
        <ele>540</ele>
        <time>2012-12-09T09:25:20Z</time>
      </trkpt>
      <trkpt lat="45.84537" lon="4.80282">
        <ele>540</ele>
        <time>2012-12-09T09:25:22Z</time>
      </trkpt>
      <trkpt lat="45.84543" lon="4.80282">
        <ele>540</ele>
        <time>2012-12-09T09:25:25Z</time>
      </trkpt>
      <trkpt lat="45.84544" lon="4.80284">
        <ele>540</ele>
        <time>2012-12-09T09:25:26Z</time>
      </trkpt>
      <trkpt lat="45.84552" lon="4.80293">
        <ele>539</ele>
        <time>2012-12-09T09:25:31Z</time>
      </trkpt>
      <trkpt lat="45.84554" lon="4.80295">
        <ele>539</ele>
        <time>2012-12-09T09:25:32Z</time>
      </trkpt>
      <trkpt lat="45.84569" lon="4.80304">
        <ele>538</ele>
        <time>2012-12-09T09:25:38Z</time>
      </trkpt>
      <trkpt lat="45.84577" lon="4.80311">
        <ele>537</ele>
        <time>2012-12-09T09:25:42Z</time>
      </trkpt>
      <trkpt lat="45.84583" lon="4.80322">
        <ele>535</ele>
        <time>2012-12-09T09:25:46Z</time>
      </trkpt>
      <trkpt lat="45.84584" lon="4.80325">
        <ele>533</ele>
        <time>2012-12-09T09:25:47Z</time>
      </trkpt>
      <trkpt lat="45.84587" lon="4.80338">
        <ele>531</ele>
        <time>2012-12-09T09:25:51Z</time>
      </trkpt>
      <trkpt lat="45.84588" lon="4.80348">
        <ele>530</ele>
        <time>2012-12-09T09:25:54Z</time>
      </trkpt>
      <trkpt lat="45.84589" lon="4.80354">
        <ele>529</ele>
        <time>2012-12-09T09:25:56Z</time>
      </trkpt>
      <trkpt lat="45.84591" lon="4.80361">
        <ele>528</ele>
        <time>2012-12-09T09:25:58Z</time>
      </trkpt>
      <trkpt lat="45.84593" lon="4.80371">
        <ele>527</ele>
        <time>2012-12-09T09:26:01Z</time>
      </trkpt>
      <trkpt lat="45.84594" lon="4.80374">
        <ele>527</ele>
        <time>2012-12-09T09:26:02Z</time>
      </trkpt>
      <trkpt lat="45.84596" lon="4.80386">
        <ele>526</ele>
        <time>2012-12-09T09:26:06Z</time>
      </trkpt>
      <trkpt lat="45.84596" lon="4.80401">
        <ele>523</ele>
        <time>2012-12-09T09:26:11Z</time>
      </trkpt>
      <trkpt lat="45.84596" lon="4.80403">
        <ele>523</ele>
        <time>2012-12-09T09:26:12Z</time>
      </trkpt>
      <trkpt lat="45.84596" lon="4.80411">
        <ele>522</ele>
        <time>2012-12-09T09:26:15Z</time>
      </trkpt>
      <trkpt lat="45.84597" lon="4.80418">
        <ele>517</ele>
        <time>2012-12-09T09:26:17Z</time>
      </trkpt>
      <trkpt lat="45.84599" lon="4.80428">
        <ele>517</ele>
        <time>2012-12-09T09:26:20Z</time>
      </trkpt>
      <trkpt lat="45.84602" lon="4.80438">
        <ele>517</ele>
        <time>2012-12-09T09:26:23Z</time>
      </trkpt>
      <trkpt lat="45.84609" lon="4.80449">
        <ele>516</ele>
        <time>2012-12-09T09:26:27Z</time>
      </trkpt>
      <trkpt lat="45.8461" lon="4.80452">
        <ele>516</ele>
        <time>2012-12-09T09:26:28Z</time>
      </trkpt>
      <trkpt lat="45.84617" lon="4.80464">
        <ele>515</ele>
        <time>2012-12-09T09:26:32Z</time>
      </trkpt>
      <trkpt lat="45.8462" lon="4.80472">
        <ele>515</ele>
        <time>2012-12-09T09:26:34Z</time>
      </trkpt>
      <trkpt lat="45.84624" lon="4.80485">
        <ele>514</ele>
        <time>2012-12-09T09:26:38Z</time>
      </trkpt>
      <trkpt lat="45.84627" lon="4.80495">
        <ele>514</ele>
        <time>2012-12-09T09:26:41Z</time>
      </trkpt>
      <trkpt lat="45.8463" lon="4.80505">
        <ele>506</ele>
        <time>2012-12-09T09:26:44Z</time>
      </trkpt>
      <trkpt lat="45.84635" lon="4.80519">
        <ele>505</ele>
        <time>2012-12-09T09:26:48Z</time>
      </trkpt>
      <trkpt lat="45.84639" lon="4.80529">
        <ele>505</ele>
        <time>2012-12-09T09:26:51Z</time>
      </trkpt>
      <trkpt lat="45.84645" lon="4.80541">
        <ele>504</ele>
        <time>2012-12-09T09:26:55Z</time>
      </trkpt>
      <trkpt lat="45.84649" lon="4.80551">
        <ele>503</ele>
        <time>2012-12-09T09:26:58Z</time>
      </trkpt>
      <trkpt lat="45.84655" lon="4.80564">
        <ele>502</ele>
        <time>2012-12-09T09:27:02Z</time>
      </trkpt>
      <trkpt lat="45.84657" lon="4.80571">
        <ele>502</ele>
        <time>2012-12-09T09:27:04Z</time>
      </trkpt>
      <trkpt lat="45.84664" lon="4.80587">
        <ele>499</ele>
        <time>2012-12-09T09:27:09Z</time>
      </trkpt>
      <trkpt lat="45.84671" lon="4.80603">
        <ele>498</ele>
        <time>2012-12-09T09:27:14Z</time>
      </trkpt>
      <trkpt lat="45.84674" lon="4.8061">
        <ele>497</ele>
        <time>2012-12-09T09:27:16Z</time>
      </trkpt>
      <trkpt lat="45.84678" lon="4.80622">
        <ele>496</ele>
        <time>2012-12-09T09:27:19Z</time>
      </trkpt>
      <trkpt lat="45.84682" lon="4.80637">
        <ele>495</ele>
        <time>2012-12-09T09:27:23Z</time>
      </trkpt>
      <trkpt lat="45.84683" lon="4.8064">
        <ele>495</ele>
        <time>2012-12-09T09:27:24Z</time>
      </trkpt>
      <trkpt lat="45.84686" lon="4.80649">
        <ele>494</ele>
        <time>2012-12-09T09:27:27Z</time>
      </trkpt>
      <trkpt lat="45.84685" lon="4.80652">
        <ele>494</ele>
        <time>2012-12-09T09:27:28Z</time>
      </trkpt>
      <trkpt lat="45.84679" lon="4.80652">
        <ele>494</ele>
        <time>2012-12-09T09:27:31Z</time>
      </trkpt>
      <trkpt lat="45.84668" lon="4.80644">
        <ele>494</ele>
        <time>2012-12-09T09:27:36Z</time>
      </trkpt>
      <trkpt lat="45.84663" lon="4.80642">
        <ele>492</ele>
        <time>2012-12-09T09:27:38Z</time>
      </trkpt>
      <trkpt lat="45.84655" lon="4.80641">
        <ele>492</ele>
        <time>2012-12-09T09:27:41Z</time>
      </trkpt>
      <trkpt lat="45.84651" lon="4.8064">
        <ele>492</ele>
        <time>2012-12-09T09:27:43Z</time>
      </trkpt>
      <trkpt lat="45.84643" lon="4.80641">
        <ele>492</ele>
        <time>2012-12-09T09:27:46Z</time>
      </trkpt>
      <trkpt lat="45.8464" lon="4.80641">
        <ele>492</ele>
        <time>2012-12-09T09:27:47Z</time>
      </trkpt>
      <trkpt lat="45.8463" lon="4.80641">
        <ele>492</ele>
        <time>2012-12-09T09:27:51Z</time>
      </trkpt>
      <trkpt lat="45.84628" lon="4.80641">
        <ele>492</ele>
        <time>2012-12-09T09:27:52Z</time>
      </trkpt>
      <trkpt lat="45.84625" lon="4.80641">
        <ele>492</ele>
        <time>2012-12-09T09:27:53Z</time>
      </trkpt>
      <trkpt lat="45.84618" lon="4.8064">
        <ele>491</ele>
        <time>2012-12-09T09:27:56Z</time>
      </trkpt>
      <trkpt lat="45.84615" lon="4.8064">
        <ele>491</ele>
        <time>2012-12-09T09:27:57Z</time>
      </trkpt>
      <trkpt lat="45.84605" lon="4.80636">
        <ele>491</ele>
        <time>2012-12-09T09:28:01Z</time>
      </trkpt>
      <trkpt lat="45.84601" lon="4.80631">
        <ele>491</ele>
        <time>2012-12-09T09:28:03Z</time>
      </trkpt>
      <trkpt lat="45.8459" lon="4.80616">
        <ele>492</ele>
        <time>2012-12-09T09:28:08Z</time>
      </trkpt>
      <trkpt lat="45.84586" lon="4.8061">
        <ele>492</ele>
        <time>2012-12-09T09:28:10Z</time>
      </trkpt>
      <trkpt lat="45.84582" lon="4.80592">
        <ele>492</ele>
        <time>2012-12-09T09:28:14Z</time>
      </trkpt>
      <trkpt lat="45.84581" lon="4.80588">
        <ele>493</ele>
        <time>2012-12-09T09:28:15Z</time>
      </trkpt>
      <trkpt lat="45.84575" lon="4.80572">
        <ele>497</ele>
        <time>2012-12-09T09:28:20Z</time>
      </trkpt>
      <trkpt lat="45.84571" lon="4.80566">
        <ele>498</ele>
        <time>2012-12-09T09:28:22Z</time>
      </trkpt>
      <trkpt lat="45.84565" lon="4.80564">
        <ele>498</ele>
        <time>2012-12-09T09:28:24Z</time>
      </trkpt>
      <trkpt lat="45.8456" lon="4.80561">
        <ele>499</ele>
        <time>2012-12-09T09:28:26Z</time>
      </trkpt>
      <trkpt lat="45.84555" lon="4.80565">
        <ele>498</ele>
        <time>2012-12-09T09:28:29Z</time>
      </trkpt>
      <trkpt lat="45.84551" lon="4.80577">
        <ele>498</ele>
        <time>2012-12-09T09:28:34Z</time>
      </trkpt>
      <trkpt lat="45.84551" lon="4.80592">
        <ele>490</ele>
        <time>2012-12-09T09:28:39Z</time>
      </trkpt>
      <trkpt lat="45.84549" lon="4.80598">
        <ele>490</ele>
        <time>2012-12-09T09:28:41Z</time>
      </trkpt>
      <trkpt lat="45.84548" lon="4.80606">
        <ele>489</ele>
        <time>2012-12-09T09:28:45Z</time>
      </trkpt>
      <trkpt lat="45.84547" lon="4.80612">
        <ele>489</ele>
        <time>2012-12-09T09:28:54Z</time>
      </trkpt>
      <trkpt lat="45.84546" lon="4.80614">
        <ele>489</ele>
        <time>2012-12-09T09:28:56Z</time>
      </trkpt>
      <trkpt lat="45.84546" lon="4.80618">
        <ele>488</ele>
        <time>2012-12-09T09:28:59Z</time>
      </trkpt>
      <trkpt lat="45.84546" lon="4.80623">
        <ele>488</ele>
        <time>2012-12-09T09:29:02Z</time>
      </trkpt>
      <trkpt lat="45.84544" lon="4.80629">
        <ele>488</ele>
        <time>2012-12-09T09:29:05Z</time>
      </trkpt>
      <trkpt lat="45.84541" lon="4.80644">
        <ele>486</ele>
        <time>2012-12-09T09:29:10Z</time>
      </trkpt>
      <trkpt lat="45.84533" lon="4.8065">
        <ele>486</ele>
        <time>2012-12-09T09:29:14Z</time>
      </trkpt>
      <trkpt lat="45.8453" lon="4.80661">
        <ele>485</ele>
        <time>2012-12-09T09:29:19Z</time>
      </trkpt>
      <trkpt lat="45.84531" lon="4.80663">
        <ele>485</ele>
        <time>2012-12-09T09:29:20Z</time>
      </trkpt>
      <trkpt lat="45.8453" lon="4.80674">
        <ele>478</ele>
        <time>2012-12-09T09:29:24Z</time>
      </trkpt>
      <trkpt lat="45.84532" lon="4.80682">
        <ele>478</ele>
        <time>2012-12-09T09:29:28Z</time>
      </trkpt>
      <trkpt lat="45.84533" lon="4.8069">
        <ele>478</ele>
        <time>2012-12-09T09:29:31Z</time>
      </trkpt>
      <trkpt lat="45.84534" lon="4.80696">
        <ele>478</ele>
        <time>2012-12-09T09:29:33Z</time>
      </trkpt>
      <trkpt lat="45.84535" lon="4.80713">
        <ele>477</ele>
        <time>2012-12-09T09:29:38Z</time>
      </trkpt>
      <trkpt lat="45.84535" lon="4.80716">
        <ele>477</ele>
        <time>2012-12-09T09:29:39Z</time>
      </trkpt>
      <trkpt lat="45.84533" lon="4.80729">
        <ele>476</ele>
        <time>2012-12-09T09:29:43Z</time>
      </trkpt>
      <trkpt lat="45.8453" lon="4.80739">
        <ele>475</ele>
        <time>2012-12-09T09:29:46Z</time>
      </trkpt>
      <trkpt lat="45.84529" lon="4.80746">
        <ele>475</ele>
        <time>2012-12-09T09:29:48Z</time>
      </trkpt>
      <trkpt lat="45.84527" lon="4.80755">
        <ele>469</ele>
        <time>2012-12-09T09:29:51Z</time>
      </trkpt>
      <trkpt lat="45.84527" lon="4.80757">
        <ele>469</ele>
        <time>2012-12-09T09:29:52Z</time>
      </trkpt>
      <trkpt lat="45.84527" lon="4.80759">
        <ele>469</ele>
        <time>2012-12-09T09:29:53Z</time>
      </trkpt>
      <trkpt lat="45.84526" lon="4.80765">
        <ele>469</ele>
        <time>2012-12-09T09:29:55Z</time>
      </trkpt>
      <trkpt lat="45.84525" lon="4.80768">
        <ele>469</ele>
        <time>2012-12-09T09:29:56Z</time>
      </trkpt>
      <trkpt lat="45.84524" lon="4.80774">
        <ele>468</ele>
        <time>2012-12-09T09:29:58Z</time>
      </trkpt>
      <trkpt lat="45.8452" lon="4.80779">
        <ele>468</ele>
        <time>2012-12-09T09:30:01Z</time>
      </trkpt>
      <trkpt lat="45.84519" lon="4.80782">
        <ele>468</ele>
        <time>2012-12-09T09:30:03Z</time>
      </trkpt>
      <trkpt lat="45.84519" lon="4.80785">
        <ele>468</ele>
        <time>2012-12-09T09:30:04Z</time>
      </trkpt>
      <trkpt lat="45.84518" lon="4.80788">
        <ele>468</ele>
        <time>2012-12-09T09:30:05Z</time>
      </trkpt>
      <trkpt lat="45.84518" lon="4.8079">
        <ele>467</ele>
        <time>2012-12-09T09:30:06Z</time>
      </trkpt>
      <trkpt lat="45.84517" lon="4.808">
        <ele>467</ele>
        <time>2012-12-09T09:30:12Z</time>
      </trkpt>
      <trkpt lat="45.84517" lon="4.80816">
        <ele>465</ele>
        <time>2012-12-09T09:30:17Z</time>
      </trkpt>
      <trkpt lat="45.84516" lon="4.80828">
        <ele>464</ele>
        <time>2012-12-09T09:30:20Z</time>
      </trkpt>
      <trkpt lat="45.84514" lon="4.80832">
        <ele>463</ele>
        <time>2012-12-09T09:30:22Z</time>
      </trkpt>
      <trkpt lat="45.84508" lon="4.80836">
        <ele>460</ele>
        <time>2012-12-09T09:30:26Z</time>
      </trkpt>
      <trkpt lat="45.84506" lon="4.80851">
        <ele>459</ele>
        <time>2012-12-09T09:30:31Z</time>
      </trkpt>
      <trkpt lat="45.84505" lon="4.80855">
        <ele>459</ele>
        <time>2012-12-09T09:30:32Z</time>
      </trkpt>
      <trkpt lat="45.84504" lon="4.80862">
        <ele>459</ele>
        <time>2012-12-09T09:30:34Z</time>
      </trkpt>
      <trkpt lat="45.84501" lon="4.80872">
        <ele>458</ele>
        <time>2012-12-09T09:30:37Z</time>
      </trkpt>
      <trkpt lat="45.84496" lon="4.80885">
        <ele>456</ele>
        <time>2012-12-09T09:30:41Z</time>
      </trkpt>
      <trkpt lat="45.84494" lon="4.80887">
        <ele>456</ele>
        <time>2012-12-09T09:30:42Z</time>
      </trkpt>
      <trkpt lat="45.84488" lon="4.80897">
        <ele>455</ele>
        <time>2012-12-09T09:30:47Z</time>
      </trkpt>
      <trkpt lat="45.84489" lon="4.80908">
        <ele>454</ele>
        <time>2012-12-09T09:30:51Z</time>
      </trkpt>
      <trkpt lat="45.84487" lon="4.8091">
        <ele>454</ele>
        <time>2012-12-09T09:30:52Z</time>
      </trkpt>
      <trkpt lat="45.84488" lon="4.80918">
        <ele>450</ele>
        <time>2012-12-09T09:30:56Z</time>
      </trkpt>
      <trkpt lat="45.8449" lon="4.80923">
        <ele>450</ele>
        <time>2012-12-09T09:31:00Z</time>
      </trkpt>
      <trkpt lat="45.8449" lon="4.80926">
        <ele>450</ele>
        <time>2012-12-09T09:31:02Z</time>
      </trkpt>
      <trkpt lat="45.84489" lon="4.80929">
        <ele>450</ele>
        <time>2012-12-09T09:31:04Z</time>
      </trkpt>
      <trkpt lat="45.84487" lon="4.80933">
        <ele>450</ele>
        <time>2012-12-09T09:31:05Z</time>
      </trkpt>
      <trkpt lat="45.84486" lon="4.80937">
        <ele>450</ele>
        <time>2012-12-09T09:31:06Z</time>
      </trkpt>
      <trkpt lat="45.84486" lon="4.80941">
        <ele>449</ele>
        <time>2012-12-09T09:31:07Z</time>
      </trkpt>
      <trkpt lat="45.84483" lon="4.80956">
        <ele>448</ele>
        <time>2012-12-09T09:31:12Z</time>
      </trkpt>
      <trkpt lat="45.84483" lon="4.8096">
        <ele>448</ele>
        <time>2012-12-09T09:31:13Z</time>
      </trkpt>
      <trkpt lat="45.84482" lon="4.8097">
        <ele>447</ele>
        <time>2012-12-09T09:31:17Z</time>
      </trkpt>
      <trkpt lat="45.8448" lon="4.80981">
        <ele>446</ele>
        <time>2012-12-09T09:31:21Z</time>
      </trkpt>
      <trkpt lat="45.84479" lon="4.80987">
        <ele>445</ele>
        <time>2012-12-09T09:31:23Z</time>
      </trkpt>
      <trkpt lat="45.84479" lon="4.80994">
        <ele>445</ele>
        <time>2012-12-09T09:31:26Z</time>
      </trkpt>
      <trkpt lat="45.84478" lon="4.80997">
        <ele>445</ele>
        <time>2012-12-09T09:31:28Z</time>
      </trkpt>
      <trkpt lat="45.84478" lon="4.81005">
        <ele>438</ele>
        <time>2012-12-09T09:31:32Z</time>
      </trkpt>
      <trkpt lat="45.84478" lon="4.81007">
        <ele>438</ele>
        <time>2012-12-09T09:31:33Z</time>
      </trkpt>
      <trkpt lat="45.84476" lon="4.81014">
        <ele>438</ele>
        <time>2012-12-09T09:31:36Z</time>
      </trkpt>
      <trkpt lat="45.84476" lon="4.81016">
        <ele>438</ele>
        <time>2012-12-09T09:31:37Z</time>
      </trkpt>
      <trkpt lat="45.84475" lon="4.8102">
        <ele>438</ele>
        <time>2012-12-09T09:31:39Z</time>
      </trkpt>
      <trkpt lat="45.84476" lon="4.81028">
        <ele>437</ele>
        <time>2012-12-09T09:31:42Z</time>
      </trkpt>
      <trkpt lat="45.84477" lon="4.81038">
        <ele>437</ele>
        <time>2012-12-09T09:31:46Z</time>
      </trkpt>
      <trkpt lat="45.84476" lon="4.81042">
        <ele>436</ele>
        <time>2012-12-09T09:31:47Z</time>
      </trkpt>
      <trkpt lat="45.84475" lon="4.81057">
        <ele>435</ele>
        <time>2012-12-09T09:31:52Z</time>
      </trkpt>
      <trkpt lat="45.84471" lon="4.81066">
        <ele>434</ele>
        <time>2012-12-09T09:31:56Z</time>
      </trkpt>
      <trkpt lat="45.84469" lon="4.81071">
        <ele>434</ele>
        <time>2012-12-09T09:31:58Z</time>
      </trkpt>
      <trkpt lat="45.84468" lon="4.81077">
        <ele>434</ele>
        <time>2012-12-09T09:32:00Z</time>
      </trkpt>
      <trkpt lat="45.84464" lon="4.81085">
        <ele>427</ele>
        <time>2012-12-09T09:32:03Z</time>
      </trkpt>
      <trkpt lat="45.84462" lon="4.81087">
        <ele>427</ele>
        <time>2012-12-09T09:32:04Z</time>
      </trkpt>
      <trkpt lat="45.84459" lon="4.81101">
        <ele>427</ele>
        <time>2012-12-09T09:32:08Z</time>
      </trkpt>
      <trkpt lat="45.84455" lon="4.81113">
        <ele>427</ele>
        <time>2012-12-09T09:32:11Z</time>
      </trkpt>
      <trkpt lat="45.84454" lon="4.81119">
        <ele>426</ele>
        <time>2012-12-09T09:32:13Z</time>
      </trkpt>
      <trkpt lat="45.84453" lon="4.81136">
        <ele>425</ele>
        <time>2012-12-09T09:32:18Z</time>
      </trkpt>
      <trkpt lat="45.84453" lon="4.8114">
        <ele>425</ele>
        <time>2012-12-09T09:32:19Z</time>
      </trkpt>
      <trkpt lat="45.84453" lon="4.81156">
        <ele>424</ele>
        <time>2012-12-09T09:32:23Z</time>
      </trkpt>
      <trkpt lat="45.84455" lon="4.81162">
        <ele>424</ele>
        <time>2012-12-09T09:32:25Z</time>
      </trkpt>
      <trkpt lat="45.84456" lon="4.81165">
        <ele>424</ele>
        <time>2012-12-09T09:32:26Z</time>
      </trkpt>
      <trkpt lat="45.84458" lon="4.81168">
        <ele>416</ele>
        <time>2012-12-09T09:32:27Z</time>
      </trkpt>
      <trkpt lat="45.8446" lon="4.81173">
        <ele>416</ele>
        <time>2012-12-09T09:32:30Z</time>
      </trkpt>
      <trkpt lat="45.8446" lon="4.81174">
        <ele>416</ele>
        <time>2012-12-09T09:32:31Z</time>
      </trkpt>
      <trkpt lat="45.84461" lon="4.81176">
        <ele>416</ele>
        <time>2012-12-09T09:32:32Z</time>
      </trkpt>
      <trkpt lat="45.8446" lon="4.81178">
        <ele>416</ele>
        <time>2012-12-09T09:32:37Z</time>
      </trkpt>
      <trkpt lat="45.84461" lon="4.81177">
        <ele>416</ele>
        <time>2012-12-09T09:32:43Z</time>
      </trkpt>
      <trkpt lat="45.84458" lon="4.81179">
        <ele>416</ele>
        <time>2012-12-09T09:32:48Z</time>
      </trkpt>
      <trkpt lat="45.84457" lon="4.8118">
        <ele>416</ele>
        <time>2012-12-09T09:32:50Z</time>
      </trkpt>
      <trkpt lat="45.84454" lon="4.81181">
        <ele>416</ele>
        <time>2012-12-09T09:32:53Z</time>
      </trkpt>
      <trkpt lat="45.84453" lon="4.81182">
        <ele>416</ele>
        <time>2012-12-09T09:32:54Z</time>
      </trkpt>
      <trkpt lat="45.84452" lon="4.81184">
        <ele>416</ele>
        <time>2012-12-09T09:32:56Z</time>
      </trkpt>
      <trkpt lat="45.84451" lon="4.81188">
        <ele>416</ele>
        <time>2012-12-09T09:32:59Z</time>
      </trkpt>
      <trkpt lat="45.8445" lon="4.81203">
        <ele>415</ele>
        <time>2012-12-09T09:33:05Z</time>
      </trkpt>
      <trkpt lat="45.8445" lon="4.81207">
        <ele>415</ele>
        <time>2012-12-09T09:33:06Z</time>
      </trkpt>
      <trkpt lat="45.84449" lon="4.81217">
        <ele>414</ele>
        <time>2012-12-09T09:33:10Z</time>
      </trkpt>
      <trkpt lat="45.84449" lon="4.81224">
        <ele>414</ele>
        <time>2012-12-09T09:33:14Z</time>
      </trkpt>
      <trkpt lat="45.84448" lon="4.81227">
        <ele>414</ele>
        <time>2012-12-09T09:33:17Z</time>
      </trkpt>
      <trkpt lat="45.8445" lon="4.81232">
        <ele>413</ele>
        <time>2012-12-09T09:33:27Z</time>
      </trkpt>
      <trkpt lat="45.84451" lon="4.81233">
        <ele>413</ele>
        <time>2012-12-09T09:33:28Z</time>
      </trkpt>
      <trkpt lat="45.84457" lon="4.81241">
        <ele>412</ele>
        <time>2012-12-09T09:33:32Z</time>
      </trkpt>
      <trkpt lat="45.84458" lon="4.81243">
        <ele>412</ele>
        <time>2012-12-09T09:33:33Z</time>
      </trkpt>
      <trkpt lat="45.84458" lon="4.81251">
        <ele>403</ele>
        <time>2012-12-09T09:33:37Z</time>
      </trkpt>
      <trkpt lat="45.84458" lon="4.81256">
        <ele>403</ele>
        <time>2012-12-09T09:33:39Z</time>
      </trkpt>
      <trkpt lat="45.84458" lon="4.81261">
        <ele>403</ele>
        <time>2012-12-09T09:33:41Z</time>
      </trkpt>
      <trkpt lat="45.84457" lon="4.81276">
        <ele>401</ele>
        <time>2012-12-09T09:33:47Z</time>
      </trkpt>
      <trkpt lat="45.84457" lon="4.81282">
        <ele>401</ele>
        <time>2012-12-09T09:33:49Z</time>
      </trkpt>
      <trkpt lat="45.84457" lon="4.81287">
        <ele>400</ele>
        <time>2012-12-09T09:33:52Z</time>
      </trkpt>
      <trkpt lat="45.84456" lon="4.81291">
        <ele>400</ele>
        <time>2012-12-09T09:33:55Z</time>
      </trkpt>
      <trkpt lat="45.84456" lon="4.81297">
        <ele>399</ele>
        <time>2012-12-09T09:33:58Z</time>
      </trkpt>
      <trkpt lat="45.84456" lon="4.81298">
        <ele>399</ele>
        <time>2012-12-09T09:33:59Z</time>
      </trkpt>
      <trkpt lat="45.84455" lon="4.81304">
        <ele>399</ele>
        <time>2012-12-09T09:34:04Z</time>
      </trkpt>
      <trkpt lat="45.84455" lon="4.8131">
        <ele>398</ele>
        <time>2012-12-09T09:34:07Z</time>
      </trkpt>
      <trkpt lat="45.84455" lon="4.81312">
        <ele>398</ele>
        <time>2012-12-09T09:34:08Z</time>
      </trkpt>
      <trkpt lat="45.84461" lon="4.81315">
        <ele>397</ele>
        <time>2012-12-09T09:34:13Z</time>
      </trkpt>
      <trkpt lat="45.84463" lon="4.81318">
        <ele>397</ele>
        <time>2012-12-09T09:34:17Z</time>
      </trkpt>
      <trkpt lat="45.84463" lon="4.81321">
        <ele>397</ele>
        <time>2012-12-09T09:34:19Z</time>
      </trkpt>
      <trkpt lat="45.84462" lon="4.81324">
        <ele>396</ele>
        <time>2012-12-09T09:34:20Z</time>
      </trkpt>
      <trkpt lat="45.84464" lon="4.81328">
        <ele>396</ele>
        <time>2012-12-09T09:34:23Z</time>
      </trkpt>
      <trkpt lat="45.84466" lon="4.81335">
        <ele>382</ele>
        <time>2012-12-09T09:34:26Z</time>
      </trkpt>
      <trkpt lat="45.84466" lon="4.81338">
        <ele>382</ele>
        <time>2012-12-09T09:34:27Z</time>
      </trkpt>
      <trkpt lat="45.84467" lon="4.81346">
        <ele>381</ele>
        <time>2012-12-09T09:34:32Z</time>
      </trkpt>
      <trkpt lat="45.84468" lon="4.81356">
        <ele>380</ele>
        <time>2012-12-09T09:34:38Z</time>
      </trkpt>
      <trkpt lat="45.84467" lon="4.8136">
        <ele>380</ele>
        <time>2012-12-09T09:34:42Z</time>
      </trkpt>
      <trkpt lat="45.84467" lon="4.81361">
        <ele>380</ele>
        <time>2012-12-09T09:34:43Z</time>
      </trkpt>
      <trkpt lat="45.84467" lon="4.81362">
        <ele>379</ele>
        <time>2012-12-09T09:34:44Z</time>
      </trkpt>
      <trkpt lat="45.84467" lon="4.81366">
        <ele>379</ele>
        <time>2012-12-09T09:34:47Z</time>
      </trkpt>
      <trkpt lat="45.84461" lon="4.81373">
        <ele>378</ele>
        <time>2012-12-09T09:34:55Z</time>
      </trkpt>
      <trkpt lat="45.84463" lon="4.8138">
        <ele>377</ele>
        <time>2012-12-09T09:34:57Z</time>
      </trkpt>
      <trkpt lat="45.84465" lon="4.81393">
        <ele>375</ele>
        <time>2012-12-09T09:35:00Z</time>
      </trkpt>
      <trkpt lat="45.8447" lon="4.81406">
        <ele>372</ele>
        <time>2012-12-09T09:35:04Z</time>
      </trkpt>
      <trkpt lat="45.84473" lon="4.81414">
        <ele>370</ele>
        <time>2012-12-09T09:35:08Z</time>
      </trkpt>
      <trkpt lat="45.84473" lon="4.81414">
        <ele>370</ele>
        <time>2012-12-09T09:35:09Z</time>
      </trkpt>
      <trkpt lat="45.84474" lon="4.81416">
        <ele>370</ele>
        <time>2012-12-09T09:35:14Z</time>
      </trkpt>
      <trkpt lat="45.84478" lon="4.81413">
        <ele>368</ele>
        <time>2012-12-09T09:35:20Z</time>
      </trkpt>
      <trkpt lat="45.84479" lon="4.81414">
        <ele>368</ele>
        <time>2012-12-09T09:35:23Z</time>
      </trkpt>
      <trkpt lat="45.84483" lon="4.8141">
        <ele>367</ele>
        <time>2012-12-09T09:35:34Z</time>
      </trkpt>
      <trkpt lat="45.84488" lon="4.8141">
        <ele>365</ele>
        <time>2012-12-09T09:35:37Z</time>
      </trkpt>
      <trkpt lat="45.8449" lon="4.81411">
        <ele>364</ele>
        <time>2012-12-09T09:35:38Z</time>
      </trkpt>
      <trkpt lat="45.84495" lon="4.81411">
        <ele>361</ele>
        <time>2012-12-09T09:35:42Z</time>
      </trkpt>
      <trkpt lat="45.84496" lon="4.8141">
        <ele>361</ele>
        <time>2012-12-09T09:35:43Z</time>
      </trkpt>
      <trkpt lat="45.845" lon="4.81406">
        <ele>363</ele>
        <time>2012-12-09T09:35:47Z</time>
      </trkpt>
      <trkpt lat="45.845" lon="4.81405">
        <ele>361</ele>
        <time>2012-12-09T09:35:48Z</time>
      </trkpt>
      <trkpt lat="45.84504" lon="4.81402">
        <ele>363</ele>
        <time>2012-12-09T09:35:55Z</time>
      </trkpt>
      <trkpt lat="45.84505" lon="4.81401">
        <ele>363</ele>
        <time>2012-12-09T09:35:56Z</time>
      </trkpt>
      <trkpt lat="45.84511" lon="4.81401">
        <ele>364</ele>
        <time>2012-12-09T09:36:06Z</time>
      </trkpt>
      <trkpt lat="45.84514" lon="4.81401">
        <ele>365</ele>
        <time>2012-12-09T09:36:10Z</time>
      </trkpt>
      <trkpt lat="45.84512" lon="4.81412">
        <ele>361</ele>
        <time>2012-12-09T09:36:18Z</time>
      </trkpt>
      <trkpt lat="45.84512" lon="4.81412">
        <ele>362</ele>
        <time>2012-12-09T09:36:32Z</time>
      </trkpt>
      <trkpt lat="45.84513" lon="4.81411">
        <ele>362</ele>
        <time>2012-12-09T09:36:35Z</time>
      </trkpt>
      <trkpt lat="45.84518" lon="4.81408">
        <ele>364</ele>
        <time>2012-12-09T09:36:40Z</time>
      </trkpt>
      <trkpt lat="45.84522" lon="4.81408">
        <ele>365</ele>
        <time>2012-12-09T09:36:44Z</time>
      </trkpt>
      <trkpt lat="45.84523" lon="4.8141">
        <ele>365</ele>
        <time>2012-12-09T09:36:46Z</time>
      </trkpt>
      <trkpt lat="45.84527" lon="4.81411">
        <ele>365</ele>
        <time>2012-12-09T09:36:58Z</time>
      </trkpt>
      <trkpt lat="45.84531" lon="4.8141">
        <ele>366</ele>
        <time>2012-12-09T09:37:04Z</time>
      </trkpt>
      <trkpt lat="45.84531" lon="4.81411">
        <ele>366</ele>
        <time>2012-12-09T09:37:06Z</time>
      </trkpt>
      <trkpt lat="45.84533" lon="4.81413">
        <ele>366</ele>
        <time>2012-12-09T09:37:09Z</time>
      </trkpt>
      <trkpt lat="45.8454" lon="4.81412">
        <ele>366</ele>
        <time>2012-12-09T09:37:15Z</time>
      </trkpt>
      <trkpt lat="45.84546" lon="4.81412">
        <ele>366</ele>
        <time>2012-12-09T09:37:21Z</time>
      </trkpt>
      <trkpt lat="45.84549" lon="4.8141">
        <ele>366</ele>
        <time>2012-12-09T09:37:23Z</time>
      </trkpt>
      <trkpt lat="45.84553" lon="4.81407">
        <ele>366</ele>
        <time>2012-12-09T09:37:27Z</time>
      </trkpt>
      <trkpt lat="45.84557" lon="4.81401">
        <ele>367</ele>
        <time>2012-12-09T09:37:33Z</time>
      </trkpt>
      <trkpt lat="45.84558" lon="4.814">
        <ele>367</ele>
        <time>2012-12-09T09:37:34Z</time>
      </trkpt>
      <trkpt lat="45.8456" lon="4.81399">
        <ele>367</ele>
        <time>2012-12-09T09:37:38Z</time>
      </trkpt>
      <trkpt lat="45.84564" lon="4.81399">
        <ele>367</ele>
        <time>2012-12-09T09:37:41Z</time>
      </trkpt>
      <trkpt lat="45.84566" lon="4.81399">
        <ele>367</ele>
        <time>2012-12-09T09:37:42Z</time>
      </trkpt>
      <trkpt lat="45.84567" lon="4.81397">
        <ele>367</ele>
        <time>2012-12-09T09:37:45Z</time>
      </trkpt>
      <trkpt lat="45.84568" lon="4.81394">
        <ele>367</ele>
        <time>2012-12-09T09:37:48Z</time>
      </trkpt>
      <trkpt lat="45.84571" lon="4.81393">
        <ele>368</ele>
        <time>2012-12-09T09:37:51Z</time>
      </trkpt>
      <trkpt lat="45.84571" lon="4.81393">
        <ele>367</ele>
        <time>2012-12-09T09:37:53Z</time>
      </trkpt>
      <trkpt lat="45.84573" lon="4.81397">
        <ele>366</ele>
        <time>2012-12-09T09:37:58Z</time>
      </trkpt>
      <trkpt lat="45.84576" lon="4.814">
        <ele>365</ele>
        <time>2012-12-09T09:38:01Z</time>
      </trkpt>
      <trkpt lat="45.84577" lon="4.81402">
        <ele>364</ele>
        <time>2012-12-09T09:38:03Z</time>
      </trkpt>
      <trkpt lat="45.84579" lon="4.81402">
        <ele>364</ele>
        <time>2012-12-09T09:38:04Z</time>
      </trkpt>
      <trkpt lat="45.8458" lon="4.81402">
        <ele>364</ele>
        <time>2012-12-09T09:38:05Z</time>
      </trkpt>
      <trkpt lat="45.84584" lon="4.81402">
        <ele>365</ele>
        <time>2012-12-09T09:38:08Z</time>
      </trkpt>
      <trkpt lat="45.84585" lon="4.81403">
        <ele>365</ele>
        <time>2012-12-09T09:38:10Z</time>
      </trkpt>
      <trkpt lat="45.84586" lon="4.81402">
        <ele>365</ele>
        <time>2012-12-09T09:38:12Z</time>
      </trkpt>
      <trkpt lat="45.84587" lon="4.81402">
        <ele>366</ele>
        <time>2012-12-09T09:38:13Z</time>
      </trkpt>
      <trkpt lat="45.84595" lon="4.814">
        <ele>368</ele>
        <time>2012-12-09T09:38:24Z</time>
      </trkpt>
      <trkpt lat="45.84597" lon="4.81403">
        <ele>367</ele>
        <time>2012-12-09T09:38:27Z</time>
      </trkpt>
      <trkpt lat="45.84598" lon="4.81404">
        <ele>367</ele>
        <time>2012-12-09T09:38:28Z</time>
      </trkpt>
      <trkpt lat="45.84602" lon="4.81406">
        <ele>367</ele>
        <time>2012-12-09T09:38:34Z</time>
      </trkpt>
      <trkpt lat="45.84608" lon="4.81411">
        <ele>368</ele>
        <time>2012-12-09T09:38:39Z</time>
      </trkpt>
      <trkpt lat="45.84612" lon="4.81414">
        <ele>369</ele>
        <time>2012-12-09T09:38:45Z</time>
      </trkpt>
      <trkpt lat="45.84615" lon="4.81417">
        <ele>359</ele>
        <time>2012-12-09T09:38:49Z</time>
      </trkpt>
      <trkpt lat="45.84616" lon="4.81422">
        <ele>359</ele>
        <time>2012-12-09T09:38:51Z</time>
      </trkpt>
      <trkpt lat="45.84617" lon="4.81425">
        <ele>360</ele>
        <time>2012-12-09T09:38:53Z</time>
      </trkpt>
      <trkpt lat="45.84619" lon="4.81426">
        <ele>360</ele>
        <time>2012-12-09T09:38:55Z</time>
      </trkpt>
      <trkpt lat="45.8462" lon="4.81426">
        <ele>360</ele>
        <time>2012-12-09T09:38:56Z</time>
      </trkpt>
      <trkpt lat="45.84622" lon="4.8143">
        <ele>360</ele>
        <time>2012-12-09T09:38:59Z</time>
      </trkpt>
      <trkpt lat="45.84624" lon="4.81437">
        <ele>360</ele>
        <time>2012-12-09T09:39:05Z</time>
      </trkpt>
      <trkpt lat="45.84625" lon="4.81438">
        <ele>360</ele>
        <time>2012-12-09T09:39:06Z</time>
      </trkpt>
      <trkpt lat="45.84628" lon="4.81432">
        <ele>361</ele>
        <time>2012-12-09T09:39:16Z</time>
      </trkpt>
      <trkpt lat="45.8463" lon="4.8143">
        <ele>361</ele>
        <time>2012-12-09T09:39:19Z</time>
      </trkpt>
      <trkpt lat="45.84635" lon="4.81424">
        <ele>362</ele>
        <time>2012-12-09T09:39:26Z</time>
      </trkpt>
      <trkpt lat="45.84637" lon="4.81424">
        <ele>362</ele>
        <time>2012-12-09T09:39:28Z</time>
      </trkpt>
      <trkpt lat="45.8464" lon="4.81422">
        <ele>363</ele>
        <time>2012-12-09T09:39:32Z</time>
      </trkpt>
      <trkpt lat="45.84641" lon="4.8142">
        <ele>363</ele>
        <time>2012-12-09T09:39:35Z</time>
      </trkpt>
      <trkpt lat="45.8464" lon="4.81418">
        <ele>363</ele>
        <time>2012-12-09T09:39:38Z</time>
      </trkpt>
      <trkpt lat="45.84652" lon="4.8141">
        <ele>371</ele>
        <time>2012-12-09T09:39:41Z</time>
      </trkpt>
      <trkpt lat="45.84661" lon="4.81407">
        <ele>371</ele>
        <time>2012-12-09T09:39:47Z</time>
      </trkpt>
      <trkpt lat="45.84665" lon="4.81414">
        <ele>370</ele>
        <time>2012-12-09T09:39:53Z</time>
      </trkpt>
      <trkpt lat="45.84662" lon="4.81416">
        <ele>370</ele>
        <time>2012-12-09T09:40:21Z</time>
      </trkpt>
      <trkpt lat="45.84664" lon="4.81412">
        <ele>370</ele>
        <time>2012-12-09T09:40:28Z</time>
      </trkpt>
      <trkpt lat="45.84681" lon="4.81387">
        <ele>381</ele>
        <time>2012-12-09T09:40:41Z</time>
      </trkpt>
      <trkpt lat="45.84675" lon="4.81381">
        <ele>382</ele>
        <time>2012-12-09T09:40:43Z</time>
      </trkpt>
      <trkpt lat="45.84675" lon="4.81382">
        <ele>382</ele>
        <time>2012-12-09T09:40:44Z</time>
      </trkpt>
      <trkpt lat="45.84677" lon="4.81378">
        <ele>382</ele>
        <time>2012-12-09T09:40:50Z</time>
      </trkpt>
      <trkpt lat="45.8468" lon="4.81375">
        <ele>383</ele>
        <time>2012-12-09T09:40:57Z</time>
      </trkpt>
      <trkpt lat="45.84684" lon="4.81372">
        <ele>384</ele>
        <time>2012-12-09T09:41:02Z</time>
      </trkpt>
      <trkpt lat="45.84685" lon="4.81371">
        <ele>384</ele>
        <time>2012-12-09T09:41:03Z</time>
      </trkpt>
      <trkpt lat="45.84684" lon="4.81363">
        <ele>384</ele>
        <time>2012-12-09T09:41:08Z</time>
      </trkpt>
      <trkpt lat="45.84678" lon="4.81359">
        <ele>384</ele>
        <time>2012-12-09T09:41:32Z</time>
      </trkpt>
      <trkpt lat="45.84677" lon="4.81358">
        <ele>384</ele>
        <time>2012-12-09T09:41:33Z</time>
      </trkpt>
      <trkpt lat="45.84672" lon="4.81357">
        <ele>384</ele>
        <time>2012-12-09T09:41:36Z</time>
      </trkpt>
      <trkpt lat="45.84669" lon="4.81357">
        <ele>384</ele>
        <time>2012-12-09T09:41:38Z</time>
      </trkpt>
      <trkpt lat="45.84667" lon="4.81357">
        <ele>384</ele>
        <time>2012-12-09T09:41:39Z</time>
      </trkpt>
      <trkpt lat="45.84663" lon="4.81353">
        <ele>379</ele>
        <time>2012-12-09T09:41:43Z</time>
      </trkpt>
      <trkpt lat="45.84658" lon="4.81348">
        <ele>380</ele>
        <time>2012-12-09T09:41:50Z</time>
      </trkpt>
      <trkpt lat="45.84657" lon="4.81347">
        <ele>380</ele>
        <time>2012-12-09T09:41:52Z</time>
      </trkpt>
      <trkpt lat="45.84655" lon="4.81349">
        <ele>380</ele>
        <time>2012-12-09T09:41:54Z</time>
      </trkpt>
      <trkpt lat="45.84655" lon="4.8135">
        <ele>380</ele>
        <time>2012-12-09T09:41:55Z</time>
      </trkpt>
      <trkpt lat="45.84654" lon="4.81346">
        <ele>380</ele>
        <time>2012-12-09T09:41:59Z</time>
      </trkpt>
      <trkpt lat="45.84648" lon="4.81342">
        <ele>380</ele>
        <time>2012-12-09T09:42:09Z</time>
      </trkpt>
      <trkpt lat="45.84646" lon="4.81342">
        <ele>380</ele>
        <time>2012-12-09T09:42:13Z</time>
      </trkpt>
      <trkpt lat="45.84645" lon="4.8134">
        <ele>380</ele>
        <time>2012-12-09T09:42:19Z</time>
      </trkpt>
      <trkpt lat="45.84639" lon="4.81343">
        <ele>380</ele>
        <time>2012-12-09T09:42:31Z</time>
      </trkpt>
      <trkpt lat="45.84638" lon="4.81345">
        <ele>379</ele>
        <time>2012-12-09T09:42:35Z</time>
      </trkpt>
      <trkpt lat="45.84636" lon="4.81353">
        <ele>379</ele>
        <time>2012-12-09T09:42:48Z</time>
      </trkpt>
      <trkpt lat="45.84636" lon="4.81356">
        <ele>378</ele>
        <time>2012-12-09T09:42:50Z</time>
      </trkpt>
      <trkpt lat="45.84634" lon="4.8136">
        <ele>378</ele>
        <time>2012-12-09T09:42:53Z</time>
      </trkpt>
      <trkpt lat="45.84631" lon="4.81364">
        <ele>377</ele>
        <time>2012-12-09T09:42:56Z</time>
      </trkpt>
      <trkpt lat="45.8463" lon="4.81365">
        <ele>377</ele>
        <time>2012-12-09T09:42:57Z</time>
      </trkpt>
      <trkpt lat="45.8463" lon="4.81366">
        <ele>377</ele>
        <time>2012-12-09T09:43:00Z</time>
      </trkpt>
      <trkpt lat="45.84632" lon="4.81368">
        <ele>377</ele>
        <time>2012-12-09T09:43:02Z</time>
      </trkpt>
      <trkpt lat="45.84633" lon="4.81368">
        <ele>377</ele>
        <time>2012-12-09T09:43:04Z</time>
      </trkpt>
      <trkpt lat="45.84635" lon="4.8137">
        <ele>376</ele>
        <time>2012-12-09T09:43:08Z</time>
      </trkpt>
      <trkpt lat="45.84636" lon="4.81374">
        <ele>376</ele>
        <time>2012-12-09T09:43:12Z</time>
      </trkpt>
      <trkpt lat="45.84638" lon="4.81374">
        <ele>376</ele>
        <time>2012-12-09T09:43:14Z</time>
      </trkpt>
      <trkpt lat="45.84641" lon="4.81376">
        <ele>375</ele>
        <time>2012-12-09T09:43:18Z</time>
      </trkpt>
      <trkpt lat="45.84643" lon="4.81377">
        <ele>375</ele>
        <time>2012-12-09T09:43:20Z</time>
      </trkpt>
      <trkpt lat="45.84645" lon="4.81377">
        <ele>375</ele>
        <time>2012-12-09T09:43:23Z</time>
      </trkpt>
      <trkpt lat="45.84645" lon="4.81379">
        <ele>375</ele>
        <time>2012-12-09T09:43:24Z</time>
      </trkpt>
      <trkpt lat="45.84645" lon="4.81381">
        <ele>375</ele>
        <time>2012-12-09T09:43:25Z</time>
      </trkpt>
      <trkpt lat="45.84644" lon="4.8139">
        <ele>374</ele>
        <time>2012-12-09T09:43:29Z</time>
      </trkpt>
      <trkpt lat="45.84645" lon="4.81395">
        <ele>373</ele>
        <time>2012-12-09T09:43:32Z</time>
      </trkpt>
      <trkpt lat="45.84646" lon="4.81396">
        <ele>373</ele>
        <time>2012-12-09T09:43:33Z</time>
      </trkpt>
      <trkpt lat="45.8465" lon="4.81405">
        <ele>372</ele>
        <time>2012-12-09T09:43:37Z</time>
      </trkpt>
      <trkpt lat="45.84651" lon="4.81407">
        <ele>372</ele>
        <time>2012-12-09T09:43:38Z</time>
      </trkpt>
      <trkpt lat="45.84651" lon="4.8141">
        <ele>371</ele>
        <time>2012-12-09T09:43:39Z</time>
      </trkpt>
      <trkpt lat="45.8465" lon="4.81415">
        <ele>371</ele>
        <time>2012-12-09T09:43:42Z</time>
      </trkpt>
      <trkpt lat="45.84652" lon="4.81417">
        <ele>365</ele>
        <time>2012-12-09T09:43:45Z</time>
      </trkpt>
      <trkpt lat="45.84654" lon="4.8142">
        <ele>365</ele>
        <time>2012-12-09T09:43:47Z</time>
      </trkpt>
      <trkpt lat="45.84659" lon="4.81425">
        <ele>366</ele>
        <time>2012-12-09T09:43:51Z</time>
      </trkpt>
      <trkpt lat="45.8466" lon="4.81426">
        <ele>366</ele>
        <time>2012-12-09T09:43:52Z</time>
      </trkpt>
      <trkpt lat="45.84664" lon="4.8143">
        <ele>366</ele>
        <time>2012-12-09T09:43:57Z</time>
      </trkpt>
      <trkpt lat="45.84664" lon="4.81427">
        <ele>366</ele>
        <time>2012-12-09T09:44:00Z</time>
      </trkpt>
      <trkpt lat="45.84662" lon="4.81424">
        <ele>367</ele>
        <time>2012-12-09T09:44:02Z</time>
      </trkpt>
      <trkpt lat="45.8466" lon="4.81421">
        <ele>367</ele>
        <time>2012-12-09T09:44:04Z</time>
      </trkpt>
      <trkpt lat="45.84659" lon="4.81419">
        <ele>367</ele>
        <time>2012-12-09T09:44:06Z</time>
      </trkpt>
      <trkpt lat="45.84658" lon="4.81419">
        <ele>366</ele>
        <time>2012-12-09T09:44:07Z</time>
      </trkpt>
      <trkpt lat="45.84657" lon="4.81416">
        <ele>371</ele>
        <time>2012-12-09T09:44:09Z</time>
      </trkpt>
      <trkpt lat="45.84658" lon="4.81414">
        <ele>371</ele>
        <time>2012-12-09T09:44:11Z</time>
      </trkpt>
      <trkpt lat="45.84659" lon="4.81413">
        <ele>371</ele>
        <time>2012-12-09T09:44:12Z</time>
      </trkpt>
      <trkpt lat="45.84661" lon="4.81408">
        <ele>371</ele>
        <time>2012-12-09T09:44:17Z</time>
      </trkpt>
      <trkpt lat="45.84661" lon="4.81405">
        <ele>371</ele>
        <time>2012-12-09T09:44:18Z</time>
      </trkpt>
      <trkpt lat="45.8466" lon="4.81382">
        <ele>375</ele>
        <time>2012-12-09T09:44:24Z</time>
      </trkpt>
      <trkpt lat="45.84664" lon="4.81381">
        <ele>375</ele>
        <time>2012-12-09T09:44:27Z</time>
      </trkpt>
      <trkpt lat="45.84665" lon="4.81381">
        <ele>375</ele>
        <time>2012-12-09T09:44:28Z</time>
      </trkpt>
      <trkpt lat="45.84674" lon="4.81381">
        <ele>382</ele>
        <time>2012-12-09T09:44:34Z</time>
      </trkpt>
      <trkpt lat="45.84675" lon="4.81379">
        <ele>382</ele>
        <time>2012-12-09T09:44:35Z</time>
      </trkpt>
      <trkpt lat="45.84677" lon="4.81376">
        <ele>383</ele>
        <time>2012-12-09T09:44:39Z</time>
      </trkpt>
      <trkpt lat="45.84684" lon="4.81377">
        <ele>383</ele>
        <time>2012-12-09T09:44:43Z</time>
      </trkpt>
      <trkpt lat="45.84691" lon="4.81375">
        <ele>384</ele>
        <time>2012-12-09T09:44:55Z</time>
      </trkpt>
      <trkpt lat="45.84688" lon="4.81375">
        <ele>384</ele>
        <time>2012-12-09T09:44:58Z</time>
      </trkpt>
      <trkpt lat="45.84688" lon="4.81375">
        <ele>384</ele>
        <time>2012-12-09T09:45:01Z</time>
      </trkpt>
      <trkpt lat="45.84682" lon="4.81378">
        <ele>383</ele>
        <time>2012-12-09T09:45:05Z</time>
      </trkpt>
      <trkpt lat="45.84687" lon="4.81382">
        <ele>383</ele>
        <time>2012-12-09T09:45:08Z</time>
      </trkpt>
      <trkpt lat="45.8469" lon="4.81386">
        <ele>383</ele>
        <time>2012-12-09T09:45:14Z</time>
      </trkpt>
      <trkpt lat="45.84689" lon="4.81385">
        <ele>383</ele>
        <time>2012-12-09T09:45:18Z</time>
      </trkpt>
      <trkpt lat="45.84693" lon="4.81385">
        <ele>383</ele>
        <time>2012-12-09T09:45:24Z</time>
      </trkpt>
      <trkpt lat="45.84698" lon="4.81389">
        <ele>384</ele>
        <time>2012-12-09T09:45:31Z</time>
      </trkpt>
      <trkpt lat="45.847" lon="4.81386">
        <ele>384</ele>
        <time>2012-12-09T09:45:35Z</time>
      </trkpt>
      <trkpt lat="45.84701" lon="4.81383">
        <ele>384</ele>
        <time>2012-12-09T09:45:38Z</time>
      </trkpt>
      <trkpt lat="45.84702" lon="4.81381">
        <ele>385</ele>
        <time>2012-12-09T09:45:40Z</time>
      </trkpt>
      <trkpt lat="45.84702" lon="4.81379">
        <ele>385</ele>
        <time>2012-12-09T09:45:42Z</time>
      </trkpt>
      <trkpt lat="45.84711" lon="4.81377">
        <ele>386</ele>
        <time>2012-12-09T09:45:53Z</time>
      </trkpt>
      <trkpt lat="45.84713" lon="4.81374">
        <ele>386</ele>
        <time>2012-12-09T09:45:56Z</time>
      </trkpt>
      <trkpt lat="45.84714" lon="4.81373">
        <ele>386</ele>
        <time>2012-12-09T09:45:57Z</time>
      </trkpt>
      <trkpt lat="45.8472" lon="4.81367">
        <ele>387</ele>
        <time>2012-12-09T09:46:05Z</time>
      </trkpt>
      <trkpt lat="45.84721" lon="4.81365">
        <ele>388</ele>
        <time>2012-12-09T09:46:06Z</time>
      </trkpt>
      <trkpt lat="45.84722" lon="4.81365">
        <ele>388</ele>
        <time>2012-12-09T09:46:07Z</time>
      </trkpt>
      <trkpt lat="45.84725" lon="4.81366">
        <ele>388</ele>
        <time>2012-12-09T09:46:11Z</time>
      </trkpt>
      <trkpt lat="45.8473" lon="4.81369">
        <ele>388</ele>
        <time>2012-12-09T09:46:20Z</time>
      </trkpt>
      <trkpt lat="45.84738" lon="4.81361">
        <ele>389</ele>
        <time>2012-12-09T09:46:27Z</time>
      </trkpt>
      <trkpt lat="45.84747" lon="4.81358">
        <ele>390</ele>
        <time>2012-12-09T09:46:35Z</time>
      </trkpt>
      <trkpt lat="45.8475" lon="4.81354">
        <ele>391</ele>
        <time>2012-12-09T09:46:40Z</time>
      </trkpt>
      <trkpt lat="45.84753" lon="4.81351">
        <ele>401</ele>
        <time>2012-12-09T09:46:45Z</time>
      </trkpt>
      <trkpt lat="45.84753" lon="4.81349">
        <ele>401</ele>
        <time>2012-12-09T09:46:46Z</time>
      </trkpt>
      <trkpt lat="45.84755" lon="4.8135">
        <ele>401</ele>
        <time>2012-12-09T09:46:48Z</time>
      </trkpt>
      <trkpt lat="45.84755" lon="4.81349">
        <ele>401</ele>
        <time>2012-12-09T09:46:51Z</time>
      </trkpt>
      <trkpt lat="45.84759" lon="4.81349">
        <ele>401</ele>
        <time>2012-12-09T09:47:01Z</time>
      </trkpt>
      <trkpt lat="45.84762" lon="4.81348">
        <ele>402</ele>
        <time>2012-12-09T09:47:05Z</time>
      </trkpt>
      <trkpt lat="45.84762" lon="4.81347">
        <ele>402</ele>
        <time>2012-12-09T09:47:07Z</time>
      </trkpt>
      <trkpt lat="45.84773" lon="4.81343">
        <ele>404</ele>
        <time>2012-12-09T09:47:32Z</time>
      </trkpt>
      <trkpt lat="45.84779" lon="4.81346">
        <ele>405</ele>
        <time>2012-12-09T09:47:58Z</time>
      </trkpt>
      <trkpt lat="45.84778" lon="4.81348">
        <ele>405</ele>
        <time>2012-12-09T09:47:59Z</time>
      </trkpt>
      <trkpt lat="45.84775" lon="4.81359">
        <ele>405</ele>
        <time>2012-12-09T09:48:04Z</time>
      </trkpt>
      <trkpt lat="45.84769" lon="4.81368">
        <ele>404</ele>
        <time>2012-12-09T09:48:08Z</time>
      </trkpt>
      <trkpt lat="45.84768" lon="4.81372">
        <ele>404</ele>
        <time>2012-12-09T09:48:09Z</time>
      </trkpt>
      <trkpt lat="45.84762" lon="4.81379">
        <ele>404</ele>
        <time>2012-12-09T09:48:13Z</time>
      </trkpt>
      <trkpt lat="45.84762" lon="4.81382">
        <ele>404</ele>
        <time>2012-12-09T09:48:14Z</time>
      </trkpt>
      <trkpt lat="45.8476" lon="4.81387">
        <ele>403</ele>
        <time>2012-12-09T09:48:17Z</time>
      </trkpt>
      <trkpt lat="45.8476" lon="4.81389">
        <ele>403</ele>
        <time>2012-12-09T09:48:18Z</time>
      </trkpt>
      <trkpt lat="45.8476" lon="4.81391">
        <ele>403</ele>
        <time>2012-12-09T09:48:19Z</time>
      </trkpt>
      <trkpt lat="45.84759" lon="4.81394">
        <ele>402</ele>
        <time>2012-12-09T09:48:20Z</time>
      </trkpt>
      <trkpt lat="45.84758" lon="4.81401">
        <ele>401</ele>
        <time>2012-12-09T09:48:23Z</time>
      </trkpt>
      <trkpt lat="45.84756" lon="4.81406">
        <ele>400</ele>
        <time>2012-12-09T09:48:25Z</time>
      </trkpt>
      <trkpt lat="45.84754" lon="4.8141">
        <ele>398</ele>
        <time>2012-12-09T09:48:27Z</time>
      </trkpt>
      <trkpt lat="45.84752" lon="4.81412">
        <ele>397</ele>
        <time>2012-12-09T09:48:29Z</time>
      </trkpt>
      <trkpt lat="45.84751" lon="4.81412">
        <ele>397</ele>
        <time>2012-12-09T09:48:30Z</time>
      </trkpt>
      <trkpt lat="45.8475" lon="4.81412">
        <ele>393</ele>
        <time>2012-12-09T09:48:31Z</time>
      </trkpt>
      <trkpt lat="45.84746" lon="4.81417">
        <ele>394</ele>
        <time>2012-12-09T09:48:35Z</time>
      </trkpt>
      <trkpt lat="45.84744" lon="4.81421">
        <ele>393</ele>
        <time>2012-12-09T09:48:37Z</time>
      </trkpt>
      <trkpt lat="45.84744" lon="4.81424">
        <ele>392</ele>
        <time>2012-12-09T09:48:39Z</time>
      </trkpt>
      <trkpt lat="45.84741" lon="4.81432">
        <ele>391</ele>
        <time>2012-12-09T09:48:44Z</time>
      </trkpt>
      <trkpt lat="45.84742" lon="4.81436">
        <ele>391</ele>
        <time>2012-12-09T09:48:47Z</time>
      </trkpt>
      <trkpt lat="45.84742" lon="4.81438">
        <ele>391</ele>
        <time>2012-12-09T09:48:48Z</time>
      </trkpt>
      <trkpt lat="45.84742" lon="4.81445">
        <ele>390</ele>
        <time>2012-12-09T09:48:53Z</time>
      </trkpt>
      <trkpt lat="45.84745" lon="4.81456">
        <ele>391</ele>
        <time>2012-12-09T09:49:01Z</time>
      </trkpt>
      <trkpt lat="45.84745" lon="4.81468">
        <ele>393</ele>
        <time>2012-12-09T09:49:08Z</time>
      </trkpt>
      <trkpt lat="45.84744" lon="4.81482">
        <ele>396</ele>
        <time>2012-12-09T09:49:17Z</time>
      </trkpt>
      <trkpt lat="45.84744" lon="4.81483">
        <ele>396</ele>
        <time>2012-12-09T09:49:18Z</time>
      </trkpt>
      <trkpt lat="45.84743" lon="4.81492">
        <ele>399</ele>
        <time>2012-12-09T09:49:25Z</time>
      </trkpt>
      <trkpt lat="45.84745" lon="4.81503">
        <ele>403</ele>
        <time>2012-12-09T09:49:33Z</time>
      </trkpt>
      <trkpt lat="45.84746" lon="4.81507">
        <ele>402</ele>
        <time>2012-12-09T09:49:36Z</time>
      </trkpt>
      <trkpt lat="45.84747" lon="4.81508">
        <ele>402</ele>
        <time>2012-12-09T09:49:37Z</time>
      </trkpt>
      <trkpt lat="45.84748" lon="4.8151">
        <ele>402</ele>
        <time>2012-12-09T09:49:39Z</time>
      </trkpt>
      <trkpt lat="45.84752" lon="4.81512">
        <ele>408</ele>
        <time>2012-12-09T09:49:45Z</time>
      </trkpt>
      <trkpt lat="45.84753" lon="4.81512">
        <ele>408</ele>
        <time>2012-12-09T09:49:47Z</time>
      </trkpt>
      <trkpt lat="45.84761" lon="4.81505">
        <ele>408</ele>
        <time>2012-12-09T09:50:30Z</time>
      </trkpt>
      <trkpt lat="45.84764" lon="4.81503">
        <ele>408</ele>
        <time>2012-12-09T09:50:32Z</time>
      </trkpt>
      <trkpt lat="45.84772" lon="4.81497">
        <ele>408</ele>
        <time>2012-12-09T09:50:37Z</time>
      </trkpt>
      <trkpt lat="45.84777" lon="4.81489">
        <ele>409</ele>
        <time>2012-12-09T09:50:42Z</time>
      </trkpt>
      <trkpt lat="45.84779" lon="4.81486">
        <ele>409</ele>
        <time>2012-12-09T09:50:44Z</time>
      </trkpt>
      <trkpt lat="45.84783" lon="4.81483">
        <ele>409</ele>
        <time>2012-12-09T09:50:47Z</time>
      </trkpt>
      <trkpt lat="45.84784" lon="4.81483">
        <ele>409</ele>
        <time>2012-12-09T09:50:48Z</time>
      </trkpt>
      <trkpt lat="45.84791" lon="4.8148">
        <ele>410</ele>
        <time>2012-12-09T09:50:53Z</time>
      </trkpt>
      <trkpt lat="45.84797" lon="4.81479">
        <ele>411</ele>
        <time>2012-12-09T09:50:57Z</time>
      </trkpt>
      <trkpt lat="45.848" lon="4.81478">
        <ele>411</ele>
        <time>2012-12-09T09:50:59Z</time>
      </trkpt>
      <trkpt lat="45.84803" lon="4.81476">
        <ele>411</ele>
        <time>2012-12-09T09:51:03Z</time>
      </trkpt>
      <trkpt lat="45.84806" lon="4.81474">
        <ele>411</ele>
        <time>2012-12-09T09:51:06Z</time>
      </trkpt>
      <trkpt lat="45.84811" lon="4.81478">
        <ele>412</ele>
        <time>2012-12-09T09:51:11Z</time>
      </trkpt>
      <trkpt lat="45.84812" lon="4.81479">
        <ele>412</ele>
        <time>2012-12-09T09:51:12Z</time>
      </trkpt>
      <trkpt lat="45.84814" lon="4.81481">
        <ele>413</ele>
        <time>2012-12-09T09:51:14Z</time>
      </trkpt>
      <trkpt lat="45.84821" lon="4.81486">
        <ele>414</ele>
        <time>2012-12-09T09:51:21Z</time>
      </trkpt>
      <trkpt lat="45.84831" lon="4.81484">
        <ele>415</ele>
        <time>2012-12-09T09:51:30Z</time>
      </trkpt>
      <trkpt lat="45.84833" lon="4.81482">
        <ele>420</ele>
        <time>2012-12-09T09:51:33Z</time>
      </trkpt>
      <trkpt lat="45.84836" lon="4.81475">
        <ele>420</ele>
        <time>2012-12-09T09:51:37Z</time>
      </trkpt>
      <trkpt lat="45.84841" lon="4.81474">
        <ele>421</ele>
        <time>2012-12-09T09:51:42Z</time>
      </trkpt>
      <trkpt lat="45.84842" lon="4.81474">
        <ele>421</ele>
        <time>2012-12-09T09:51:43Z</time>
      </trkpt>
      <trkpt lat="45.84845" lon="4.81473">
        <ele>421</ele>
        <time>2012-12-09T09:51:47Z</time>
      </trkpt>
      <trkpt lat="45.84847" lon="4.81472">
        <ele>421</ele>
        <time>2012-12-09T09:51:48Z</time>
      </trkpt>
      <trkpt lat="45.84851" lon="4.81471">
        <ele>421</ele>
        <time>2012-12-09T09:51:51Z</time>
      </trkpt>
      <trkpt lat="45.84853" lon="4.81468">
        <ele>421</ele>
        <time>2012-12-09T09:51:53Z</time>
      </trkpt>
      <trkpt lat="45.8486" lon="4.81465">
        <ele>422</ele>
        <time>2012-12-09T09:51:59Z</time>
      </trkpt>
      <trkpt lat="45.84862" lon="4.81464">
        <ele>422</ele>
        <time>2012-12-09T09:52:01Z</time>
      </trkpt>
      <trkpt lat="45.84867" lon="4.81463">
        <ele>422</ele>
        <time>2012-12-09T09:52:05Z</time>
      </trkpt>
      <trkpt lat="45.84868" lon="4.81462">
        <ele>422</ele>
        <time>2012-12-09T09:52:06Z</time>
      </trkpt>
      <trkpt lat="45.84872" lon="4.81461">
        <ele>422</ele>
        <time>2012-12-09T09:52:10Z</time>
      </trkpt>
      <trkpt lat="45.84875" lon="4.8146">
        <ele>422</ele>
        <time>2012-12-09T09:52:12Z</time>
      </trkpt>
      <trkpt lat="45.8488" lon="4.81458">
        <ele>423</ele>
        <time>2012-12-09T09:52:16Z</time>
      </trkpt>
      <trkpt lat="45.84881" lon="4.81458">
        <ele>423</ele>
        <time>2012-12-09T09:52:17Z</time>
      </trkpt>
      <trkpt lat="45.84889" lon="4.81453">
        <ele>423</ele>
        <time>2012-12-09T09:52:25Z</time>
      </trkpt>
      <trkpt lat="45.84896" lon="4.8145">
        <ele>424</ele>
        <time>2012-12-09T09:52:30Z</time>
      </trkpt>
      <trkpt lat="45.84897" lon="4.81449">
        <ele>424</ele>
        <time>2012-12-09T09:52:31Z</time>
      </trkpt>
      <trkpt lat="45.84904" lon="4.8144">
        <ele>425</ele>
        <time>2012-12-09T09:52:38Z</time>
      </trkpt>
      <trkpt lat="45.84907" lon="4.81438">
        <ele>426</ele>
        <time>2012-12-09T09:52:40Z</time>
      </trkpt>
      <trkpt lat="45.84908" lon="4.81437">
        <ele>426</ele>
        <time>2012-12-09T09:52:41Z</time>
      </trkpt>
      <trkpt lat="45.84913" lon="4.81434">
        <ele>427</ele>
        <time>2012-12-09T09:52:44Z</time>
      </trkpt>
      <trkpt lat="45.84914" lon="4.81433">
        <ele>427</ele>
        <time>2012-12-09T09:52:45Z</time>
      </trkpt>
      <trkpt lat="45.84915" lon="4.81432">
        <ele>427</ele>
        <time>2012-12-09T09:52:46Z</time>
      </trkpt>
      <trkpt lat="45.8492" lon="4.81426">
        <ele>429</ele>
        <time>2012-12-09T09:52:52Z</time>
      </trkpt>
      <trkpt lat="45.84926" lon="4.81418">
        <ele>429</ele>
        <time>2012-12-09T09:52:59Z</time>
      </trkpt>
      <trkpt lat="45.84927" lon="4.81417">
        <ele>429</ele>
        <time>2012-12-09T09:53:00Z</time>
      </trkpt>
      <trkpt lat="45.84929" lon="4.81413">
        <ele>432</ele>
        <time>2012-12-09T09:53:03Z</time>
      </trkpt>
      <trkpt lat="45.84931" lon="4.81409">
        <ele>433</ele>
        <time>2012-12-09T09:53:06Z</time>
      </trkpt>
      <trkpt lat="45.84937" lon="4.81404">
        <ele>433</ele>
        <time>2012-12-09T09:53:12Z</time>
      </trkpt>
      <trkpt lat="45.84939" lon="4.81404">
        <ele>433</ele>
        <time>2012-12-09T09:53:13Z</time>
      </trkpt>
      <trkpt lat="45.84941" lon="4.81403">
        <ele>433</ele>
        <time>2012-12-09T09:53:15Z</time>
      </trkpt>
      <trkpt lat="45.84944" lon="4.81402">
        <ele>433</ele>
        <time>2012-12-09T09:53:17Z</time>
      </trkpt>
      <trkpt lat="45.84953" lon="4.81401">
        <ele>433</ele>
        <time>2012-12-09T09:53:23Z</time>
      </trkpt>
      <trkpt lat="45.8496" lon="4.814">
        <ele>433</ele>
        <time>2012-12-09T09:53:26Z</time>
      </trkpt>
      <trkpt lat="45.84969" lon="4.81398">
        <ele>433</ele>
        <time>2012-12-09T09:53:30Z</time>
      </trkpt>
      <trkpt lat="45.84978" lon="4.81392">
        <ele>433</ele>
        <time>2012-12-09T09:53:36Z</time>
      </trkpt>
      <trkpt lat="45.84984" lon="4.81388">
        <ele>433</ele>
        <time>2012-12-09T09:53:41Z</time>
      </trkpt>
      <trkpt lat="45.84993" lon="4.8139">
        <ele>433</ele>
        <time>2012-12-09T09:53:52Z</time>
      </trkpt>
      <trkpt lat="45.84996" lon="4.81391">
        <ele>433</ele>
        <time>2012-12-09T09:53:55Z</time>
      </trkpt>
      <trkpt lat="45.84997" lon="4.81392">
        <ele>433</ele>
        <time>2012-12-09T09:53:56Z</time>
      </trkpt>
      <trkpt lat="45.84999" lon="4.81396">
        <ele>432</ele>
        <time>2012-12-09T09:53:59Z</time>
      </trkpt>
      <trkpt lat="45.85001" lon="4.81397">
        <ele>432</ele>
        <time>2012-12-09T09:54:01Z</time>
      </trkpt>
      <trkpt lat="45.85002" lon="4.81398">
        <ele>432</ele>
        <time>2012-12-09T09:54:02Z</time>
      </trkpt>
      <trkpt lat="45.85008" lon="4.81397">
        <ele>432</ele>
        <time>2012-12-09T09:54:06Z</time>
      </trkpt>
      <trkpt lat="45.85012" lon="4.81395">
        <ele>433</ele>
        <time>2012-12-09T09:54:08Z</time>
      </trkpt>
      <trkpt lat="45.85013" lon="4.81395">
        <ele>433</ele>
        <time>2012-12-09T09:54:09Z</time>
      </trkpt>
      <trkpt lat="45.85015" lon="4.81395">
        <ele>433</ele>
        <time>2012-12-09T09:54:10Z</time>
      </trkpt>
      <trkpt lat="45.85023" lon="4.81392">
        <ele>434</ele>
        <time>2012-12-09T09:54:15Z</time>
      </trkpt>
      <trkpt lat="45.85025" lon="4.81391">
        <ele>434</ele>
        <time>2012-12-09T09:54:16Z</time>
      </trkpt>
      <trkpt lat="45.85029" lon="4.81389">
        <ele>434</ele>
        <time>2012-12-09T09:54:18Z</time>
      </trkpt>
      <trkpt lat="45.85031" lon="4.81389">
        <ele>434</ele>
        <time>2012-12-09T09:54:19Z</time>
      </trkpt>
      <trkpt lat="45.85034" lon="4.81387">
        <ele>434</ele>
        <time>2012-12-09T09:54:21Z</time>
      </trkpt>
      <trkpt lat="45.8504" lon="4.81379">
        <ele>435</ele>
        <time>2012-12-09T09:54:25Z</time>
      </trkpt>
      <trkpt lat="45.85044" lon="4.81378">
        <ele>435</ele>
        <time>2012-12-09T09:54:27Z</time>
      </trkpt>
      <trkpt lat="45.85048" lon="4.81376">
        <ele>435</ele>
        <time>2012-12-09T09:54:29Z</time>
      </trkpt>
      <trkpt lat="45.85053" lon="4.81375">
        <ele>435</ele>
        <time>2012-12-09T09:54:31Z</time>
      </trkpt>
      <trkpt lat="45.85057" lon="4.81375">
        <ele>435</ele>
        <time>2012-12-09T09:54:33Z</time>
      </trkpt>
      <trkpt lat="45.8506" lon="4.81374">
        <ele>435</ele>
        <time>2012-12-09T09:54:35Z</time>
      </trkpt>
      <trkpt lat="45.85063" lon="4.81374">
        <ele>435</ele>
        <time>2012-12-09T09:54:37Z</time>
      </trkpt>
      <trkpt lat="45.85064" lon="4.81375">
        <ele>435</ele>
        <time>2012-12-09T09:54:38Z</time>
      </trkpt>
      <trkpt lat="45.85068" lon="4.81379">
        <ele>435</ele>
        <time>2012-12-09T09:54:42Z</time>
      </trkpt>
      <trkpt lat="45.85065" lon="4.81379">
        <ele>435</ele>
        <time>2012-12-09T09:54:50Z</time>
      </trkpt>
      <trkpt lat="45.85067" lon="4.81389">
        <ele>434</ele>
        <time>2012-12-09T09:55:07Z</time>
      </trkpt>
      <trkpt lat="45.85065" lon="4.8139">
        <ele>434</ele>
        <time>2012-12-09T09:55:52Z</time>
      </trkpt>
      <trkpt lat="45.85061" lon="4.8139">
        <ele>434</ele>
        <time>2012-12-09T09:55:57Z</time>
      </trkpt>
      <trkpt lat="45.85059" lon="4.81391">
        <ele>434</ele>
        <time>2012-12-09T09:55:59Z</time>
      </trkpt>
      <trkpt lat="45.85055" lon="4.81392">
        <ele>434</ele>
        <time>2012-12-09T09:56:02Z</time>
      </trkpt>
      <trkpt lat="45.85048" lon="4.81396">
        <ele>434</ele>
        <time>2012-12-09T09:56:08Z</time>
      </trkpt>
      <trkpt lat="45.85047" lon="4.81397">
        <ele>434</ele>
        <time>2012-12-09T09:56:09Z</time>
      </trkpt>
      <trkpt lat="45.85045" lon="4.81399">
        <ele>434</ele>
        <time>2012-12-09T09:56:10Z</time>
      </trkpt>
      <trkpt lat="45.85041" lon="4.81409">
        <ele>433</ele>
        <time>2012-12-09T09:56:14Z</time>
      </trkpt>
      <trkpt lat="45.85038" lon="4.81417">
        <ele>427</ele>
        <time>2012-12-09T09:56:18Z</time>
      </trkpt>
      <trkpt lat="45.85037" lon="4.8142">
        <ele>427</ele>
        <time>2012-12-09T09:56:19Z</time>
      </trkpt>
      <trkpt lat="45.85035" lon="4.81423">
        <ele>427</ele>
        <time>2012-12-09T09:56:20Z</time>
      </trkpt>
      <trkpt lat="45.85033" lon="4.8143">
        <ele>427</ele>
        <time>2012-12-09T09:56:23Z</time>
      </trkpt>
      <trkpt lat="45.85031" lon="4.81434">
        <ele>427</ele>
        <time>2012-12-09T09:56:25Z</time>
      </trkpt>
      <trkpt lat="45.85029" lon="4.81443">
        <ele>426</ele>
        <time>2012-12-09T09:56:29Z</time>
      </trkpt>
      <trkpt lat="45.85028" lon="4.81445">
        <ele>426</ele>
        <time>2012-12-09T09:56:30Z</time>
      </trkpt>
      <trkpt lat="45.85025" lon="4.81457">
        <ele>425</ele>
        <time>2012-12-09T09:56:34Z</time>
      </trkpt>
      <trkpt lat="45.85023" lon="4.81459">
        <ele>425</ele>
        <time>2012-12-09T09:56:35Z</time>
      </trkpt>
      <trkpt lat="45.8502" lon="4.81466">
        <ele>424</ele>
        <time>2012-12-09T09:56:37Z</time>
      </trkpt>
      <trkpt lat="45.85017" lon="4.81473">
        <ele>423</ele>
        <time>2012-12-09T09:56:40Z</time>
      </trkpt>
      <trkpt lat="45.85017" lon="4.81475">
        <ele>423</ele>
        <time>2012-12-09T09:56:41Z</time>
      </trkpt>
      <trkpt lat="45.85011" lon="4.81484">
        <ele>421</ele>
        <time>2012-12-09T09:56:45Z</time>
      </trkpt>
      <trkpt lat="45.85009" lon="4.81488">
        <ele>420</ele>
        <time>2012-12-09T09:56:46Z</time>
      </trkpt>
      <trkpt lat="45.85005" lon="4.81498">
        <ele>416</ele>
        <time>2012-12-09T09:56:50Z</time>
      </trkpt>
      <trkpt lat="45.84998" lon="4.81509">
        <ele>413</ele>
        <time>2012-12-09T09:56:55Z</time>
      </trkpt>
      <trkpt lat="45.84996" lon="4.81512">
        <ele>413</ele>
        <time>2012-12-09T09:56:56Z</time>
      </trkpt>
      <trkpt lat="45.84992" lon="4.81517">
        <ele>413</ele>
        <time>2012-12-09T09:56:58Z</time>
      </trkpt>
      <trkpt lat="45.84991" lon="4.81524">
        <ele>413</ele>
        <time>2012-12-09T09:57:01Z</time>
      </trkpt>
      <trkpt lat="45.84989" lon="4.81526">
        <ele>413</ele>
        <time>2012-12-09T09:57:03Z</time>
      </trkpt>
      <trkpt lat="45.84987" lon="4.81528">
        <ele>412</ele>
        <time>2012-12-09T09:57:04Z</time>
      </trkpt>
      <trkpt lat="45.84986" lon="4.81531">
        <ele>412</ele>
        <time>2012-12-09T09:57:05Z</time>
      </trkpt>
      <trkpt lat="45.8498" lon="4.81542">
        <ele>412</ele>
        <time>2012-12-09T09:57:09Z</time>
      </trkpt>
      <trkpt lat="45.84979" lon="4.81548">
        <ele>411</ele>
        <time>2012-12-09T09:57:11Z</time>
      </trkpt>
      <trkpt lat="45.84977" lon="4.81557">
        <ele>411</ele>
        <time>2012-12-09T09:57:14Z</time>
      </trkpt>
      <trkpt lat="45.84976" lon="4.81561">
        <ele>410</ele>
        <time>2012-12-09T09:57:15Z</time>
      </trkpt>
      <trkpt lat="45.84972" lon="4.81572">
        <ele>410</ele>
        <time>2012-12-09T09:57:19Z</time>
      </trkpt>
      <trkpt lat="45.84971" lon="4.81575">
        <ele>410</ele>
        <time>2012-12-09T09:57:20Z</time>
      </trkpt>
      <trkpt lat="45.8497" lon="4.8158">
        <ele>410</ele>
        <time>2012-12-09T09:57:22Z</time>
      </trkpt>
      <trkpt lat="45.84969" lon="4.81589">
        <ele>404</ele>
        <time>2012-12-09T09:57:25Z</time>
      </trkpt>
      <trkpt lat="45.84968" lon="4.81593">
        <ele>404</ele>
        <time>2012-12-09T09:57:26Z</time>
      </trkpt>
      <trkpt lat="45.84965" lon="4.81607">
        <ele>403</ele>
        <time>2012-12-09T09:57:30Z</time>
      </trkpt>
      <trkpt lat="45.84964" lon="4.8161">
        <ele>403</ele>
        <time>2012-12-09T09:57:31Z</time>
      </trkpt>
      <trkpt lat="45.84961" lon="4.81624">
        <ele>402</ele>
        <time>2012-12-09T09:57:35Z</time>
      </trkpt>
      <trkpt lat="45.84959" lon="4.81634">
        <ele>402</ele>
        <time>2012-12-09T09:57:38Z</time>
      </trkpt>
      <trkpt lat="45.84959" lon="4.81636">
        <ele>401</ele>
        <time>2012-12-09T09:57:39Z</time>
      </trkpt>
      <trkpt lat="45.84959" lon="4.81639">
        <ele>401</ele>
        <time>2012-12-09T09:57:40Z</time>
      </trkpt>
      <trkpt lat="45.84957" lon="4.81643">
        <ele>401</ele>
        <time>2012-12-09T09:57:42Z</time>
      </trkpt>
      <trkpt lat="45.84955" lon="4.81644">
        <ele>401</ele>
        <time>2012-12-09T09:57:43Z</time>
      </trkpt>
      <trkpt lat="45.84951" lon="4.81657">
        <ele>400</ele>
        <time>2012-12-09T09:57:47Z</time>
      </trkpt>
      <trkpt lat="45.8495" lon="4.8166">
        <ele>400</ele>
        <time>2012-12-09T09:57:48Z</time>
      </trkpt>
      <trkpt lat="45.84945" lon="4.81673">
        <ele>394</ele>
        <time>2012-12-09T09:57:52Z</time>
      </trkpt>
      <trkpt lat="45.84943" lon="4.81677">
        <ele>393</ele>
        <time>2012-12-09T09:57:54Z</time>
      </trkpt>
      <trkpt lat="45.84942" lon="4.8168">
        <ele>393</ele>
        <time>2012-12-09T09:57:55Z</time>
      </trkpt>
      <trkpt lat="45.8494" lon="4.81687">
        <ele>393</ele>
        <time>2012-12-09T09:57:57Z</time>
      </trkpt>
      <trkpt lat="45.84937" lon="4.817">
        <ele>392</ele>
        <time>2012-12-09T09:58:02Z</time>
      </trkpt>
      <trkpt lat="45.84935" lon="4.81705">
        <ele>391</ele>
        <time>2012-12-09T09:58:04Z</time>
      </trkpt>
      <trkpt lat="45.84932" lon="4.81713">
        <ele>390</ele>
        <time>2012-12-09T09:58:07Z</time>
      </trkpt>
      <trkpt lat="45.8493" lon="4.81715">
        <ele>390</ele>
        <time>2012-12-09T09:58:09Z</time>
      </trkpt>
      <trkpt lat="45.8493" lon="4.81716">
        <ele>390</ele>
        <time>2012-12-09T09:58:11Z</time>
      </trkpt>
      <trkpt lat="45.84927" lon="4.81719">
        <ele>389</ele>
        <time>2012-12-09T09:58:13Z</time>
      </trkpt>
      <trkpt lat="45.84924" lon="4.81722">
        <ele>388</ele>
        <time>2012-12-09T09:58:15Z</time>
      </trkpt>
      <trkpt lat="45.84922" lon="4.81725">
        <ele>387</ele>
        <time>2012-12-09T09:58:17Z</time>
      </trkpt>
      <trkpt lat="45.84919" lon="4.8173">
        <ele>386</ele>
        <time>2012-12-09T09:58:20Z</time>
      </trkpt>
      <trkpt lat="45.84913" lon="4.81736">
        <ele>381</ele>
        <time>2012-12-09T09:58:24Z</time>
      </trkpt>
      <trkpt lat="45.8491" lon="4.81743">
        <ele>379</ele>
        <time>2012-12-09T09:58:27Z</time>
      </trkpt>
      <trkpt lat="45.84907" lon="4.8175">
        <ele>374</ele>
        <time>2012-12-09T09:58:30Z</time>
      </trkpt>
      <trkpt lat="45.84905" lon="4.81752">
        <ele>373</ele>
        <time>2012-12-09T09:58:31Z</time>
      </trkpt>
      <trkpt lat="45.849" lon="4.81762">
        <ele>372</ele>
        <time>2012-12-09T09:58:37Z</time>
      </trkpt>
      <trkpt lat="45.84899" lon="4.81764">
        <ele>372</ele>
        <time>2012-12-09T09:58:38Z</time>
      </trkpt>
      <trkpt lat="45.84895" lon="4.81776">
        <ele>370</ele>
        <time>2012-12-09T09:58:43Z</time>
      </trkpt>
      <trkpt lat="45.84895" lon="4.81777">
        <ele>370</ele>
        <time>2012-12-09T09:58:44Z</time>
      </trkpt>
      <trkpt lat="45.84893" lon="4.81783">
        <ele>370</ele>
        <time>2012-12-09T09:58:48Z</time>
      </trkpt>
      <trkpt lat="45.84889" lon="4.81787">
        <ele>369</ele>
        <time>2012-12-09T09:58:50Z</time>
      </trkpt>
      <trkpt lat="45.84886" lon="4.81792">
        <ele>368</ele>
        <time>2012-12-09T09:58:53Z</time>
      </trkpt>
      <trkpt lat="45.84882" lon="4.818">
        <ele>367</ele>
        <time>2012-12-09T09:58:57Z</time>
      </trkpt>
      <trkpt lat="45.84877" lon="4.81808">
        <ele>366</ele>
        <time>2012-12-09T09:59:01Z</time>
      </trkpt>
      <trkpt lat="45.84873" lon="4.81811">
        <ele>365</ele>
        <time>2012-12-09T09:59:04Z</time>
      </trkpt>
      <trkpt lat="45.8487" lon="4.81814">
        <ele>365</ele>
        <time>2012-12-09T09:59:11Z</time>
      </trkpt>
      <trkpt lat="45.84871" lon="4.81819">
        <ele>364</ele>
        <time>2012-12-09T09:59:21Z</time>
      </trkpt>
      <trkpt lat="45.84873" lon="4.81821">
        <ele>365</ele>
        <time>2012-12-09T09:59:27Z</time>
      </trkpt>
      <trkpt lat="45.84876" lon="4.81822">
        <ele>365</ele>
        <time>2012-12-09T09:59:31Z</time>
      </trkpt>
      <trkpt lat="45.84879" lon="4.81822">
        <ele>365</ele>
        <time>2012-12-09T09:59:34Z</time>
      </trkpt>
      <trkpt lat="45.84881" lon="4.81822">
        <ele>366</ele>
        <time>2012-12-09T09:59:37Z</time>
      </trkpt>
      <trkpt lat="45.84882" lon="4.81823">
        <ele>366</ele>
        <time>2012-12-09T09:59:38Z</time>
      </trkpt>
      <trkpt lat="45.84883" lon="4.81823">
        <ele>366</ele>
        <time>2012-12-09T09:59:42Z</time>
      </trkpt>
      <trkpt lat="45.84886" lon="4.81823">
        <ele>366</ele>
        <time>2012-12-09T09:59:48Z</time>
      </trkpt>
      <trkpt lat="45.84889" lon="4.81822">
        <ele>367</ele>
        <time>2012-12-09T09:59:51Z</time>
      </trkpt>
      <trkpt lat="45.84891" lon="4.81821">
        <ele>367</ele>
        <time>2012-12-09T09:59:53Z</time>
      </trkpt>
      <trkpt lat="45.84896" lon="4.81823">
        <ele>368</ele>
        <time>2012-12-09T09:59:57Z</time>
      </trkpt>
      <trkpt lat="45.84899" lon="4.81823">
        <ele>368</ele>
        <time>2012-12-09T10:00:01Z</time>
      </trkpt>
      <trkpt lat="45.84899" lon="4.81824">
        <ele>368</ele>
        <time>2012-12-09T10:00:03Z</time>
      </trkpt>
      <trkpt lat="45.84901" lon="4.81828">
        <ele>368</ele>
        <time>2012-12-09T10:00:07Z</time>
      </trkpt>
      <trkpt lat="45.849" lon="4.81828">
        <ele>368</ele>
        <time>2012-12-09T10:00:17Z</time>
      </trkpt>
      <trkpt lat="45.84899" lon="4.81826">
        <ele>368</ele>
        <time>2012-12-09T10:00:24Z</time>
      </trkpt>
      <trkpt lat="45.84896" lon="4.81824">
        <ele>368</ele>
        <time>2012-12-09T10:00:28Z</time>
      </trkpt>
      <trkpt lat="45.84894" lon="4.81824">
        <ele>367</ele>
        <time>2012-12-09T10:00:32Z</time>
      </trkpt>
      <trkpt lat="45.84891" lon="4.81822">
        <ele>367</ele>
        <time>2012-12-09T10:00:35Z</time>
      </trkpt>
      <trkpt lat="45.84888" lon="4.8182">
        <ele>367</ele>
        <time>2012-12-09T10:00:36Z</time>
      </trkpt>
      <trkpt lat="45.84888" lon="4.8182">
        <ele>367</ele>
        <time>2012-12-09T10:00:37Z</time>
      </trkpt>
      <trkpt lat="45.84878" lon="4.81817">
        <ele>366</ele>
        <time>2012-12-09T10:00:42Z</time>
      </trkpt>
      <trkpt lat="45.84874" lon="4.81815">
        <ele>365</ele>
        <time>2012-12-09T10:00:48Z</time>
      </trkpt>
      <trkpt lat="45.8487" lon="4.81816">
        <ele>365</ele>
        <time>2012-12-09T10:00:56Z</time>
      </trkpt>
      <trkpt lat="45.8487" lon="4.81813">
        <ele>365</ele>
        <time>2012-12-09T10:00:58Z</time>
      </trkpt>
      <trkpt lat="45.84871" lon="4.81811">
        <ele>365</ele>
        <time>2012-12-09T10:00:59Z</time>
      </trkpt>
      <trkpt lat="45.84871" lon="4.81804">
        <ele>366</ele>
        <time>2012-12-09T10:01:03Z</time>
      </trkpt>
      <trkpt lat="45.84872" lon="4.81801">
        <ele>366</ele>
        <time>2012-12-09T10:01:05Z</time>
      </trkpt>
      <trkpt lat="45.84878" lon="4.81798">
        <ele>367</ele>
        <time>2012-12-09T10:01:09Z</time>
      </trkpt>
      <trkpt lat="45.84878" lon="4.81797">
        <ele>367</ele>
        <time>2012-12-09T10:01:10Z</time>
      </trkpt>
      <trkpt lat="45.84881" lon="4.8179">
        <ele>368</ele>
        <time>2012-12-09T10:01:15Z</time>
      </trkpt>
      <trkpt lat="45.84886" lon="4.81786">
        <ele>369</ele>
        <time>2012-12-09T10:01:20Z</time>
      </trkpt>
      <trkpt lat="45.84891" lon="4.81778">
        <ele>370</ele>
        <time>2012-12-09T10:01:27Z</time>
      </trkpt>
      <trkpt lat="45.84892" lon="4.8177">
        <ele>371</ele>
        <time>2012-12-09T10:01:33Z</time>
      </trkpt>
      <trkpt lat="45.84893" lon="4.81769">
        <ele>371</ele>
        <time>2012-12-09T10:01:34Z</time>
      </trkpt>
      <trkpt lat="45.84899" lon="4.81764">
        <ele>372</ele>
        <time>2012-12-09T10:01:39Z</time>
      </trkpt>
      <trkpt lat="45.84901" lon="4.81764">
        <ele>372</ele>
        <time>2012-12-09T10:01:41Z</time>
      </trkpt>
      <trkpt lat="45.84903" lon="4.81761">
        <ele>372</ele>
        <time>2012-12-09T10:01:44Z</time>
      </trkpt>
      <trkpt lat="45.84903" lon="4.81759">
        <ele>373</ele>
        <time>2012-12-09T10:01:45Z</time>
      </trkpt>
      <trkpt lat="45.84903" lon="4.81756">
        <ele>373</ele>
        <time>2012-12-09T10:01:48Z</time>
      </trkpt>
      <trkpt lat="45.84905" lon="4.81755">
        <ele>373</ele>
        <time>2012-12-09T10:01:50Z</time>
      </trkpt>
      <trkpt lat="45.84908" lon="4.8175">
        <ele>374</ele>
        <time>2012-12-09T10:01:55Z</time>
      </trkpt>
      <trkpt lat="45.84909" lon="4.81747">
        <ele>379</ele>
        <time>2012-12-09T10:01:59Z</time>
      </trkpt>
      <trkpt lat="45.8491" lon="4.81747">
        <ele>379</ele>
        <time>2012-12-09T10:02:00Z</time>
      </trkpt>
      <trkpt lat="45.84913" lon="4.81741">
        <ele>379</ele>
        <time>2012-12-09T10:02:04Z</time>
      </trkpt>
      <trkpt lat="45.84913" lon="4.8174">
        <ele>380</ele>
        <time>2012-12-09T10:02:05Z</time>
      </trkpt>
      <trkpt lat="45.84913" lon="4.81735">
        <ele>381</ele>
        <time>2012-12-09T10:02:10Z</time>
      </trkpt>
      <trkpt lat="45.84917" lon="4.8173">
        <ele>386</ele>
        <time>2012-12-09T10:02:15Z</time>
      </trkpt>
      <trkpt lat="45.84918" lon="4.81726">
        <ele>387</ele>
        <time>2012-12-09T10:02:19Z</time>
      </trkpt>
      <trkpt lat="45.84922" lon="4.81722">
        <ele>388</ele>
        <time>2012-12-09T10:02:24Z</time>
      </trkpt>
      <trkpt lat="45.84926" lon="4.81718">
        <ele>389</ele>
        <time>2012-12-09T10:02:30Z</time>
      </trkpt>
      <trkpt lat="45.84923" lon="4.8172">
        <ele>388</ele>
        <time>2012-12-09T10:02:38Z</time>
      </trkpt>
      <trkpt lat="45.84925" lon="4.81719">
        <ele>389</ele>
        <time>2012-12-09T10:02:39Z</time>
      </trkpt>
      <trkpt lat="45.84929" lon="4.81721">
        <ele>389</ele>
        <time>2012-12-09T10:02:41Z</time>
      </trkpt>
      <trkpt lat="45.84935" lon="4.81719">
        <ele>390</ele>
        <time>2012-12-09T10:02:46Z</time>
      </trkpt>
      <trkpt lat="45.84938" lon="4.81723">
        <ele>390</ele>
        <time>2012-12-09T10:02:55Z</time>
      </trkpt>
      <trkpt lat="45.84939" lon="4.81726">
        <ele>389</ele>
        <time>2012-12-09T10:02:59Z</time>
      </trkpt>
      <trkpt lat="45.84939" lon="4.81726">
        <ele>389</ele>
        <time>2012-12-09T10:03:00Z</time>
      </trkpt>
      <trkpt lat="45.84943" lon="4.81725">
        <ele>390</ele>
        <time>2012-12-09T10:03:06Z</time>
      </trkpt>
      <trkpt lat="45.84946" lon="4.81727">
        <ele>390</ele>
        <time>2012-12-09T10:03:12Z</time>
      </trkpt>
      <trkpt lat="45.84949" lon="4.8173">
        <ele>391</ele>
        <time>2012-12-09T10:03:18Z</time>
      </trkpt>
      <trkpt lat="45.84953" lon="4.81731">
        <ele>391</ele>
        <time>2012-12-09T10:03:23Z</time>
      </trkpt>
      <trkpt lat="45.84952" lon="4.81734">
        <ele>391</ele>
        <time>2012-12-09T10:03:27Z</time>
      </trkpt>
      <trkpt lat="45.84952" lon="4.81737">
        <ele>391</ele>
        <time>2012-12-09T10:03:31Z</time>
      </trkpt>
      <trkpt lat="45.84952" lon="4.8174">
        <ele>390</ele>
        <time>2012-12-09T10:03:33Z</time>
      </trkpt>
      <trkpt lat="45.84954" lon="4.81744">
        <ele>391</ele>
        <time>2012-12-09T10:03:38Z</time>
      </trkpt>
      <trkpt lat="45.84956" lon="4.81747">
        <ele>391</ele>
        <time>2012-12-09T10:03:43Z</time>
      </trkpt>
      <trkpt lat="45.84957" lon="4.81748">
        <ele>391</ele>
        <time>2012-12-09T10:03:48Z</time>
      </trkpt>
      <trkpt lat="45.84961" lon="4.81746">
        <ele>392</ele>
        <time>2012-12-09T10:04:02Z</time>
      </trkpt>
      <trkpt lat="45.84964" lon="4.81744">
        <ele>393</ele>
        <time>2012-12-09T10:04:06Z</time>
      </trkpt>
      <trkpt lat="45.84967" lon="4.81743">
        <ele>393</ele>
        <time>2012-12-09T10:04:09Z</time>
      </trkpt>
      <trkpt lat="45.8497" lon="4.81739">
        <ele>394</ele>
        <time>2012-12-09T10:04:13Z</time>
      </trkpt>
      <trkpt lat="45.84972" lon="4.81739">
        <ele>395</ele>
        <time>2012-12-09T10:04:18Z</time>
      </trkpt>
      <trkpt lat="45.84975" lon="4.8174">
        <ele>395</ele>
        <time>2012-12-09T10:04:23Z</time>
      </trkpt>
      <trkpt lat="45.84979" lon="4.81741">
        <ele>396</ele>
        <time>2012-12-09T10:04:32Z</time>
      </trkpt>
      <trkpt lat="45.84981" lon="4.81741">
        <ele>396</ele>
        <time>2012-12-09T10:04:35Z</time>
      </trkpt>
      <trkpt lat="45.84983" lon="4.81738">
        <ele>396</ele>
        <time>2012-12-09T10:04:39Z</time>
      </trkpt>
      <trkpt lat="45.84986" lon="4.81737">
        <ele>397</ele>
        <time>2012-12-09T10:04:46Z</time>
      </trkpt>
      <trkpt lat="45.84989" lon="4.81743">
        <ele>398</ele>
        <time>2012-12-09T10:04:55Z</time>
      </trkpt>
      <trkpt lat="45.84992" lon="4.81746">
        <ele>399</ele>
        <time>2012-12-09T10:05:01Z</time>
      </trkpt>
      <trkpt lat="45.84995" lon="4.81749">
        <ele>400</ele>
        <time>2012-12-09T10:05:06Z</time>
      </trkpt>
      <trkpt lat="45.84997" lon="4.81751">
        <ele>400</ele>
        <time>2012-12-09T10:05:11Z</time>
      </trkpt>
      <trkpt lat="45.84999" lon="4.81754">
        <ele>400</ele>
        <time>2012-12-09T10:05:18Z</time>
      </trkpt>
      <trkpt lat="45.85003" lon="4.81759">
        <ele>406</ele>
        <time>2012-12-09T10:05:26Z</time>
      </trkpt>
      <trkpt lat="45.85006" lon="4.81763">
        <ele>408</ele>
        <time>2012-12-09T10:05:34Z</time>
      </trkpt>
      <trkpt lat="45.85009" lon="4.81768">
        <ele>409</ele>
        <time>2012-12-09T10:05:41Z</time>
      </trkpt>
      <trkpt lat="45.85008" lon="4.8177">
        <ele>409</ele>
        <time>2012-12-09T10:05:44Z</time>
      </trkpt>
      <trkpt lat="45.85009" lon="4.81772">
        <ele>410</ele>
        <time>2012-12-09T10:05:46Z</time>
      </trkpt>
      <trkpt lat="45.85008" lon="4.81774">
        <ele>410</ele>
        <time>2012-12-09T10:05:48Z</time>
      </trkpt>
      <trkpt lat="45.85009" lon="4.81776">
        <ele>410</ele>
        <time>2012-12-09T10:05:50Z</time>
      </trkpt>
      <trkpt lat="45.85005" lon="4.81778">
        <ele>410</ele>
        <time>2012-12-09T10:05:56Z</time>
      </trkpt>
      <trkpt lat="45.85007" lon="4.81779">
        <ele>411</ele>
        <time>2012-12-09T10:06:02Z</time>
      </trkpt>
      <trkpt lat="45.8501" lon="4.81781">
        <ele>411</ele>
        <time>2012-12-09T10:06:13Z</time>
      </trkpt>
      <trkpt lat="45.8501" lon="4.81783">
        <ele>411</ele>
        <time>2012-12-09T10:06:14Z</time>
      </trkpt>
      <trkpt lat="45.85014" lon="4.81787">
        <ele>412</ele>
        <time>2012-12-09T10:06:18Z</time>
      </trkpt>
      <trkpt lat="45.85014" lon="4.81788">
        <ele>412</ele>
        <time>2012-12-09T10:06:20Z</time>
      </trkpt>
      <trkpt lat="45.85013" lon="4.81796">
        <ele>412</ele>
        <time>2012-12-09T10:06:25Z</time>
      </trkpt>
      <trkpt lat="45.85013" lon="4.81799">
        <ele>412</ele>
        <time>2012-12-09T10:06:28Z</time>
      </trkpt>
      <trkpt lat="45.85014" lon="4.81801">
        <ele>412</ele>
        <time>2012-12-09T10:06:30Z</time>
      </trkpt>
      <trkpt lat="45.8501" lon="4.81808">
        <ele>412</ele>
        <time>2012-12-09T10:07:24Z</time>
      </trkpt>
      <trkpt lat="45.85009" lon="4.81811">
        <ele>411</ele>
        <time>2012-12-09T10:07:27Z</time>
      </trkpt>
      <trkpt lat="45.85009" lon="4.81811">
        <ele>411</ele>
        <time>2012-12-09T10:07:28Z</time>
      </trkpt>
      <trkpt lat="45.85008" lon="4.81812">
        <ele>411</ele>
        <time>2012-12-09T10:07:29Z</time>
      </trkpt>
      <trkpt lat="45.85006" lon="4.81815">
        <ele>411</ele>
        <time>2012-12-09T10:07:30Z</time>
      </trkpt>
      <trkpt lat="45.85" lon="4.81825">
        <ele>402</ele>
        <time>2012-12-09T10:07:33Z</time>
      </trkpt>
      <trkpt lat="45.84995" lon="4.81835">
        <ele>404</ele>
        <time>2012-12-09T10:07:37Z</time>
      </trkpt>
      <trkpt lat="45.84993" lon="4.81838">
        <ele>403</ele>
        <time>2012-12-09T10:07:38Z</time>
      </trkpt>
      <trkpt lat="45.84984" lon="4.81854">
        <ele>397</ele>
        <time>2012-12-09T10:07:43Z</time>
      </trkpt>
      <trkpt lat="45.84982" lon="4.81857">
        <ele>397</ele>
        <time>2012-12-09T10:07:44Z</time>
      </trkpt>
      <trkpt lat="45.84975" lon="4.81869">
        <ele>395</ele>
        <time>2012-12-09T10:07:48Z</time>
      </trkpt>
      <trkpt lat="45.84968" lon="4.81878">
        <ele>394</ele>
        <time>2012-12-09T10:07:52Z</time>
      </trkpt>
      <trkpt lat="45.84965" lon="4.81884">
        <ele>394</ele>
        <time>2012-12-09T10:07:54Z</time>
      </trkpt>
      <trkpt lat="45.84956" lon="4.819">
        <ele>392</ele>
        <time>2012-12-09T10:08:00Z</time>
      </trkpt>
      <trkpt lat="45.84945" lon="4.81918">
        <ele>393</ele>
        <time>2012-12-09T10:08:06Z</time>
      </trkpt>
      <trkpt lat="45.84943" lon="4.81921">
        <ele>393</ele>
        <time>2012-12-09T10:08:07Z</time>
      </trkpt>
      <trkpt lat="45.84938" lon="4.81929">
        <ele>392</ele>
        <time>2012-12-09T10:08:10Z</time>
      </trkpt>
      <trkpt lat="45.8493" lon="4.81944">
        <ele>392</ele>
        <time>2012-12-09T10:08:16Z</time>
      </trkpt>
      <trkpt lat="45.84923" lon="4.81955">
        <ele>393</ele>
        <time>2012-12-09T10:08:21Z</time>
      </trkpt>
      <trkpt lat="45.84915" lon="4.81967">
        <ele>372</ele>
        <time>2012-12-09T10:08:25Z</time>
      </trkpt>
      <trkpt lat="45.84914" lon="4.81969">
        <ele>372</ele>
        <time>2012-12-09T10:08:27Z</time>
      </trkpt>
      <trkpt lat="45.84905" lon="4.81981">
        <ele>374</ele>
        <time>2012-12-09T10:08:32Z</time>
      </trkpt>
      <trkpt lat="45.84903" lon="4.81984">
        <ele>374</ele>
        <time>2012-12-09T10:08:34Z</time>
      </trkpt>
      <trkpt lat="45.84898" lon="4.81994">
        <ele>374</ele>
        <time>2012-12-09T10:08:38Z</time>
      </trkpt>
      <trkpt lat="45.84892" lon="4.82004">
        <ele>373</ele>
        <time>2012-12-09T10:08:41Z</time>
      </trkpt>
      <trkpt lat="45.84889" lon="4.8201">
        <ele>371</ele>
        <time>2012-12-09T10:08:42Z</time>
      </trkpt>
      <trkpt lat="45.8488" lon="4.82027">
        <ele>368</ele>
        <time>2012-12-09T10:08:49Z</time>
      </trkpt>
      <trkpt lat="45.84873" lon="4.82038">
        <ele>366</ele>
        <time>2012-12-09T10:08:53Z</time>
      </trkpt>
      <trkpt lat="45.84869" lon="4.82047">
        <ele>365</ele>
        <time>2012-12-09T10:08:56Z</time>
      </trkpt>
      <trkpt lat="45.84867" lon="4.82049">
        <ele>364</ele>
        <time>2012-12-09T10:08:57Z</time>
      </trkpt>
      <trkpt lat="45.84864" lon="4.82054">
        <ele>363</ele>
        <time>2012-12-09T10:08:59Z</time>
      </trkpt>
      <trkpt lat="45.84861" lon="4.82061">
        <ele>362</ele>
        <time>2012-12-09T10:09:01Z</time>
      </trkpt>
      <trkpt lat="45.84858" lon="4.82067">
        <ele>360</ele>
        <time>2012-12-09T10:09:03Z</time>
      </trkpt>
      <trkpt lat="45.84854" lon="4.82074">
        <ele>358</ele>
        <time>2012-12-09T10:09:04Z</time>
      </trkpt>
      <trkpt lat="45.84851" lon="4.82083">
        <ele>356</ele>
        <time>2012-12-09T10:09:08Z</time>
      </trkpt>
      <trkpt lat="45.8485" lon="4.82092">
        <ele>355</ele>
        <time>2012-12-09T10:09:10Z</time>
      </trkpt>
      <trkpt lat="45.84849" lon="4.82101">
        <ele>355</ele>
        <time>2012-12-09T10:09:13Z</time>
      </trkpt>
      <trkpt lat="45.84843" lon="4.8212">
        <ele>356</ele>
        <time>2012-12-09T10:09:18Z</time>
      </trkpt>
      <trkpt lat="45.8484" lon="4.82141">
        <ele>353</ele>
        <time>2012-12-09T10:09:24Z</time>
      </trkpt>
      <trkpt lat="45.8484" lon="4.82145">
        <ele>352</ele>
        <time>2012-12-09T10:09:25Z</time>
      </trkpt>
      <trkpt lat="45.84842" lon="4.8216">
        <ele>347</ele>
        <time>2012-12-09T10:09:29Z</time>
      </trkpt>
      <trkpt lat="45.84844" lon="4.8217">
        <ele>342</ele>
        <time>2012-12-09T10:09:32Z</time>
      </trkpt>
      <trkpt lat="45.84844" lon="4.82176">
        <ele>342</ele>
        <time>2012-12-09T10:09:33Z</time>
      </trkpt>
      <trkpt lat="45.8485" lon="4.82191">
        <ele>343</ele>
        <time>2012-12-09T10:09:39Z</time>
      </trkpt>
      <trkpt lat="45.84855" lon="4.82197">
        <ele>344</ele>
        <time>2012-12-09T10:09:41Z</time>
      </trkpt>
      <trkpt lat="45.84861" lon="4.82201">
        <ele>344</ele>
        <time>2012-12-09T10:09:44Z</time>
      </trkpt>
      <trkpt lat="45.84873" lon="4.82205">
        <ele>346</ele>
        <time>2012-12-09T10:09:49Z</time>
      </trkpt>
      <trkpt lat="45.8488" lon="4.82209">
        <ele>346</ele>
        <time>2012-12-09T10:09:52Z</time>
      </trkpt>
      <trkpt lat="45.84887" lon="4.82218">
        <ele>347</ele>
        <time>2012-12-09T10:09:56Z</time>
      </trkpt>
      <trkpt lat="45.84889" lon="4.8222">
        <ele>347</ele>
        <time>2012-12-09T10:09:57Z</time>
      </trkpt>
      <trkpt lat="45.84892" lon="4.82224">
        <ele>346</ele>
        <time>2012-12-09T10:10:00Z</time>
      </trkpt>
      <trkpt lat="45.84898" lon="4.82234">
        <ele>346</ele>
        <time>2012-12-09T10:10:04Z</time>
      </trkpt>
      <trkpt lat="45.84899" lon="4.82237">
        <ele>346</ele>
        <time>2012-12-09T10:10:05Z</time>
      </trkpt>
      <trkpt lat="45.84904" lon="4.82251">
        <ele>339</ele>
        <time>2012-12-09T10:10:08Z</time>
      </trkpt>
      <trkpt lat="45.84904" lon="4.82262">
        <ele>337</ele>
        <time>2012-12-09T10:10:12Z</time>
      </trkpt>
      <trkpt lat="45.84905" lon="4.82265">
        <ele>336</ele>
        <time>2012-12-09T10:10:13Z</time>
      </trkpt>
      <trkpt lat="45.84906" lon="4.82273">
        <ele>334</ele>
        <time>2012-12-09T10:10:14Z</time>
      </trkpt>
      <trkpt lat="45.84907" lon="4.82279">
        <ele>332</ele>
        <time>2012-12-09T10:10:17Z</time>
      </trkpt>
      <trkpt lat="45.84909" lon="4.82287">
        <ele>331</ele>
        <time>2012-12-09T10:10:22Z</time>
      </trkpt>
      <trkpt lat="45.84907" lon="4.82283">
        <ele>331</ele>
        <time>2012-12-09T10:10:50Z</time>
      </trkpt>
      <trkpt lat="45.84912" lon="4.82282">
        <ele>332</ele>
        <time>2012-12-09T10:10:57Z</time>
      </trkpt>
      <trkpt lat="45.84914" lon="4.82282">
        <ele>332</ele>
        <time>2012-12-09T10:11:00Z</time>
      </trkpt>
      <trkpt lat="45.84916" lon="4.82278">
        <ele>333</ele>
        <time>2012-12-09T10:11:03Z</time>
      </trkpt>
      <trkpt lat="45.84917" lon="4.82279">
        <ele>343</ele>
        <time>2012-12-09T10:11:05Z</time>
      </trkpt>
      <trkpt lat="45.84922" lon="4.82274">
        <ele>344</ele>
        <time>2012-12-09T10:11:10Z</time>
      </trkpt>
      <trkpt lat="45.84923" lon="4.82273">
        <ele>344</ele>
        <time>2012-12-09T10:11:11Z</time>
      </trkpt>
      <trkpt lat="45.84924" lon="4.82272">
        <ele>345</ele>
        <time>2012-12-09T10:11:14Z</time>
      </trkpt>
      <trkpt lat="45.84925" lon="4.8227">
        <ele>345</ele>
        <time>2012-12-09T10:11:16Z</time>
      </trkpt>
      <trkpt lat="45.84929" lon="4.82266">
        <ele>345</ele>
        <time>2012-12-09T10:11:22Z</time>
      </trkpt>
      <trkpt lat="45.8493" lon="4.82265">
        <ele>345</ele>
        <time>2012-12-09T10:11:23Z</time>
      </trkpt>
      <trkpt lat="45.84934" lon="4.82261">
        <ele>346</ele>
        <time>2012-12-09T10:11:28Z</time>
      </trkpt>
      <trkpt lat="45.84935" lon="4.8226">
        <ele>346</ele>
        <time>2012-12-09T10:11:29Z</time>
      </trkpt>
      <trkpt lat="45.84937" lon="4.82259">
        <ele>346</ele>
        <time>2012-12-09T10:11:33Z</time>
      </trkpt>
      <trkpt lat="45.84938" lon="4.8226">
        <ele>346</ele>
        <time>2012-12-09T10:11:34Z</time>
      </trkpt>
      <trkpt lat="45.84942" lon="4.82262">
        <ele>346</ele>
        <time>2012-12-09T10:11:39Z</time>
      </trkpt>
      <trkpt lat="45.84945" lon="4.82263">
        <ele>346</ele>
        <time>2012-12-09T10:11:41Z</time>
      </trkpt>
      <trkpt lat="45.84948" lon="4.82264">
        <ele>346</ele>
        <time>2012-12-09T10:11:44Z</time>
      </trkpt>
      <trkpt lat="45.84949" lon="4.82264">
        <ele>346</ele>
        <time>2012-12-09T10:11:45Z</time>
      </trkpt>
      <trkpt lat="45.84949" lon="4.82265">
        <ele>346</ele>
        <time>2012-12-09T10:11:46Z</time>
      </trkpt>
      <trkpt lat="45.84953" lon="4.82264">
        <ele>347</ele>
        <time>2012-12-09T10:11:53Z</time>
      </trkpt>
      <trkpt lat="45.84955" lon="4.82264">
        <ele>347</ele>
        <time>2012-12-09T10:11:54Z</time>
      </trkpt>
      <trkpt lat="45.84957" lon="4.82264">
        <ele>347</ele>
        <time>2012-12-09T10:11:57Z</time>
      </trkpt>
      <trkpt lat="45.84959" lon="4.82262">
        <ele>348</ele>
        <time>2012-12-09T10:11:59Z</time>
      </trkpt>
      <trkpt lat="45.84963" lon="4.82259">
        <ele>349</ele>
        <time>2012-12-09T10:12:04Z</time>
      </trkpt>
      <trkpt lat="45.84966" lon="4.82257">
        <ele>350</ele>
        <time>2012-12-09T10:12:07Z</time>
      </trkpt>
      <trkpt lat="45.84967" lon="4.82258">
        <ele>350</ele>
        <time>2012-12-09T10:12:09Z</time>
      </trkpt>
      <trkpt lat="45.84971" lon="4.82259">
        <ele>350</ele>
        <time>2012-12-09T10:12:14Z</time>
      </trkpt>
      <trkpt lat="45.84972" lon="4.82259">
        <ele>351</ele>
        <time>2012-12-09T10:12:15Z</time>
      </trkpt>
      <trkpt lat="45.84973" lon="4.8226">
        <ele>351</ele>
        <time>2012-12-09T10:12:16Z</time>
      </trkpt>
      <trkpt lat="45.84976" lon="4.82261">
        <ele>351</ele>
        <time>2012-12-09T10:12:19Z</time>
      </trkpt>
      <trkpt lat="45.84977" lon="4.82261">
        <ele>352</ele>
        <time>2012-12-09T10:12:21Z</time>
      </trkpt>
      <trkpt lat="45.84978" lon="4.8226">
        <ele>352</ele>
        <time>2012-12-09T10:12:22Z</time>
      </trkpt>
      <trkpt lat="45.84982" lon="4.82264">
        <ele>352</ele>
        <time>2012-12-09T10:12:27Z</time>
      </trkpt>
      <trkpt lat="45.84983" lon="4.82265">
        <ele>352</ele>
        <time>2012-12-09T10:12:28Z</time>
      </trkpt>
      <trkpt lat="45.84984" lon="4.82266">
        <ele>352</ele>
        <time>2012-12-09T10:12:30Z</time>
      </trkpt>
      <trkpt lat="45.84988" lon="4.82265">
        <ele>354</ele>
        <time>2012-12-09T10:12:33Z</time>
      </trkpt>
      <trkpt lat="45.84989" lon="4.82265">
        <ele>354</ele>
        <time>2012-12-09T10:12:34Z</time>
      </trkpt>
      <trkpt lat="45.84995" lon="4.82266">
        <ele>355</ele>
        <time>2012-12-09T10:12:39Z</time>
      </trkpt>
      <trkpt lat="45.84996" lon="4.82266">
        <ele>355</ele>
        <time>2012-12-09T10:12:41Z</time>
      </trkpt>
      <trkpt lat="45.84998" lon="4.82266">
        <ele>355</ele>
        <time>2012-12-09T10:12:42Z</time>
      </trkpt>
      <trkpt lat="45.85001" lon="4.82268">
        <ele>358</ele>
        <time>2012-12-09T10:12:47Z</time>
      </trkpt>
      <trkpt lat="45.85003" lon="4.82269">
        <ele>358</ele>
        <time>2012-12-09T10:12:50Z</time>
      </trkpt>
      <trkpt lat="45.85006" lon="4.82269">
        <ele>358</ele>
        <time>2012-12-09T10:12:53Z</time>
      </trkpt>
      <trkpt lat="45.85007" lon="4.8227">
        <ele>357</ele>
        <time>2012-12-09T10:12:55Z</time>
      </trkpt>
      <trkpt lat="45.85012" lon="4.82271">
        <ele>357</ele>
        <time>2012-12-09T10:13:01Z</time>
      </trkpt>
      <trkpt lat="45.85015" lon="4.82272">
        <ele>356</ele>
        <time>2012-12-09T10:13:07Z</time>
      </trkpt>
      <trkpt lat="45.85024" lon="4.82265">
        <ele>357</ele>
        <time>2012-12-09T10:13:17Z</time>
      </trkpt>
      <trkpt lat="45.85024" lon="4.82266">
        <ele>357</ele>
        <time>2012-12-09T10:13:18Z</time>
      </trkpt>
      <trkpt lat="45.85031" lon="4.82267">
        <ele>356</ele>
        <time>2012-12-09T10:13:25Z</time>
      </trkpt>
      <trkpt lat="45.85033" lon="4.82265">
        <ele>356</ele>
        <time>2012-12-09T10:13:33Z</time>
      </trkpt>
      <trkpt lat="45.85039" lon="4.82261">
        <ele>356</ele>
        <time>2012-12-09T10:13:39Z</time>
      </trkpt>
      <trkpt lat="45.85041" lon="4.82259">
        <ele>357</ele>
        <time>2012-12-09T10:13:40Z</time>
      </trkpt>
      <trkpt lat="45.85041" lon="4.82259">
        <ele>357</ele>
        <time>2012-12-09T10:13:41Z</time>
      </trkpt>
      <trkpt lat="45.85045" lon="4.82255">
        <ele>357</ele>
        <time>2012-12-09T10:13:46Z</time>
      </trkpt>
      <trkpt lat="45.85045" lon="4.82254">
        <ele>357</ele>
        <time>2012-12-09T10:13:47Z</time>
      </trkpt>
      <trkpt lat="45.8505" lon="4.82249">
        <ele>371</ele>
        <time>2012-12-09T10:13:52Z</time>
      </trkpt>
      <trkpt lat="45.85054" lon="4.82243">
        <ele>371</ele>
        <time>2012-12-09T10:14:00Z</time>
      </trkpt>
      <trkpt lat="45.85055" lon="4.82242">
        <ele>371</ele>
        <time>2012-12-09T10:14:02Z</time>
      </trkpt>
      <trkpt lat="45.85058" lon="4.82239">
        <ele>371</ele>
        <time>2012-12-09T10:14:06Z</time>
      </trkpt>
      <trkpt lat="45.85059" lon="4.82238">
        <ele>371</ele>
        <time>2012-12-09T10:14:07Z</time>
      </trkpt>
      <trkpt lat="45.85061" lon="4.82232">
        <ele>372</ele>
        <time>2012-12-09T10:14:11Z</time>
      </trkpt>
      <trkpt lat="45.85061" lon="4.82229">
        <ele>372</ele>
        <time>2012-12-09T10:14:13Z</time>
      </trkpt>
      <trkpt lat="45.85064" lon="4.82225">
        <ele>373</ele>
        <time>2012-12-09T10:14:19Z</time>
      </trkpt>
      <trkpt lat="45.85065" lon="4.82224">
        <ele>373</ele>
        <time>2012-12-09T10:14:21Z</time>
      </trkpt>
      <trkpt lat="45.85065" lon="4.82221">
        <ele>373</ele>
        <time>2012-12-09T10:14:24Z</time>
      </trkpt>
      <trkpt lat="45.85067" lon="4.82215">
        <ele>374</ele>
        <time>2012-12-09T10:14:30Z</time>
      </trkpt>
      <trkpt lat="45.85067" lon="4.82212">
        <ele>375</ele>
        <time>2012-12-09T10:14:33Z</time>
      </trkpt>
      <trkpt lat="45.85066" lon="4.82211">
        <ele>375</ele>
        <time>2012-12-09T10:14:35Z</time>
      </trkpt>
      <trkpt lat="45.85065" lon="4.8221">
        <ele>375</ele>
        <time>2012-12-09T10:14:36Z</time>
      </trkpt>
      <trkpt lat="45.85063" lon="4.82205">
        <ele>376</ele>
        <time>2012-12-09T10:14:41Z</time>
      </trkpt>
      <trkpt lat="45.85063" lon="4.82198">
        <ele>377</ele>
        <time>2012-12-09T10:14:46Z</time>
      </trkpt>
      <trkpt lat="45.85062" lon="4.82197">
        <ele>377</ele>
        <time>2012-12-09T10:14:47Z</time>
      </trkpt>
      <trkpt lat="45.85064" lon="4.82196">
        <ele>378</ele>
        <time>2012-12-09T10:14:48Z</time>
      </trkpt>
      <trkpt lat="45.85066" lon="4.82193">
        <ele>378</ele>
        <time>2012-12-09T10:14:56Z</time>
      </trkpt>
      <trkpt lat="45.85066" lon="4.82188">
        <ele>379</ele>
        <time>2012-12-09T10:14:58Z</time>
      </trkpt>
      <trkpt lat="45.85065" lon="4.82181">
        <ele>380</ele>
        <time>2012-12-09T10:15:04Z</time>
      </trkpt>
      <trkpt lat="45.85065" lon="4.82176">
        <ele>380</ele>
        <time>2012-12-09T10:15:08Z</time>
      </trkpt>
      <trkpt lat="45.85065" lon="4.82173">
        <ele>381</ele>
        <time>2012-12-09T10:15:11Z</time>
      </trkpt>
      <trkpt lat="45.85065" lon="4.82171">
        <ele>381</ele>
        <time>2012-12-09T10:15:13Z</time>
      </trkpt>
      <trkpt lat="45.85065" lon="4.8217">
        <ele>381</ele>
        <time>2012-12-09T10:15:15Z</time>
      </trkpt>
      <trkpt lat="45.85065" lon="4.82169">
        <ele>381</ele>
        <time>2012-12-09T10:15:16Z</time>
      </trkpt>
      <trkpt lat="45.85065" lon="4.82167">
        <ele>390</ele>
        <time>2012-12-09T10:15:21Z</time>
      </trkpt>
      <trkpt lat="45.85066" lon="4.82164">
        <ele>390</ele>
        <time>2012-12-09T10:15:23Z</time>
      </trkpt>
      <trkpt lat="45.85065" lon="4.82153">
        <ele>391</ele>
        <time>2012-12-09T10:15:28Z</time>
      </trkpt>
      <trkpt lat="45.85064" lon="4.82152">
        <ele>392</ele>
        <time>2012-12-09T10:15:30Z</time>
      </trkpt>
      <trkpt lat="45.85065" lon="4.82144">
        <ele>393</ele>
        <time>2012-12-09T10:15:34Z</time>
      </trkpt>
      <trkpt lat="45.85064" lon="4.82142">
        <ele>393</ele>
        <time>2012-12-09T10:15:35Z</time>
      </trkpt>
      <trkpt lat="45.85065" lon="4.82138">
        <ele>393</ele>
        <time>2012-12-09T10:15:39Z</time>
      </trkpt>
      <trkpt lat="45.85065" lon="4.82136">
        <ele>394</ele>
        <time>2012-12-09T10:15:41Z</time>
      </trkpt>
      <trkpt lat="45.85067" lon="4.82134">
        <ele>394</ele>
        <time>2012-12-09T10:15:43Z</time>
      </trkpt>
      <trkpt lat="45.85073" lon="4.82124">
        <ele>395</ele>
        <time>2012-12-09T10:15:50Z</time>
      </trkpt>
      <trkpt lat="45.8507" lon="4.8212">
        <ele>396</ele>
        <time>2012-12-09T10:16:00Z</time>
      </trkpt>
      <trkpt lat="45.85071" lon="4.82124">
        <ele>395</ele>
        <time>2012-12-09T10:16:19Z</time>
      </trkpt>
      <trkpt lat="45.85065" lon="4.82124">
        <ele>395</ele>
        <time>2012-12-09T10:16:54Z</time>
      </trkpt>
      <trkpt lat="45.85057" lon="4.82119">
        <ele>396</ele>
        <time>2012-12-09T10:17:02Z</time>
      </trkpt>
      <trkpt lat="45.8505" lon="4.82116">
        <ele>396</ele>
        <time>2012-12-09T10:17:09Z</time>
      </trkpt>
      <trkpt lat="45.85044" lon="4.8211">
        <ele>397</ele>
        <time>2012-12-09T10:17:16Z</time>
      </trkpt>
      <trkpt lat="45.85042" lon="4.82106">
        <ele>397</ele>
        <time>2012-12-09T10:17:19Z</time>
      </trkpt>
      <trkpt lat="45.85039" lon="4.82098">
        <ele>398</ele>
        <time>2012-12-09T10:17:25Z</time>
      </trkpt>
      <trkpt lat="45.85039" lon="4.82083">
        <ele>406</ele>
        <time>2012-12-09T10:17:33Z</time>
      </trkpt>
      <trkpt lat="45.8504" lon="4.82081">
        <ele>406</ele>
        <time>2012-12-09T10:17:36Z</time>
      </trkpt>
      <trkpt lat="45.85041" lon="4.82077">
        <ele>406</ele>
        <time>2012-12-09T10:17:39Z</time>
      </trkpt>
      <trkpt lat="45.85044" lon="4.82074">
        <ele>406</ele>
        <time>2012-12-09T10:17:42Z</time>
      </trkpt>
      <trkpt lat="45.85046" lon="4.82072">
        <ele>406</ele>
        <time>2012-12-09T10:17:45Z</time>
      </trkpt>
      <trkpt lat="45.85049" lon="4.82069">
        <ele>406</ele>
        <time>2012-12-09T10:17:48Z</time>
      </trkpt>
      <trkpt lat="45.85052" lon="4.82067">
        <ele>406</ele>
        <time>2012-12-09T10:17:51Z</time>
      </trkpt>
      <trkpt lat="45.85055" lon="4.82066">
        <ele>406</ele>
        <time>2012-12-09T10:17:53Z</time>
      </trkpt>
      <trkpt lat="45.85061" lon="4.82066">
        <ele>406</ele>
        <time>2012-12-09T10:17:58Z</time>
      </trkpt>
      <trkpt lat="45.85069" lon="4.82064">
        <ele>406</ele>
        <time>2012-12-09T10:18:04Z</time>
      </trkpt>
      <trkpt lat="45.85074" lon="4.82062">
        <ele>406</ele>
        <time>2012-12-09T10:18:08Z</time>
      </trkpt>
      <trkpt lat="45.85077" lon="4.82061">
        <ele>406</ele>
        <time>2012-12-09T10:18:11Z</time>
      </trkpt>
      <trkpt lat="45.8508" lon="4.8206">
        <ele>406</ele>
        <time>2012-12-09T10:18:13Z</time>
      </trkpt>
      <trkpt lat="45.85086" lon="4.82055">
        <ele>403</ele>
        <time>2012-12-09T10:18:17Z</time>
      </trkpt>
      <trkpt lat="45.85087" lon="4.82052">
        <ele>403</ele>
        <time>2012-12-09T10:18:18Z</time>
      </trkpt>
      <trkpt lat="45.85089" lon="4.82049">
        <ele>403</ele>
        <time>2012-12-09T10:18:19Z</time>
      </trkpt>
      <trkpt lat="45.85094" lon="4.82039">
        <ele>404</ele>
        <time>2012-12-09T10:18:23Z</time>
      </trkpt>
      <trkpt lat="45.85101" lon="4.82027">
        <ele>405</ele>
        <time>2012-12-09T10:18:29Z</time>
      </trkpt>
      <trkpt lat="45.85103" lon="4.82024">
        <ele>405</ele>
        <time>2012-12-09T10:18:30Z</time>
      </trkpt>
      <trkpt lat="45.85106" lon="4.82017">
        <ele>405</ele>
        <time>2012-12-09T10:18:33Z</time>
      </trkpt>
      <trkpt lat="45.8511" lon="4.82007">
        <ele>406</ele>
        <time>2012-12-09T10:18:40Z</time>
      </trkpt>
      <trkpt lat="45.8511" lon="4.82005">
        <ele>406</ele>
        <time>2012-12-09T10:18:47Z</time>
      </trkpt>
      <trkpt lat="45.85113" lon="4.82005">
        <ele>405</ele>
        <time>2012-12-09T10:18:50Z</time>
      </trkpt>
      <trkpt lat="45.85115" lon="4.82005">
        <ele>405</ele>
        <time>2012-12-09T10:18:51Z</time>
      </trkpt>
      <trkpt lat="45.85115" lon="4.82004">
        <ele>405</ele>
        <time>2012-12-09T10:18:52Z</time>
      </trkpt>
      <trkpt lat="45.85116" lon="4.82002">
        <ele>405</ele>
        <time>2012-12-09T10:18:55Z</time>
      </trkpt>
      <trkpt lat="45.85122" lon="4.81997">
        <ele>410</ele>
        <time>2012-12-09T10:18:59Z</time>
      </trkpt>
      <trkpt lat="45.85124" lon="4.81989">
        <ele>410</ele>
        <time>2012-12-09T10:19:02Z</time>
      </trkpt>
      <trkpt lat="45.85125" lon="4.81986">
        <ele>410</ele>
        <time>2012-12-09T10:19:03Z</time>
      </trkpt>
      <trkpt lat="45.85129" lon="4.8198">
        <ele>410</ele>
        <time>2012-12-09T10:19:07Z</time>
      </trkpt>
      <trkpt lat="45.8513" lon="4.81977">
        <ele>410</ele>
        <time>2012-12-09T10:19:09Z</time>
      </trkpt>
      <trkpt lat="45.8513" lon="4.81975">
        <ele>410</ele>
        <time>2012-12-09T10:19:10Z</time>
      </trkpt>
      <trkpt lat="45.8513" lon="4.8197">
        <ele>410</ele>
        <time>2012-12-09T10:19:13Z</time>
      </trkpt>
      <trkpt lat="45.85131" lon="4.81967">
        <ele>411</ele>
        <time>2012-12-09T10:19:15Z</time>
      </trkpt>
      <trkpt lat="45.85132" lon="4.81965">
        <ele>411</ele>
        <time>2012-12-09T10:19:16Z</time>
      </trkpt>
      <trkpt lat="45.85133" lon="4.81961">
        <ele>411</ele>
        <time>2012-12-09T10:19:18Z</time>
      </trkpt>
      <trkpt lat="45.85135" lon="4.81956">
        <ele>411</ele>
        <time>2012-12-09T10:19:20Z</time>
      </trkpt>
      <trkpt lat="45.85138" lon="4.8195">
        <ele>411</ele>
        <time>2012-12-09T10:19:25Z</time>
      </trkpt>
      <trkpt lat="45.85146" lon="4.81944">
        <ele>411</ele>
        <time>2012-12-09T10:19:32Z</time>
      </trkpt>
      <trkpt lat="45.85146" lon="4.81944">
        <ele>411</ele>
        <time>2012-12-09T10:19:33Z</time>
      </trkpt>
      <trkpt lat="45.85153" lon="4.81936">
        <ele>410</ele>
        <time>2012-12-09T10:19:40Z</time>
      </trkpt>
      <trkpt lat="45.85157" lon="4.81932">
        <ele>410</ele>
        <time>2012-12-09T10:19:41Z</time>
      </trkpt>
      <trkpt lat="45.85159" lon="4.81929">
        <ele>410</ele>
        <time>2012-12-09T10:19:43Z</time>
      </trkpt>
      <trkpt lat="45.85163" lon="4.81924">
        <ele>410</ele>
        <time>2012-12-09T10:19:45Z</time>
      </trkpt>
      <trkpt lat="45.85171" lon="4.81907">
        <ele>408</ele>
        <time>2012-12-09T10:19:51Z</time>
      </trkpt>
      <trkpt lat="45.85178" lon="4.81889">
        <ele>408</ele>
        <time>2012-12-09T10:19:57Z</time>
      </trkpt>
      <trkpt lat="45.8518" lon="4.81883">
        <ele>408</ele>
        <time>2012-12-09T10:19:59Z</time>
      </trkpt>
      <trkpt lat="45.85183" lon="4.81874">
        <ele>409</ele>
        <time>2012-12-09T10:20:02Z</time>
      </trkpt>
      <trkpt lat="45.85187" lon="4.8186">
        <ele>410</ele>
        <time>2012-12-09T10:20:06Z</time>
      </trkpt>
      <trkpt lat="45.85188" lon="4.81857">
        <ele>410</ele>
        <time>2012-12-09T10:20:07Z</time>
      </trkpt>
      <trkpt lat="45.8519" lon="4.81847">
        <ele>410</ele>
        <time>2012-12-09T10:20:10Z</time>
      </trkpt>
      <trkpt lat="45.85193" lon="4.81834">
        <ele>411</ele>
        <time>2012-12-09T10:20:16Z</time>
      </trkpt>
      <trkpt lat="45.85194" lon="4.81833">
        <ele>411</ele>
        <time>2012-12-09T10:20:17Z</time>
      </trkpt>
      <trkpt lat="45.85193" lon="4.8183">
        <ele>417</ele>
        <time>2012-12-09T10:20:22Z</time>
      </trkpt>
      <trkpt lat="45.85193" lon="4.81826">
        <ele>418</ele>
        <time>2012-12-09T10:20:29Z</time>
      </trkpt>
      <trkpt lat="45.85193" lon="4.81826">
        <ele>418</ele>
        <time>2012-12-09T10:20:30Z</time>
      </trkpt>
      <trkpt lat="45.85194" lon="4.81822">
        <ele>418</ele>
        <time>2012-12-09T10:20:32Z</time>
      </trkpt>
      <trkpt lat="45.85195" lon="4.8182">
        <ele>417</ele>
        <time>2012-12-09T10:20:35Z</time>
      </trkpt>
      <trkpt lat="45.85193" lon="4.81815">
        <ele>418</ele>
        <time>2012-12-09T10:20:42Z</time>
      </trkpt>
      <trkpt lat="45.85192" lon="4.81815">
        <ele>418</ele>
        <time>2012-12-09T10:20:43Z</time>
      </trkpt>
      <trkpt lat="45.85191" lon="4.81813">
        <ele>418</ele>
        <time>2012-12-09T10:20:46Z</time>
      </trkpt>
      <trkpt lat="45.85191" lon="4.81812">
        <ele>418</ele>
        <time>2012-12-09T10:20:47Z</time>
      </trkpt>
      <trkpt lat="45.85187" lon="4.81807">
        <ele>419</ele>
        <time>2012-12-09T10:20:52Z</time>
      </trkpt>
      <trkpt lat="45.85186" lon="4.81806">
        <ele>419</ele>
        <time>2012-12-09T10:20:54Z</time>
      </trkpt>
      <trkpt lat="45.85181" lon="4.81806">
        <ele>419</ele>
        <time>2012-12-09T10:20:58Z</time>
      </trkpt>
      <trkpt lat="45.8518" lon="4.81805">
        <ele>419</ele>
        <time>2012-12-09T10:20:59Z</time>
      </trkpt>
      <trkpt lat="45.8518" lon="4.81803">
        <ele>419</ele>
        <time>2012-12-09T10:21:01Z</time>
      </trkpt>
      <trkpt lat="45.85178" lon="4.818">
        <ele>420</ele>
        <time>2012-12-09T10:21:05Z</time>
      </trkpt>
      <trkpt lat="45.85177" lon="4.81799">
        <ele>420</ele>
        <time>2012-12-09T10:21:06Z</time>
      </trkpt>
      <trkpt lat="45.85176" lon="4.81791">
        <ele>421</ele>
        <time>2012-12-09T10:21:13Z</time>
      </trkpt>
      <trkpt lat="45.85176" lon="4.81789">
        <ele>421</ele>
        <time>2012-12-09T10:21:14Z</time>
      </trkpt>
      <trkpt lat="45.85175" lon="4.81786">
        <ele>421</ele>
        <time>2012-12-09T10:21:17Z</time>
      </trkpt>
      <trkpt lat="45.85175" lon="4.8178">
        <ele>422</ele>
        <time>2012-12-09T10:21:22Z</time>
      </trkpt>
      <trkpt lat="45.85176" lon="4.81773">
        <ele>423</ele>
        <time>2012-12-09T10:21:27Z</time>
      </trkpt>
      <trkpt lat="45.85176" lon="4.81771">
        <ele>423</ele>
        <time>2012-12-09T10:21:29Z</time>
      </trkpt>
      <trkpt lat="45.85178" lon="4.81765">
        <ele>424</ele>
        <time>2012-12-09T10:21:34Z</time>
      </trkpt>
      <trkpt lat="45.85178" lon="4.81764">
        <ele>425</ele>
        <time>2012-12-09T10:21:35Z</time>
      </trkpt>
      <trkpt lat="45.85177" lon="4.81762">
        <ele>425</ele>
        <time>2012-12-09T10:21:38Z</time>
      </trkpt>
      <trkpt lat="45.85177" lon="4.81761">
        <ele>425</ele>
        <time>2012-12-09T10:21:41Z</time>
      </trkpt>
      <trkpt lat="45.85179" lon="4.81765">
        <ele>424</ele>
        <time>2012-12-09T10:21:48Z</time>
      </trkpt>
      <trkpt lat="45.85173" lon="4.81747">
        <ele>431</ele>
        <time>2012-12-09T10:22:25Z</time>
      </trkpt>
      <trkpt lat="45.8518" lon="4.81743">
        <ele>431</ele>
        <time>2012-12-09T10:22:33Z</time>
      </trkpt>
      <trkpt lat="45.85181" lon="4.81742">
        <ele>432</ele>
        <time>2012-12-09T10:22:34Z</time>
      </trkpt>
      <trkpt lat="45.8519" lon="4.81737">
        <ele>432</ele>
        <time>2012-12-09T10:22:38Z</time>
      </trkpt>
      <trkpt lat="45.85198" lon="4.8173">
        <ele>432</ele>
        <time>2012-12-09T10:22:43Z</time>
      </trkpt>
      <trkpt lat="45.85211" lon="4.81722">
        <ele>431</ele>
        <time>2012-12-09T10:22:49Z</time>
      </trkpt>
      <trkpt lat="45.85213" lon="4.8172">
        <ele>431</ele>
        <time>2012-12-09T10:22:50Z</time>
      </trkpt>
      <trkpt lat="45.85221" lon="4.81716">
        <ele>431</ele>
        <time>2012-12-09T10:22:52Z</time>
      </trkpt>
      <trkpt lat="45.85224" lon="4.81712">
        <ele>432</ele>
        <time>2012-12-09T10:22:55Z</time>
      </trkpt>
      <trkpt lat="45.85231" lon="4.81707">
        <ele>432</ele>
        <time>2012-12-09T10:22:58Z</time>
      </trkpt>
      <trkpt lat="45.85235" lon="4.81703">
        <ele>433</ele>
        <time>2012-12-09T10:22:59Z</time>
      </trkpt>
      <trkpt lat="45.85248" lon="4.81691">
        <ele>434</ele>
        <time>2012-12-09T10:23:05Z</time>
      </trkpt>
      <trkpt lat="45.85261" lon="4.81687">
        <ele>431</ele>
        <time>2012-12-09T10:23:11Z</time>
      </trkpt>
      <trkpt lat="45.8527" lon="4.81687">
        <ele>430</ele>
        <time>2012-12-09T10:23:13Z</time>
      </trkpt>
      <trkpt lat="45.8528" lon="4.81688">
        <ele>429</ele>
        <time>2012-12-09T10:23:17Z</time>
      </trkpt>
      <trkpt lat="45.85288" lon="4.81686">
        <ele>429</ele>
        <time>2012-12-09T10:23:19Z</time>
      </trkpt>
      <trkpt lat="45.85297" lon="4.81691">
        <ele>428</ele>
        <time>2012-12-09T10:23:23Z</time>
      </trkpt>
      <trkpt lat="45.85307" lon="4.81693">
        <ele>428</ele>
        <time>2012-12-09T10:23:27Z</time>
      </trkpt>
      <trkpt lat="45.8531" lon="4.81694">
        <ele>428</ele>
        <time>2012-12-09T10:23:28Z</time>
      </trkpt>
      <trkpt lat="45.85322" lon="4.81698">
        <ele>427</ele>
        <time>2012-12-09T10:23:33Z</time>
      </trkpt>
      <trkpt lat="45.85328" lon="4.817">
        <ele>427</ele>
        <time>2012-12-09T10:23:35Z</time>
      </trkpt>
      <trkpt lat="45.85336" lon="4.81705">
        <ele>424</ele>
        <time>2012-12-09T10:23:38Z</time>
      </trkpt>
      <trkpt lat="45.85346" lon="4.81711">
        <ele>423</ele>
        <time>2012-12-09T10:23:42Z</time>
      </trkpt>
      <trkpt lat="45.85348" lon="4.81716">
        <ele>422</ele>
        <time>2012-12-09T10:23:44Z</time>
      </trkpt>
      <trkpt lat="45.85359" lon="4.8172">
        <ele>422</ele>
        <time>2012-12-09T10:23:50Z</time>
      </trkpt>
      <trkpt lat="45.85365" lon="4.81724">
        <ele>422</ele>
        <time>2012-12-09T10:23:51Z</time>
      </trkpt>
      <trkpt lat="45.85377" lon="4.81731">
        <ele>421</ele>
        <time>2012-12-09T10:23:55Z</time>
      </trkpt>
      <trkpt lat="45.85382" lon="4.81735">
        <ele>421</ele>
        <time>2012-12-09T10:23:57Z</time>
      </trkpt>
      <trkpt lat="45.85386" lon="4.81739">
        <ele>421</ele>
        <time>2012-12-09T10:24:00Z</time>
      </trkpt>
      <trkpt lat="45.85386" lon="4.81742">
        <ele>421</ele>
        <time>2012-12-09T10:24:01Z</time>
      </trkpt>
      <trkpt lat="45.85381" lon="4.81742">
        <ele>421</ele>
        <time>2012-12-09T10:24:03Z</time>
      </trkpt>
      <trkpt lat="45.85375" lon="4.81744">
        <ele>421</ele>
        <time>2012-12-09T10:24:05Z</time>
      </trkpt>
      <trkpt lat="45.85369" lon="4.81744">
        <ele>420</ele>
        <time>2012-12-09T10:24:08Z</time>
      </trkpt>
      <trkpt lat="45.85356" lon="4.81745">
        <ele>419</ele>
        <time>2012-12-09T10:24:14Z</time>
      </trkpt>
      <trkpt lat="45.85354" lon="4.81745">
        <ele>418</ele>
        <time>2012-12-09T10:24:15Z</time>
      </trkpt>
      <trkpt lat="45.85345" lon="4.81745">
        <ele>417</ele>
        <time>2012-12-09T10:24:20Z</time>
      </trkpt>
      <trkpt lat="45.85337" lon="4.81743">
        <ele>415</ele>
        <time>2012-12-09T10:24:23Z</time>
      </trkpt>
      <trkpt lat="45.85332" lon="4.81741">
        <ele>416</ele>
        <time>2012-12-09T10:24:25Z</time>
      </trkpt>
      <trkpt lat="45.85328" lon="4.81744">
        <ele>416</ele>
        <time>2012-12-09T10:24:27Z</time>
      </trkpt>
      <trkpt lat="45.85325" lon="4.81748">
        <ele>416</ele>
        <time>2012-12-09T10:24:29Z</time>
      </trkpt>
      <trkpt lat="45.85321" lon="4.8175">
        <ele>417</ele>
        <time>2012-12-09T10:24:32Z</time>
      </trkpt>
      <trkpt lat="45.85316" lon="4.81751">
        <ele>410</ele>
        <time>2012-12-09T10:24:35Z</time>
      </trkpt>
      <trkpt lat="45.85318" lon="4.81753">
        <ele>410</ele>
        <time>2012-12-09T10:24:37Z</time>
      </trkpt>
      <trkpt lat="45.8532" lon="4.81757">
        <ele>410</ele>
        <time>2012-12-09T10:24:39Z</time>
      </trkpt>
      <trkpt lat="45.85321" lon="4.81761">
        <ele>409</ele>
        <time>2012-12-09T10:24:42Z</time>
      </trkpt>
      <trkpt lat="45.85321" lon="4.81765">
        <ele>409</ele>
        <time>2012-12-09T10:24:45Z</time>
      </trkpt>
      <trkpt lat="45.8532" lon="4.81768">
        <ele>408</ele>
        <time>2012-12-09T10:25:01Z</time>
      </trkpt>
      <trkpt lat="45.85317" lon="4.81769">
        <ele>408</ele>
        <time>2012-12-09T10:25:06Z</time>
      </trkpt>
      <trkpt lat="45.85315" lon="4.81768">
        <ele>408</ele>
        <time>2012-12-09T10:25:07Z</time>
      </trkpt>
      <trkpt lat="45.85311" lon="4.81768">
        <ele>408</ele>
        <time>2012-12-09T10:25:10Z</time>
      </trkpt>
      <trkpt lat="45.85308" lon="4.81768">
        <ele>408</ele>
        <time>2012-12-09T10:25:13Z</time>
      </trkpt>
      <trkpt lat="45.85306" lon="4.81769">
        <ele>408</ele>
        <time>2012-12-09T10:25:15Z</time>
      </trkpt>
      <trkpt lat="45.85306" lon="4.8177">
        <ele>408</ele>
        <time>2012-12-09T10:25:16Z</time>
      </trkpt>
      <trkpt lat="45.85303" lon="4.81771">
        <ele>408</ele>
        <time>2012-12-09T10:25:18Z</time>
      </trkpt>
      <trkpt lat="45.85302" lon="4.81771">
        <ele>408</ele>
        <time>2012-12-09T10:25:20Z</time>
      </trkpt>
      <trkpt lat="45.853" lon="4.81771">
        <ele>408</ele>
        <time>2012-12-09T10:25:22Z</time>
      </trkpt>
      <trkpt lat="45.85297" lon="4.81773">
        <ele>408</ele>
        <time>2012-12-09T10:25:25Z</time>
      </trkpt>
      <trkpt lat="45.85293" lon="4.81776">
        <ele>408</ele>
        <time>2012-12-09T10:25:27Z</time>
      </trkpt>
      <trkpt lat="45.85287" lon="4.81781">
        <ele>408</ele>
        <time>2012-12-09T10:25:31Z</time>
      </trkpt>
      <trkpt lat="45.85284" lon="4.81782">
        <ele>408</ele>
        <time>2012-12-09T10:25:32Z</time>
      </trkpt>
      <trkpt lat="45.85281" lon="4.81794">
        <ele>407</ele>
        <time>2012-12-09T10:25:36Z</time>
      </trkpt>
      <trkpt lat="45.85278" lon="4.81807">
        <ele>405</ele>
        <time>2012-12-09T10:25:40Z</time>
      </trkpt>
      <trkpt lat="45.85277" lon="4.81811">
        <ele>405</ele>
        <time>2012-12-09T10:25:41Z</time>
      </trkpt>
      <trkpt lat="45.85277" lon="4.81814">
        <ele>405</ele>
        <time>2012-12-09T10:25:42Z</time>
      </trkpt>
      <trkpt lat="45.85276" lon="4.81823">
        <ele>404</ele>
        <time>2012-12-09T10:25:46Z</time>
      </trkpt>
      <trkpt lat="45.85273" lon="4.81833">
        <ele>396</ele>
        <time>2012-12-09T10:25:52Z</time>
      </trkpt>
      <trkpt lat="45.8527" lon="4.81842">
        <ele>396</ele>
        <time>2012-12-09T10:25:56Z</time>
      </trkpt>
      <trkpt lat="45.8527" lon="4.81843">
        <ele>395</ele>
        <time>2012-12-09T10:25:57Z</time>
      </trkpt>
      <trkpt lat="45.85272" lon="4.81847">
        <ele>395</ele>
        <time>2012-12-09T10:26:01Z</time>
      </trkpt>
      <trkpt lat="45.85277" lon="4.81852">
        <ele>393</ele>
        <time>2012-12-09T10:26:05Z</time>
      </trkpt>
      <trkpt lat="45.85278" lon="4.81854">
        <ele>393</ele>
        <time>2012-12-09T10:26:06Z</time>
      </trkpt>
      <trkpt lat="45.85281" lon="4.8186">
        <ele>392</ele>
        <time>2012-12-09T10:26:09Z</time>
      </trkpt>
      <trkpt lat="45.85283" lon="4.81865">
        <ele>392</ele>
        <time>2012-12-09T10:26:11Z</time>
      </trkpt>
      <trkpt lat="45.85287" lon="4.8187">
        <ele>391</ele>
        <time>2012-12-09T10:26:15Z</time>
      </trkpt>
      <trkpt lat="45.85287" lon="4.8187">
        <ele>391</ele>
        <time>2012-12-09T10:26:16Z</time>
      </trkpt>
      <trkpt lat="45.8529" lon="4.81875">
        <ele>390</ele>
        <time>2012-12-09T10:26:21Z</time>
      </trkpt>
      <trkpt lat="45.8529" lon="4.81876">
        <ele>390</ele>
        <time>2012-12-09T10:26:22Z</time>
      </trkpt>
      <trkpt lat="45.85294" lon="4.81881">
        <ele>389</ele>
        <time>2012-12-09T10:26:26Z</time>
      </trkpt>
      <trkpt lat="45.85295" lon="4.81883">
        <ele>389</ele>
        <time>2012-12-09T10:26:27Z</time>
      </trkpt>
      <trkpt lat="45.85296" lon="4.81886">
        <ele>389</ele>
        <time>2012-12-09T10:26:29Z</time>
      </trkpt>
      <trkpt lat="45.85297" lon="4.81889">
        <ele>388</ele>
        <time>2012-12-09T10:26:31Z</time>
      </trkpt>
      <trkpt lat="45.85299" lon="4.81892">
        <ele>388</ele>
        <time>2012-12-09T10:26:33Z</time>
      </trkpt>
      <trkpt lat="45.85301" lon="4.819">
        <ele>387</ele>
        <time>2012-12-09T10:26:36Z</time>
      </trkpt>
      <trkpt lat="45.85302" lon="4.81902">
        <ele>386</ele>
        <time>2012-12-09T10:26:38Z</time>
      </trkpt>
      <trkpt lat="45.85311" lon="4.81908">
        <ele>384</ele>
        <time>2012-12-09T10:26:43Z</time>
      </trkpt>
      <trkpt lat="45.85312" lon="4.81909">
        <ele>383</ele>
        <time>2012-12-09T10:26:45Z</time>
      </trkpt>
      <trkpt lat="45.85314" lon="4.8191">
        <ele>382</ele>
        <time>2012-12-09T10:26:47Z</time>
      </trkpt>
      <trkpt lat="45.85316" lon="4.81911">
        <ele>381</ele>
        <time>2012-12-09T10:26:48Z</time>
      </trkpt>
      <trkpt lat="45.8532" lon="4.81916">
        <ele>380</ele>
        <time>2012-12-09T10:26:51Z</time>
      </trkpt>
      <trkpt lat="45.85321" lon="4.81919">
        <ele>375</ele>
        <time>2012-12-09T10:26:52Z</time>
      </trkpt>
      <trkpt lat="45.85328" lon="4.81932">
        <ele>375</ele>
        <time>2012-12-09T10:26:58Z</time>
      </trkpt>
      <trkpt lat="45.8533" lon="4.81938">
        <ele>375</ele>
        <time>2012-12-09T10:27:00Z</time>
      </trkpt>
      <trkpt lat="45.85334" lon="4.81948">
        <ele>368</ele>
        <time>2012-12-09T10:27:04Z</time>
      </trkpt>
      <trkpt lat="45.85335" lon="4.8195">
        <ele>367</ele>
        <time>2012-12-09T10:27:05Z</time>
      </trkpt>
      <trkpt lat="45.85343" lon="4.81958">
        <ele>367</ele>
        <time>2012-12-09T10:27:10Z</time>
      </trkpt>
      <trkpt lat="45.85345" lon="4.81959">
        <ele>366</ele>
        <time>2012-12-09T10:27:11Z</time>
      </trkpt>
      <trkpt lat="45.85346" lon="4.81972">
        <ele>365</ele>
        <time>2012-12-09T10:27:16Z</time>
      </trkpt>
      <trkpt lat="45.85347" lon="4.81978">
        <ele>365</ele>
        <time>2012-12-09T10:27:19Z</time>
      </trkpt>
      <trkpt lat="45.8535" lon="4.8198">
        <ele>364</ele>
        <time>2012-12-09T10:27:21Z</time>
      </trkpt>
      <trkpt lat="45.85358" lon="4.81986">
        <ele>364</ele>
        <time>2012-12-09T10:27:26Z</time>
      </trkpt>
      <trkpt lat="45.85365" lon="4.81993">
        <ele>364</ele>
        <time>2012-12-09T10:27:31Z</time>
      </trkpt>
      <trkpt lat="45.85366" lon="4.81995">
        <ele>364</ele>
        <time>2012-12-09T10:27:32Z</time>
      </trkpt>
      <trkpt lat="45.85368" lon="4.81998">
        <ele>364</ele>
        <time>2012-12-09T10:27:35Z</time>
      </trkpt>
      <trkpt lat="45.85369" lon="4.81997">
        <ele>364</ele>
        <time>2012-12-09T10:27:36Z</time>
      </trkpt>
      <trkpt lat="45.85375" lon="4.82003">
        <ele>353</ele>
        <time>2012-12-09T10:27:46Z</time>
      </trkpt>
      <trkpt lat="45.85381" lon="4.82008">
        <ele>353</ele>
        <time>2012-12-09T10:27:55Z</time>
      </trkpt>
      <trkpt lat="45.8538" lon="4.82009">
        <ele>353</ele>
        <time>2012-12-09T10:27:59Z</time>
      </trkpt>
      <trkpt lat="45.85381" lon="4.82011">
        <ele>353</ele>
        <time>2012-12-09T10:28:03Z</time>
      </trkpt>
      <trkpt lat="45.85384" lon="4.82017">
        <ele>352</ele>
        <time>2012-12-09T10:28:07Z</time>
      </trkpt>
      <trkpt lat="45.85384" lon="4.82021">
        <ele>352</ele>
        <time>2012-12-09T10:28:09Z</time>
      </trkpt>
      <trkpt lat="45.85386" lon="4.82035">
        <ele>350</ele>
        <time>2012-12-09T10:28:14Z</time>
      </trkpt>
      <trkpt lat="45.85393" lon="4.82042">
        <ele>350</ele>
        <time>2012-12-09T10:28:19Z</time>
      </trkpt>
      <trkpt lat="45.85395" lon="4.82051">
        <ele>349</ele>
        <time>2012-12-09T10:28:23Z</time>
      </trkpt>
      <trkpt lat="45.85395" lon="4.82052">
        <ele>349</ele>
        <time>2012-12-09T10:28:24Z</time>
      </trkpt>
      <trkpt lat="45.85394" lon="4.82057">
        <ele>348</ele>
        <time>2012-12-09T10:28:27Z</time>
      </trkpt>
      <trkpt lat="45.85394" lon="4.8206">
        <ele>348</ele>
        <time>2012-12-09T10:28:29Z</time>
      </trkpt>
      <trkpt lat="45.85394" lon="4.82062">
        <ele>348</ele>
        <time>2012-12-09T10:28:31Z</time>
      </trkpt>
      <trkpt lat="45.85392" lon="4.82063">
        <ele>347</ele>
        <time>2012-12-09T10:28:33Z</time>
      </trkpt>
      <trkpt lat="45.8539" lon="4.82065">
        <ele>347</ele>
        <time>2012-12-09T10:28:38Z</time>
      </trkpt>
      <trkpt lat="45.8539" lon="4.82066">
        <ele>347</ele>
        <time>2012-12-09T10:28:39Z</time>
      </trkpt>
      <trkpt lat="45.85389" lon="4.82069">
        <ele>347</ele>
        <time>2012-12-09T10:28:42Z</time>
      </trkpt>
      <trkpt lat="45.85386" lon="4.8207">
        <ele>347</ele>
        <time>2012-12-09T10:28:46Z</time>
      </trkpt>
      <trkpt lat="45.85386" lon="4.8207">
        <ele>347</ele>
        <time>2012-12-09T10:28:47Z</time>
      </trkpt>
      <trkpt lat="45.85382" lon="4.82069">
        <ele>347</ele>
        <time>2012-12-09T10:28:55Z</time>
      </trkpt>
      <trkpt lat="45.85382" lon="4.82068">
        <ele>347</ele>
        <time>2012-12-09T10:28:56Z</time>
      </trkpt>
      <trkpt lat="45.85382" lon="4.82067">
        <ele>347</ele>
        <time>2012-12-09T10:28:58Z</time>
      </trkpt>
      <trkpt lat="45.85383" lon="4.8207">
        <ele>347</ele>
        <time>2012-12-09T10:29:00Z</time>
      </trkpt>
      <trkpt lat="45.85384" lon="4.82072">
        <ele>347</ele>
        <time>2012-12-09T10:29:02Z</time>
      </trkpt>
      <trkpt lat="45.85385" lon="4.82073">
        <ele>347</ele>
        <time>2012-12-09T10:29:03Z</time>
      </trkpt>
      <trkpt lat="45.85386" lon="4.82076">
        <ele>347</ele>
        <time>2012-12-09T10:29:05Z</time>
      </trkpt>
      <trkpt lat="45.85389" lon="4.82084">
        <ele>337</ele>
        <time>2012-12-09T10:29:11Z</time>
      </trkpt>
      <trkpt lat="45.85388" lon="4.82092">
        <ele>337</ele>
        <time>2012-12-09T10:29:15Z</time>
      </trkpt>
      <trkpt lat="45.85386" lon="4.82096">
        <ele>337</ele>
        <time>2012-12-09T10:29:17Z</time>
      </trkpt>
      <trkpt lat="45.85381" lon="4.82098">
        <ele>336</ele>
        <time>2012-12-09T10:29:22Z</time>
      </trkpt>
      <trkpt lat="45.85379" lon="4.82099">
        <ele>336</ele>
        <time>2012-12-09T10:29:23Z</time>
      </trkpt>
      <trkpt lat="45.85376" lon="4.82101">
        <ele>335</ele>
        <time>2012-12-09T10:29:26Z</time>
      </trkpt>
      <trkpt lat="45.85375" lon="4.82102">
        <ele>335</ele>
        <time>2012-12-09T10:29:27Z</time>
      </trkpt>
      <trkpt lat="45.85371" lon="4.82107">
        <ele>335</ele>
        <time>2012-12-09T10:29:31Z</time>
      </trkpt>
      <trkpt lat="45.8537" lon="4.82108">
        <ele>335</ele>
        <time>2012-12-09T10:29:32Z</time>
      </trkpt>
      <trkpt lat="45.85369" lon="4.8211">
        <ele>334</ele>
        <time>2012-12-09T10:29:33Z</time>
      </trkpt>
      <trkpt lat="45.85368" lon="4.8211">
        <ele>334</ele>
        <time>2012-12-09T10:29:34Z</time>
      </trkpt>
      <trkpt lat="45.85365" lon="4.82114">
        <ele>334</ele>
        <time>2012-12-09T10:29:37Z</time>
      </trkpt>
      <trkpt lat="45.85365" lon="4.82121">
        <ele>333</ele>
        <time>2012-12-09T10:29:41Z</time>
      </trkpt>
      <trkpt lat="45.85366" lon="4.82122">
        <ele>333</ele>
        <time>2012-12-09T10:29:42Z</time>
      </trkpt>
      <trkpt lat="45.85368" lon="4.82127">
        <ele>333</ele>
        <time>2012-12-09T10:29:48Z</time>
      </trkpt>
      <trkpt lat="45.85368" lon="4.82128">
        <ele>333</ele>
        <time>2012-12-09T10:29:49Z</time>
      </trkpt>
      <trkpt lat="45.85367" lon="4.82133">
        <ele>332</ele>
        <time>2012-12-09T10:29:53Z</time>
      </trkpt>
      <trkpt lat="45.85365" lon="4.82134">
        <ele>332</ele>
        <time>2012-12-09T10:29:55Z</time>
      </trkpt>
      <trkpt lat="45.85363" lon="4.82134">
        <ele>331</ele>
        <time>2012-12-09T10:29:57Z</time>
      </trkpt>
      <trkpt lat="45.85363" lon="4.82137">
        <ele>331</ele>
        <time>2012-12-09T10:30:02Z</time>
      </trkpt>
      <trkpt lat="45.85362" lon="4.82136">
        <ele>331</ele>
        <time>2012-12-09T10:30:08Z</time>
      </trkpt>
      <trkpt lat="45.8536" lon="4.82134">
        <ele>331</ele>
        <time>2012-12-09T10:30:09Z</time>
      </trkpt>
      <trkpt lat="45.85361" lon="4.82131">
        <ele>331</ele>
        <time>2012-12-09T10:30:14Z</time>
      </trkpt>
      <trkpt lat="45.8536" lon="4.82128">
        <ele>332</ele>
        <time>2012-12-09T10:30:23Z</time>
      </trkpt>
      <trkpt lat="45.8536" lon="4.82127">
        <ele>332</ele>
        <time>2012-12-09T10:30:28Z</time>
      </trkpt>
      <trkpt lat="45.85356" lon="4.82129">
        <ele>331</ele>
        <time>2012-12-09T10:30:32Z</time>
      </trkpt>
      <trkpt lat="45.85354" lon="4.8213">
        <ele>331</ele>
        <time>2012-12-09T10:30:34Z</time>
      </trkpt>
      <trkpt lat="45.85351" lon="4.82132">
        <ele>330</ele>
        <time>2012-12-09T10:30:37Z</time>
      </trkpt>
      <trkpt lat="45.85352" lon="4.82134">
        <ele>330</ele>
        <time>2012-12-09T10:30:40Z</time>
      </trkpt>
      <trkpt lat="45.85353" lon="4.82137">
        <ele>330</ele>
        <time>2012-12-09T10:30:45Z</time>
      </trkpt>
      <trkpt lat="45.85352" lon="4.82138">
        <ele>329</ele>
        <time>2012-12-09T10:30:47Z</time>
      </trkpt>
      <trkpt lat="45.85351" lon="4.82138">
        <ele>329</ele>
        <time>2012-12-09T10:30:48Z</time>
      </trkpt>
      <trkpt lat="45.85347" lon="4.8214">
        <ele>328</ele>
        <time>2012-12-09T10:30:57Z</time>
      </trkpt>
      <trkpt lat="45.85348" lon="4.82146">
        <ele>327</ele>
        <time>2012-12-09T10:31:04Z</time>
      </trkpt>
      <trkpt lat="45.85339" lon="4.82144">
        <ele>326</ele>
        <time>2012-12-09T10:31:18Z</time>
      </trkpt>
      <trkpt lat="45.85339" lon="4.82144">
        <ele>326</ele>
        <time>2012-12-09T10:31:24Z</time>
      </trkpt>
      <trkpt lat="45.85338" lon="4.82141">
        <ele>327</ele>
        <time>2012-12-09T10:31:31Z</time>
      </trkpt>
      <trkpt lat="45.85337" lon="4.82141">
        <ele>327</ele>
        <time>2012-12-09T10:31:32Z</time>
      </trkpt>
      <trkpt lat="45.85337" lon="4.82144">
        <ele>326</ele>
        <time>2012-12-09T10:31:34Z</time>
      </trkpt>
      <trkpt lat="45.85337" lon="4.82146">
        <ele>325</ele>
        <time>2012-12-09T10:31:37Z</time>
      </trkpt>
      <trkpt lat="45.85336" lon="4.82146">
        <ele>325</ele>
        <time>2012-12-09T10:31:38Z</time>
      </trkpt>
      <trkpt lat="45.85334" lon="4.82145">
        <ele>325</ele>
        <time>2012-12-09T10:31:39Z</time>
      </trkpt>
      <trkpt lat="45.85331" lon="4.82147">
        <ele>327</ele>
        <time>2012-12-09T10:31:43Z</time>
      </trkpt>
      <trkpt lat="45.85325" lon="4.8214">
        <ele>330</ele>
        <time>2012-12-09T10:31:53Z</time>
      </trkpt>
      <trkpt lat="45.85325" lon="4.82139">
        <ele>331</ele>
        <time>2012-12-09T10:31:54Z</time>
      </trkpt>
      <trkpt lat="45.8532" lon="4.82135">
        <ele>332</ele>
        <time>2012-12-09T10:31:59Z</time>
      </trkpt>
      <trkpt lat="45.85322" lon="4.82138">
        <ele>331</ele>
        <time>2012-12-09T10:32:02Z</time>
      </trkpt>
      <trkpt lat="45.85324" lon="4.82142">
        <ele>330</ele>
        <time>2012-12-09T10:32:07Z</time>
      </trkpt>
      <trkpt lat="45.85324" lon="4.82144">
        <ele>329</ele>
        <time>2012-12-09T10:32:09Z</time>
      </trkpt>
      <trkpt lat="45.85325" lon="4.82147">
        <ele>328</ele>
        <time>2012-12-09T10:32:13Z</time>
      </trkpt>
      <trkpt lat="45.85326" lon="4.82148">
        <ele>327</ele>
        <time>2012-12-09T10:32:14Z</time>
      </trkpt>
      <trkpt lat="45.85327" lon="4.82148">
        <ele>327</ele>
        <time>2012-12-09T10:32:17Z</time>
      </trkpt>
      <trkpt lat="45.85328" lon="4.82148">
        <ele>326</ele>
        <time>2012-12-09T10:32:18Z</time>
      </trkpt>
      <trkpt lat="45.85332" lon="4.8215">
        <ele>325</ele>
        <time>2012-12-09T10:32:22Z</time>
      </trkpt>
      <trkpt lat="45.85332" lon="4.82149">
        <ele>326</ele>
        <time>2012-12-09T10:32:23Z</time>
      </trkpt>
      <trkpt lat="45.85334" lon="4.82148">
        <ele>324</ele>
        <time>2012-12-09T10:32:27Z</time>
      </trkpt>
      <trkpt lat="45.85336" lon="4.82149">
        <ele>324</ele>
        <time>2012-12-09T10:32:34Z</time>
      </trkpt>
      <trkpt lat="45.85338" lon="4.82148">
        <ele>324</ele>
        <time>2012-12-09T10:32:50Z</time>
      </trkpt>
      <trkpt lat="45.85332" lon="4.82146">
        <ele>327</ele>
        <time>2012-12-09T10:32:56Z</time>
      </trkpt>
      <trkpt lat="45.85333" lon="4.82149">
        <ele>326</ele>
        <time>2012-12-09T10:33:02Z</time>
      </trkpt>
      <trkpt lat="45.85333" lon="4.8215">
        <ele>325</ele>
        <time>2012-12-09T10:33:03Z</time>
      </trkpt>
      <trkpt lat="45.85333" lon="4.82151">
        <ele>323</ele>
        <time>2012-12-09T10:33:06Z</time>
      </trkpt>
      <trkpt lat="45.85334" lon="4.82152">
        <ele>322</ele>
        <time>2012-12-09T10:33:13Z</time>
      </trkpt>
      <trkpt lat="45.85338" lon="4.82157">
        <ele>320</ele>
        <time>2012-12-09T10:33:44Z</time>
      </trkpt>
      <trkpt lat="45.85334" lon="4.82158">
        <ele>319</ele>
        <time>2012-12-09T10:33:59Z</time>
      </trkpt>
      <trkpt lat="45.85333" lon="4.82157">
        <ele>321</ele>
        <time>2012-12-09T10:34:00Z</time>
      </trkpt>
      <trkpt lat="45.85331" lon="4.82157">
        <ele>321</ele>
        <time>2012-12-09T10:34:04Z</time>
      </trkpt>
      <trkpt lat="45.85331" lon="4.82159">
        <ele>320</ele>
        <time>2012-12-09T10:34:08Z</time>
      </trkpt>
      <trkpt lat="45.8533" lon="4.82162">
        <ele>319</ele>
        <time>2012-12-09T10:34:13Z</time>
      </trkpt>
      <trkpt lat="45.85329" lon="4.82164">
        <ele>318</ele>
        <time>2012-12-09T10:34:16Z</time>
      </trkpt>
      <trkpt lat="45.85328" lon="4.82168">
        <ele>314</ele>
        <time>2012-12-09T10:34:19Z</time>
      </trkpt>
      <trkpt lat="45.85328" lon="4.82171">
        <ele>314</ele>
        <time>2012-12-09T10:34:24Z</time>
      </trkpt>
      <trkpt lat="45.85328" lon="4.8217">
        <ele>314</ele>
        <time>2012-12-09T10:34:33Z</time>
      </trkpt>
      <trkpt lat="45.85329" lon="4.82167">
        <ele>313</ele>
        <time>2012-12-09T10:34:46Z</time>
      </trkpt>
      <trkpt lat="45.85332" lon="4.82169">
        <ele>313</ele>
        <time>2012-12-09T10:34:51Z</time>
      </trkpt>
      <trkpt lat="45.85333" lon="4.82169">
        <ele>313</ele>
        <time>2012-12-09T10:34:52Z</time>
      </trkpt>
      <trkpt lat="45.85333" lon="4.8218">
        <ele>314</ele>
        <time>2012-12-09T10:35:04Z</time>
      </trkpt>
      <trkpt lat="45.85333" lon="4.82182">
        <ele>314</ele>
        <time>2012-12-09T10:35:06Z</time>
      </trkpt>
      <trkpt lat="45.85332" lon="4.82183">
        <ele>314</ele>
        <time>2012-12-09T10:35:07Z</time>
      </trkpt>
      <trkpt lat="45.8533" lon="4.8219">
        <ele>314</ele>
        <time>2012-12-09T10:35:10Z</time>
      </trkpt>
      <trkpt lat="45.8533" lon="4.82192">
        <ele>313</ele>
        <time>2012-12-09T10:35:11Z</time>
      </trkpt>
      <trkpt lat="45.85327" lon="4.82196">
        <ele>313</ele>
        <time>2012-12-09T10:35:16Z</time>
      </trkpt>
      <trkpt lat="45.85326" lon="4.82198">
        <ele>313</ele>
        <time>2012-12-09T10:35:17Z</time>
      </trkpt>
      <trkpt lat="45.85325" lon="4.82203">
        <ele>313</ele>
        <time>2012-12-09T10:35:19Z</time>
      </trkpt>
      <trkpt lat="45.85324" lon="4.82205">
        <ele>313</ele>
        <time>2012-12-09T10:35:21Z</time>
      </trkpt>
      <trkpt lat="45.85324" lon="4.82206">
        <ele>313</ele>
        <time>2012-12-09T10:35:22Z</time>
      </trkpt>
      <trkpt lat="45.85323" lon="4.82211">
        <ele>312</ele>
        <time>2012-12-09T10:35:25Z</time>
      </trkpt>
      <trkpt lat="45.85319" lon="4.82214">
        <ele>312</ele>
        <time>2012-12-09T10:35:28Z</time>
      </trkpt>
      <trkpt lat="45.85318" lon="4.82215">
        <ele>312</ele>
        <time>2012-12-09T10:35:31Z</time>
      </trkpt>
      <trkpt lat="45.85313" lon="4.82221">
        <ele>312</ele>
        <time>2012-12-09T10:35:35Z</time>
      </trkpt>
      <trkpt lat="45.85311" lon="4.82222">
        <ele>312</ele>
        <time>2012-12-09T10:35:37Z</time>
      </trkpt>
      <trkpt lat="45.8531" lon="4.82223">
        <ele>312</ele>
        <time>2012-12-09T10:35:38Z</time>
      </trkpt>
      <trkpt lat="45.85306" lon="4.82232">
        <ele>311</ele>
        <time>2012-12-09T10:35:43Z</time>
      </trkpt>
      <trkpt lat="45.85303" lon="4.82244">
        <ele>310</ele>
        <time>2012-12-09T10:35:47Z</time>
      </trkpt>
      <trkpt lat="45.85301" lon="4.8225">
        <ele>299</ele>
        <time>2012-12-09T10:35:49Z</time>
      </trkpt>
      <trkpt lat="45.85301" lon="4.82254">
        <ele>299</ele>
        <time>2012-12-09T10:35:51Z</time>
      </trkpt>
      <trkpt lat="45.85299" lon="4.82256">
        <ele>299</ele>
        <time>2012-12-09T10:35:54Z</time>
      </trkpt>
      <trkpt lat="45.85298" lon="4.82254">
        <ele>299</ele>
        <time>2012-12-09T10:35:56Z</time>
      </trkpt>
      <trkpt lat="45.85297" lon="4.8225">
        <ele>299</ele>
        <time>2012-12-09T10:35:59Z</time>
      </trkpt>
      <trkpt lat="45.85297" lon="4.8225">
        <ele>299</ele>
        <time>2012-12-09T10:36:00Z</time>
      </trkpt>
      <trkpt lat="45.85298" lon="4.82252">
        <ele>299</ele>
        <time>2012-12-09T10:36:03Z</time>
      </trkpt>
      <trkpt lat="45.85297" lon="4.82257">
        <ele>299</ele>
        <time>2012-12-09T10:36:08Z</time>
      </trkpt>
      <trkpt lat="45.85296" lon="4.8226">
        <ele>298</ele>
        <time>2012-12-09T10:36:10Z</time>
      </trkpt>
      <trkpt lat="45.85296" lon="4.82262">
        <ele>298</ele>
        <time>2012-12-09T10:36:13Z</time>
      </trkpt>
      <trkpt lat="45.85291" lon="4.82275">
        <ele>297</ele>
        <time>2012-12-09T10:36:19Z</time>
      </trkpt>
      <trkpt lat="45.85288" lon="4.82283">
        <ele>296</ele>
        <time>2012-12-09T10:36:21Z</time>
      </trkpt>
      <trkpt lat="45.85286" lon="4.82288">
        <ele>296</ele>
        <time>2012-12-09T10:36:23Z</time>
      </trkpt>
      <trkpt lat="45.8528" lon="4.82308">
        <ele>293</ele>
        <time>2012-12-09T10:36:29Z</time>
      </trkpt>
      <trkpt lat="45.85272" lon="4.82334">
        <ele>281</ele>
        <time>2012-12-09T10:36:36Z</time>
      </trkpt>
      <trkpt lat="45.85267" lon="4.82347">
        <ele>280</ele>
        <time>2012-12-09T10:36:42Z</time>
      </trkpt>
      <trkpt lat="45.85264" lon="4.82359">
        <ele>280</ele>
        <time>2012-12-09T10:36:47Z</time>
      </trkpt>
      <trkpt lat="45.85262" lon="4.82373">
        <ele>278</ele>
        <time>2012-12-09T10:36:52Z</time>
      </trkpt>
      <trkpt lat="45.85259" lon="4.82381">
        <ele>277</ele>
        <time>2012-12-09T10:36:56Z</time>
      </trkpt>
      <trkpt lat="45.85258" lon="4.82383">
        <ele>277</ele>
        <time>2012-12-09T10:36:57Z</time>
      </trkpt>
      <trkpt lat="45.85256" lon="4.82394">
        <ele>274</ele>
        <time>2012-12-09T10:37:02Z</time>
      </trkpt>
      <trkpt lat="45.85254" lon="4.82404">
        <ele>271</ele>
        <time>2012-12-09T10:37:05Z</time>
      </trkpt>
      <trkpt lat="45.85252" lon="4.82409">
        <ele>268</ele>
        <time>2012-12-09T10:37:07Z</time>
      </trkpt>
      <trkpt lat="45.85251" lon="4.82418">
        <ele>264</ele>
        <time>2012-12-09T10:37:11Z</time>
      </trkpt>
      <trkpt lat="45.8525" lon="4.82423">
        <ele>265</ele>
        <time>2012-12-09T10:37:13Z</time>
      </trkpt>
      <trkpt lat="45.85248" lon="4.82429">
        <ele>264</ele>
        <time>2012-12-09T10:37:16Z</time>
      </trkpt>
      <trkpt lat="45.85247" lon="4.82435">
        <ele>264</ele>
        <time>2012-12-09T10:37:18Z</time>
      </trkpt>
      <trkpt lat="45.85248" lon="4.82445">
        <ele>263</ele>
        <time>2012-12-09T10:37:22Z</time>
      </trkpt>
      <trkpt lat="45.85251" lon="4.82459">
        <ele>266</ele>
        <time>2012-12-09T10:37:27Z</time>
      </trkpt>
      <trkpt lat="45.85251" lon="4.8246">
        <ele>266</ele>
        <time>2012-12-09T10:37:28Z</time>
      </trkpt>
      <trkpt lat="45.85251" lon="4.82462">
        <ele>266</ele>
        <time>2012-12-09T10:37:29Z</time>
      </trkpt>
      <trkpt lat="45.85248" lon="4.82466">
        <ele>260</ele>
        <time>2012-12-09T10:37:32Z</time>
      </trkpt>
      <trkpt lat="45.85237" lon="4.8247">
        <ele>260</ele>
        <time>2012-12-09T10:37:37Z</time>
      </trkpt>
      <trkpt lat="45.85234" lon="4.82471">
        <ele>260</ele>
        <time>2012-12-09T10:37:38Z</time>
      </trkpt>
      <trkpt lat="45.85229" lon="4.82473">
        <ele>260</ele>
        <time>2012-12-09T10:37:41Z</time>
      </trkpt>
      <trkpt lat="45.85228" lon="4.82475">
        <ele>260</ele>
        <time>2012-12-09T10:37:43Z</time>
      </trkpt>
      <trkpt lat="45.85224" lon="4.82481">
        <ele>260</ele>
        <time>2012-12-09T10:37:48Z</time>
      </trkpt>
      <trkpt lat="45.85223" lon="4.82483">
        <ele>260</ele>
        <time>2012-12-09T10:37:49Z</time>
      </trkpt>
      <trkpt lat="45.85221" lon="4.82488">
        <ele>259</ele>
        <time>2012-12-09T10:37:52Z</time>
      </trkpt>
      <trkpt lat="45.85219" lon="4.8249">
        <ele>259</ele>
        <time>2012-12-09T10:37:54Z</time>
      </trkpt>
      <trkpt lat="45.85214" lon="4.82498">
        <ele>259</ele>
        <time>2012-12-09T10:38:00Z</time>
      </trkpt>
      <trkpt lat="45.85212" lon="4.82506">
        <ele>249</ele>
        <time>2012-12-09T10:38:05Z</time>
      </trkpt>
      <trkpt lat="45.85209" lon="4.8251">
        <ele>249</ele>
        <time>2012-12-09T10:38:07Z</time>
      </trkpt>
      <trkpt lat="45.85205" lon="4.82512">
        <ele>249</ele>
        <time>2012-12-09T10:38:10Z</time>
      </trkpt>
      <trkpt lat="45.85199" lon="4.82517">
        <ele>249</ele>
        <time>2012-12-09T10:38:15Z</time>
      </trkpt>
      <trkpt lat="45.85192" lon="4.82517">
        <ele>249</ele>
        <time>2012-12-09T10:38:20Z</time>
      </trkpt>
      <trkpt lat="45.85189" lon="4.82517">
        <ele>249</ele>
        <time>2012-12-09T10:38:22Z</time>
      </trkpt>
      <trkpt lat="45.85187" lon="4.82518">
        <ele>249</ele>
        <time>2012-12-09T10:38:24Z</time>
      </trkpt>
      <trkpt lat="45.85186" lon="4.82518">
        <ele>249</ele>
        <time>2012-12-09T10:38:27Z</time>
      </trkpt>
      <trkpt lat="45.8518" lon="4.8252">
        <ele>249</ele>
        <time>2012-12-09T10:38:41Z</time>
      </trkpt>
      <trkpt lat="45.85174" lon="4.8252">
        <ele>249</ele>
        <time>2012-12-09T10:38:47Z</time>
      </trkpt>
      <trkpt lat="45.85173" lon="4.82521">
        <ele>249</ele>
        <time>2012-12-09T10:38:48Z</time>
      </trkpt>
      <trkpt lat="45.85168" lon="4.82523">
        <ele>249</ele>
        <time>2012-12-09T10:38:53Z</time>
      </trkpt>
      <trkpt lat="45.85164" lon="4.82521">
        <ele>257</ele>
        <time>2012-12-09T10:38:56Z</time>
      </trkpt>
      <trkpt lat="45.85159" lon="4.8252">
        <ele>257</ele>
        <time>2012-12-09T10:39:00Z</time>
      </trkpt>
      <trkpt lat="45.85159" lon="4.82522">
        <ele>258</ele>
        <time>2012-12-09T10:39:01Z</time>
      </trkpt>
      <trkpt lat="45.85158" lon="4.82524">
        <ele>258</ele>
        <time>2012-12-09T10:39:02Z</time>
      </trkpt>
      <trkpt lat="45.85155" lon="4.82535">
        <ele>258</ele>
        <time>2012-12-09T10:39:09Z</time>
      </trkpt>
      <trkpt lat="45.85152" lon="4.82541">
        <ele>258</ele>
        <time>2012-12-09T10:39:13Z</time>
      </trkpt>
      <trkpt lat="45.85152" lon="4.82546">
        <ele>258</ele>
        <time>2012-12-09T10:39:15Z</time>
      </trkpt>
      <trkpt lat="45.85151" lon="4.82547">
        <ele>258</ele>
        <time>2012-12-09T10:39:16Z</time>
      </trkpt>
      <trkpt lat="45.85148" lon="4.82552">
        <ele>257</ele>
        <time>2012-12-09T10:39:19Z</time>
      </trkpt>
      <trkpt lat="45.85146" lon="4.82555">
        <ele>257</ele>
        <time>2012-12-09T10:39:21Z</time>
      </trkpt>
      <trkpt lat="45.85143" lon="4.82571">
        <ele>256</ele>
        <time>2012-12-09T10:39:27Z</time>
      </trkpt>
      <trkpt lat="45.85144" lon="4.82598">
        <ele>247</ele>
        <time>2012-12-09T10:39:34Z</time>
      </trkpt>
      <trkpt lat="45.85142" lon="4.8262">
        <ele>246</ele>
        <time>2012-12-09T10:39:40Z</time>
      </trkpt>
      <trkpt lat="45.8514" lon="4.82626">
        <ele>245</ele>
        <time>2012-12-09T10:39:42Z</time>
      </trkpt>
      <trkpt lat="45.85135" lon="4.82634">
        <ele>245</ele>
        <time>2012-12-09T10:39:45Z</time>
      </trkpt>
      <trkpt lat="45.85124" lon="4.8264">
        <ele>245</ele>
        <time>2012-12-09T10:39:51Z</time>
      </trkpt>
      <trkpt lat="45.85115" lon="4.82641">
        <ele>246</ele>
        <time>2012-12-09T10:39:56Z</time>
      </trkpt>
      <trkpt lat="45.8511" lon="4.82638">
        <ele>246</ele>
        <time>2012-12-09T10:40:01Z</time>
      </trkpt>
      <trkpt lat="45.85109" lon="4.82638">
        <ele>246</ele>
        <time>2012-12-09T10:40:02Z</time>
      </trkpt>
      <trkpt lat="45.85105" lon="4.82638">
        <ele>246</ele>
        <time>2012-12-09T10:40:05Z</time>
      </trkpt>
      <trkpt lat="45.85102" lon="4.82638">
        <ele>246</ele>
        <time>2012-12-09T10:40:08Z</time>
      </trkpt>
      <trkpt lat="45.851" lon="4.82638">
        <ele>246</ele>
        <time>2012-12-09T10:40:10Z</time>
      </trkpt>
      <trkpt lat="45.85093" lon="4.82636">
        <ele>246</ele>
        <time>2012-12-09T10:40:17Z</time>
      </trkpt>
      <trkpt lat="45.85088" lon="4.82633">
        <ele>247</ele>
        <time>2012-12-09T10:40:22Z</time>
      </trkpt>
      <trkpt lat="45.85085" lon="4.82632">
        <ele>247</ele>
        <time>2012-12-09T10:40:24Z</time>
      </trkpt>
      <trkpt lat="45.85078" lon="4.82632">
        <ele>251</ele>
        <time>2012-12-09T10:40:30Z</time>
      </trkpt>
      <trkpt lat="45.85071" lon="4.8263">
        <ele>252</ele>
        <time>2012-12-09T10:40:36Z</time>
      </trkpt>
      <trkpt lat="45.85069" lon="4.82629">
        <ele>252</ele>
        <time>2012-12-09T10:40:37Z</time>
      </trkpt>
      <trkpt lat="45.85068" lon="4.82629">
        <ele>252</ele>
        <time>2012-12-09T10:40:38Z</time>
      </trkpt>
      <trkpt lat="45.85056" lon="4.82625">
        <ele>253</ele>
        <time>2012-12-09T10:40:46Z</time>
      </trkpt>
      <trkpt lat="45.8505" lon="4.82623">
        <ele>253</ele>
        <time>2012-12-09T10:40:49Z</time>
      </trkpt>
      <trkpt lat="45.85045" lon="4.82622">
        <ele>253</ele>
        <time>2012-12-09T10:40:51Z</time>
      </trkpt>
      <trkpt lat="45.8503" lon="4.82619">
        <ele>254</ele>
        <time>2012-12-09T10:40:57Z</time>
      </trkpt>
      <trkpt lat="45.85015" lon="4.82614">
        <ele>256</ele>
        <time>2012-12-09T10:41:04Z</time>
      </trkpt>
      <trkpt lat="45.85011" lon="4.82614">
        <ele>256</ele>
        <time>2012-12-09T10:41:06Z</time>
      </trkpt>
      <trkpt lat="45.85006" lon="4.82618">
        <ele>255</ele>
        <time>2012-12-09T10:41:10Z</time>
      </trkpt>
      <trkpt lat="45.85005" lon="4.82616">
        <ele>256</ele>
        <time>2012-12-09T10:41:21Z</time>
      </trkpt>
      <trkpt lat="45.85006" lon="4.82615">
        <ele>256</ele>
        <time>2012-12-09T10:41:23Z</time>
      </trkpt>
      <trkpt lat="45.85004" lon="4.82613">
        <ele>257</ele>
        <time>2012-12-09T10:41:29Z</time>
      </trkpt>
      <trkpt lat="45.85003" lon="4.82609">
        <ele>258</ele>
        <time>2012-12-09T10:41:33Z</time>
      </trkpt>
      <trkpt lat="45.85002" lon="4.82606">
        <ele>259</ele>
        <time>2012-12-09T10:41:35Z</time>
      </trkpt>
      <trkpt lat="45.85002" lon="4.82604">
        <ele>259</ele>
        <time>2012-12-09T10:41:37Z</time>
      </trkpt>
      <trkpt lat="45.85002" lon="4.82603">
        <ele>259</ele>
        <time>2012-12-09T10:41:42Z</time>
      </trkpt>
      <trkpt lat="45.84998" lon="4.82592">
        <ele>264</ele>
        <time>2012-12-09T10:41:54Z</time>
      </trkpt>
      <trkpt lat="45.84994" lon="4.8259">
        <ele>264</ele>
        <time>2012-12-09T10:41:58Z</time>
      </trkpt>
      <trkpt lat="45.84994" lon="4.82588">
        <ele>265</ele>
        <time>2012-12-09T10:41:59Z</time>
      </trkpt>
      <trkpt lat="45.84994" lon="4.82585">
        <ele>265</ele>
        <time>2012-12-09T10:42:01Z</time>
      </trkpt>
      <trkpt lat="45.84995" lon="4.82582">
        <ele>271</ele>
        <time>2012-12-09T10:42:03Z</time>
      </trkpt>
      <trkpt lat="45.84995" lon="4.82581">
        <ele>271</ele>
        <time>2012-12-09T10:42:04Z</time>
      </trkpt>
      <trkpt lat="45.84994" lon="4.8257">
        <ele>274</ele>
        <time>2012-12-09T10:42:13Z</time>
      </trkpt>
      <trkpt lat="45.84995" lon="4.82566">
        <ele>275</ele>
        <time>2012-12-09T10:42:16Z</time>
      </trkpt>
      <trkpt lat="45.84998" lon="4.82562">
        <ele>276</ele>
        <time>2012-12-09T10:42:21Z</time>
      </trkpt>
      <trkpt lat="45.84998" lon="4.82561">
        <ele>276</ele>
        <time>2012-12-09T10:42:22Z</time>
      </trkpt>
      <trkpt lat="45.85" lon="4.82556">
        <ele>277</ele>
        <time>2012-12-09T10:42:28Z</time>
      </trkpt>
      <trkpt lat="45.85" lon="4.82556">
        <ele>277</ele>
        <time>2012-12-09T10:42:31Z</time>
      </trkpt>
      <trkpt lat="45.85001" lon="4.82551">
        <ele>277</ele>
        <time>2012-12-09T10:42:36Z</time>
      </trkpt>
      <trkpt lat="45.85003" lon="4.8254">
        <ele>280</ele>
        <time>2012-12-09T10:42:44Z</time>
      </trkpt>
      <trkpt lat="45.85003" lon="4.82534">
        <ele>282</ele>
        <time>2012-12-09T10:42:50Z</time>
      </trkpt>
      <trkpt lat="45.85004" lon="4.82531">
        <ele>282</ele>
        <time>2012-12-09T10:42:53Z</time>
      </trkpt>
      <trkpt lat="45.85002" lon="4.82524">
        <ele>284</ele>
        <time>2012-12-09T10:43:01Z</time>
      </trkpt>
      <trkpt lat="45.85005" lon="4.82519">
        <ele>286</ele>
        <time>2012-12-09T10:43:06Z</time>
      </trkpt>
      <trkpt lat="45.85005" lon="4.82518">
        <ele>286</ele>
        <time>2012-12-09T10:43:08Z</time>
      </trkpt>
      <trkpt lat="45.85005" lon="4.82514">
        <ele>287</ele>
        <time>2012-12-09T10:43:13Z</time>
      </trkpt>
      <trkpt lat="45.85009" lon="4.82512">
        <ele>288</ele>
        <time>2012-12-09T10:43:23Z</time>
      </trkpt>
      <trkpt lat="45.85009" lon="4.82509">
        <ele>288</ele>
        <time>2012-12-09T10:43:26Z</time>
      </trkpt>
      <trkpt lat="45.8501" lon="4.82506">
        <ele>289</ele>
        <time>2012-12-09T10:43:29Z</time>
      </trkpt>
      <trkpt lat="45.85011" lon="4.82503">
        <ele>289</ele>
        <time>2012-12-09T10:43:34Z</time>
      </trkpt>
      <trkpt lat="45.8501" lon="4.82498">
        <ele>298</ele>
        <time>2012-12-09T10:43:38Z</time>
      </trkpt>
      <trkpt lat="45.8501" lon="4.82494">
        <ele>298</ele>
        <time>2012-12-09T10:43:42Z</time>
      </trkpt>
      <trkpt lat="45.85008" lon="4.82489">
        <ele>299</ele>
        <time>2012-12-09T10:43:50Z</time>
      </trkpt>
      <trkpt lat="45.85005" lon="4.82484">
        <ele>300</ele>
        <time>2012-12-09T10:43:57Z</time>
      </trkpt>
      <trkpt lat="45.85005" lon="4.82483">
        <ele>300</ele>
        <time>2012-12-09T10:43:58Z</time>
      </trkpt>
      <trkpt lat="45.85005" lon="4.82482">
        <ele>300</ele>
        <time>2012-12-09T10:43:59Z</time>
      </trkpt>
      <trkpt lat="45.85004" lon="4.82479">
        <ele>301</ele>
        <time>2012-12-09T10:44:02Z</time>
      </trkpt>
      <trkpt lat="45.85003" lon="4.82477">
        <ele>301</ele>
        <time>2012-12-09T10:44:04Z</time>
      </trkpt>
      <trkpt lat="45.85002" lon="4.82471">
        <ele>302</ele>
        <time>2012-12-09T10:44:10Z</time>
      </trkpt>
      <trkpt lat="45.85002" lon="4.82464">
        <ele>304</ele>
        <time>2012-12-09T10:44:16Z</time>
      </trkpt>
      <trkpt lat="45.85001" lon="4.82461">
        <ele>304</ele>
        <time>2012-12-09T10:44:19Z</time>
      </trkpt>
      <trkpt lat="45.85" lon="4.8246">
        <ele>303</ele>
        <time>2012-12-09T10:44:22Z</time>
      </trkpt>
      <trkpt lat="45.84997" lon="4.82459">
        <ele>303</ele>
        <time>2012-12-09T10:44:25Z</time>
      </trkpt>
      <trkpt lat="45.84995" lon="4.82457">
        <ele>303</ele>
        <time>2012-12-09T10:44:29Z</time>
      </trkpt>
      <trkpt lat="45.84991" lon="4.8245">
        <ele>305</ele>
        <time>2012-12-09T10:44:35Z</time>
      </trkpt>
      <trkpt lat="45.8499" lon="4.82447">
        <ele>305</ele>
        <time>2012-12-09T10:44:43Z</time>
      </trkpt>
      <trkpt lat="45.84985" lon="4.82447">
        <ele>305</ele>
        <time>2012-12-09T10:45:04Z</time>
      </trkpt>
      <trkpt lat="45.84983" lon="4.8245">
        <ele>304</ele>
        <time>2012-12-09T10:45:08Z</time>
      </trkpt>
      <trkpt lat="45.84984" lon="4.82449">
        <ele>304</ele>
        <time>2012-12-09T10:45:15Z</time>
      </trkpt>
      <trkpt lat="45.84986" lon="4.82447">
        <ele>305</ele>
        <time>2012-12-09T10:45:26Z</time>
      </trkpt>
      <trkpt lat="45.84985" lon="4.82445">
        <ele>305</ele>
        <time>2012-12-09T10:45:32Z</time>
      </trkpt>
      <trkpt lat="45.84981" lon="4.8244">
        <ele>306</ele>
        <time>2012-12-09T10:46:12Z</time>
      </trkpt>
      <trkpt lat="45.84974" lon="4.82443">
        <ele>305</ele>
        <time>2012-12-09T10:46:16Z</time>
      </trkpt>
      <trkpt lat="45.8497" lon="4.82444">
        <ele>304</ele>
        <time>2012-12-09T10:46:18Z</time>
      </trkpt>
      <trkpt lat="45.84957" lon="4.82454">
        <ele>302</ele>
        <time>2012-12-09T10:46:23Z</time>
      </trkpt>
      <trkpt lat="45.84955" lon="4.82456">
        <ele>302</ele>
        <time>2012-12-09T10:46:24Z</time>
      </trkpt>
      <trkpt lat="45.84942" lon="4.82462">
        <ele>301</ele>
        <time>2012-12-09T10:46:30Z</time>
      </trkpt>
      <trkpt lat="45.8494" lon="4.82463">
        <ele>300</ele>
        <time>2012-12-09T10:46:31Z</time>
      </trkpt>
      <trkpt lat="45.84931" lon="4.82466">
        <ele>299</ele>
        <time>2012-12-09T10:46:35Z</time>
      </trkpt>
      <trkpt lat="45.84921" lon="4.8247">
        <ele>298</ele>
        <time>2012-12-09T10:46:39Z</time>
      </trkpt>
      <trkpt lat="45.84916" lon="4.82472">
        <ele>293</ele>
        <time>2012-12-09T10:46:41Z</time>
      </trkpt>
      <trkpt lat="45.84907" lon="4.82474">
        <ele>293</ele>
        <time>2012-12-09T10:46:45Z</time>
      </trkpt>
      <trkpt lat="45.84903" lon="4.82475">
        <ele>293</ele>
        <time>2012-12-09T10:46:47Z</time>
      </trkpt>
      <trkpt lat="45.84896" lon="4.82478">
        <ele>293</ele>
        <time>2012-12-09T10:46:50Z</time>
      </trkpt>
      <trkpt lat="45.84884" lon="4.8248">
        <ele>292</ele>
        <time>2012-12-09T10:46:56Z</time>
      </trkpt>
      <trkpt lat="45.84869" lon="4.82482">
        <ele>291</ele>
        <time>2012-12-09T10:47:02Z</time>
      </trkpt>
      <trkpt lat="45.84864" lon="4.82482">
        <ele>291</ele>
        <time>2012-12-09T10:47:04Z</time>
      </trkpt>
      <trkpt lat="45.84857" lon="4.82483">
        <ele>290</ele>
        <time>2012-12-09T10:47:08Z</time>
      </trkpt>
      <trkpt lat="45.84845" lon="4.82483">
        <ele>288</ele>
        <time>2012-12-09T10:47:13Z</time>
      </trkpt>
      <trkpt lat="45.84843" lon="4.82483">
        <ele>288</ele>
        <time>2012-12-09T10:47:14Z</time>
      </trkpt>
      <trkpt lat="45.84835" lon="4.82485">
        <ele>287</ele>
        <time>2012-12-09T10:47:17Z</time>
      </trkpt>
      <trkpt lat="45.84825" lon="4.82486">
        <ele>280</ele>
        <time>2012-12-09T10:47:21Z</time>
      </trkpt>
      <trkpt lat="45.84822" lon="4.82486">
        <ele>280</ele>
        <time>2012-12-09T10:47:22Z</time>
      </trkpt>
      <trkpt lat="45.84814" lon="4.82489">
        <ele>279</ele>
        <time>2012-12-09T10:47:26Z</time>
      </trkpt>
      <trkpt lat="45.84813" lon="4.82489">
        <ele>279</ele>
        <time>2012-12-09T10:47:27Z</time>
      </trkpt>
      <trkpt lat="45.84807" lon="4.8249">
        <ele>278</ele>
        <time>2012-12-09T10:47:32Z</time>
      </trkpt>
      <trkpt lat="45.84797" lon="4.82491">
        <ele>277</ele>
        <time>2012-12-09T10:47:37Z</time>
      </trkpt>
      <trkpt lat="45.84787" lon="4.82494">
        <ele>275</ele>
        <time>2012-12-09T10:47:41Z</time>
      </trkpt>
      <trkpt lat="45.84777" lon="4.82498">
        <ele>273</ele>
        <time>2012-12-09T10:47:45Z</time>
      </trkpt>
      <trkpt lat="45.84775" lon="4.82499">
        <ele>272</ele>
        <time>2012-12-09T10:47:46Z</time>
      </trkpt>
      <trkpt lat="45.84767" lon="4.82501">
        <ele>263</ele>
        <time>2012-12-09T10:47:49Z</time>
      </trkpt>
      <trkpt lat="45.84762" lon="4.82502">
        <ele>263</ele>
        <time>2012-12-09T10:47:51Z</time>
      </trkpt>
      <trkpt lat="45.84751" lon="4.82507">
        <ele>262</ele>
        <time>2012-12-09T10:47:56Z</time>
      </trkpt>
      <trkpt lat="45.84749" lon="4.82507">
        <ele>258</ele>
        <time>2012-12-09T10:47:57Z</time>
      </trkpt>
      <trkpt lat="45.84741" lon="4.82508">
        <ele>256</ele>
        <time>2012-12-09T10:48:01Z</time>
      </trkpt>
      <trkpt lat="45.84731" lon="4.82512">
        <ele>253</ele>
        <time>2012-12-09T10:48:06Z</time>
      </trkpt>
      <trkpt lat="45.84722" lon="4.82513">
        <ele>250</ele>
        <time>2012-12-09T10:48:11Z</time>
      </trkpt>
      <trkpt lat="45.84721" lon="4.82514">
        <ele>250</ele>
        <time>2012-12-09T10:48:12Z</time>
      </trkpt>
      <trkpt lat="45.84717" lon="4.82518">
        <ele>249</ele>
        <time>2012-12-09T10:48:16Z</time>
      </trkpt>
      <trkpt lat="45.84715" lon="4.82521">
        <ele>248</ele>
        <time>2012-12-09T10:48:18Z</time>
      </trkpt>
      <trkpt lat="45.8471" lon="4.82527">
        <ele>247</ele>
        <time>2012-12-09T10:48:22Z</time>
      </trkpt>
      <trkpt lat="45.84704" lon="4.8254">
        <ele>246</ele>
        <time>2012-12-09T10:48:28Z</time>
      </trkpt>
      <trkpt lat="45.84704" lon="4.82543">
        <ele>246</ele>
        <time>2012-12-09T10:48:29Z</time>
      </trkpt>
      <trkpt lat="45.84703" lon="4.82545">
        <ele>245</ele>
        <time>2012-12-09T10:48:30Z</time>
      </trkpt>
      <trkpt lat="45.84699" lon="4.82547">
        <ele>245</ele>
        <time>2012-12-09T10:48:32Z</time>
      </trkpt>
      <trkpt lat="45.84693" lon="4.82547">
        <ele>244</ele>
        <time>2012-12-09T10:48:35Z</time>
      </trkpt>
      <trkpt lat="45.84689" lon="4.82547">
        <ele>244</ele>
        <time>2012-12-09T10:48:37Z</time>
      </trkpt>
      <trkpt lat="45.84686" lon="4.82546">
        <ele>244</ele>
        <time>2012-12-09T10:48:38Z</time>
      </trkpt>
      <trkpt lat="45.84676" lon="4.82549">
        <ele>243</ele>
        <time>2012-12-09T10:48:43Z</time>
      </trkpt>
      <trkpt lat="45.84668" lon="4.82545">
        <ele>243</ele>
        <time>2012-12-09T10:48:47Z</time>
      </trkpt>
      <trkpt lat="45.84666" lon="4.82543">
        <ele>233</ele>
        <time>2012-12-09T10:48:48Z</time>
      </trkpt>
      <trkpt lat="45.84653" lon="4.82542">
        <ele>232</ele>
        <time>2012-12-09T10:48:55Z</time>
      </trkpt>
      <trkpt lat="45.84649" lon="4.82543">
        <ele>232</ele>
        <time>2012-12-09T10:48:57Z</time>
      </trkpt>
      <trkpt lat="45.84643" lon="4.82541">
        <ele>231</ele>
        <time>2012-12-09T10:49:01Z</time>
      </trkpt>
      <trkpt lat="45.84637" lon="4.82548">
        <ele>231</ele>
        <time>2012-12-09T10:49:06Z</time>
      </trkpt>
      <trkpt lat="45.84636" lon="4.82549">
        <ele>231</ele>
        <time>2012-12-09T10:49:07Z</time>
      </trkpt>
      <trkpt lat="45.84635" lon="4.82551">
        <ele>230</ele>
        <time>2012-12-09T10:49:08Z</time>
      </trkpt>
      <trkpt lat="45.84635" lon="4.82554">
        <ele>230</ele>
        <time>2012-12-09T10:49:09Z</time>
      </trkpt>
      <trkpt lat="45.84634" lon="4.82559">
        <ele>230</ele>
        <time>2012-12-09T10:49:11Z</time>
      </trkpt>
      <trkpt lat="45.84627" lon="4.8257">
        <ele>229</ele>
        <time>2012-12-09T10:49:16Z</time>
      </trkpt>
      <trkpt lat="45.84622" lon="4.82571">
        <ele>229</ele>
        <time>2012-12-09T10:49:18Z</time>
      </trkpt>
      <trkpt lat="45.84613" lon="4.8257">
        <ele>228</ele>
        <time>2012-12-09T10:49:22Z</time>
      </trkpt>
      <trkpt lat="45.84604" lon="4.8257">
        <ele>226</ele>
        <time>2012-12-09T10:49:26Z</time>
      </trkpt>
      <trkpt lat="45.84599" lon="4.82569">
        <ele>226</ele>
        <time>2012-12-09T10:49:28Z</time>
      </trkpt>
      <trkpt lat="45.84587" lon="4.82569">
        <ele>224</ele>
        <time>2012-12-09T10:49:33Z</time>
      </trkpt>
      <trkpt lat="45.84584" lon="4.8257">
        <ele>224</ele>
        <time>2012-12-09T10:49:34Z</time>
      </trkpt>
      <trkpt lat="45.84572" lon="4.82574">
        <ele>218</ele>
        <time>2012-12-09T10:49:39Z</time>
      </trkpt>
      <trkpt lat="45.84566" lon="4.82573">
        <ele>218</ele>
        <time>2012-12-09T10:49:41Z</time>
      </trkpt>
      <trkpt lat="45.84559" lon="4.82572">
        <ele>217</ele>
        <time>2012-12-09T10:49:44Z</time>
      </trkpt>
      <trkpt lat="45.8455" lon="4.82575">
        <ele>216</ele>
        <time>2012-12-09T10:49:48Z</time>
      </trkpt>
      <trkpt lat="45.84546" lon="4.82574">
        <ele>216</ele>
        <time>2012-12-09T10:49:50Z</time>
      </trkpt>
      <trkpt lat="45.84541" lon="4.82574">
        <ele>215</ele>
        <time>2012-12-09T10:49:53Z</time>
      </trkpt>
      <trkpt lat="45.84526" lon="4.82571">
        <ele>214</ele>
        <time>2012-12-09T10:49:59Z</time>
      </trkpt>
      <trkpt lat="45.84516" lon="4.82568">
        <ele>213</ele>
        <time>2012-12-09T10:50:04Z</time>
      </trkpt>
      <trkpt lat="45.84514" lon="4.82567">
        <ele>213</ele>
        <time>2012-12-09T10:50:05Z</time>
      </trkpt>
      <trkpt lat="45.84513" lon="4.8256">
        <ele>213</ele>
        <time>2012-12-09T10:50:08Z</time>
      </trkpt>
      <trkpt lat="45.84514" lon="4.82558">
        <ele>213</ele>
        <time>2012-12-09T10:50:10Z</time>
      </trkpt>
      <trkpt lat="45.84515" lon="4.82553">
        <ele>214</ele>
        <time>2012-12-09T10:50:13Z</time>
      </trkpt>
      <trkpt lat="45.84515" lon="4.82551">
        <ele>214</ele>
        <time>2012-12-09T10:50:14Z</time>
      </trkpt>
      <trkpt lat="45.84518" lon="4.82547">
        <ele>215</ele>
        <time>2012-12-09T10:50:17Z</time>
      </trkpt>
      <trkpt lat="45.8452" lon="4.82543">
        <ele>215</ele>
        <time>2012-12-09T10:50:20Z</time>
      </trkpt>
      <trkpt lat="45.84516" lon="4.82536">
        <ele>215</ele>
        <time>2012-12-09T10:50:24Z</time>
      </trkpt>
      <trkpt lat="45.84518" lon="4.82533">
        <ele>215</ele>
        <time>2012-12-09T10:50:26Z</time>
      </trkpt>
      <trkpt lat="45.84519" lon="4.82532">
        <ele>215</ele>
        <time>2012-12-09T10:50:27Z</time>
      </trkpt>
      <trkpt lat="45.84519" lon="4.82531">
        <ele>215</ele>
        <time>2012-12-09T10:50:28Z</time>
      </trkpt>
      <trkpt lat="45.84519" lon="4.82529">
        <ele>215</ele>
        <time>2012-12-09T10:50:30Z</time>
      </trkpt>
      <trkpt lat="45.84518" lon="4.82528">
        <ele>215</ele>
        <time>2012-12-09T10:50:31Z</time>
      </trkpt>
      <trkpt lat="45.84516" lon="4.82522">
        <ele>215</ele>
        <time>2012-12-09T10:50:34Z</time>
      </trkpt>
      <trkpt lat="45.84515" lon="4.82515">
        <ele>215</ele>
        <time>2012-12-09T10:50:38Z</time>
      </trkpt>
      <trkpt lat="45.84517" lon="4.82512">
        <ele>215</ele>
        <time>2012-12-09T10:50:40Z</time>
      </trkpt>
      <trkpt lat="45.84519" lon="4.82508">
        <ele>215</ele>
        <time>2012-12-09T10:50:44Z</time>
      </trkpt>
      <trkpt lat="45.8452" lon="4.82506">
        <ele>215</ele>
        <time>2012-12-09T10:50:45Z</time>
      </trkpt>
      <trkpt lat="45.84519" lon="4.82504">
        <ele>215</ele>
        <time>2012-12-09T10:50:46Z</time>
      </trkpt>
      <trkpt lat="45.8452" lon="4.82499">
        <ele>218</ele>
        <time>2012-12-09T10:50:51Z</time>
      </trkpt>
      <trkpt lat="45.84522" lon="4.82494">
        <ele>219</ele>
        <time>2012-12-09T10:50:55Z</time>
      </trkpt>
      <trkpt lat="45.84522" lon="4.82492">
        <ele>219</ele>
        <time>2012-12-09T10:50:57Z</time>
      </trkpt>
      <trkpt lat="45.84523" lon="4.82491">
        <ele>219</ele>
        <time>2012-12-09T10:50:58Z</time>
      </trkpt>
      <trkpt lat="45.84527" lon="4.82488">
        <ele>220</ele>
        <time>2012-12-09T10:51:03Z</time>
      </trkpt>
      <trkpt lat="45.84529" lon="4.82486">
        <ele>220</ele>
        <time>2012-12-09T10:51:06Z</time>
      </trkpt>
      <trkpt lat="45.84532" lon="4.82482">
        <ele>221</ele>
        <time>2012-12-09T10:51:11Z</time>
      </trkpt>
      <trkpt lat="45.84534" lon="4.82478">
        <ele>221</ele>
        <time>2012-12-09T10:51:14Z</time>
      </trkpt>
      <trkpt lat="45.84536" lon="4.82474">
        <ele>222</ele>
        <time>2012-12-09T10:51:18Z</time>
      </trkpt>
      <trkpt lat="45.84537" lon="4.82472">
        <ele>222</ele>
        <time>2012-12-09T10:51:19Z</time>
      </trkpt>
      <trkpt lat="45.84539" lon="4.82464">
        <ele>222</ele>
        <time>2012-12-09T10:51:26Z</time>
      </trkpt>
      <trkpt lat="45.84539" lon="4.82463">
        <ele>222</ele>
        <time>2012-12-09T10:51:27Z</time>
      </trkpt>
      <trkpt lat="45.84538" lon="4.82456">
        <ele>223</ele>
        <time>2012-12-09T10:51:32Z</time>
      </trkpt>
      <trkpt lat="45.84542" lon="4.82449">
        <ele>223</ele>
        <time>2012-12-09T10:51:39Z</time>
      </trkpt>
      <trkpt lat="45.84544" lon="4.82446">
        <ele>224</ele>
        <time>2012-12-09T10:51:42Z</time>
      </trkpt>
      <trkpt lat="45.84544" lon="4.82439">
        <ele>224</ele>
        <time>2012-12-09T10:51:46Z</time>
      </trkpt>
      <trkpt lat="45.84546" lon="4.82438">
        <ele>224</ele>
        <time>2012-12-09T10:51:48Z</time>
      </trkpt>
      <trkpt lat="45.84549" lon="4.82437">
        <ele>225</ele>
        <time>2012-12-09T10:51:52Z</time>
      </trkpt>
      <trkpt lat="45.8455" lon="4.82434">
        <ele>225</ele>
        <time>2012-12-09T10:51:54Z</time>
      </trkpt>
      <trkpt lat="45.84551" lon="4.82432">
        <ele>225</ele>
        <time>2012-12-09T10:51:56Z</time>
      </trkpt>
      <trkpt lat="45.84553" lon="4.8243">
        <ele>225</ele>
        <time>2012-12-09T10:51:59Z</time>
      </trkpt>
      <trkpt lat="45.84555" lon="4.82426">
        <ele>226</ele>
        <time>2012-12-09T10:52:03Z</time>
      </trkpt>
      <trkpt lat="45.84556" lon="4.82425">
        <ele>226</ele>
        <time>2012-12-09T10:52:05Z</time>
      </trkpt>
      <trkpt lat="45.84558" lon="4.82422">
        <ele>227</ele>
        <time>2012-12-09T10:52:08Z</time>
      </trkpt>
      <trkpt lat="45.84559" lon="4.82422">
        <ele>227</ele>
        <time>2012-12-09T10:52:09Z</time>
      </trkpt>
      <trkpt lat="45.84562" lon="4.82419">
        <ele>228</ele>
        <time>2012-12-09T10:52:14Z</time>
      </trkpt>
      <trkpt lat="45.84563" lon="4.82417">
        <ele>228</ele>
        <time>2012-12-09T10:52:15Z</time>
      </trkpt>
      <trkpt lat="45.84566" lon="4.82413">
        <ele>232</ele>
        <time>2012-12-09T10:52:19Z</time>
      </trkpt>
      <trkpt lat="45.8457" lon="4.82408">
        <ele>232</ele>
        <time>2012-12-09T10:52:25Z</time>
      </trkpt>
      <trkpt lat="45.84573" lon="4.82404">
        <ele>232</ele>
        <time>2012-12-09T10:52:29Z</time>
      </trkpt>
      <trkpt lat="45.84575" lon="4.824">
        <ele>232</ele>
        <time>2012-12-09T10:52:33Z</time>
      </trkpt>
      <trkpt lat="45.84579" lon="4.82395">
        <ele>232</ele>
        <time>2012-12-09T10:52:38Z</time>
      </trkpt>
      <trkpt lat="45.84579" lon="4.82395">
        <ele>232</ele>
        <time>2012-12-09T10:52:39Z</time>
      </trkpt>
      <trkpt lat="45.84581" lon="4.82393">
        <ele>233</ele>
        <time>2012-12-09T10:52:42Z</time>
      </trkpt>
      <trkpt lat="45.84585" lon="4.82389">
        <ele>242</ele>
        <time>2012-12-09T10:52:47Z</time>
      </trkpt>
      <trkpt lat="45.84585" lon="4.8239">
        <ele>242</ele>
        <time>2012-12-09T10:52:55Z</time>
      </trkpt>
      <trkpt lat="45.84586" lon="4.82391">
        <ele>242</ele>
        <time>2012-12-09T10:53:02Z</time>
      </trkpt>
      <trkpt lat="45.84588" lon="4.82387">
        <ele>242</ele>
        <time>2012-12-09T10:53:06Z</time>
      </trkpt>
      <trkpt lat="45.84589" lon="4.82386">
        <ele>242</ele>
        <time>2012-12-09T10:53:07Z</time>
      </trkpt>
      <trkpt lat="45.8459" lon="4.82381">
        <ele>243</ele>
        <time>2012-12-09T10:53:12Z</time>
      </trkpt>
      <trkpt lat="45.84591" lon="4.82379">
        <ele>243</ele>
        <time>2012-12-09T10:53:14Z</time>
      </trkpt>
      <trkpt lat="45.84592" lon="4.82377">
        <ele>243</ele>
        <time>2012-12-09T10:53:16Z</time>
      </trkpt>
      <trkpt lat="45.84595" lon="4.82369">
        <ele>244</ele>
        <time>2012-12-09T10:53:22Z</time>
      </trkpt>
      <trkpt lat="45.84596" lon="4.82367">
        <ele>244</ele>
        <time>2012-12-09T10:53:24Z</time>
      </trkpt>
      <trkpt lat="45.84599" lon="4.8236">
        <ele>245</ele>
        <time>2012-12-09T10:53:30Z</time>
      </trkpt>
      <trkpt lat="45.84601" lon="4.82348">
        <ele>245</ele>
        <time>2012-12-09T10:53:40Z</time>
      </trkpt>
      <trkpt lat="45.84601" lon="4.82346">
        <ele>245</ele>
        <time>2012-12-09T10:53:42Z</time>
      </trkpt>
      <trkpt lat="45.84603" lon="4.82342">
        <ele>245</ele>
        <time>2012-12-09T10:53:46Z</time>
      </trkpt>
      <trkpt lat="45.84603" lon="4.8234">
        <ele>245</ele>
        <time>2012-12-09T10:53:48Z</time>
      </trkpt>
      <trkpt lat="45.84605" lon="4.82326">
        <ele>250</ele>
        <time>2012-12-09T10:53:58Z</time>
      </trkpt>
      <trkpt lat="45.84604" lon="4.82316">
        <ele>250</ele>
        <time>2012-12-09T10:54:04Z</time>
      </trkpt>
      <trkpt lat="45.84604" lon="4.82314">
        <ele>251</ele>
        <time>2012-12-09T10:54:05Z</time>
      </trkpt>
      <trkpt lat="45.84604" lon="4.82311">
        <ele>251</ele>
        <time>2012-12-09T10:54:07Z</time>
      </trkpt>
      <trkpt lat="45.84606" lon="4.82307">
        <ele>251</ele>
        <time>2012-12-09T10:54:10Z</time>
      </trkpt>
      <trkpt lat="45.84608" lon="4.82298">
        <ele>252</ele>
        <time>2012-12-09T10:54:16Z</time>
      </trkpt>
      <trkpt lat="45.8461" lon="4.82296">
        <ele>252</ele>
        <time>2012-12-09T10:54:18Z</time>
      </trkpt>
      <trkpt lat="45.84612" lon="4.82293">
        <ele>253</ele>
        <time>2012-12-09T10:54:21Z</time>
      </trkpt>
      <trkpt lat="45.84616" lon="4.82287">
        <ele>253</ele>
        <time>2012-12-09T10:54:26Z</time>
      </trkpt>
      <trkpt lat="45.84623" lon="4.82279">
        <ele>254</ele>
        <time>2012-12-09T10:54:35Z</time>
      </trkpt>
      <trkpt lat="45.84624" lon="4.82274">
        <ele>254</ele>
        <time>2012-12-09T10:54:39Z</time>
      </trkpt>
      <trkpt lat="45.84626" lon="4.82269">
        <ele>255</ele>
        <time>2012-12-09T10:54:42Z</time>
      </trkpt>
      <trkpt lat="45.84626" lon="4.82268">
        <ele>255</ele>
        <time>2012-12-09T10:54:43Z</time>
      </trkpt>
      <trkpt lat="45.8463" lon="4.82257">
        <ele>256</ele>
        <time>2012-12-09T10:54:51Z</time>
      </trkpt>
      <trkpt lat="45.84633" lon="4.8225">
        <ele>256</ele>
        <time>2012-12-09T10:54:56Z</time>
      </trkpt>
      <trkpt lat="45.84634" lon="4.82245">
        <ele>261</ele>
        <time>2012-12-09T10:54:59Z</time>
      </trkpt>
      <trkpt lat="45.84637" lon="4.82235">
        <ele>261</ele>
        <time>2012-12-09T10:55:06Z</time>
      </trkpt>
      <trkpt lat="45.84638" lon="4.82233">
        <ele>261</ele>
        <time>2012-12-09T10:55:07Z</time>
      </trkpt>
      <trkpt lat="45.8464" lon="4.82226">
        <ele>262</ele>
        <time>2012-12-09T10:55:11Z</time>
      </trkpt>
      <trkpt lat="45.84643" lon="4.82223">
        <ele>262</ele>
        <time>2012-12-09T10:55:14Z</time>
      </trkpt>
      <trkpt lat="45.84646" lon="4.82216">
        <ele>263</ele>
        <time>2012-12-09T10:55:20Z</time>
      </trkpt>
      <trkpt lat="45.84647" lon="4.82215">
        <ele>263</ele>
        <time>2012-12-09T10:55:21Z</time>
      </trkpt>
      <trkpt lat="45.84649" lon="4.82207">
        <ele>263</ele>
        <time>2012-12-09T10:55:26Z</time>
      </trkpt>
      <trkpt lat="45.84651" lon="4.82204">
        <ele>264</ele>
        <time>2012-12-09T10:55:28Z</time>
      </trkpt>
      <trkpt lat="45.84655" lon="4.82198">
        <ele>265</ele>
        <time>2012-12-09T10:55:33Z</time>
      </trkpt>
      <trkpt lat="45.84657" lon="4.82194">
        <ele>265</ele>
        <time>2012-12-09T10:55:36Z</time>
      </trkpt>
      <trkpt lat="45.84658" lon="4.8219">
        <ele>266</ele>
        <time>2012-12-09T10:55:39Z</time>
      </trkpt>
      <trkpt lat="45.84659" lon="4.82187">
        <ele>267</ele>
        <time>2012-12-09T10:55:41Z</time>
      </trkpt>
      <trkpt lat="45.84662" lon="4.82183">
        <ele>268</ele>
        <time>2012-12-09T10:55:44Z</time>
      </trkpt>
      <trkpt lat="45.84664" lon="4.82183">
        <ele>268</ele>
        <time>2012-12-09T10:55:45Z</time>
      </trkpt>
      <trkpt lat="45.8467" lon="4.82176">
        <ele>277</ele>
        <time>2012-12-09T10:55:51Z</time>
      </trkpt>
      <trkpt lat="45.84672" lon="4.82173">
        <ele>276</ele>
        <time>2012-12-09T10:55:53Z</time>
      </trkpt>
      <trkpt lat="45.84677" lon="4.82168">
        <ele>277</ele>
        <time>2012-12-09T10:55:58Z</time>
      </trkpt>
      <trkpt lat="45.84677" lon="4.82167">
        <ele>277</ele>
        <time>2012-12-09T10:55:59Z</time>
      </trkpt>
      <trkpt lat="45.84683" lon="4.82162">
        <ele>282</ele>
        <time>2012-12-09T10:56:04Z</time>
      </trkpt>
      <trkpt lat="45.84685" lon="4.82161">
        <ele>282</ele>
        <time>2012-12-09T10:56:06Z</time>
      </trkpt>
      <trkpt lat="45.84687" lon="4.82159">
        <ele>283</ele>
        <time>2012-12-09T10:56:08Z</time>
      </trkpt>
      <trkpt lat="45.84692" lon="4.82156">
        <ele>285</ele>
        <time>2012-12-09T10:56:13Z</time>
      </trkpt>
      <trkpt lat="45.84693" lon="4.82154">
        <ele>285</ele>
        <time>2012-12-09T10:56:14Z</time>
      </trkpt>
      <trkpt lat="45.84697" lon="4.82147">
        <ele>286</ele>
        <time>2012-12-09T10:56:20Z</time>
      </trkpt>
      <trkpt lat="45.84697" lon="4.82145">
        <ele>286</ele>
        <time>2012-12-09T10:56:21Z</time>
      </trkpt>
      <trkpt lat="45.84699" lon="4.8214">
        <ele>287</ele>
        <time>2012-12-09T10:56:25Z</time>
      </trkpt>
      <trkpt lat="45.84697" lon="4.82131">
        <ele>287</ele>
        <time>2012-12-09T10:56:31Z</time>
      </trkpt>
      <trkpt lat="45.84689" lon="4.82126">
        <ele>287</ele>
        <time>2012-12-09T10:56:36Z</time>
      </trkpt>
      <trkpt lat="45.84683" lon="4.82124">
        <ele>287</ele>
        <time>2012-12-09T10:56:42Z</time>
      </trkpt>
      <trkpt lat="45.84683" lon="4.82124">
        <ele>287</ele>
        <time>2012-12-09T10:56:43Z</time>
      </trkpt>
      <trkpt lat="45.84681" lon="4.82123">
        <ele>287</ele>
        <time>2012-12-09T10:57:13Z</time>
      </trkpt>
      <trkpt lat="45.84685" lon="4.8212">
        <ele>287</ele>
        <time>2012-12-09T10:57:17Z</time>
      </trkpt>
      <trkpt lat="45.84694" lon="4.82118">
        <ele>288</ele>
        <time>2012-12-09T10:57:24Z</time>
      </trkpt>
      <trkpt lat="45.84696" lon="4.82117">
        <ele>288</ele>
        <time>2012-12-09T10:57:26Z</time>
      </trkpt>
      <trkpt lat="45.84699" lon="4.82116">
        <ele>288</ele>
        <time>2012-12-09T10:57:28Z</time>
      </trkpt>
      <trkpt lat="45.847" lon="4.82116">
        <ele>289</ele>
        <time>2012-12-09T10:57:29Z</time>
      </trkpt>
      <trkpt lat="45.84705" lon="4.82109">
        <ele>289</ele>
        <time>2012-12-09T10:57:35Z</time>
      </trkpt>
      <trkpt lat="45.8471" lon="4.82098">
        <ele>290</ele>
        <time>2012-12-09T10:57:42Z</time>
      </trkpt>
      <trkpt lat="45.8471" lon="4.82096">
        <ele>290</ele>
        <time>2012-12-09T10:57:43Z</time>
      </trkpt>
      <trkpt lat="45.84714" lon="4.82086">
        <ele>291</ele>
        <time>2012-12-09T10:57:49Z</time>
      </trkpt>
      <trkpt lat="45.84717" lon="4.82075">
        <ele>298</ele>
        <time>2012-12-09T10:57:56Z</time>
      </trkpt>
      <trkpt lat="45.84718" lon="4.82073">
        <ele>298</ele>
        <time>2012-12-09T10:57:58Z</time>
      </trkpt>
      <trkpt lat="45.84721" lon="4.82068">
        <ele>298</ele>
        <time>2012-12-09T10:58:02Z</time>
      </trkpt>
      <trkpt lat="45.84722" lon="4.82064">
        <ele>299</ele>
        <time>2012-12-09T10:58:05Z</time>
      </trkpt>
      <trkpt lat="45.84724" lon="4.8206">
        <ele>299</ele>
        <time>2012-12-09T10:58:08Z</time>
      </trkpt>
      <trkpt lat="45.84725" lon="4.82057">
        <ele>299</ele>
        <time>2012-12-09T10:58:10Z</time>
      </trkpt>
      <trkpt lat="45.84726" lon="4.82056">
        <ele>299</ele>
        <time>2012-12-09T10:58:12Z</time>
      </trkpt>
      <trkpt lat="45.84729" lon="4.82053">
        <ele>299</ele>
        <time>2012-12-09T10:58:15Z</time>
      </trkpt>
      <trkpt lat="45.84729" lon="4.82052">
        <ele>299</ele>
        <time>2012-12-09T10:58:16Z</time>
      </trkpt>
      <trkpt lat="45.84731" lon="4.82039">
        <ele>300</ele>
        <time>2012-12-09T10:58:24Z</time>
      </trkpt>
      <trkpt lat="45.84732" lon="4.82033">
        <ele>301</ele>
        <time>2012-12-09T10:58:28Z</time>
      </trkpt>
      <trkpt lat="45.84733" lon="4.82027">
        <ele>301</ele>
        <time>2012-12-09T10:58:32Z</time>
      </trkpt>
      <trkpt lat="45.84734" lon="4.82024">
        <ele>302</ele>
        <time>2012-12-09T10:58:34Z</time>
      </trkpt>
      <trkpt lat="45.84735" lon="4.82023">
        <ele>302</ele>
        <time>2012-12-09T10:58:35Z</time>
      </trkpt>
      <trkpt lat="45.84737" lon="4.82018">
        <ele>303</ele>
        <time>2012-12-09T10:58:39Z</time>
      </trkpt>
      <trkpt lat="45.84737" lon="4.82015">
        <ele>303</ele>
        <time>2012-12-09T10:58:42Z</time>
      </trkpt>
      <trkpt lat="45.8474" lon="4.8201">
        <ele>304</ele>
        <time>2012-12-09T10:58:46Z</time>
      </trkpt>
      <trkpt lat="45.8474" lon="4.82009">
        <ele>304</ele>
        <time>2012-12-09T10:58:47Z</time>
      </trkpt>
      <trkpt lat="45.84743" lon="4.82003">
        <ele>306</ele>
        <time>2012-12-09T10:58:53Z</time>
      </trkpt>
      <trkpt lat="45.84744" lon="4.82002">
        <ele>306</ele>
        <time>2012-12-09T10:58:54Z</time>
      </trkpt>
      <trkpt lat="45.84745" lon="4.82">
        <ele>306</ele>
        <time>2012-12-09T10:58:56Z</time>
      </trkpt>
      <trkpt lat="45.84747" lon="4.81992">
        <ele>309</ele>
        <time>2012-12-09T10:59:03Z</time>
      </trkpt>
      <trkpt lat="45.84748" lon="4.81988">
        <ele>309</ele>
        <time>2012-12-09T10:59:07Z</time>
      </trkpt>
      <trkpt lat="45.84749" lon="4.81986">
        <ele>310</ele>
        <time>2012-12-09T10:59:09Z</time>
      </trkpt>
      <trkpt lat="45.8475" lon="4.81984">
        <ele>317</ele>
        <time>2012-12-09T10:59:11Z</time>
      </trkpt>
      <trkpt lat="45.84751" lon="4.81982">
        <ele>318</ele>
        <time>2012-12-09T10:59:13Z</time>
      </trkpt>
      <trkpt lat="45.84752" lon="4.81979">
        <ele>319</ele>
        <time>2012-12-09T10:59:15Z</time>
      </trkpt>
      <trkpt lat="45.84753" lon="4.81976">
        <ele>320</ele>
        <time>2012-12-09T10:59:18Z</time>
      </trkpt>
      <trkpt lat="45.84758" lon="4.81963">
        <ele>323</ele>
        <time>2012-12-09T10:59:29Z</time>
      </trkpt>
      <trkpt lat="45.84761" lon="4.81957">
        <ele>324</ele>
        <time>2012-12-09T10:59:35Z</time>
      </trkpt>
      <trkpt lat="45.84761" lon="4.81957">
        <ele>324</ele>
        <time>2012-12-09T10:59:36Z</time>
      </trkpt>
      <trkpt lat="45.84763" lon="4.81955">
        <ele>324</ele>
        <time>2012-12-09T10:59:38Z</time>
      </trkpt>
      <trkpt lat="45.84764" lon="4.81954">
        <ele>325</ele>
        <time>2012-12-09T10:59:40Z</time>
      </trkpt>
      <trkpt lat="45.84765" lon="4.81949">
        <ele>325</ele>
        <time>2012-12-09T10:59:44Z</time>
      </trkpt>
      <trkpt lat="45.84767" lon="4.81946">
        <ele>325</ele>
        <time>2012-12-09T10:59:47Z</time>
      </trkpt>
      <trkpt lat="45.84769" lon="4.81942">
        <ele>326</ele>
        <time>2012-12-09T10:59:51Z</time>
      </trkpt>
      <trkpt lat="45.84772" lon="4.8194">
        <ele>326</ele>
        <time>2012-12-09T10:59:56Z</time>
      </trkpt>
      <trkpt lat="45.84773" lon="4.81939">
        <ele>326</ele>
        <time>2012-12-09T10:59:57Z</time>
      </trkpt>
      <trkpt lat="45.84773" lon="4.81938">
        <ele>326</ele>
        <time>2012-12-09T10:59:58Z</time>
      </trkpt>
      <trkpt lat="45.84778" lon="4.81933">
        <ele>327</ele>
        <time>2012-12-09T11:00:04Z</time>
      </trkpt>
      <trkpt lat="45.84779" lon="4.81932">
        <ele>327</ele>
        <time>2012-12-09T11:00:05Z</time>
      </trkpt>
      <trkpt lat="45.84783" lon="4.81926">
        <ele>328</ele>
        <time>2012-12-09T11:00:11Z</time>
      </trkpt>
      <trkpt lat="45.84786" lon="4.81922">
        <ele>328</ele>
        <time>2012-12-09T11:00:15Z</time>
      </trkpt>
      <trkpt lat="45.84787" lon="4.81919">
        <ele>329</ele>
        <time>2012-12-09T11:00:17Z</time>
      </trkpt>
      <trkpt lat="45.84788" lon="4.81917">
        <ele>329</ele>
        <time>2012-12-09T11:00:22Z</time>
      </trkpt>
      <trkpt lat="45.84793" lon="4.81913">
        <ele>337</ele>
        <time>2012-12-09T11:00:28Z</time>
      </trkpt>
      <trkpt lat="45.84798" lon="4.81908">
        <ele>338</ele>
        <time>2012-12-09T11:00:35Z</time>
      </trkpt>
      <trkpt lat="45.84799" lon="4.81908">
        <ele>338</ele>
        <time>2012-12-09T11:00:37Z</time>
      </trkpt>
      <trkpt lat="45.84802" lon="4.81908">
        <ele>338</ele>
        <time>2012-12-09T11:00:41Z</time>
      </trkpt>
      <trkpt lat="45.84803" lon="4.81908">
        <ele>338</ele>
        <time>2012-12-09T11:00:42Z</time>
      </trkpt>
      <trkpt lat="45.84807" lon="4.81906">
        <ele>339</ele>
        <time>2012-12-09T11:00:46Z</time>
      </trkpt>
      <trkpt lat="45.84809" lon="4.81903">
        <ele>339</ele>
        <time>2012-12-09T11:00:51Z</time>
      </trkpt>
      <trkpt lat="45.8481" lon="4.81903">
        <ele>339</ele>
        <time>2012-12-09T11:00:52Z</time>
      </trkpt>
      <trkpt lat="45.8481" lon="4.819">
        <ele>339</ele>
        <time>2012-12-09T11:00:57Z</time>
      </trkpt>
      <trkpt lat="45.84806" lon="4.81898">
        <ele>339</ele>
        <time>2012-12-09T11:01:04Z</time>
      </trkpt>
      <trkpt lat="45.84807" lon="4.81897">
        <ele>339</ele>
        <time>2012-12-09T11:01:08Z</time>
      </trkpt>
      <trkpt lat="45.84812" lon="4.81895">
        <ele>339</ele>
        <time>2012-12-09T11:01:27Z</time>
      </trkpt>
      <trkpt lat="45.84811" lon="4.81893">
        <ele>339</ele>
        <time>2012-12-09T11:01:28Z</time>
      </trkpt>
      <trkpt lat="45.84811" lon="4.81892">
        <ele>339</ele>
        <time>2012-12-09T11:01:30Z</time>
      </trkpt>
      <trkpt lat="45.84813" lon="4.81889">
        <ele>340</ele>
        <time>2012-12-09T11:01:32Z</time>
      </trkpt>
      <trkpt lat="45.84812" lon="4.81882">
        <ele>340</ele>
        <time>2012-12-09T11:01:37Z</time>
      </trkpt>
      <trkpt lat="45.84809" lon="4.81874">
        <ele>341</ele>
        <time>2012-12-09T11:01:42Z</time>
      </trkpt>
      <trkpt lat="45.84808" lon="4.81868">
        <ele>341</ele>
        <time>2012-12-09T11:01:47Z</time>
      </trkpt>
      <trkpt lat="45.84807" lon="4.81864">
        <ele>341</ele>
        <time>2012-12-09T11:01:50Z</time>
      </trkpt>
      <trkpt lat="45.84807" lon="4.8186">
        <ele>342</ele>
        <time>2012-12-09T11:01:52Z</time>
      </trkpt>
      <trkpt lat="45.84805" lon="4.81855">
        <ele>342</ele>
        <time>2012-12-09T11:01:55Z</time>
      </trkpt>
      <trkpt lat="45.84805" lon="4.81852">
        <ele>342</ele>
        <time>2012-12-09T11:01:57Z</time>
      </trkpt>
      <trkpt lat="45.84801" lon="4.81844">
        <ele>343</ele>
        <time>2012-12-09T11:02:05Z</time>
      </trkpt>
      <trkpt lat="45.84799" lon="4.81841">
        <ele>343</ele>
        <time>2012-12-09T11:02:08Z</time>
      </trkpt>
      <trkpt lat="45.84796" lon="4.81839">
        <ele>343</ele>
        <time>2012-12-09T11:02:12Z</time>
      </trkpt>
      <trkpt lat="45.84794" lon="4.81842">
        <ele>343</ele>
        <time>2012-12-09T11:02:23Z</time>
      </trkpt>
      <trkpt lat="45.84794" lon="4.81844">
        <ele>342</ele>
        <time>2012-12-09T11:02:26Z</time>
      </trkpt>
      <trkpt lat="45.84791" lon="4.81844">
        <ele>342</ele>
        <time>2012-12-09T11:02:30Z</time>
      </trkpt>
      <trkpt lat="45.84788" lon="4.8184">
        <ele>343</ele>
        <time>2012-12-09T11:02:36Z</time>
      </trkpt>
      <trkpt lat="45.84786" lon="4.81835">
        <ele>343</ele>
        <time>2012-12-09T11:02:43Z</time>
      </trkpt>
      <trkpt lat="45.84786" lon="4.81835">
        <ele>343</ele>
        <time>2012-12-09T11:02:44Z</time>
      </trkpt>
      <trkpt lat="45.84783" lon="4.81836">
        <ele>343</ele>
        <time>2012-12-09T11:02:55Z</time>
      </trkpt>
      <trkpt lat="45.84783" lon="4.81841">
        <ele>343</ele>
        <time>2012-12-09T11:03:14Z</time>
      </trkpt>
      <trkpt lat="45.84781" lon="4.81841">
        <ele>343</ele>
        <time>2012-12-09T11:03:16Z</time>
      </trkpt>
      <trkpt lat="45.84778" lon="4.81836">
        <ele>343</ele>
        <time>2012-12-09T11:03:22Z</time>
      </trkpt>
      <trkpt lat="45.84777" lon="4.81833">
        <ele>358</ele>
        <time>2012-12-09T11:03:28Z</time>
      </trkpt>
      <trkpt lat="45.84776" lon="4.81825">
        <ele>358</ele>
        <time>2012-12-09T11:03:35Z</time>
      </trkpt>
      <trkpt lat="45.84774" lon="4.81824">
        <ele>358</ele>
        <time>2012-12-09T11:03:40Z</time>
      </trkpt>
      <trkpt lat="45.84774" lon="4.81826">
        <ele>358</ele>
        <time>2012-12-09T11:03:41Z</time>
      </trkpt>
      <trkpt lat="45.84774" lon="4.81829">
        <ele>357</ele>
        <time>2012-12-09T11:03:43Z</time>
      </trkpt>
      <trkpt lat="45.84773" lon="4.81832">
        <ele>357</ele>
        <time>2012-12-09T11:03:44Z</time>
      </trkpt>
      <trkpt lat="45.84773" lon="4.81833">
        <ele>357</ele>
        <time>2012-12-09T11:03:45Z</time>
      </trkpt>
      <trkpt lat="45.84775" lon="4.81838">
        <ele>343</ele>
        <time>2012-12-09T11:03:50Z</time>
      </trkpt>
      <trkpt lat="45.84781" lon="4.81843">
        <ele>343</ele>
        <time>2012-12-09T11:03:56Z</time>
      </trkpt>
      <trkpt lat="45.84783" lon="4.81848">
        <ele>342</ele>
        <time>2012-12-09T11:03:59Z</time>
      </trkpt>
      <trkpt lat="45.84784" lon="4.8185">
        <ele>342</ele>
        <time>2012-12-09T11:04:00Z</time>
      </trkpt>
      <trkpt lat="45.84782" lon="4.81854">
        <ele>342</ele>
        <time>2012-12-09T11:04:02Z</time>
      </trkpt>
      <trkpt lat="45.84776" lon="4.81857">
        <ele>341</ele>
        <time>2012-12-09T11:04:06Z</time>
      </trkpt>
      <trkpt lat="45.84769" lon="4.81857">
        <ele>342</ele>
        <time>2012-12-09T11:04:10Z</time>
      </trkpt>
      <trkpt lat="45.84767" lon="4.81856">
        <ele>342</ele>
        <time>2012-12-09T11:04:11Z</time>
      </trkpt>
      <trkpt lat="45.84757" lon="4.8186">
        <ele>342</ele>
        <time>2012-12-09T11:04:16Z</time>
      </trkpt>
      <trkpt lat="45.84751" lon="4.81862">
        <ele>341</ele>
        <time>2012-12-09T11:04:20Z</time>
      </trkpt>
      <trkpt lat="45.84747" lon="4.81857">
        <ele>337</ele>
        <time>2012-12-09T11:04:23Z</time>
      </trkpt>
      <trkpt lat="45.84744" lon="4.81856">
        <ele>337</ele>
        <time>2012-12-09T11:04:25Z</time>
      </trkpt>
      <trkpt lat="45.84741" lon="4.81858">
        <ele>336</ele>
        <time>2012-12-09T11:04:27Z</time>
      </trkpt>
      <trkpt lat="45.84734" lon="4.81861">
        <ele>335</ele>
        <time>2012-12-09T11:04:31Z</time>
      </trkpt>
      <trkpt lat="45.84733" lon="4.81863">
        <ele>334</ele>
        <time>2012-12-09T11:04:32Z</time>
      </trkpt>
      <trkpt lat="45.84729" lon="4.81868">
        <ele>333</ele>
        <time>2012-12-09T11:04:35Z</time>
      </trkpt>
      <trkpt lat="45.84724" lon="4.81869">
        <ele>332</ele>
        <time>2012-12-09T11:04:37Z</time>
      </trkpt>
      <trkpt lat="45.84717" lon="4.81875">
        <ele>331</ele>
        <time>2012-12-09T11:04:41Z</time>
      </trkpt>
      <trkpt lat="45.84716" lon="4.81876">
        <ele>330</ele>
        <time>2012-12-09T11:04:42Z</time>
      </trkpt>
      <trkpt lat="45.84707" lon="4.8188">
        <ele>329</ele>
        <time>2012-12-09T11:04:47Z</time>
      </trkpt>
      <trkpt lat="45.84705" lon="4.81882">
        <ele>329</ele>
        <time>2012-12-09T11:04:52Z</time>
      </trkpt>
      <trkpt lat="45.84702" lon="4.81879">
        <ele>329</ele>
        <time>2012-12-09T11:04:56Z</time>
      </trkpt>
      <trkpt lat="45.847" lon="4.81878">
        <ele>329</ele>
        <time>2012-12-09T11:04:59Z</time>
      </trkpt>
      <trkpt lat="45.84699" lon="4.81876">
        <ele>329</ele>
        <time>2012-12-09T11:05:02Z</time>
      </trkpt>
      <trkpt lat="45.84699" lon="4.81875">
        <ele>329</ele>
        <time>2012-12-09T11:05:13Z</time>
      </trkpt>
      <trkpt lat="45.84694" lon="4.81869">
        <ele>330</ele>
        <time>2012-12-09T11:05:35Z</time>
      </trkpt>
      <trkpt lat="45.84688" lon="4.81866">
        <ele>330</ele>
        <time>2012-12-09T11:05:41Z</time>
      </trkpt>
      <trkpt lat="45.84687" lon="4.81871">
        <ele>329</ele>
        <time>2012-12-09T11:05:47Z</time>
      </trkpt>
      <trkpt lat="45.84687" lon="4.81872">
        <ele>329</ele>
        <time>2012-12-09T11:05:50Z</time>
      </trkpt>
      <trkpt lat="45.84685" lon="4.81874">
        <ele>329</ele>
        <time>2012-12-09T11:05:53Z</time>
      </trkpt>
      <trkpt lat="45.84682" lon="4.81875">
        <ele>328</ele>
        <time>2012-12-09T11:05:56Z</time>
      </trkpt>
      <trkpt lat="45.84681" lon="4.81876">
        <ele>328</ele>
        <time>2012-12-09T11:05:59Z</time>
      </trkpt>
      <trkpt lat="45.84683" lon="4.81874">
        <ele>328</ele>
        <time>2012-12-09T11:06:17Z</time>
      </trkpt>
      <trkpt lat="45.84682" lon="4.81876">
        <ele>328</ele>
        <time>2012-12-09T11:06:19Z</time>
      </trkpt>
      <trkpt lat="45.8468" lon="4.81878">
        <ele>328</ele>
        <time>2012-12-09T11:06:21Z</time>
      </trkpt>
      <trkpt lat="45.84675" lon="4.81879">
        <ele>327</ele>
        <time>2012-12-09T11:06:26Z</time>
      </trkpt>
      <trkpt lat="45.84673" lon="4.8188">
        <ele>327</ele>
        <time>2012-12-09T11:06:28Z</time>
      </trkpt>
      <trkpt lat="45.84672" lon="4.8188">
        <ele>327</ele>
        <time>2012-12-09T11:06:29Z</time>
      </trkpt>
      <trkpt lat="45.8467" lon="4.8188">
        <ele>327</ele>
        <time>2012-12-09T11:06:32Z</time>
      </trkpt>
      <trkpt lat="45.84669" lon="4.8188">
        <ele>327</ele>
        <time>2012-12-09T11:06:33Z</time>
      </trkpt>
      <trkpt lat="45.84668" lon="4.8188">
        <ele>327</ele>
        <time>2012-12-09T11:06:38Z</time>
      </trkpt>
      <trkpt lat="45.84667" lon="4.81876">
        <ele>327</ele>
        <time>2012-12-09T11:06:45Z</time>
      </trkpt>
      <trkpt lat="45.84668" lon="4.81867">
        <ele>329</ele>
        <time>2012-12-09T11:06:52Z</time>
      </trkpt>
      <trkpt lat="45.84668" lon="4.81866">
        <ele>330</ele>
        <time>2012-12-09T11:06:53Z</time>
      </trkpt>
      <trkpt lat="45.84667" lon="4.81865">
        <ele>330</ele>
        <time>2012-12-09T11:06:54Z</time>
      </trkpt>
      <trkpt lat="45.84665" lon="4.81861">
        <ele>316</ele>
        <time>2012-12-09T11:06:57Z</time>
      </trkpt>
      <trkpt lat="45.84661" lon="4.81854">
        <ele>319</ele>
        <time>2012-12-09T11:07:02Z</time>
      </trkpt>
      <trkpt lat="45.8466" lon="4.81846">
        <ele>323</ele>
        <time>2012-12-09T11:07:07Z</time>
      </trkpt>
      <trkpt lat="45.8466" lon="4.81842">
        <ele>325</ele>
        <time>2012-12-09T11:07:10Z</time>
      </trkpt>
      <trkpt lat="45.8466" lon="4.81839">
        <ele>327</ele>
        <time>2012-12-09T11:07:12Z</time>
      </trkpt>
      <trkpt lat="45.84657" lon="4.81837">
        <ele>326</ele>
        <time>2012-12-09T11:07:20Z</time>
      </trkpt>
      <trkpt lat="45.84656" lon="4.81835">
        <ele>325</ele>
        <time>2012-12-09T11:07:25Z</time>
      </trkpt>
      <trkpt lat="45.84657" lon="4.8183">
        <ele>331</ele>
        <time>2012-12-09T11:07:30Z</time>
      </trkpt>
      <trkpt lat="45.84655" lon="4.81824">
        <ele>330</ele>
        <time>2012-12-09T11:07:51Z</time>
      </trkpt>
      <trkpt lat="45.84653" lon="4.81819">
        <ele>329</ele>
        <time>2012-12-09T11:07:55Z</time>
      </trkpt>
      <trkpt lat="45.84653" lon="4.81818">
        <ele>329</ele>
        <time>2012-12-09T11:07:56Z</time>
      </trkpt>
      <trkpt lat="45.84652" lon="4.81812">
        <ele>328</ele>
        <time>2012-12-09T11:08:03Z</time>
      </trkpt>
      <trkpt lat="45.84647" lon="4.81805">
        <ele>327</ele>
        <time>2012-12-09T11:08:10Z</time>
      </trkpt>
      <trkpt lat="45.84644" lon="4.818">
        <ele>327</ele>
        <time>2012-12-09T11:08:15Z</time>
      </trkpt>
      <trkpt lat="45.84643" lon="4.81799">
        <ele>327</ele>
        <time>2012-12-09T11:08:16Z</time>
      </trkpt>
      <trkpt lat="45.84644" lon="4.81796">
        <ele>327</ele>
        <time>2012-12-09T11:08:18Z</time>
      </trkpt>
      <trkpt lat="45.84644" lon="4.81796">
        <ele>327</ele>
        <time>2012-12-09T11:08:19Z</time>
      </trkpt>
      <trkpt lat="45.84641" lon="4.81792">
        <ele>327</ele>
        <time>2012-12-09T11:08:24Z</time>
      </trkpt>
      <trkpt lat="45.8464" lon="4.81791">
        <ele>327</ele>
        <time>2012-12-09T11:08:25Z</time>
      </trkpt>
      <trkpt lat="45.84638" lon="4.81787">
        <ele>326</ele>
        <time>2012-12-09T11:08:29Z</time>
      </trkpt>
      <trkpt lat="45.84637" lon="4.81786">
        <ele>326</ele>
        <time>2012-12-09T11:08:30Z</time>
      </trkpt>
      <trkpt lat="45.84635" lon="4.81782">
        <ele>326</ele>
        <time>2012-12-09T11:08:34Z</time>
      </trkpt>
      <trkpt lat="45.84633" lon="4.81778">
        <ele>326</ele>
        <time>2012-12-09T11:08:40Z</time>
      </trkpt>
      <trkpt lat="45.84632" lon="4.81774">
        <ele>326</ele>
        <time>2012-12-09T11:08:43Z</time>
      </trkpt>
      <trkpt lat="45.84628" lon="4.81772">
        <ele>325</ele>
        <time>2012-12-09T11:08:48Z</time>
      </trkpt>
      <trkpt lat="45.84626" lon="4.81771">
        <ele>324</ele>
        <time>2012-12-09T11:08:55Z</time>
      </trkpt>
      <trkpt lat="45.84623" lon="4.81769">
        <ele>323</ele>
        <time>2012-12-09T11:09:01Z</time>
      </trkpt>
      <trkpt lat="45.84621" lon="4.81768">
        <ele>323</ele>
        <time>2012-12-09T11:09:02Z</time>
      </trkpt>
      <trkpt lat="45.84618" lon="4.81762">
        <ele>322</ele>
        <time>2012-12-09T11:09:05Z</time>
      </trkpt>
      <trkpt lat="45.84617" lon="4.8176">
        <ele>322</ele>
        <time>2012-12-09T11:09:06Z</time>
      </trkpt>
      <trkpt lat="45.84616" lon="4.81758">
        <ele>321</ele>
        <time>2012-12-09T11:09:07Z</time>
      </trkpt>
      <trkpt lat="45.84614" lon="4.81752">
        <ele>320</ele>
        <time>2012-12-09T11:09:11Z</time>
      </trkpt>
      <trkpt lat="45.84613" lon="4.81738">
        <ele>329</ele>
        <time>2012-12-09T11:09:16Z</time>
      </trkpt>
      <trkpt lat="45.8461" lon="4.81733">
        <ele>329</ele>
        <time>2012-12-09T11:09:20Z</time>
      </trkpt>
      <trkpt lat="45.8461" lon="4.81731">
        <ele>329</ele>
        <time>2012-12-09T11:09:22Z</time>
      </trkpt>
      <trkpt lat="45.84609" lon="4.81728">
        <ele>330</ele>
        <time>2012-12-09T11:09:26Z</time>
      </trkpt>
      <trkpt lat="45.84602" lon="4.81722">
        <ele>328</ele>
        <time>2012-12-09T11:09:32Z</time>
      </trkpt>
      <trkpt lat="45.84602" lon="4.8172">
        <ele>329</ele>
        <time>2012-12-09T11:09:34Z</time>
      </trkpt>
      <trkpt lat="45.84599" lon="4.81718">
        <ele>328</ele>
        <time>2012-12-09T11:09:37Z</time>
      </trkpt>
      <trkpt lat="45.84597" lon="4.81715">
        <ele>328</ele>
        <time>2012-12-09T11:09:40Z</time>
      </trkpt>
      <trkpt lat="45.84597" lon="4.81714">
        <ele>329</ele>
        <time>2012-12-09T11:09:42Z</time>
      </trkpt>
      <trkpt lat="45.84596" lon="4.81711">
        <ele>329</ele>
        <time>2012-12-09T11:09:45Z</time>
      </trkpt>
      <trkpt lat="45.84595" lon="4.81707">
        <ele>329</ele>
        <time>2012-12-09T11:09:48Z</time>
      </trkpt>
      <trkpt lat="45.84595" lon="4.81704">
        <ele>330</ele>
        <time>2012-12-09T11:09:51Z</time>
      </trkpt>
      <trkpt lat="45.84593" lon="4.81701">
        <ele>329</ele>
        <time>2012-12-09T11:09:52Z</time>
      </trkpt>
      <trkpt lat="45.8459" lon="4.81693">
        <ele>329</ele>
        <time>2012-12-09T11:10:00Z</time>
      </trkpt>
      <trkpt lat="45.8459" lon="4.81691">
        <ele>329</ele>
        <time>2012-12-09T11:10:01Z</time>
      </trkpt>
      <trkpt lat="45.8459" lon="4.81685">
        <ele>328</ele>
        <time>2012-12-09T11:10:04Z</time>
      </trkpt>
      <trkpt lat="45.84589" lon="4.81678">
        <ele>326</ele>
        <time>2012-12-09T11:10:07Z</time>
      </trkpt>
      <trkpt lat="45.84588" lon="4.81666">
        <ele>325</ele>
        <time>2012-12-09T11:10:11Z</time>
      </trkpt>
      <trkpt lat="45.84588" lon="4.81663">
        <ele>326</ele>
        <time>2012-12-09T11:10:12Z</time>
      </trkpt>
      <trkpt lat="45.8459" lon="4.8165">
        <ele>335</ele>
        <time>2012-12-09T11:10:17Z</time>
      </trkpt>
      <trkpt lat="45.84591" lon="4.81644">
        <ele>338</ele>
        <time>2012-12-09T11:10:22Z</time>
      </trkpt>
      <trkpt lat="45.84591" lon="4.81643">
        <ele>338</ele>
        <time>2012-12-09T11:10:23Z</time>
      </trkpt>
      <trkpt lat="45.84593" lon="4.81639">
        <ele>340</ele>
        <time>2012-12-09T11:10:27Z</time>
      </trkpt>
      <trkpt lat="45.84593" lon="4.81632">
        <ele>342</ele>
        <time>2012-12-09T11:10:32Z</time>
      </trkpt>
      <trkpt lat="45.84593" lon="4.81631">
        <ele>342</ele>
        <time>2012-12-09T11:10:33Z</time>
      </trkpt>
      <trkpt lat="45.84594" lon="4.81623">
        <ele>343</ele>
        <time>2012-12-09T11:10:40Z</time>
      </trkpt>
      <trkpt lat="45.84593" lon="4.81617">
        <ele>344</ele>
        <time>2012-12-09T11:10:43Z</time>
      </trkpt>
      <trkpt lat="45.84595" lon="4.81615">
        <ele>344</ele>
        <time>2012-12-09T11:10:47Z</time>
      </trkpt>
      <trkpt lat="45.84592" lon="4.81611">
        <ele>344</ele>
        <time>2012-12-09T11:10:51Z</time>
      </trkpt>
      <trkpt lat="45.84593" lon="4.8161">
        <ele>344</ele>
        <time>2012-12-09T11:10:53Z</time>
      </trkpt>
      <trkpt lat="45.84595" lon="4.81606">
        <ele>344</ele>
        <time>2012-12-09T11:10:57Z</time>
      </trkpt>
      <trkpt lat="45.84596" lon="4.81606">
        <ele>344</ele>
        <time>2012-12-09T11:10:58Z</time>
      </trkpt>
      <trkpt lat="45.84596" lon="4.81601">
        <ele>344</ele>
        <time>2012-12-09T11:11:03Z</time>
      </trkpt>
      <trkpt lat="45.84596" lon="4.81601">
        <ele>343</ele>
        <time>2012-12-09T11:11:04Z</time>
      </trkpt>
      <trkpt lat="45.84595" lon="4.816">
        <ele>343</ele>
        <time>2012-12-09T11:11:05Z</time>
      </trkpt>
      <trkpt lat="45.84594" lon="4.81597">
        <ele>342</ele>
        <time>2012-12-09T11:11:09Z</time>
      </trkpt>
      <trkpt lat="45.84593" lon="4.81594">
        <ele>342</ele>
        <time>2012-12-09T11:11:11Z</time>
      </trkpt>
      <trkpt lat="45.84592" lon="4.81589">
        <ele>340</ele>
        <time>2012-12-09T11:11:14Z</time>
      </trkpt>
      <trkpt lat="45.84592" lon="4.81588">
        <ele>340</ele>
        <time>2012-12-09T11:11:15Z</time>
      </trkpt>
      <trkpt lat="45.84591" lon="4.81587">
        <ele>339</ele>
        <time>2012-12-09T11:11:16Z</time>
      </trkpt>
      <trkpt lat="45.84589" lon="4.81583">
        <ele>339</ele>
        <time>2012-12-09T11:11:19Z</time>
      </trkpt>
      <trkpt lat="45.84587" lon="4.81582">
        <ele>338</ele>
        <time>2012-12-09T11:11:21Z</time>
      </trkpt>
      <trkpt lat="45.84585" lon="4.81579">
        <ele>338</ele>
        <time>2012-12-09T11:11:24Z</time>
      </trkpt>
      <trkpt lat="45.84584" lon="4.81579">
        <ele>338</ele>
        <time>2012-12-09T11:11:25Z</time>
      </trkpt>
      <trkpt lat="45.84583" lon="4.81575">
        <ele>341</ele>
        <time>2012-12-09T11:11:32Z</time>
      </trkpt>
      <trkpt lat="45.84578" lon="4.81567">
        <ele>331</ele>
        <time>2012-12-09T11:11:38Z</time>
      </trkpt>
      <trkpt lat="45.84576" lon="4.81566">
        <ele>331</ele>
        <time>2012-12-09T11:11:39Z</time>
      </trkpt>
      <trkpt lat="45.84574" lon="4.81564">
        <ele>331</ele>
        <time>2012-12-09T11:11:40Z</time>
      </trkpt>
      <trkpt lat="45.8457" lon="4.81558">
        <ele>331</ele>
        <time>2012-12-09T11:11:43Z</time>
      </trkpt>
      <trkpt lat="45.8457" lon="4.81552">
        <ele>331</ele>
        <time>2012-12-09T11:11:48Z</time>
      </trkpt>
      <trkpt lat="45.84569" lon="4.81543">
        <ele>331</ele>
        <time>2012-12-09T11:11:53Z</time>
      </trkpt>
      <trkpt lat="45.84569" lon="4.81541">
        <ele>331</ele>
        <time>2012-12-09T11:11:54Z</time>
      </trkpt>
      <trkpt lat="45.8457" lon="4.81533">
        <ele>332</ele>
        <time>2012-12-09T11:12:00Z</time>
      </trkpt>
      <trkpt lat="45.84572" lon="4.81525">
        <ele>333</ele>
        <time>2012-12-09T11:12:07Z</time>
      </trkpt>
      <trkpt lat="45.84573" lon="4.81518">
        <ele>333</ele>
        <time>2012-12-09T11:12:12Z</time>
      </trkpt>
      <trkpt lat="45.84574" lon="4.81514">
        <ele>334</ele>
        <time>2012-12-09T11:12:16Z</time>
      </trkpt>
      <trkpt lat="45.84573" lon="4.81511">
        <ele>334</ele>
        <time>2012-12-09T11:12:18Z</time>
      </trkpt>
      <trkpt lat="45.84573" lon="4.8151">
        <ele>334</ele>
        <time>2012-12-09T11:12:19Z</time>
      </trkpt>
      <trkpt lat="45.84572" lon="4.81505">
        <ele>335</ele>
        <time>2012-12-09T11:12:22Z</time>
      </trkpt>
      <trkpt lat="45.84573" lon="4.815">
        <ele>335</ele>
        <time>2012-12-09T11:12:25Z</time>
      </trkpt>
      <trkpt lat="45.84573" lon="4.81499">
        <ele>340</ele>
        <time>2012-12-09T11:12:26Z</time>
      </trkpt>
      <trkpt lat="45.84575" lon="4.81491">
        <ele>341</ele>
        <time>2012-12-09T11:12:32Z</time>
      </trkpt>
      <trkpt lat="45.84577" lon="4.81489">
        <ele>341</ele>
        <time>2012-12-09T11:12:34Z</time>
      </trkpt>
      <trkpt lat="45.8458" lon="4.81487">
        <ele>341</ele>
        <time>2012-12-09T11:12:38Z</time>
      </trkpt>
      <trkpt lat="45.84575" lon="4.81482">
        <ele>342</ele>
        <time>2012-12-09T11:13:08Z</time>
      </trkpt>
      <trkpt lat="45.84572" lon="4.81477">
        <ele>343</ele>
        <time>2012-12-09T11:13:12Z</time>
      </trkpt>
      <trkpt lat="45.84572" lon="4.81477">
        <ele>343</ele>
        <time>2012-12-09T11:13:13Z</time>
      </trkpt>
      <trkpt lat="45.84572" lon="4.81478">
        <ele>343</ele>
        <time>2012-12-09T11:13:24Z</time>
      </trkpt>
      <trkpt lat="45.84572" lon="4.8148">
        <ele>343</ele>
        <time>2012-12-09T11:13:26Z</time>
      </trkpt>
      <trkpt lat="45.8457" lon="4.81482">
        <ele>342</ele>
        <time>2012-12-09T11:13:28Z</time>
      </trkpt>
      <trkpt lat="45.84564" lon="4.81485">
        <ele>342</ele>
        <time>2012-12-09T11:13:32Z</time>
      </trkpt>
      <trkpt lat="45.84558" lon="4.81488">
        <ele>342</ele>
        <time>2012-12-09T11:13:36Z</time>
      </trkpt>
      <trkpt lat="45.84554" lon="4.81491">
        <ele>342</ele>
        <time>2012-12-09T11:13:38Z</time>
      </trkpt>
      <trkpt lat="45.84543" lon="4.81495">
        <ele>342</ele>
        <time>2012-12-09T11:13:43Z</time>
      </trkpt>
      <trkpt lat="45.84535" lon="4.81499">
        <ele>341</ele>
        <time>2012-12-09T11:13:47Z</time>
      </trkpt>
      <trkpt lat="45.84533" lon="4.81501">
        <ele>331</ele>
        <time>2012-12-09T11:13:48Z</time>
      </trkpt>
      <trkpt lat="45.84518" lon="4.81512">
        <ele>330</ele>
        <time>2012-12-09T11:13:55Z</time>
      </trkpt>
      <trkpt lat="45.84508" lon="4.81525">
        <ele>329</ele>
        <time>2012-12-09T11:14:00Z</time>
      </trkpt>
      <trkpt lat="45.84505" lon="4.81531">
        <ele>328</ele>
        <time>2012-12-09T11:14:02Z</time>
      </trkpt>
      <trkpt lat="45.84503" lon="4.8154">
        <ele>327</ele>
        <time>2012-12-09T11:14:05Z</time>
      </trkpt>
      <trkpt lat="45.84498" lon="4.81556">
        <ele>326</ele>
        <time>2012-12-09T11:14:11Z</time>
      </trkpt>
      <trkpt lat="45.84497" lon="4.8156">
        <ele>325</ele>
        <time>2012-12-09T11:14:12Z</time>
      </trkpt>
      <trkpt lat="45.84495" lon="4.81569">
        <ele>322</ele>
        <time>2012-12-09T11:14:17Z</time>
      </trkpt>
      <trkpt lat="45.84492" lon="4.8158">
        <ele>318</ele>
        <time>2012-12-09T11:14:21Z</time>
      </trkpt>
      <trkpt lat="45.84491" lon="4.81582">
        <ele>318</ele>
        <time>2012-12-09T11:14:22Z</time>
      </trkpt>
      <trkpt lat="45.84488" lon="4.81592">
        <ele>313</ele>
        <time>2012-12-09T11:14:26Z</time>
      </trkpt>
      <trkpt lat="45.84485" lon="4.81605">
        <ele>313</ele>
        <time>2012-12-09T11:14:30Z</time>
      </trkpt>
      <trkpt lat="45.84484" lon="4.81609">
        <ele>313</ele>
        <time>2012-12-09T11:14:31Z</time>
      </trkpt>
      <trkpt lat="45.84483" lon="4.81623">
        <ele>312</ele>
        <time>2012-12-09T11:14:35Z</time>
      </trkpt>
      <trkpt lat="45.84483" lon="4.81636">
        <ele>310</ele>
        <time>2012-12-09T11:14:39Z</time>
      </trkpt>
      <trkpt lat="45.84483" lon="4.81648">
        <ele>308</ele>
        <time>2012-12-09T11:14:43Z</time>
      </trkpt>
      <trkpt lat="45.84483" lon="4.81651">
        <ele>307</ele>
        <time>2012-12-09T11:14:44Z</time>
      </trkpt>
      <trkpt lat="45.84484" lon="4.81657">
        <ele>306</ele>
        <time>2012-12-09T11:14:48Z</time>
      </trkpt>
      <trkpt lat="45.84484" lon="4.81658">
        <ele>305</ele>
        <time>2012-12-09T11:14:49Z</time>
      </trkpt>
      <trkpt lat="45.84484" lon="4.8166">
        <ele>305</ele>
        <time>2012-12-09T11:14:50Z</time>
      </trkpt>
      <trkpt lat="45.84485" lon="4.81664">
        <ele>304</ele>
        <time>2012-12-09T11:14:52Z</time>
      </trkpt>
      <trkpt lat="45.84489" lon="4.81676">
        <ele>296</ele>
        <time>2012-12-09T11:14:56Z</time>
      </trkpt>
      <trkpt lat="45.84492" lon="4.8169">
        <ele>295</ele>
        <time>2012-12-09T11:15:00Z</time>
      </trkpt>
      <trkpt lat="45.84494" lon="4.81696">
        <ele>294</ele>
        <time>2012-12-09T11:15:02Z</time>
      </trkpt>
      <trkpt lat="45.84497" lon="4.81708">
        <ele>293</ele>
        <time>2012-12-09T11:15:05Z</time>
      </trkpt>
      <trkpt lat="45.84498" lon="4.81717">
        <ele>291</ele>
        <time>2012-12-09T11:15:07Z</time>
      </trkpt>
      <trkpt lat="45.84498" lon="4.81725">
        <ele>289</ele>
        <time>2012-12-09T11:15:09Z</time>
      </trkpt>
      <trkpt lat="45.84503" lon="4.81744">
        <ele>284</ele>
        <time>2012-12-09T11:15:14Z</time>
      </trkpt>
      <trkpt lat="45.84511" lon="4.81768">
        <ele>283</ele>
        <time>2012-12-09T11:15:20Z</time>
      </trkpt>
      <trkpt lat="45.84512" lon="4.81785">
        <ele>283</ele>
        <time>2012-12-09T11:15:24Z</time>
      </trkpt>
      <trkpt lat="45.84511" lon="4.81793">
        <ele>282</ele>
        <time>2012-12-09T11:15:26Z</time>
      </trkpt>
      <trkpt lat="45.84506" lon="4.81802">
        <ele>280</ele>
        <time>2012-12-09T11:15:29Z</time>
      </trkpt>
      <trkpt lat="45.84498" lon="4.81811">
        <ele>274</ele>
        <time>2012-12-09T11:15:33Z</time>
      </trkpt>
      <trkpt lat="45.84487" lon="4.81828">
        <ele>272</ele>
        <time>2012-12-09T11:15:39Z</time>
      </trkpt>
      <trkpt lat="45.84485" lon="4.81831">
        <ele>272</ele>
        <time>2012-12-09T11:15:40Z</time>
      </trkpt>
      <trkpt lat="45.84478" lon="4.81843">
        <ele>267</ele>
        <time>2012-12-09T11:15:44Z</time>
      </trkpt>
      <trkpt lat="45.84472" lon="4.81851">
        <ele>267</ele>
        <time>2012-12-09T11:15:47Z</time>
      </trkpt>
      <trkpt lat="45.84468" lon="4.81856">
        <ele>267</ele>
        <time>2012-12-09T11:15:49Z</time>
      </trkpt>
      <trkpt lat="45.84459" lon="4.8187">
        <ele>267</ele>
        <time>2012-12-09T11:15:54Z</time>
      </trkpt>
      <trkpt lat="45.84453" lon="4.8188">
        <ele>267</ele>
        <time>2012-12-09T11:15:58Z</time>
      </trkpt>
      <trkpt lat="45.84456" lon="4.81889">
        <ele>266</ele>
        <time>2012-12-09T11:16:02Z</time>
      </trkpt>
      <trkpt lat="45.8446" lon="4.8189">
        <ele>266</ele>
        <time>2012-12-09T11:16:04Z</time>
      </trkpt>
      <trkpt lat="45.84468" lon="4.81891">
        <ele>265</ele>
        <time>2012-12-09T11:16:07Z</time>
      </trkpt>
      <trkpt lat="45.84478" lon="4.81896">
        <ele>264</ele>
        <time>2012-12-09T11:16:11Z</time>
      </trkpt>
      <trkpt lat="45.84483" lon="4.81899">
        <ele>263</ele>
        <time>2012-12-09T11:16:13Z</time>
      </trkpt>
      <trkpt lat="45.84493" lon="4.81912">
        <ele>260</ele>
        <time>2012-12-09T11:16:17Z</time>
      </trkpt>
      <trkpt lat="45.84494" lon="4.81916">
        <ele>260</ele>
        <time>2012-12-09T11:16:18Z</time>
      </trkpt>
      <trkpt lat="45.84495" lon="4.81929">
        <ele>258</ele>
        <time>2012-12-09T11:16:21Z</time>
      </trkpt>
      <trkpt lat="45.84494" lon="4.81941">
        <ele>258</ele>
        <time>2012-12-09T11:16:24Z</time>
      </trkpt>
      <trkpt lat="45.84492" lon="4.8195">
        <ele>257</ele>
        <time>2012-12-09T11:16:26Z</time>
      </trkpt>
      <trkpt lat="45.8449" lon="4.81969">
        <ele>256</ele>
        <time>2012-12-09T11:16:31Z</time>
      </trkpt>
      <trkpt lat="45.84489" lon="4.81974">
        <ele>255</ele>
        <time>2012-12-09T11:16:32Z</time>
      </trkpt>
      <trkpt lat="45.84487" lon="4.81997">
        <ele>253</ele>
        <time>2012-12-09T11:16:38Z</time>
      </trkpt>
      <trkpt lat="45.84486" lon="4.82016">
        <ele>250</ele>
        <time>2012-12-09T11:16:43Z</time>
      </trkpt>
      <trkpt lat="45.84486" lon="4.82023">
        <ele>250</ele>
        <time>2012-12-09T11:16:45Z</time>
      </trkpt>
      <trkpt lat="45.84488" lon="4.82033">
        <ele>250</ele>
        <time>2012-12-09T11:16:48Z</time>
      </trkpt>
      <trkpt lat="45.84494" lon="4.8205">
        <ele>248</ele>
        <time>2012-12-09T11:16:53Z</time>
      </trkpt>
      <trkpt lat="45.84503" lon="4.82068">
        <ele>247</ele>
        <time>2012-12-09T11:16:59Z</time>
      </trkpt>
      <trkpt lat="45.84506" lon="4.82074">
        <ele>245</ele>
        <time>2012-12-09T11:17:01Z</time>
      </trkpt>
      <trkpt lat="45.84511" lon="4.82087">
        <ele>243</ele>
        <time>2012-12-09T11:17:05Z</time>
      </trkpt>
      <trkpt lat="45.84515" lon="4.82098">
        <ele>244</ele>
        <time>2012-12-09T11:17:08Z</time>
      </trkpt>
      <trkpt lat="45.84516" lon="4.82102">
        <ele>244</ele>
        <time>2012-12-09T11:17:09Z</time>
      </trkpt>
      <trkpt lat="45.84516" lon="4.82106">
        <ele>245</ele>
        <time>2012-12-09T11:17:10Z</time>
      </trkpt>
      <trkpt lat="45.84517" lon="4.82117">
        <ele>245</ele>
        <time>2012-12-09T11:17:13Z</time>
      </trkpt>
      <trkpt lat="45.84517" lon="4.82125">
        <ele>244</ele>
        <time>2012-12-09T11:17:15Z</time>
      </trkpt>
      <trkpt lat="45.84515" lon="4.82144">
        <ele>242</ele>
        <time>2012-12-09T11:17:20Z</time>
      </trkpt>
      <trkpt lat="45.84514" lon="4.82152">
        <ele>241</ele>
        <time>2012-12-09T11:17:22Z</time>
      </trkpt>
      <trkpt lat="45.84512" lon="4.82163">
        <ele>239</ele>
        <time>2012-12-09T11:17:25Z</time>
      </trkpt>
      <trkpt lat="45.84509" lon="4.82177">
        <ele>237</ele>
        <time>2012-12-09T11:17:29Z</time>
      </trkpt>
      <trkpt lat="45.84509" lon="4.82185">
        <ele>237</ele>
        <time>2012-12-09T11:17:31Z</time>
      </trkpt>
      <trkpt lat="45.84507" lon="4.82203">
        <ele>238</ele>
        <time>2012-12-09T11:17:36Z</time>
      </trkpt>
      <trkpt lat="45.84506" lon="4.82211">
        <ele>237</ele>
        <time>2012-12-09T11:17:38Z</time>
      </trkpt>
      <trkpt lat="45.84503" lon="4.82232">
        <ele>234</ele>
        <time>2012-12-09T11:17:44Z</time>
      </trkpt>
      <trkpt lat="45.84503" lon="4.82236">
        <ele>233</ele>
        <time>2012-12-09T11:17:45Z</time>
      </trkpt>
      <trkpt lat="45.845" lon="4.82258">
        <ele>229</ele>
        <time>2012-12-09T11:17:51Z</time>
      </trkpt>
      <trkpt lat="45.845" lon="4.82262">
        <ele>228</ele>
        <time>2012-12-09T11:17:52Z</time>
      </trkpt>
      <trkpt lat="45.84497" lon="4.82285">
        <ele>228</ele>
        <time>2012-12-09T11:17:58Z</time>
      </trkpt>
      <trkpt lat="45.84497" lon="4.82292">
        <ele>227</ele>
        <time>2012-12-09T11:18:00Z</time>
      </trkpt>
      <trkpt lat="45.84495" lon="4.82312">
        <ele>226</ele>
        <time>2012-12-09T11:18:05Z</time>
      </trkpt>
      <trkpt lat="45.84492" lon="4.82336">
        <ele>222</ele>
        <time>2012-12-09T11:18:11Z</time>
      </trkpt>
      <trkpt lat="45.84492" lon="4.8234">
        <ele>222</ele>
        <time>2012-12-09T11:18:12Z</time>
      </trkpt>
      <trkpt lat="45.8449" lon="4.82358">
        <ele>223</ele>
        <time>2012-12-09T11:18:17Z</time>
      </trkpt>
      <trkpt lat="45.84489" lon="4.82365">
        <ele>223</ele>
        <time>2012-12-09T11:18:19Z</time>
      </trkpt>
      <trkpt lat="45.84487" lon="4.82379">
        <ele>223</ele>
        <time>2012-12-09T11:18:23Z</time>
      </trkpt>
      <trkpt lat="45.84486" lon="4.82393">
        <ele>222</ele>
        <time>2012-12-09T11:18:27Z</time>
      </trkpt>
      <trkpt lat="45.84485" lon="4.82404">
        <ele>221</ele>
        <time>2012-12-09T11:18:30Z</time>
      </trkpt>
      <trkpt lat="45.84483" lon="4.82419">
        <ele>218</ele>
        <time>2012-12-09T11:18:34Z</time>
      </trkpt>
      <trkpt lat="45.84481" lon="4.8243">
        <ele>218</ele>
        <time>2012-12-09T11:18:37Z</time>
      </trkpt>
      <trkpt lat="45.8448" lon="4.82445">
        <ele>218</ele>
        <time>2012-12-09T11:18:41Z</time>
      </trkpt>
      <trkpt lat="45.84479" lon="4.82456">
        <ele>218</ele>
        <time>2012-12-09T11:18:44Z</time>
      </trkpt>
      <trkpt lat="45.84478" lon="4.82472">
        <ele>217</ele>
        <time>2012-12-09T11:18:48Z</time>
      </trkpt>
      <trkpt lat="45.84477" lon="4.82475">
        <ele>217</ele>
        <time>2012-12-09T11:18:49Z</time>
      </trkpt>
      <trkpt lat="45.84474" lon="4.82498">
        <ele>216</ele>
        <time>2012-12-09T11:18:56Z</time>
      </trkpt>
      <trkpt lat="45.84474" lon="4.82517">
        <ele>211</ele>
        <time>2012-12-09T11:19:01Z</time>
      </trkpt>
      <trkpt lat="45.84474" lon="4.82525">
        <ele>211</ele>
        <time>2012-12-09T11:19:03Z</time>
      </trkpt>
      <trkpt lat="45.84475" lon="4.82535">
        <ele>211</ele>
        <time>2012-12-09T11:19:06Z</time>
      </trkpt>
      <trkpt lat="45.84475" lon="4.82553">
        <ele>210</ele>
        <time>2012-12-09T11:19:11Z</time>
      </trkpt>
      <trkpt lat="45.84473" lon="4.82576">
        <ele>209</ele>
        <time>2012-12-09T11:19:17Z</time>
      </trkpt>
      <trkpt lat="45.84473" lon="4.82579">
        <ele>209</ele>
        <time>2012-12-09T11:19:18Z</time>
      </trkpt>
      <trkpt lat="45.84469" lon="4.82597">
        <ele>204</ele>
        <time>2012-12-09T11:19:23Z</time>
      </trkpt>
      <trkpt lat="45.84466" lon="4.82603">
        <ele>203</ele>
        <time>2012-12-09T11:19:25Z</time>
      </trkpt>
      <trkpt lat="45.84458" lon="4.82614">
        <ele>203</ele>
        <time>2012-12-09T11:19:29Z</time>
      </trkpt>
      <trkpt lat="45.8445" lon="4.82616">
        <ele>202</ele>
        <time>2012-12-09T11:19:32Z</time>
      </trkpt>
      <trkpt lat="45.84447" lon="4.82617">
        <ele>202</ele>
        <time>2012-12-09T11:19:33Z</time>
      </trkpt>
      <trkpt lat="45.84431" lon="4.8262">
        <ele>202</ele>
        <time>2012-12-09T11:19:39Z</time>
      </trkpt>
      <trkpt lat="45.84418" lon="4.82635">
        <ele>201</ele>
        <time>2012-12-09T11:19:46Z</time>
      </trkpt>
      <trkpt lat="45.84417" lon="4.82638">
        <ele>201</ele>
        <time>2012-12-09T11:19:47Z</time>
      </trkpt>
      <trkpt lat="45.8441" lon="4.82646">
        <ele>200</ele>
        <time>2012-12-09T11:19:51Z</time>
      </trkpt>
      <trkpt lat="45.844" lon="4.82651">
        <ele>200</ele>
        <time>2012-12-09T11:19:56Z</time>
      </trkpt>
      <trkpt lat="45.84386" lon="4.82655">
        <ele>200</ele>
        <time>2012-12-09T11:20:02Z</time>
      </trkpt>
      <trkpt lat="45.8438" lon="4.82656">
        <ele>200</ele>
        <time>2012-12-09T11:20:05Z</time>
      </trkpt>
      <trkpt lat="45.84375" lon="4.82659">
        <ele>200</ele>
        <time>2012-12-09T11:20:07Z</time>
      </trkpt>
      <trkpt lat="45.84365" lon="4.82657">
        <ele>200</ele>
        <time>2012-12-09T11:20:11Z</time>
      </trkpt>
      <trkpt lat="45.84361" lon="4.82656">
        <ele>199</ele>
        <time>2012-12-09T11:20:13Z</time>
      </trkpt>
      <trkpt lat="45.84349" lon="4.82656">
        <ele>199</ele>
        <time>2012-12-09T11:20:18Z</time>
      </trkpt>
      <trkpt lat="45.84341" lon="4.82656">
        <ele>198</ele>
        <time>2012-12-09T11:20:21Z</time>
      </trkpt>
      <trkpt lat="45.84338" lon="4.82656">
        <ele>198</ele>
        <time>2012-12-09T11:20:22Z</time>
      </trkpt>
      <trkpt lat="45.84335" lon="4.82656">
        <ele>198</ele>
        <time>2012-12-09T11:20:23Z</time>
      </trkpt>
      <trkpt lat="45.84322" lon="4.82655">
        <ele>198</ele>
        <time>2012-12-09T11:20:28Z</time>
      </trkpt>
      <trkpt lat="45.84319" lon="4.82654">
        <ele>198</ele>
        <time>2012-12-09T11:20:29Z</time>
      </trkpt>
      <trkpt lat="45.84307" lon="4.82653">
        <ele>199</ele>
        <time>2012-12-09T11:20:34Z</time>
      </trkpt>
      <trkpt lat="45.84302" lon="4.82653">
        <ele>199</ele>
        <time>2012-12-09T11:20:36Z</time>
      </trkpt>
      <trkpt lat="45.84289" lon="4.82651">
        <ele>199</ele>
        <time>2012-12-09T11:20:41Z</time>
      </trkpt>
      <trkpt lat="45.84282" lon="4.8265">
        <ele>199</ele>
        <time>2012-12-09T11:20:44Z</time>
      </trkpt>
      <trkpt lat="45.84272" lon="4.82648">
        <ele>198</ele>
        <time>2012-12-09T11:20:48Z</time>
      </trkpt>
      <trkpt lat="45.84263" lon="4.82649">
        <ele>198</ele>
        <time>2012-12-09T11:20:52Z</time>
      </trkpt>
      <trkpt lat="45.8426" lon="4.82649">
        <ele>198</ele>
        <time>2012-12-09T11:20:53Z</time>
      </trkpt>
      <trkpt lat="45.84248" lon="4.82651">
        <ele>198</ele>
        <time>2012-12-09T11:20:58Z</time>
      </trkpt>
      <trkpt lat="45.84244" lon="4.82653">
        <ele>197</ele>
        <time>2012-12-09T11:21:00Z</time>
      </trkpt>
      <trkpt lat="45.84237" lon="4.82657">
        <ele>198</ele>
        <time>2012-12-09T11:21:03Z</time>
      </trkpt>
      <trkpt lat="45.84225" lon="4.82663">
        <ele>199</ele>
        <time>2012-12-09T11:21:08Z</time>
      </trkpt>
      <trkpt lat="45.84212" lon="4.82671">
        <ele>192</ele>
        <time>2012-12-09T11:21:14Z</time>
      </trkpt>
      <trkpt lat="45.84207" lon="4.82673">
        <ele>193</ele>
        <time>2012-12-09T11:21:16Z</time>
      </trkpt>
      <trkpt lat="45.84199" lon="4.82679">
        <ele>193</ele>
        <time>2012-12-09T11:21:20Z</time>
      </trkpt>
      <trkpt lat="45.8419" lon="4.82684">
        <ele>194</ele>
        <time>2012-12-09T11:21:24Z</time>
      </trkpt>
      <trkpt lat="45.84187" lon="4.82685">
        <ele>194</ele>
        <time>2012-12-09T11:21:25Z</time>
      </trkpt>
      <trkpt lat="45.84175" lon="4.82691">
        <ele>194</ele>
        <time>2012-12-09T11:21:30Z</time>
      </trkpt>
      <trkpt lat="45.84172" lon="4.82693">
        <ele>194</ele>
        <time>2012-12-09T11:21:31Z</time>
      </trkpt>
      <trkpt lat="45.8416" lon="4.82699">
        <ele>195</ele>
        <time>2012-12-09T11:21:36Z</time>
      </trkpt>
      <trkpt lat="45.84154" lon="4.82701">
        <ele>195</ele>
        <time>2012-12-09T11:21:38Z</time>
      </trkpt>
      <trkpt lat="45.84145" lon="4.82705">
        <ele>195</ele>
        <time>2012-12-09T11:21:42Z</time>
      </trkpt>
      <trkpt lat="45.84136" lon="4.82707">
        <ele>194</ele>
        <time>2012-12-09T11:21:46Z</time>
      </trkpt>
      <trkpt lat="45.8413" lon="4.8271">
        <ele>194</ele>
        <time>2012-12-09T11:21:48Z</time>
      </trkpt>
      <trkpt lat="45.84117" lon="4.82716">
        <ele>194</ele>
        <time>2012-12-09T11:21:53Z</time>
      </trkpt>
      <trkpt lat="45.84104" lon="4.82721">
        <ele>194</ele>
        <time>2012-12-09T11:21:58Z</time>
      </trkpt>
      <trkpt lat="45.84099" lon="4.82723">
        <ele>193</ele>
        <time>2012-12-09T11:22:00Z</time>
      </trkpt>
      <trkpt lat="45.84089" lon="4.82726">
        <ele>193</ele>
        <time>2012-12-09T11:22:04Z</time>
      </trkpt>
      <trkpt lat="45.84081" lon="4.82729">
        <ele>193</ele>
        <time>2012-12-09T11:22:07Z</time>
      </trkpt>
      <trkpt lat="45.84075" lon="4.82731">
        <ele>193</ele>
        <time>2012-12-09T11:22:09Z</time>
      </trkpt>
      <trkpt lat="45.84062" lon="4.82735">
        <ele>193</ele>
        <time>2012-12-09T11:22:14Z</time>
      </trkpt>
      <trkpt lat="45.84059" lon="4.82736">
        <ele>193</ele>
        <time>2012-12-09T11:22:15Z</time>
      </trkpt>
      <trkpt lat="45.84046" lon="4.8274">
        <ele>193</ele>
        <time>2012-12-09T11:22:20Z</time>
      </trkpt>
      <trkpt lat="45.84044" lon="4.8274">
        <ele>193</ele>
        <time>2012-12-09T11:22:21Z</time>
      </trkpt>
      <trkpt lat="45.84031" lon="4.82745">
        <ele>193</ele>
        <time>2012-12-09T11:22:26Z</time>
      </trkpt>
      <trkpt lat="45.84024" lon="4.82746">
        <ele>193</ele>
        <time>2012-12-09T11:22:29Z</time>
      </trkpt>
      <trkpt lat="45.84021" lon="4.82747">
        <ele>192</ele>
        <time>2012-12-09T11:22:30Z</time>
      </trkpt>
      <trkpt lat="45.84017" lon="4.8275">
        <ele>187</ele>
        <time>2012-12-09T11:22:32Z</time>
      </trkpt>
      <trkpt lat="45.84007" lon="4.8276">
        <ele>187</ele>
        <time>2012-12-09T11:22:37Z</time>
      </trkpt>
      <trkpt lat="45.84005" lon="4.82762">
        <ele>187</ele>
        <time>2012-12-09T11:22:38Z</time>
      </trkpt>
      <trkpt lat="45.83994" lon="4.8278">
        <ele>186</ele>
        <time>2012-12-09T11:22:44Z</time>
      </trkpt>
      <trkpt lat="45.83986" lon="4.82796">
        <ele>185</ele>
        <time>2012-12-09T11:22:49Z</time>
      </trkpt>
      <trkpt lat="45.83982" lon="4.82802">
        <ele>185</ele>
        <time>2012-12-09T11:22:51Z</time>
      </trkpt>
      <trkpt lat="45.83977" lon="4.82811">
        <ele>185</ele>
        <time>2012-12-09T11:22:54Z</time>
      </trkpt>
      <trkpt lat="45.8397" lon="4.82818">
        <ele>184</ele>
        <time>2012-12-09T11:22:57Z</time>
      </trkpt>
      <trkpt lat="45.83968" lon="4.82819">
        <ele>184</ele>
        <time>2012-12-09T11:22:58Z</time>
      </trkpt>
      <trkpt lat="45.83965" lon="4.82819">
        <ele>185</ele>
        <time>2012-12-09T11:22:59Z</time>
      </trkpt>
      <trkpt lat="45.83953" lon="4.82812">
        <ele>185</ele>
        <time>2012-12-09T11:23:04Z</time>
      </trkpt>
      <trkpt lat="45.83949" lon="4.82808">
        <ele>185</ele>
        <time>2012-12-09T11:23:06Z</time>
      </trkpt>
      <trkpt lat="45.83945" lon="4.82802">
        <ele>185</ele>
        <time>2012-12-09T11:23:09Z</time>
      </trkpt>
      <trkpt lat="45.8394" lon="4.82796">
        <ele>186</ele>
        <time>2012-12-09T11:23:12Z</time>
      </trkpt>
      <trkpt lat="45.83937" lon="4.82792">
        <ele>186</ele>
        <time>2012-12-09T11:23:14Z</time>
      </trkpt>
      <trkpt lat="45.83935" lon="4.8279">
        <ele>186</ele>
        <time>2012-12-09T11:23:15Z</time>
      </trkpt>
      <trkpt lat="45.8393" lon="4.82783">
        <ele>186</ele>
        <time>2012-12-09T11:23:19Z</time>
      </trkpt>
      <trkpt lat="45.83922" lon="4.82774">
        <ele>187</ele>
        <time>2012-12-09T11:23:24Z</time>
      </trkpt>
      <trkpt lat="45.83921" lon="4.82772">
        <ele>187</ele>
        <time>2012-12-09T11:23:25Z</time>
      </trkpt>
      <trkpt lat="45.83913" lon="4.82765">
        <ele>189</ele>
        <time>2012-12-09T11:23:29Z</time>
      </trkpt>
      <trkpt lat="45.83908" lon="4.82761">
        <ele>189</ele>
        <time>2012-12-09T11:23:32Z</time>
      </trkpt>
      <trkpt lat="45.83904" lon="4.82757">
        <ele>189</ele>
        <time>2012-12-09T11:23:34Z</time>
      </trkpt>
      <trkpt lat="45.83898" lon="4.82751">
        <ele>189</ele>
        <time>2012-12-09T11:23:37Z</time>
      </trkpt>
      <trkpt lat="45.83894" lon="4.82748">
        <ele>191</ele>
        <time>2012-12-09T11:23:39Z</time>
      </trkpt>
      <trkpt lat="45.83888" lon="4.82744">
        <ele>191</ele>
        <time>2012-12-09T11:23:42Z</time>
      </trkpt>
      <trkpt lat="45.8388" lon="4.82737">
        <ele>191</ele>
        <time>2012-12-09T11:23:46Z</time>
      </trkpt>
      <trkpt lat="45.83872" lon="4.82731">
        <ele>191</ele>
        <time>2012-12-09T11:23:50Z</time>
      </trkpt>
      <trkpt lat="45.83869" lon="4.82729">
        <ele>191</ele>
        <time>2012-12-09T11:23:52Z</time>
      </trkpt>
      <trkpt lat="45.83866" lon="4.82726">
        <ele>191</ele>
        <time>2012-12-09T11:23:54Z</time>
      </trkpt>
      <trkpt lat="45.83863" lon="4.82721">
        <ele>191</ele>
        <time>2012-12-09T11:23:56Z</time>
      </trkpt>
      <trkpt lat="45.83859" lon="4.82713">
        <ele>191</ele>
        <time>2012-12-09T11:23:58Z</time>
      </trkpt>
      <trkpt lat="45.83863" lon="4.82704">
        <ele>191</ele>
        <time>2012-12-09T11:24:01Z</time>
      </trkpt>
      <trkpt lat="45.83857" lon="4.82689">
        <ele>191</ele>
        <time>2012-12-09T11:24:06Z</time>
      </trkpt>
      <trkpt lat="45.83858" lon="4.82687">
        <ele>192</ele>
        <time>2012-12-09T11:24:07Z</time>
      </trkpt>
      <trkpt lat="45.83857" lon="4.82683">
        <ele>192</ele>
        <time>2012-12-09T11:24:08Z</time>
      </trkpt>
      <trkpt lat="45.83856" lon="4.82677">
        <ele>192</ele>
        <time>2012-12-09T11:24:10Z</time>
      </trkpt>
      <trkpt lat="45.83851" lon="4.8266">
        <ele>194</ele>
        <time>2012-12-09T11:24:15Z</time>
      </trkpt>
      <trkpt lat="45.83851" lon="4.82657">
        <ele>194</ele>
        <time>2012-12-09T11:24:16Z</time>
      </trkpt>
      <trkpt lat="45.83846" lon="4.8264">
        <ele>195</ele>
        <time>2012-12-09T11:24:21Z</time>
      </trkpt>
      <trkpt lat="45.83843" lon="4.82631">
        <ele>195</ele>
        <time>2012-12-09T11:24:24Z</time>
      </trkpt>
      <trkpt lat="45.83842" lon="4.82625">
        <ele>195</ele>
        <time>2012-12-09T11:24:26Z</time>
      </trkpt>
      <trkpt lat="45.83837" lon="4.82607">
        <ele>196</ele>
        <time>2012-12-09T11:24:32Z</time>
      </trkpt>
      <trkpt lat="45.83835" lon="4.82588">
        <ele>195</ele>
        <time>2012-12-09T11:24:38Z</time>
      </trkpt>
      <trkpt lat="45.83834" lon="4.82582">
        <ele>195</ele>
        <time>2012-12-09T11:24:40Z</time>
      </trkpt>
      <trkpt lat="45.83833" lon="4.82579">
        <ele>194</ele>
        <time>2012-12-09T11:24:41Z</time>
      </trkpt>
      <trkpt lat="45.83832" lon="4.82572">
        <ele>195</ele>
        <time>2012-12-09T11:24:43Z</time>
      </trkpt>
      <trkpt lat="45.83832" lon="4.82566">
        <ele>195</ele>
        <time>2012-12-09T11:24:45Z</time>
      </trkpt>
      <trkpt lat="45.83833" lon="4.82554">
        <ele>196</ele>
        <time>2012-12-09T11:24:49Z</time>
      </trkpt>
      <trkpt lat="45.83832" lon="4.82551">
        <ele>196</ele>
        <time>2012-12-09T11:24:50Z</time>
      </trkpt>
      <trkpt lat="45.83828" lon="4.8254">
        <ele>196</ele>
        <time>2012-12-09T11:24:54Z</time>
      </trkpt>
      <trkpt lat="45.83827" lon="4.82532">
        <ele>197</ele>
        <time>2012-12-09T11:24:58Z</time>
      </trkpt>
      <trkpt lat="45.83827" lon="4.8253">
        <ele>197</ele>
        <time>2012-12-09T11:24:59Z</time>
      </trkpt>
      <trkpt lat="45.83827" lon="4.82525">
        <ele>197</ele>
        <time>2012-12-09T11:25:01Z</time>
      </trkpt>
      <trkpt lat="45.83826" lon="4.8252">
        <ele>197</ele>
        <time>2012-12-09T11:25:03Z</time>
      </trkpt>
    </trkseg>
  </trk>
</gpx>